<
# Wetter Temperatur Luftdruck Luftfeuchtigkeit Sichtweite Windgeschwindigkeit Windrichtung Zeit
1 Clouds 27 1007 95 10000 0 0 21:42 02.12.2021
2 Clouds 28 1007 92 10000 0 0 20:49 02.12.2021
3 Clouds 28 1007 92 10000 0 0 20:29 02.12.2021
4 Clouds 27 1007 89 10000 0 0 19:23 02.12.2021
5 Clouds 28 1007 83 10000 1.03 90 17:30 02.12.2021
6 Rain 29 1008 76 10000 2.06 240 15:42 02.12.2021
7 Rain 29 1008 76 10000 2.06 260 14:57 02.12.2021
8 Rain 29 1008 74 10000 1.54 240 13:54 02.12.2021
9 Clouds 29 1008 80 10000 2.06 240 12:52 02.12.2021
10 Clear 30 1008 78 10000 3.09 250 11:55 02.12.2021
11 Clouds 30 1006 64 10000 5.14 310 09:29 02.12.2021
12 Clouds 31 1005 64 10000 5.66 340 08:27 02.12.2021
13 Clouds 34 1008 59 10000 3.6 220 03:33 02.12.2021
14 Clouds 31 1010 75 10000 3.09 220 00:51 02.12.2021
15 Clouds 29 1008 87 10000 2.06 230 22:41 01.12.2021
16 Clouds 29 1008 88 10000 2.06 230 22:23 01.12.2021
17 Clouds 29 1007 84 10000 3.6 270 20:36 01.12.2021
18 Clouds 29 1007 84 10000 3.6 270 20:36 01.12.2021
19 Clouds 29 1006 85 10000 3.09 270 19:51 01.12.2021
20 Clouds 29 1006 83 10000 3.09 280 19:21 01.12.2021
21 Clouds 29 1008 87 10000 2.57 290 17:45 01.12.2021
22 Clouds 29 1008 87 10000 2.57 290 17:45 01.12.2021
23 Clouds 29 1007 98 10000 3.6 290 16:40 01.12.2021
24 Clear 29 1008 81 10000 2.57 290 14:50 01.12.2021
25 Clear 28 1008 78 10000 2.06 260 13:44 01.12.2021
26 Clear 27 1008 83 10000 1.03 180 12:30 01.12.2021
27 Clouds 28 1006 74 10000 4.63 240 10:42 01.12.2021
28 Clouds 27 1005 100 10000 3.09 330 08:58 01.12.2021
29 Clouds 28 1005 100 10000 5.14 310 08:26 01.12.2021
30 Thunderstorm 25 1006 94 6000 7.2 180 07:33 01.12.2021
31 Clouds 34 1008 61 10000 4.63 320 04:22 01.12.2021
32 Clouds 33 1009 64 10000 4.12 310 03:41 01.12.2021
33 Clouds 32 1009 68 10000 2.06 260 00:52 01.12.2021
34 Clouds 31 1009 73 10000 1.54 280 23:45 30.11.2021
35 Clouds 28 1008 89 10000 0 0 22:49 30.11.2021
36 Clouds 27 1007 86 10000 0.51 10 21:28 30.11.2021
37 Clouds 28 1007 85 10000 1.03 10 20:37 30.11.2021
38 Clouds 28 1006 84 10000 2.06 330 19:53 30.11.2021
39 Clouds 28 1006 82 10000 2.57 290 19:30 30.11.2021
40 Clouds 29 1005 79 10000 3.6 300 18:35 30.11.2021
41 Clouds 29 1007 81 10000 3.6 290 16:35 30.11.2021
42 Clouds 29 1007 80 10000 3.09 270 15:18 30.11.2021
43 Clear 29 1007 79 10000 3.09 270 14:20 30.11.2021
44 Clear 29 1007 78 10000 3.6 280 13:25 30.11.2021
45 Clear 29 1006 78 10000 3.6 290 12:45 30.11.2021
46 Clear 29 1005 78 10000 4.63 280 11:27 30.11.2021
47 Clear 30 1005 77 10000 5.14 280 10:56 30.11.2021
48 Clouds 30 1005 78 10000 5.14 270 10:31 30.11.2021
49 Clouds 33 1004 68 10000 6.69 320 08:52 30.11.2021
50 Clouds 34 1004 58 10000 7.72 310 08:20 30.11.2021
51 Clouds 34 1004 57 10000 7.72 310 07:47 30.11.2021
52 Clouds 32 1009 62 10000 3.09 220 02:41 30.11.2021
53 Clouds 32 1009 69 10000 3.6 200 01:41 30.11.2021
54 Clouds 30 1009 72 10000 3.6 200 00:19 30.11.2021
55 Clouds 28 1008 79 10000 2.57 140 23:24 29.11.2021
56 Clouds 27 1008 83 10000 3.09 110 22:55 29.11.2021
57 Clouds 27 1008 85 10000 3.6 110 22:33 29.11.2021
58 Clear 27 1006 84 10000 0 0 21:29 29.11.2021
59 Clouds 27 1006 84 10000 0 0 20:59 29.11.2021
60 Clouds 27 1006 84 10000 0 0 20:32 29.11.2021
61 Clouds 27 1006 82 10000 1.03 250 19:55 29.11.2021
62 Clouds 28 1006 79 10000 2.06 250 19:35 29.11.2021
63 Clouds 29 1006 76 10000 2.57 260 18:51 29.11.2021
64 Clouds 29 1006 70 10000 3.31 262 17:49 29.11.2021
65 Clouds 29 1006 69 10000 4.28 249 17:18 29.11.2021
66 Clouds 29 1007 68 10000 4.33 244 16:29 29.11.2021
67 Clouds 29 1007 68 10000 4.33 244 15:50 29.11.2021
68 Clouds 30 1008 67 10000 4.04 248 14:43 29.11.2021
69 Clouds 30 1008 66 10000 3.98 256 13:33 29.11.2021
70 Clouds 30 1007 64 10000 4.31 268 12:37 29.11.2021
71 Clouds 30 1006 64 10000 4.41 285 11:40 29.11.2021
72 Clouds 30 1006 64 10000 4.8 295 10:51 29.11.2021
73 Clouds 33 1005 55 10000 4.63 280 09:34 29.11.2021
74 Clouds 32 1006 58 10000 4.63 360 06:20 29.11.2021
75 Clouds 32 1010 55 10000 1.54 20 02:28 29.11.2021
76 Clouds 30 1009 70 10000 2.06 140 00:42 29.11.2021
77 Clouds 30 1009 70 10000 2.06 170 23:44 28.11.2021
78 Clouds 29 1009 74 10000 1.54 130 23:23 28.11.2021
79 Clouds 26 1007 89 10000 3.09 120 21:49 28.11.2021
80 Clouds 27 1007 83 10000 1.03 260 21:23 28.11.2021
81 Clouds 26 1006 89 10000 0 0 20:34 28.11.2021
82 Clouds 26 1006 94 10000 0 0 19:25 28.11.2021
83 Clouds 27 1006 83 10000 0 0 18:35 28.11.2021
84 Clouds 27 1006 83 10000 0.51 260 17:55 28.11.2021
85 Clouds 27 1007 89 10000 1.03 260 17:31 28.11.2021
86 Clouds 28 1007 78 10000 2.06 280 16:40 28.11.2021
87 Clouds 28 1007 78 10000 2.06 280 16:18 28.11.2021
88 Clouds 28 1008 78 10000 1.03 310 15:31 28.11.2021
89 Clouds 28 1008 78 10000 1.54 320 14:46 28.11.2021
90 Clear 28 1008 78 10000 2.57 20 13:22 28.11.2021
91 Clear 29 1008 74 10000 2.06 360 12:48 28.11.2021
92 Clouds 30 1007 70 10000 3.6 360 11:18 28.11.2021
93 Clouds 30 1007 70 10000 5.14 30 10:21 28.11.2021
94 Clouds 32 1006 51 10000 5.14 10 09:38 28.11.2021
95 Clouds 31 1006 58 10000 5.14 20 07:49 28.11.2021
96 Clouds 28 1010 78 10000 3.6 100 00:20 28.11.2021
97 Clouds 25 1008 88 10000 2.57 130 21:20 27.11.2021
98 Clouds 25 1007 100 10000 0 0 19:47 27.11.2021
99 Clouds 25 1007 94 10000 0 0 17:27 27.11.2021
100 Clouds 25 1008 94 10000 0.51 190 15:58 27.11.2021
101 Clear 25 1008 94 10000 0 0 13:58 27.11.2021
102 Clouds 26 1008 94 10000 0.51 190 12:57 27.11.2021
103 Clear 27 1007 83 10000 1.03 90 10:52 27.11.2021
104 Clouds 27 1007 83 10000 3.09 150 09:53 27.11.2021
105 Clouds 28 1006 78 10000 3.09 180 08:44 27.11.2021
106 Rain 26 1007 89 10000 1.03 240 06:34 27.11.2021
107 Rain 24 1011 88 10000 0 0 01:59 27.11.2021
108 Rain 23 1010 100 8000 2.57 110 23:39 26.11.2021
109 Clouds 25 1009 78 10000 3.6 100 22:26 26.11.2021
110 Clouds 25 1008 83 10000 6.69 100 21:39 26.11.2021
111 Clouds 25 1008 83 10000 6.69 100 21:18 26.11.2021
112 Rain 25 1007 83 10000 7.72 100 20:40 26.11.2021
113 Clouds 26 1007 83 10000 6.17 100 19:55 26.11.2021
114 Clouds 26 1007 83 10000 1.03 360 18:44 26.11.2021
115 Clouds 26 1007 83 10000 2.06 350 17:24 26.11.2021
116 Clouds 26 1008 89 10000 2.57 40 16:29 26.11.2021
117 Clouds 28 1009 74 10000 5.66 90 14:25 26.11.2021
118 Clouds 30 1007 70 10000 2.57 320 13:31 26.11.2021
119 Clouds 29 1006 61 10000 3.6 100 10:43 26.11.2021
120 Clouds 33 1005 52 10000 6.69 300 09:41 26.11.2021
121 Rain 34 1004 52 10000 6.69 300 08:50 26.11.2021
122 Clouds 34 1004 54 10000 6.69 300 08:19 26.11.2021
123 Clouds 34 1005 57 10000 5.66 290 06:30 26.11.2021
124 Clouds 34 1006 52 10000 3.6 300 04:52 26.11.2021
125 Clouds 33 1008 58 10000 3.09 290 03:34 26.11.2021
126 Clouds 28 1008 75 10000 2.57 100 23:30 25.11.2021
127 Clouds 26 1007 85 10000 2.57 90 22:25 25.11.2021
128 Clouds 25 1006 88 10000 2.57 90 20:43 25.11.2021
129 Clouds 25 1006 85 10000 1.54 100 19:21 25.11.2021
130 Clouds 26 1006 83 10000 1.03 80 18:25 25.11.2021
131 Clouds 26 1007 89 10000 1.54 130 17:27 25.11.2021
132 Clouds 26 1007 89 10000 2.57 150 16:45 25.11.2021
133 Clear 27 1007 78 10000 1.03 160 16:00 25.11.2021
134 Clouds 27 1007 79 10000 3.09 140 14:31 25.11.2021
135 Clear 27 1007 73 10000 1.03 80 12:57 25.11.2021
136 Clear 28 1006 71 10000 1.54 30 11:57 25.11.2021
137 Clear 29 1006 68 10000 1.54 80 10:49 25.11.2021
138 Clouds 28 1007 74 10000 8.75 170 08:28 25.11.2021
139 Clouds 33 1007 55 10000 4.63 330 03:18 25.11.2021
140 Clouds 33 1008 58 10000 4.12 310 02:43 25.11.2021
141 Clouds 27 1007 88 10000 1.03 350 22:41 24.11.2021
142 Clouds 27 1007 82 10000 1.03 330 21:57 24.11.2021
143 Clouds 27 1006 82 10000 1.54 330 21:22 24.11.2021
144 Clouds 28 1006 84 10000 1.54 320 20:28 24.11.2021
145 Clouds 28 1006 78 10000 2.06 300 19:40 24.11.2021
146 Clouds 29 1006 76 10000 2.57 300 18:29 24.11.2021
147 Clouds 29 1007 75 10000 3.6 300 16:48 24.11.2021
148 Clouds 29 1007 74 10000 3.6 330 15:22 24.11.2021
149 Clouds 30 1007 73 10000 3.6 300 14:31 24.11.2021
150 Clouds 30 1007 77 10000 3.6 310 13:51 24.11.2021
151 Clouds 30 1006 75 10000 4.63 330 11:49 24.11.2021
152 Clouds 31 1005 68 10000 4.12 310 11:19 24.11.2021
153 Clouds 32 1005 62 10000 3.6 300 10:38 24.11.2021
154 Clouds 33 1005 59 10000 3.09 300 09:40 24.11.2021
155 Clouds 34 1004 55 10000 5.14 300 07:42 24.11.2021
156 Clouds 34 1005 59 10000 5.14 300 06:21 24.11.2021
157 Clouds 33 1008 62 10000 3.6 320 03:47 24.11.2021
158 Clouds 30 1008 81 10000 0.51 70 23:42 23.11.2021
159 Clouds 28 1007 87 10000 1.03 40 22:39 23.11.2021
160 Clouds 28 1007 87 10000 1.03 160 21:46 23.11.2021
161 Clouds 29 1010 79 10000 1.54 240 20:47 23.11.2021
162 Clouds 29 1007 78 10000 2.06 290 19:37 23.11.2021
163 Clouds 29 1006 78 10000 3.09 310 18:37 23.11.2021
164 Clouds 29 1006 78 10000 3.09 320 17:57 23.11.2021
165 Clouds 29 1007 78 10000 3.09 300 16:54 23.11.2021
166 Clouds 29 1007 78 10000 3.09 300 16:54 23.11.2021
167 Clouds 29 1007 78 10000 3.09 290 15:41 23.11.2021
168 Clouds 29 1007 78 10000 3.09 290 15:19 23.11.2021
169 Clouds 29 1007 78 10000 3.09 290 13:43 23.11.2021
170 Clouds 31 1006 70 10000 4.12 260 10:41 23.11.2021
171 Clouds 31 1005 70 10000 5.14 280 09:57 23.11.2021
172 Clouds 33 1004 61 10000 5.66 300 08:43 23.11.2021
173 Clouds 33 1006 58 10000 5.66 310 05:57 23.11.2021
174 Clouds 33 1008 62 10000 3.6 330 03:42 23.11.2021
175 Clouds 32 1009 64 10000 2.06 340 00:28 23.11.2021
176 Clouds 30 1008 78 10000 1.03 330 23:20 22.11.2021
177 Clouds 27 1008 89 10000 0.51 330 22:32 22.11.2021
178 Clouds 26 1007 90 10000 0 0 21:46 22.11.2021
179 Clouds 27 1007 89 10000 1.54 330 21:26 22.11.2021
180 Clouds 26 1007 89 10000 1.03 320 20:49 22.11.2021
181 Clouds 26 1007 89 10000 1.03 320 20:49 22.11.2021
182 Clouds 28 1006 85 10000 1.54 330 19:26 22.11.2021
183 Clouds 28 1006 82 10000 2.57 330 18:58 22.11.2021
184 Clouds 28 1006 82 10000 2.57 310 18:35 22.11.2021
185 Clouds 29 1007 81 10000 3.6 310 16:56 22.11.2021
186 Clouds 29 1008 75 10000 4.63 320 15:42 22.11.2021
187 Clouds 29 1008 74 10000 4.63 320 12:56 22.11.2021
188 Clouds 30 1007 72 10000 4.63 300 11:41 22.11.2021
189 Clear 31 1007 66 10000 5.14 290 10:38 22.11.2021
190 Clouds 32 1006 58 10000 6.17 300 09:24 22.11.2021
191 Clouds 32 1006 59 10000 5.66 290 08:36 22.11.2021
192 Clouds 33 1008 52 10000 4.63 320 04:32 22.11.2021
193 Clouds 29 1009 79 10000 1.03 350 23:23 21.11.2021
194 Clouds 28 1009 88 10000 1.03 290 22:46 21.11.2021
195 Clouds 27 1007 90 10000 1.54 330 21:40 21.11.2021
196 Clouds 27 1007 90 10000 4.63 310 20:41 21.11.2021
197 Clouds 26 1007 93 10000 1.03 10 19:46 21.11.2021
198 Clouds 27 1008 87 10000 2.57 330 17:59 21.11.2021
199 Clouds 27 1008 85 10000 5.66 10 17:37 21.11.2021
200 Clouds 29 1009 81 10000 4.12 280 15:25 21.11.2021
201 Clouds 29 1010 80 9000 4.12 270 14:44 21.11.2021
202 Clouds 30 1009 77 10000 4.12 280 13:40 21.11.2021
203 Clouds 30 1009 76 10000 4.63 260 12:35 21.11.2021
204 Clouds 30 1007 74 10000 4.63 270 11:42 21.11.2021
205 Clouds 30 1007 74 10000 5.14 280 10:55 21.11.2021
206 Clouds 31 1006 67 10000 4.63 290 10:18 21.11.2021
207 Clouds 34 1006 49 10000 4.12 330 08:40 21.11.2021
208 Clouds 34 1006 49 10000 4.12 330 08:20 21.11.2021
209 Clear 35 1006 46 10000 5.66 330 07:41 21.11.2021
210 Clear 34 1007 49 10000 5.14 330 05:49 21.11.2021
211 Clouds 35 1008 49 10000 5.14 340 05:19 21.11.2021
212 Clouds 34 1009 52 10000 4.63 10 03:18 21.11.2021
213 Clouds 33 1010 53 10000 4.12 20 02:50 21.11.2021
214 Clouds 32 1010 63 10000 4.12 50 00:56 21.11.2021
215 Clouds 30 1010 74 10000 1.54 110 23:43 20.11.2021
216 Clouds 28 1008 84 10000 1.54 70 21:40 20.11.2021
217 Clouds 28 1008 84 10000 1.54 70 20:54 20.11.2021
218 Clouds 29 1007 81 10000 1.54 20 18:46 20.11.2021
219 Clouds 29 1007 84 10000 2.57 20 18:26 20.11.2021
220 Clouds 29 1009 78 10000 1.54 10 17:26 20.11.2021
221 Clouds 30 1010 76 10000 2.57 10 16:46 20.11.2021
222 Clouds 30 1009 76 10000 2.57 10 14:46 20.11.2021
223 Clouds 30 1009 79 10000 2.57 10 14:24 20.11.2021
224 Clouds 30 1008 77 10000 2.06 330 12:22 20.11.2021
225 Clouds 31 1007 66 10000 4.63 360 10:35 20.11.2021
226 Clouds 33 1006 62 10000 5.14 20 09:39 20.11.2021
227 Clouds 33 1006 62 10000 5.14 20 09:39 20.11.2021
228 Clouds 35 1006 52 10000 6.17 20 07:37 20.11.2021
229 Clouds 35 1008 45 10000 7.72 50 05:28 20.11.2021
230 Clouds 35 1008 48 10000 7.2 60 04:50 20.11.2021
231 Clouds 33 1010 62 10000 4.12 70 01:58 20.11.2021
232 Clouds 31 1010 71 10000 4.12 100 00:40 20.11.2021
233 Clouds 29 1009 80 10000 3.6 100 23:41 19.11.2021
234 Clouds 28 1008 84 10000 3.09 90 22:21 19.11.2021
235 Clouds 27 1007 85 10000 1.54 120 20:58 19.11.2021
236 Clouds 27 1007 86 10000 1.54 130 20:36 19.11.2021
237 Clouds 27 1009 83 10000 1.54 100 19:55 19.11.2021
238 Clouds 27 1009 85 10000 1.03 80 18:54 19.11.2021
239 Clouds 28 1009 82 10000 1.54 80 18:24 19.11.2021
240 Rain 29 1008 81 10000 1.54 70 17:36 19.11.2021
241 Clear 29 1008 80 10000 2.57 360 15:58 19.11.2021
242 Clear 30 1008 75 10000 3.09 40 13:55 19.11.2021
243 Clouds 31 1006 67 10000 3.6 60 10:28 19.11.2021
244 Clouds 32 1005 65 10000 4.63 20 09:38 19.11.2021
245 Clouds 32 1006 64 10000 3.09 30 08:24 19.11.2021
246 Clouds 34 1008 56 10000 3.6 50 04:53 19.11.2021
247 Clouds 30 1009 66 10000 3.6 80 02:40 19.11.2021
248 Clouds 27 1010 69 10000 8.75 40 23:52 18.11.2021
249 Clouds 27 1012 89 10000 0 0 22:21 18.11.2021
250 Clouds 27 1007 86 10000 0.51 350 20:50 18.11.2021
251 Clouds 27 1007 86 10000 0 0 20:31 18.11.2021
252 Clouds 27 1007 85 10000 0 0 19:55 18.11.2021
253 Clouds 27 1007 83 10000 0 0 19:34 18.11.2021
254 Clouds 28 1007 82 10000 1.54 350 18:34 18.11.2021
255 Clouds 28 1007 81 10000 1.03 330 17:51 18.11.2021
256 Clouds 28 1008 78 10000 1.54 360 16:45 18.11.2021
257 Clouds 28 1008 78 10000 1.54 360 16:45 18.11.2021
258 Clear 29 1007 74 10000 2.06 340 15:51 18.11.2021
259 Clouds 29 1011 80 10000 1.03 280 13:59 18.11.2021
260 Clear 30 1006 72 10000 2.06 240 12:34 18.11.2021
261 Clear 30 1006 71 10000 3.09 260 11:43 18.11.2021
262 Clear 30 1006 71 10000 3.09 260 11:25 18.11.2021
263 Clouds 31 1005 67 10000 4.12 280 10:19 18.11.2021
264 Clouds 34 1006 55 10000 5.66 300 07:39 18.11.2021
265 Clouds 35 1007 54 10000 5.66 320 05:59 18.11.2021
266 Clouds 35 1011 53 10000 4.63 300 05:39 18.11.2021
267 Clouds 33 1013 55 10000 2.06 30 01:24 18.11.2021
268 Clouds 29 1009 71 10000 1.54 130 23:25 17.11.2021
269 Clouds 26 1008 84 10000 2.57 140 22:34 17.11.2021
270 Clouds 25 1008 86 10000 2.57 140 21:55 17.11.2021
271 Clouds 26 1008 84 10000 2.06 150 21:35 17.11.2021
272 Clouds 26 1007 89 10000 0.51 320 19:27 17.11.2021
273 Clouds 27 1008 78 10000 2.06 350 17:31 17.11.2021
274 Clouds 28 1009 73 10000 3.09 340 15:23 17.11.2021
275 Clear 29 1009 65 10000 2.06 290 12:51 17.11.2021
276 Clear 30 1008 64 10000 2.06 270 12:25 17.11.2021
277 Clear 30 1008 60 10000 2.57 300 10:51 17.11.2021
278 Clear 33 1007 50 10000 3.6 310 09:29 17.11.2021
279 Clear 34 1007 46 10000 4.63 310 07:46 17.11.2021
280 Clear 34 1008 47 10000 5.66 310 06:42 17.11.2021
281 Clear 34 1011 39 10000 2.57 70 02:47 17.11.2021
282 Clouds 29 1011 66 10000 1.54 140 23:46 16.11.2021
283 Clouds 24 1010 83 10000 1.03 130 22:20 16.11.2021
284 Clouds 25 1008 73 10000 1.54 150 20:19 16.11.2021
285 Clouds 25 1008 73 10000 2.57 150 19:37 16.11.2021
286 Clouds 25 1008 78 10000 1.03 40 18:43 16.11.2021
287 Clouds 25 1008 78 10000 1.03 40 17:44 16.11.2021
288 Clouds 25 1009 73 10000 1.03 40 16:59 16.11.2021
289 Clouds 26 1009 69 10000 1.03 50 16:19 16.11.2021
290 Clear 26 1009 61 10000 1.03 30 15:42 16.11.2021
291 Clear 28 1009 54 10000 1.54 10 13:42 16.11.2021
292 Clear 31 1008 46 10000 3.6 360 10:22 16.11.2021
293 Clear 32 1008 43 10000 4.63 360 09:39 16.11.2021
294 Clear 35 1007 31 10000 6.17 300 07:41 16.11.2021
295 Clear 37 1008 18 10000 3.09 140 06:43 16.11.2021
296 Clouds 26 1010 50 10000 3.6 130 23:26 15.11.2021
297 Clouds 25 1009 66 10000 3.09 150 22:41 15.11.2021
298 Clouds 24 1009 86 10000 2.57 150 21:57 15.11.2021
299 Clear 24 1009 87 10000 2.06 150 21:31 15.11.2021
300 Clouds 25 1008 91 10000 2.86 142 20:43 15.11.2021
301 Clouds 25 1008 87 10000 2.29 140 19:26 15.11.2021
302 Clouds 26 1008 83 10000 2.49 163 17:33 15.11.2021
303 Clear 26 1009 78 10000 0 0 15:52 15.11.2021
304 Clear 26 1009 78 10000 1.03 270 15:33 15.11.2021
305 Clear 28 1009 70 10000 1.54 270 14:27 15.11.2021
306 Clear 28 1009 67 10000 1.54 290 12:38 15.11.2021
307 Clear 30 1007 53 10000 1.54 350 10:33 15.11.2021
308 Clouds 33 1007 47 10000 2.57 350 09:22 15.11.2021
309 Clear 35 1007 24 10000 3.09 210 07:23 15.11.2021
310 Clouds 31 1011 64 10000 3.09 120 00:56 15.11.2021
311 Clouds 27 1011 81 10000 1.54 140 22:44 14.11.2021
312 Clouds 26 1011 82 10000 1.54 130 22:19 14.11.2021
313 Clouds 27 1008 79 10000 2.57 45 19:22 14.11.2021
314 Clouds 26 1008 81 10000 2.57 45 18:55 14.11.2021
315 Clouds 26 1008 80 10000 2.57 45 18:36 14.11.2021
316 Clouds 26 1008 80 10000 2.89 41 18:18 14.11.2021
317 Clouds 27 1008 80 10000 2.89 41 17:58 14.11.2021
318 Clouds 28 1009 76 10000 2.89 41 17:40 14.11.2021
319 Clouds 28 1009 76 10000 2.97 7 17:22 14.11.2021
320 Clouds 29 1009 73 10000 2.24 360 16:59 14.11.2021
321 Clouds 29 1010 73 10000 2.24 360 16:40 14.11.2021
322 Clouds 29 1010 73 10000 2.24 360 16:19 14.11.2021
323 Clouds 29 1010 73 10000 3.09 360 15:20 14.11.2021
324 Clear 30 1010 73 10000 3.6 10 14:45 14.11.2021
325 Clear 29 1010 73 10000 3.09 20 14:22 14.11.2021
326 Clear 29 1010 73 10000 2.06 20 13:52 14.11.2021
327 Clear 29 1009 74 10000 2.06 10 13:27 14.11.2021
328 Clear 29 1009 69 10000 1.54 20 12:23 14.11.2021
329 Clear 30 1008 68 10000 2.06 30 11:28 14.11.2021
330 Clouds 30 1008 69 10000 3.6 10 10:39 14.11.2021
331 Clouds 31 1008 68 10000 3.6 20 09:41 14.11.2021
332 Clouds 32 1008 65 10000 4.12 360 08:51 14.11.2021
333 Clouds 34 1009 47 10000 5.66 110 04:47 14.11.2021
334 Clear 26 1010 86 10000 1.54 90 23:27 13.11.2021
335 Clouds 25 1009 88 10000 0 360 22:21 13.11.2021
336 Rain 25 1008 89 10000 0 0 21:36 13.11.2021
337 Rain 24 1008 90 10000 4.92 93 20:46 13.11.2021
338 Rain 24 1008 91 10000 3.68 92 19:32 13.11.2021
339 Rain 25 1008 90 10000 3.59 81 18:32 13.11.2021
340 Rain 25 1008 90 10000 3.59 81 18:32 13.11.2021
341 Rain 24 1009 92 10000 0.45 252 17:41 13.11.2021
342 Rain 23 1009 78 10000 4.59 52 16:29 13.11.2021
343 Clouds 26 1009 92 10000 5.22 51 14:45 13.11.2021
344 Clouds 26 1010 92 10000 5.4 54 13:56 13.11.2021
345 Rain 26 1009 93 10000 1.2 113 12:43 13.11.2021
346 Rain 26 1008 93 10000 4.35 175 11:57 13.11.2021
347 Rain 29 1009 74 10000 3.3 141 11:24 13.11.2021
348 Rain 29 1009 74 10000 3.3 141 10:39 13.11.2021
349 Rain 31 1007 64 10000 2.76 16 09:49 13.11.2021
350 Thunderstorm 24 1008 94 400 6.69 130 09:31 13.11.2021
351 Thunderstorm 26 1007 83 800 6.17 130 08:49 13.11.2021
352 Clouds 35 1005 49 10000 6.17 350 07:54 13.11.2021
353 Clear 34 1007 46 10000 3.6 310 04:43 13.11.2021
354 Clear 35 1008 43 10000 4.63 310 04:20 13.11.2021
355 Clouds 31 1009 71 10000 4.12 230 00:18 13.11.2021
356 Clouds 29 1008 84 10000 2.57 220 22:34 12.11.2021
357 Clouds 29 1008 84 10000 2.57 220 22:34 12.11.2021
358 Clouds 29 1007 83 10000 2.06 250 20:49 12.11.2021
359 Clouds 29 1006 83 10000 2.57 270 19:33 12.11.2021
360 Clouds 29 1006 82 10000 2.57 270 18:59 12.11.2021
361 Clouds 29 1007 82 10000 2.57 270 18:20 12.11.2021
362 Clear 29 1008 75 10000 2.57 270 15:55 12.11.2021
363 Clear 30 1008 74 10000 3.6 270 13:46 12.11.2021
364 Clouds 30 1007 71 10000 3.6 280 11:26 12.11.2021
365 Clouds 31 1006 69 10000 4.12 290 10:43 12.11.2021
366 Clouds 33 1005 59 10000 5.14 280 08:59 12.11.2021
367 Clouds 34 1005 59 10000 5.66 280 08:29 12.11.2021
368 Clouds 31 1009 72 10000 3.6 270 00:37 12.11.2021
369 Clouds 30 1008 75 10000 2.57 280 23:30 11.11.2021
370 Clouds 29 1007 81 10000 2.57 280 22:27 11.11.2021
371 Clouds 29 1006 82 10000 4.63 300 21:26 11.11.2021
372 Clouds 29 1006 81 10000 4.12 290 20:18 11.11.2021
373 Clouds 29 1004 80 10000 4.12 280 18:42 11.11.2021
374 Clouds 29 1007 78 10000 3.6 280 17:42 11.11.2021
375 Clouds 29 1008 78 10000 4.12 300 15:51 11.11.2021
376 Clouds 30 1008 78 10000 2.57 280 14:44 11.11.2021
377 Clouds 30 1008 78 10000 3.09 280 14:25 11.11.2021
378 Clouds 30 1007 78 10000 3.6 290 13:36 11.11.2021
379 Clouds 30 1007 78 10000 3.09 280 12:30 11.11.2021
380 Clouds 30 1005 71 10000 4.12 270 10:24 11.11.2021
381 Clouds 32 1004 69 10000 6.69 300 09:23 11.11.2021
382 Clouds 34 1005 59 10000 7.72 310 07:34 11.11.2021
383 Clouds 32 1008 70 10000 4.12 310 00:43 11.11.2021
384 Clouds 30 1007 79 10000 3.09 300 22:46 10.11.2021
385 Clouds 27 1007 85 10000 3.09 300 21:56 10.11.2021
386 Clouds 28 1006 83 10000 2.57 300 21:18 10.11.2021
387 Clouds 27 1007 88 10000 3.09 300 20:35 10.11.2021
388 Clouds 28 1007 83 10000 2.57 290 19:46 10.11.2021
389 Clouds 29 1006 75 10000 3.09 280 17:39 10.11.2021
390 Clouds 29 1006 76 10000 2.57 270 16:21 10.11.2021
391 Clouds 28 1007 81 10000 2.06 270 14:25 10.11.2021
392 Clouds 28 1007 84 10000 3.09 270 13:40 10.11.2021
393 Clouds 28 1007 90 10000 1.54 10 12:39 10.11.2021
394 Clouds 29 1005 77 10000 4.12 350 10:20 10.11.2021
395 Clouds 32 1005 63 10000 5.66 290 08:45 10.11.2021
396 Clouds 33 1005 60 10000 5.66 280 07:22 10.11.2021
397 Clouds 33 1006 64 10000 6.17 300 05:59 10.11.2021
398 Clouds 33 1007 58 10000 5.66 290 04:59 10.11.2021
399 Clouds 29 1008 83 10000 2.06 320 22:54 09.11.2021
400 Clouds 27 1007 92 10000 2.06 310 21:47 09.11.2021
401 Clouds 27 1006 87 10000 2.06 320 20:20 09.11.2021
402 Clouds 27 1007 85 10000 1.54 320 19:20 09.11.2021
403 Clouds 27 1006 82 10000 0 0 17:30 09.11.2021
404 Clouds 28 1007 75 10000 1.54 230 15:38 09.11.2021
405 Clouds 29 1007 78 10000 2.06 290 13:59 09.11.2021
406 Rain 29 1006 81 10000 3.09 310 12:50 09.11.2021
407 Rain 29 1006 77 10000 1.54 340 11:38 09.11.2021
408 Rain 29 1006 75 10000 2.06 320 10:43 09.11.2021
409 Rain 28 1005 69 10000 0.51 190 09:24 09.11.2021
410 Rain 27 1006 78 10000 5.66 140 08:19 09.11.2021
411 Clouds 34 1007 62 10000 6.17 300 05:45 09.11.2021
412 Clouds 32 1009 64 10000 2.57 260 02:19 09.11.2021
413 Clouds 32 1009 66 10000 1.03 170 01:39 09.11.2021
414 Clouds 29 1008 78 10000 1.54 120 23:35 08.11.2021
415 Clouds 27 1008 87 10000 1.54 70 22:49 08.11.2021
416 Clouds 26 1008 89 10000 2.06 80 21:46 08.11.2021
417 Clouds 26 1008 89 10000 2.06 80 21:46 08.11.2021
418 Clouds 26 1007 89 10000 1.03 70 20:47 08.11.2021
419 Clouds 26 1007 85 10000 1.54 90 19:48 08.11.2021
420 Clouds 27 1007 89 10000 2.06 150 18:25 08.11.2021
421 Clouds 27 1008 85 10000 1.54 120 16:21 08.11.2021
422 Clouds 29 1009 81 10000 1.54 140 14:58 08.11.2021
423 Clouds 29 1009 81 10000 1.54 180 14:37 08.11.2021
424 Clouds 29 1008 81 10000 1.54 170 13:24 08.11.2021
425 Clear 29 1007 80 10000 2.06 180 11:56 08.11.2021
426 Rain 30 1006 75 10000 2.06 190 10:50 08.11.2021
427 Clouds 32 1006 58 10000 3.6 270 09:39 08.11.2021
428 Clouds 32 1006 58 10000 4.12 290 08:54 08.11.2021
429 Clouds 33 1005 57 10000 5.14 290 07:29 08.11.2021
430 Clouds 32 1008 63 10000 3.6 330 03:56 08.11.2021
431 Clouds 32 1009 62 10000 2.06 340 03:28 08.11.2021
432 Clouds 31 1009 67 10000 1.03 340 23:46 07.11.2021
433 Clouds 26 1008 89 10000 1.54 350 21:48 07.11.2021
434 Clouds 27 1007 88 10000 1.03 350 20:54 07.11.2021
435 Clouds 28 1006 80 10000 2.57 360 19:30 07.11.2021
436 Clouds 28 1006 83 10000 2.06 350 18:22 07.11.2021
437 Clouds 28 1007 84 10000 1.54 360 16:54 07.11.2021
438 Clouds 28 1007 85 10000 0 0 15:48 07.11.2021
439 Clouds 28 1007 82 10000 0.51 280 14:29 07.11.2021
440 Clouds 28 1007 79 10000 2.06 270 13:26 07.11.2021
441 Clouds 29 1006 74 10000 3.09 310 11:43 07.11.2021
442 Clouds 32 1007 62 10000 3.09 280 09:52 07.11.2021
443 Clouds 33 1005 52 10000 3.09 310 07:54 07.11.2021
444 Clouds 29 1009 78 10000 2.57 120 02:38 07.11.2021
445 Rain 23 1010 88 8000 4.63 40 23:38 06.11.2021
446 Rain 26 1008 89 10000 3.6 360 22:48 06.11.2021
447 Clouds 26 1007 93 10000 1.54 60 21:33 06.11.2021
448 Rain 26 1006 94 10000 0.51 210 20:50 06.11.2021
449 Rain 26 1006 92 5000 2.57 260 18:56 06.11.2021
450 Clouds 28 1007 82 10000 3.09 310 16:47 06.11.2021
451 Clouds 28 1007 82 10000 3.09 310 16:47 06.11.2021
452 Clouds 28 1007 82 10000 3.09 310 16:47 06.11.2021
453 Clouds 28 1007 82 10000 3.09 310 16:47 06.11.2021
454 Clouds 28 1007 82 10000 3.09 310 16:47 06.11.2021
455 Clouds 28 1007 82 10000 2.57 310 15:20 06.11.2021
456 Clouds 28 1006 78 10000 2.57 310 13:38 06.11.2021
457 Clear 28 1005 77 10000 2.57 290 11:53 06.11.2021
458 Clouds 31 1004 66 10000 3.09 290 09:33 06.11.2021
459 Clouds 31 1004 65 10000 2.57 320 07:55 06.11.2021
460 Clouds 30 1010 76 10000 3.6 190 02:36 06.11.2021
461 Rain 26 1009 89 10000 1.03 140 23:37 05.11.2021
462 Rain 26 1008 94 10000 3.09 100 22:39 05.11.2021
463 Rain 25 1008 91 6000 2.06 150 21:50 05.11.2021
464 Thunderstorm 26 1007 87 10000 2.57 60 20:20 05.11.2021
465 Thunderstorm 26 1007 82 10000 4.12 20 19:48 05.11.2021
466 Clouds 27 1007 90 10000 1.54 170 18:41 05.11.2021
467 Clouds 28 1008 87 10000 0.51 190 17:30 05.11.2021
468 Clouds 29 1008 81 10000 1.54 230 15:43 05.11.2021
469 Rain 29 1008 84 10000 2.57 270 13:55 05.11.2021
470 Rain 29 1007 78 10000 2.57 270 11:31 05.11.2021
471 Clouds 32 1010 67 10000 3.6 310 08:41 05.11.2021
472 Clouds 32 1006 65 10000 4.12 330 07:39 05.11.2021
473 Clouds 32 1006 65 10000 4.12 330 07:39 05.11.2021
474 Clouds 32 1008 65 10000 4.12 320 05:33 05.11.2021
475 Clouds 32 1008 65 10000 4.12 320 05:33 05.11.2021
476 Rain 32 1010 64 10000 1.03 360 02:26 05.11.2021
477 Clouds 31 1011 71 10000 1.54 150 00:52 05.11.2021
478 Clear 26 1010 94 10000 1.54 150 23:24 04.11.2021
479 Rain 26 1009 89 10000 1.03 180 22:20 04.11.2021
480 Rain 25 1009 94 10000 0 0 21:43 04.11.2021
481 Clouds 25 1009 88 10000 1.03 180 20:53 04.11.2021
482 Rain 25 1008 88 10000 1.54 220 20:22 04.11.2021
483 Rain 25 1008 94 10000 0 0 19:47 04.11.2021
484 Rain 24 1009 94 10000 1.54 310 18:52 04.11.2021
485 Drizzle 24 1009 100 10000 2.06 340 18:18 04.11.2021
486 Thunderstorm 24 1010 94 10000 2.06 90 16:53 04.11.2021
487 Clouds 27 1011 89 10000 0.51 10 15:18 04.11.2021
488 Clouds 30 1009 77 10000 1.03 290 12:53 04.11.2021
489 Clouds 31 1007 62 10000 2.57 360 09:42 04.11.2021
490 Clouds 29 1007 74 10000 1.54 280 08:31 04.11.2021
491 Clouds 26 1008 83 10000 4.63 220 07:35 04.11.2021
492 Clouds 34 1008 50 10000 6.69 360 06:18 04.11.2021
493 Rain 28 1011 85 10000 2.57 130 22:53 03.11.2021
494 Clouds 28 1010 89 10000 2.06 140 21:50 03.11.2021
495 Clouds 28 1010 90 10000 1.03 100 21:30 03.11.2021
496 Clouds 28 1009 94 10000 1.03 100 20:37 03.11.2021
497 Clouds 28 1009 94 10000 1.03 100 20:18 03.11.2021
498 Clouds 27 1009 89 2300 6.69 70 19:19 03.11.2021
499 Clouds 29 1010 82 10000 1.54 60 18:25 03.11.2021
500 Clouds 29 1011 84 10000 1.54 110 17:36 03.11.2021
501 Clouds 29 1011 81 10000 1.03 340 16:27 03.11.2021
502 Clouds 29 1011 80 10000 2.06 310 15:44 03.11.2021
503 Clouds 30 1011 77 10000 3.09 320 14:25 03.11.2021
504 Clear 30 1010 65 10000 3.09 40 12:33 03.11.2021
505 Clouds 31 1008 64 10000 2.06 350 11:27 03.11.2021
506 Clouds 31 1008 60 10000 3.09 10 10:49 03.11.2021
507 Clouds 31 1008 60 10000 3.09 10 10:49 03.11.2021
508 Clouds 31 1008 60 10000 3.09 10 10:49 03.11.2021
509 Clouds 33 1007 57 10000 4.63 360 09:31 03.11.2021
510 Clouds 33 1007 57 10000 4.63 360 09:31 03.11.2021
511 Clouds 34 1007 52 10000 5.14 350 08:24 03.11.2021
512 Clouds 35 1008 55 10000 5.14 10 07:39 03.11.2021
513 Clouds 34 1010 59 10000 5.14 30 05:35 03.11.2021
514 Clouds 28 1013 83 10000 5.14 50 03:19 03.11.2021
515 Clouds 30 1017 75 10000 3.09 70 23:57 02.11.2021
516 Clouds 27 1012 85 10000 2.57 100 22:48 02.11.2021
517 Clouds 26 1011 85 10000 2.06 110 21:45 02.11.2021
518 Clouds 27 1015 81 10000 2.57 80 20:34 02.11.2021
519 Clouds 28 1010 81 10000 3.09 100 19:54 02.11.2021
520 Clouds 28 1010 85 10000 2.57 110 19:18 02.11.2021
521 Clouds 27 1010 87 10000 2.06 130 18:26 02.11.2021
522 Clouds 28 1011 87 10000 1.54 130 17:43 02.11.2021
523 Clouds 28 1011 84 10000 1.54 10 16:33 02.11.2021
524 Clouds 28 1011 83 10000 2.06 340 15:48 02.11.2021
525 Clouds 29 1011 84 10000 2.57 350 14:31 02.11.2021
526 Clouds 29 1011 79 10000 1.03 330 13:28 02.11.2021
527 Clouds 29 1010 78 10000 2.06 360 12:43 02.11.2021
528 Clouds 29 1010 78 10000 2.57 360 11:38 02.11.2021
529 Clouds 30 1009 77 10000 1.54 350 10:54 02.11.2021
530 Clouds 30 1009 72 10000 3.6 360 10:30 02.11.2021
531 Clouds 33 1009 60 10000 3.6 20 08:45 02.11.2021
532 Clouds 33 1008 59 10000 3.6 50 07:36 02.11.2021
533 Clear 28 1012 83 10000 1.54 110 03:51 02.11.2021
534 Rain 26 1013 89 10000 0.51 160 02:35 02.11.2021
535 Rain 24 1012 88 10000 3.6 150 23:20 01.11.2021
536 Thunderstorm 25 1011 89 2000 10.29 60 21:27 01.11.2021
537 Clouds 28 1009 82 10000 1.03 340 20:39 01.11.2021
538 Clouds 28 1013 82 10000 1.03 360 19:58 01.11.2021
539 Clouds 28 1009 82 10000 1.03 360 19:30 01.11.2021
540 Clouds 28 1010 78 10000 1.54 340 18:23 01.11.2021
541 Clouds 29 1010 76 10000 1.54 300 17:35 01.11.2021
542 Clouds 29 1011 75 10000 1.03 290 16:50 01.11.2021
543 Clouds 29 1011 75 10000 2.57 290 15:55 01.11.2021
544 Clouds 30 1012 74 10000 3.09 300 15:27 01.11.2021
545 Clouds 30 1011 72 10000 3.09 310 14:43 01.11.2021
546 Clear 30 1011 70 10000 3.6 310 14:23 01.11.2021
547 Clear 30 1011 70 10000 3.6 320 13:49 01.11.2021
548 Clear 30 1010 72 10000 3.6 330 12:33 01.11.2021
549 Rain 32 1008 59 10000 2.57 10 10:36 01.11.2021
550 Thunderstorm 33 1008 53 10000 3.6 360 09:43 01.11.2021
551 Clouds 35 1007 49 10000 4.12 350 07:50 01.11.2021
552 Clouds 35 1007 49 10000 4.12 350 07:30 01.11.2021
553 Clouds 34 1011 46 10000 2.57 90 03:45 01.11.2021
554 Clear 30 1012 56 10000 4.63 130 00:41 01.11.2021
555 Clear 26 1011 74 10000 3.6 130 22:31 31.10.2021
556 Clouds 26 1010 76 10000 3.6 150 20:50 31.10.2021
557 Clouds 26 1010 76 10000 3.09 140 19:20 31.10.2021
558 Clouds 26 1011 74 10000 4.12 150 18:38 31.10.2021
559 Clouds 26 1011 70 10000 3.6 150 17:31 31.10.2021
560 Clear 27 1012 70 10000 5.66 140 15:50 31.10.2021
561 Clear 27 1013 75 10000 5.14 150 13:58 31.10.2021
562 Clear 28 1013 75 10000 3.09 180 12:49 31.10.2021
563 Clear 29 1011 72 10000 4.63 200 11:40 31.10.2021
564 Clear 30 1010 67 10000 4.63 200 10:42 31.10.2021
565 Clear 34 1009 36 10000 3.09 290 09:21 31.10.2021
566 Clear 34 1009 36 10000 3.09 290 09:21 31.10.2021
567 Clear 34 1009 40 10000 3.6 270 08:19 31.10.2021
568 Clouds 30 1015 71 10000 3.09 70 00:58 31.10.2021
569 Clouds 26 1012 85 10000 1.54 70 22:45 30.10.2021
570 Clouds 26 1010 85 10000 1.03 360 21:35 30.10.2021
571 Clouds 27 1012 80 10000 0.51 360 20:33 30.10.2021
572 Clouds 28 1011 75 10000 2.06 320 18:45 30.10.2021
573 Clouds 29 1011 71 10000 2.57 320 17:25 30.10.2021
574 Clear 30 1012 67 10000 3.6 350 14:50 30.10.2021
575 Clear 30 1011 67 10000 3.09 330 13:39 30.10.2021
576 Clear 30 1011 67 10000 3.09 330 13:21 30.10.2021
577 Clear 31 1009 65 10000 3.6 340 11:58 30.10.2021
578 Clouds 31 1009 64 10000 4.63 340 11:39 30.10.2021
579 Clear 34 1008 53 10000 3.6 300 10:32 30.10.2021
580 Clouds 34 1009 46 10000 2.57 310 08:52 30.10.2021
581 Clouds 35 1009 46 10000 4.63 330 07:19 30.10.2021
582 Clouds 34 1011 57 10000 4.63 310 05:39 30.10.2021
583 Clouds 31 1013 74 10000 1.54 50 00:47 30.10.2021
584 Clouds 28 1012 85 10000 1.03 80 22:43 29.10.2021
585 Clouds 28 1012 85 10000 1.03 80 22:20 29.10.2021
586 Clouds 28 1010 85 10000 0 0 20:46 29.10.2021
587 Clouds 28 1010 83 10000 0.51 300 19:56 29.10.2021
588 Clouds 29 1010 82 10000 2.06 250 18:33 29.10.2021
589 Clouds 30 1012 73 10000 2.57 330 16:52 29.10.2021
590 Clouds 29 1011 75 10000 3.6 320 14:36 29.10.2021
591 Rain 31 1009 66 10000 4.12 330 11:56 29.10.2021
592 Clouds 32 1008 58 10000 4.12 300 10:44 29.10.2021
593 Clouds 34 1008 52 10000 4.63 310 08:38 29.10.2021
594 Clouds 29 1012 73 10000 0 0 00:37 29.10.2021
595 Clouds 28 1011 81 10000 1.54 330 23:25 28.10.2021
596 Clouds 27 1010 80 10000 0.51 330 22:18 28.10.2021
597 Clouds 28 1010 77 10000 1.54 330 20:54 28.10.2021
598 Clouds 29 1009 74 10000 2.57 310 19:51 28.10.2021
599 Clouds 29 1010 73 10000 2.06 340 18:26 28.10.2021
600 Clouds 29 1010 71 10000 3.09 330 17:18 28.10.2021
601 Rain 30 1011 71 10000 4.63 330 15:48 28.10.2021
602 Clear 30 1010 70 10000 5.14 330 14:25 28.10.2021
603 Clear 30 1010 65 10000 4.12 310 13:29 28.10.2021
604 Rain 30 1009 71 10000 6.17 300 12:41 28.10.2021
605 Clouds 32 1008 62 10000 5.14 330 10:57 28.10.2021
606 Clouds 34 1007 55 10000 5.14 340 09:39 28.10.2021
607 Clouds 34 1007 55 10000 5.14 340 09:20 28.10.2021
608 Clear 34 1007 52 10000 5.14 340 08:35 28.10.2021
609 Clouds 35 1008 46 10000 4.63 330 07:40 28.10.2021
610 Clouds 29 1011 74 10000 1.03 180 00:21 28.10.2021
611 Clouds 27 1011 87 10000 3.6 130 22:31 27.10.2021
612 Clouds 28 1010 86 10000 1.54 150 21:34 27.10.2021
613 Clouds 28 1012 81 10000 2.06 150 20:54 27.10.2021
614 Clouds 28 1012 79 10000 1.54 210 20:34 27.10.2021
615 Clouds 29 1012 77 10000 1.03 300 19:42 27.10.2021
616 Clouds 29 1010 78 10000 2.06 310 18:53 27.10.2021
617 Clouds 29 1012 76 10000 2.57 320 16:38 27.10.2021
618 Clouds 29 1012 76 10000 2.57 320 16:18 27.10.2021
619 Clouds 29 1012 76 10000 3.09 320 15:21 27.10.2021
620 Clouds 30 1010 71 10000 4.12 320 12:57 27.10.2021
621 Rain 33 1009 56 10000 2.57 310 10:59 27.10.2021
622 Clouds 33 1009 52 10000 3.6 310 10:01 27.10.2021
623 Clouds 33 1009 58 10000 3.6 320 08:58 27.10.2021
624 Thunderstorm 31 1010 66 10000 4.12 350 07:36 27.10.2021
625 Clouds 33 1011 55 10000 4.63 300 05:35 27.10.2021
626 Clouds 31 1013 62 10000 1.03 340 01:18 27.10.2021
627 Clouds 31 1012 69 10000 0 0 00:33 27.10.2021
628 Clouds 28 1011 81 10000 2.06 70 23:51 26.10.2021
629 Clouds 27 1011 85 10000 1.03 30 22:42 26.10.2021
630 Clouds 27 1011 85 10000 1.03 30 22:19 26.10.2021
631 Clear 28 1010 81 10000 1.54 320 20:59 26.10.2021
632 Clouds 28 1010 78 10000 2.06 330 19:33 26.10.2021
633 Clouds 29 1010 77 10000 3.09 340 18:53 26.10.2021
634 Clouds 29 1011 71 10000 3.6 340 16:58 26.10.2021
635 Clouds 29 1011 74 10000 3.09 330 15:34 26.10.2021
636 Clear 31 1009 64 10000 3.09 300 11:50 26.10.2021
637 Clouds 33 1008 56 10000 3.6 310 10:46 26.10.2021
638 Clouds 34 1008 49 10000 5.14 350 08:24 26.10.2021
639 Clouds 34 1009 49 10000 4.63 350 07:21 26.10.2021
640 Clouds 26 1013 78 10000 1.54 100 23:53 25.10.2021
641 Clouds 26 1013 79 10000 2.06 60 23:20 25.10.2021
642 Clouds 26 1011 79 10000 0.51 110 22:21 25.10.2021
643 Clouds 26 1010 79 10000 1.54 80 21:40 25.10.2021
644 Clouds 26 1010 78 10000 1.54 110 20:19 25.10.2021
645 Clouds 26 1010 78 10000 1.54 160 19:42 25.10.2021
646 Clouds 26 1010 78 10000 1.54 160 19:20 25.10.2021
647 Clouds 27 1010 76 10000 1.54 120 18:33 25.10.2021
648 Clouds 28 1011 76 10000 0 0 16:38 25.10.2021
649 Clear 28 1010 71 10000 0.51 260 14:45 25.10.2021
650 Clear 29 1009 69 10000 2.06 200 12:31 25.10.2021
651 Clear 32 1008 54 10000 2.57 260 10:30 25.10.2021
652 Clouds 33 1008 48 10000 5.66 310 08:54 25.10.2021
653 Clouds 33 1009 49 10000 4.63 320 06:26 25.10.2021
654 Clouds 31 1012 66 10000 2.06 280 02:44 25.10.2021
655 Clouds 30 1012 74 10000 0.51 230 00:48 25.10.2021
656 Clouds 28 1011 84 10000 1.03 150 23:47 24.10.2021
657 Clouds 27 1011 89 10000 1.03 150 23:19 24.10.2021
658 Clouds 27 1010 85 10000 1.03 330 22:37 24.10.2021
659 Clouds 27 1010 85 10000 1.03 330 22:18 24.10.2021
660 Clouds 28 1010 81 10000 1.54 330 20:46 24.10.2021
661 Clouds 28 1011 80 10000 1.54 330 20:27 24.10.2021
662 Clouds 28 1011 81 10000 1.54 340 19:22 24.10.2021
663 Clouds 28 1010 78 10000 1.54 360 18:27 24.10.2021
664 Clouds 28 1011 77 10000 2.57 300 17:35 24.10.2021
665 Clouds 29 1010 78 10000 3.6 310 15:55 24.10.2021
666 Clouds 29 1011 80 10000 4.12 310 14:25 24.10.2021
667 Clouds 30 1010 71 10000 5.14 300 12:58 24.10.2021
668 Clouds 31 1009 60 10000 4.12 340 11:44 24.10.2021
669 Clouds 33 1009 52 10000 4.63 340 10:56 24.10.2021
670 Clouds 34 1009 40 10000 5.14 310 09:59 24.10.2021
671 Clouds 34 1009 46 10000 6.17 330 07:41 24.10.2021
672 Clouds 28 1012 78 10000 2.06 50 00:57 24.10.2021
673 Clouds 26 1011 84 10000 2.57 110 23:47 23.10.2021
674 Clear 26 1010 78 10000 2.57 20 22:18 23.10.2021
675 Clouds 26 1011 83 10000 1.54 310 20:36 23.10.2021
676 Clouds 24 1012 88 10000 3.09 190 18:59 23.10.2021
677 Clouds 26 1012 73 10000 8.23 110 18:26 23.10.2021
678 Clouds 29 1011 81 10000 1.03 340 17:43 23.10.2021
679 Clouds 29 1012 79 10000 2.57 280 16:23 23.10.2021
680 Clouds 29 1011 75 10000 4.12 290 14:27 23.10.2021
681 Clouds 33 1013 54 10000 3.6 340 03:34 23.10.2021
682 Clouds 30 1012 73 10000 4.12 350 00:19 23.10.2021
683 Clouds 27 1011 84 10000 2.06 360 22:53 22.10.2021
684 Clouds 28 1010 80 10000 2.57 330 20:37 22.10.2021
685 Clouds 28 1011 78 10000 2.06 300 18:44 22.10.2021
686 Clouds 29 1012 79 10000 3.6 330 17:43 22.10.2021
687 Clouds 29 1011 78 10000 4.12 300 15:26 22.10.2021
688 Clear 30 1011 78 10000 2.57 300 13:52 22.10.2021
689 Clear 31 1008 69 10000 3.09 300 11:24 22.10.2021
690 Clear 32 1008 62 10000 2.57 310 10:41 22.10.2021
691 Clouds 32 1008 64 10000 2.57 310 09:56 22.10.2021
692 Clouds 33 1008 62 10000 4.12 350 08:36 22.10.2021
693 Clouds 33 1009 58 10000 4.12 340 07:22 22.10.2021
694 Clouds 32 1013 64 10000 3.6 280 02:57 22.10.2021
695 Clouds 29 1010 78 10000 4.12 280 23:57 21.10.2021
696 Clouds 29 1010 80 10000 3.09 270 23:38 21.10.2021
697 Clouds 29 1009 82 10000 4.12 290 21:52 21.10.2021
698 Clouds 29 1008 82 10000 5.66 310 20:42 21.10.2021
699 Clouds 29 1008 82 10000 5.66 310 20:19 21.10.2021
700 Clouds 29 1008 82 10000 6.17 320 19:29 21.10.2021
701 Clouds 29 1008 82 10000 6.17 330 18:46 21.10.2021
702 Clouds 29 1009 82 10000 5.66 320 18:18 21.10.2021
703 Clouds 29 1009 82 10000 4.63 320 17:37 21.10.2021
704 Clouds 29 1010 81 10000 5.14 310 15:54 21.10.2021
705 Clouds 29 1010 82 10000 5.66 310 15:20 21.10.2021
706 Clouds 30 1010 77 10000 4.12 290 14:38 21.10.2021
707 Clear 29 1009 76 10000 4.12 300 13:19 21.10.2021
708 Clear 31 1008 71 10000 4.63 280 11:24 21.10.2021
709 Clear 33 1007 58 10000 5.66 320 08:55 21.10.2021
710 Dust 34 1010 59 10000 5.66 320 07:29 21.10.2021
711 Clouds 33 1011 62 10000 5.14 300 03:31 21.10.2021
712 Clouds 29 1009 83 10000 3.6 270 23:29 20.10.2021
713 Clouds 28 1008 84 10000 4.12 290 22:18 20.10.2021
714 Clouds 28 1008 85 10000 3.09 310 21:38 20.10.2021
715 Clouds 28 1009 82 10000 3.6 330 20:54 20.10.2021
716 Clouds 28 1009 82 10000 3.6 310 20:33 20.10.2021
717 Clouds 28 1009 82 10000 3.09 310 19:57 20.10.2021
718 Clear 29 1008 81 10000 2.57 300 18:54 20.10.2021
719 Clear 29 1010 77 10000 2.57 290 17:50 20.10.2021
720 Clear 29 1010 73 10000 4.63 300 15:39 20.10.2021
721 Clouds 33 1008 42 10000 5.66 300 10:43 20.10.2021
722 Clear 35 1008 36 10000 6.69 300 08:53 20.10.2021
723 Clouds 34 1012 49 10000 4.63 310 04:50 20.10.2021
724 Clouds 30 1013 75 10000 2.57 270 00:47 20.10.2021
725 Clouds 30 1013 76 10000 2.06 270 00:18 20.10.2021
726 Clouds 29 1011 82 10000 1.54 270 21:44 19.10.2021
727 Clouds 29 1012 81 10000 2.57 250 20:54 19.10.2021
728 Clouds 29 1012 82 10000 2.06 270 20:25 19.10.2021
729 Clouds 28 1012 82 10000 2.06 280 19:41 19.10.2021
730 Clouds 28 1012 82 10000 2.06 280 19:19 19.10.2021
731 Clouds 29 1012 81 10000 1.54 280 17:59 19.10.2021
732 Clouds 29 1013 79 10000 3.09 280 15:48 19.10.2021
733 Clouds 29 1013 79 10000 3.09 250 15:20 19.10.2021
734 Clouds 30 1014 77 10000 4.12 220 14:27 19.10.2021
735 Clouds 30 1012 76 10000 4.12 270 13:35 19.10.2021
736 Clouds 30 1011 71 10000 4.63 280 11:37 19.10.2021
737 Clouds 31 1010 64 10000 5.66 250 10:36 19.10.2021
738 Clouds 34 1010 46 10000 5.66 300 08:58 19.10.2021
739 Clouds 34 1011 52 10000 6.69 310 07:20 19.10.2021
740 Clouds 29 1013 80 10000 0.51 80 00:26 19.10.2021
741 Clouds 27 1013 87 10000 1.54 70 23:51 18.10.2021
742 Clouds 26 1012 86 10000 0 0 23:20 18.10.2021
743 Clouds 26 1012 86 10000 0 0 22:54 18.10.2021
744 Rain 27 1013 85 10000 1.54 330 21:54 18.10.2021
745 Clouds 27 1011 83 10000 1.54 340 20:42 18.10.2021
746 Clouds 27 1011 82 10000 1.54 340 20:19 18.10.2021
747 Clouds 28 1013 81 10000 1.03 360 19:30 18.10.2021
748 Clouds 28 1012 82 10000 1.03 290 18:58 18.10.2021
749 Clouds 28 1013 78 10000 2.57 280 15:56 18.10.2021
750 Clouds 29 1012 74 10000 2.57 280 14:30 18.10.2021
751 Clouds 30 1010 66 10000 2.57 270 11:20 18.10.2021
752 Clouds 33 1010 60 10000 4.12 310 09:37 18.10.2021
753 Clouds 33 1011 55 10000 3.09 290 05:32 18.10.2021
754 Clouds 27 1011 83 10000 0 0 23:51 17.10.2021
755 Clouds 27 1010 82 10000 0 0 22:23 17.10.2021
756 Clouds 27 1009 82 10000 1.03 330 21:42 17.10.2021
757 Clouds 27 1010 82 10000 2.06 330 20:49 17.10.2021
758 Clouds 27 1010 85 10000 1.54 290 19:56 17.10.2021
759 Clouds 27 1011 82 10000 1.03 290 19:37 17.10.2021
760 Clouds 28 1012 80 10000 0.89 290 18:28 17.10.2021
761 Clouds 29 1013 74 10000 2.57 290 15:57 17.10.2021
762 Clouds 29 1012 75 10000 2.57 280 14:38 17.10.2021
763 Clouds 29 1011 74 10000 3.09 300 13:59 17.10.2021
764 Clear 29 1011 74 10000 3.09 290 13:30 17.10.2021
765 Clouds 31 1009 66 10000 5.14 340 11:27 17.10.2021
766 Clouds 33 1008 55 10000 4.63 330 09:56 17.10.2021
767 Clouds 33 1010 52 10000 4.63 340 08:29 17.10.2021
768 Clouds 31 1012 61 10000 3.09 40 02:57 17.10.2021
769 Clouds 29 1011 71 10000 2.06 10 00:30 17.10.2021
770 Clouds 26 1009 81 10000 1.54 350 22:47 16.10.2021
771 Clouds 27 1008 81 10000 2.06 10 20:45 16.10.2021
772 Clouds 27 1009 81 10000 2.06 30 20:26 16.10.2021
773 Clouds 27 1009 79 10000 1.54 60 19:40 16.10.2021
774 Clouds 27 1009 79 10000 1.54 60 19:19 16.10.2021
775 Clouds 27 1009 79 10000 1.54 60 19:19 16.10.2021
776 Clouds 26 1009 81 10000 1.54 20 18:44 16.10.2021
777 Clouds 26 1009 81 10000 1.54 20 18:23 16.10.2021
778 Clouds 28 1010 75 10000 1.54 40 17:33 16.10.2021
779 Clear 28 1010 73 10000 3.09 360 16:20 16.10.2021
780 Clouds 29 1008 73 10000 5.14 320 13:26 16.10.2021
781 Clouds 32 1007 61 10000 6.69 360 11:24 16.10.2021
782 Clouds 33 1007 50 10000 6.17 30 09:35 16.10.2021
783 Clouds 34 1009 56 10000 4.12 10 04:33 16.10.2021
784 Clouds 29 1010 80 10000 3.6 70 00:51 16.10.2021
785 Clouds 26 1009 86 10000 1.54 130 23:27 15.10.2021
786 Clouds 26 1008 90 10000 1.54 90 22:21 15.10.2021
787 Clouds 26 1007 89 10000 1.54 70 21:41 15.10.2021
788 Clouds 27 1007 89 10000 1.54 70 20:54 15.10.2021
789 Clouds 27 1007 89 10000 1.54 70 20:35 15.10.2021
790 Clouds 26 1007 90 10000 1.54 10 19:20 15.10.2021
791 Clouds 26 1007 86 10000 1.03 360 18:22 15.10.2021
792 Clouds 26 1007 86 10000 1.03 360 18:22 15.10.2021
793 Clear 28 1008 78 10000 2.57 280 15:49 15.10.2021
794 Clear 29 1008 75 10000 3.09 310 14:26 15.10.2021
795 Clear 30 1007 73 10000 4.63 310 12:26 15.10.2021
796 Clouds 30 1007 67 10000 4.12 330 11:19 15.10.2021
797 Clouds 31 1006 63 10000 6.69 310 10:31 15.10.2021
798 Clouds 34 1006 59 10000 8.23 300 08:21 15.10.2021
799 Clouds 34 1009 52 10000 3.6 310 04:46 15.10.2021
800 Clouds 29 1010 76 10000 3.09 240 00:25 15.10.2021
801 Clouds 27 1009 83 10000 1.54 280 23:26 14.10.2021
802 Clouds 27 1008 83 10000 2.57 310 22:22 14.10.2021
803 Clouds 27 1008 85 10000 2.57 320 21:37 14.10.2021
804 Clouds 27 1008 81 10000 2.57 330 20:21 14.10.2021
805 Clouds 28 1008 80 10000 3.09 340 19:46 14.10.2021
806 Clouds 28 1008 82 10000 4.12 340 18:44 14.10.2021
807 Clear 29 1010 77 10000 3.09 320 16:59 14.10.2021
808 Clear 29 1010 80 10000 3.09 330 16:32 14.10.2021
809 Clear 29 1009 81 10000 3.6 300 14:55 14.10.2021
810 Clear 29 1009 77 10000 3.6 300 14:27 14.10.2021
811 Clouds 29 1009 78 10000 4.12 300 13:34 14.10.2021
812 Clear 31 1008 69 10000 1.03 330 11:35 14.10.2021
813 Clouds 30 1008 51 10000 6.69 100 09:28 14.10.2021
814 Clouds 34 1008 49 10000 5.81 320 06:21 14.10.2021
815 Clouds 29 1009 83 10000 1.34 350 00:43 14.10.2021
816 Clear 26 1008 89 10000 1.54 330 22:46 13.10.2021
817 Clouds 27 1007 83 10000 1.03 330 21:37 13.10.2021
818 Clouds 26 1007 88 10000 2.06 350 20:45 13.10.2021
819 Clouds 27 1007 82 10000 1.03 240 19:41 13.10.2021
820 Clouds 27 1007 84 10000 0.51 220 18:48 13.10.2021
821 Clouds 27 1008 78 10000 1.54 220 17:28 13.10.2021
822 Clouds 29 1009 76 10000 3.09 260 14:55 13.10.2021
823 Clouds 29 1009 76 10000 3.09 250 14:34 13.10.2021
824 Clouds 29 1008 73 10000 3.6 280 12:48 13.10.2021
825 Clear 30 1007 67 10000 3.6 280 11:51 13.10.2021
826 Clouds 32 1006 54 10000 5.14 290 10:21 13.10.2021
827 Clouds 33 1006 43 10000 4.63 300 07:54 13.10.2021
828 Clouds 32 1009 58 10000 3.6 310 05:40 13.10.2021
829 Rain 31 1010 64 10000 3.6 340 02:23 13.10.2021
830 Clouds 27 1009 83 10000 2.06 10 23:51 12.10.2021
831 Clouds 26 1008 88 10000 2.57 360 23:27 12.10.2021
832 Clear 26 1008 88 10000 2.06 30 22:41 12.10.2021
833 Clouds 26 1007 85 10000 2.06 360 20:55 12.10.2021
834 Clouds 26 1007 85 10000 1.54 350 20:31 12.10.2021
835 Clouds 27 1007 81 10000 1.54 350 19:45 12.10.2021
836 Clouds 27 1008 81 10000 2.06 330 18:26 12.10.2021
837 Clouds 28 1009 78 10000 2.06 320 17:29 12.10.2021
838 Clear 28 1009 78 10000 2.57 300 16:24 12.10.2021
839 Clouds 28 1009 78 10000 3.09 300 15:35 12.10.2021
840 Clouds 29 1009 74 10000 3.6 290 13:46 12.10.2021
841 Clear 29 1008 71 10000 4.12 300 13:19 12.10.2021
842 Clear 30 1007 67 10000 5.14 310 11:31 12.10.2021
843 Clear 30 1007 67 10000 5.14 310 11:30 12.10.2021
844 Clouds 32 1006 61 10000 5.14 320 09:41 12.10.2021
845 Clouds 34 1006 49 10000 3.6 330 08:31 12.10.2021
846 Clouds 31 1007 53 10000 2.57 140 06:46 12.10.2021
847 Clouds 33 1009 55 10000 5.14 350 04:49 12.10.2021
848 Clouds 33 1009 54 10000 4.63 330 04:28 12.10.2021
849 Clouds 26 1008 92 10000 2.57 70 23:56 11.10.2021
850 Clouds 26 1008 90 10000 2.06 70 23:36 11.10.2021
851 Clouds 26 1007 90 10000 2.06 70 22:51 11.10.2021
852 Clouds 26 1007 89 10000 2.06 70 21:27 11.10.2021
853 Clouds 26 1007 82 10000 1.03 90 20:28 11.10.2021
854 Clouds 26 1007 82 10000 2.06 100 19:35 11.10.2021
855 Clouds 27 1008 82 10000 1.03 320 18:23 11.10.2021
856 Clouds 28 1009 82 10000 1.54 270 16:41 11.10.2021
857 Clouds 28 1009 82 10000 1.54 270 16:20 11.10.2021
858 Clouds 29 1009 81 10000 2.06 240 15:44 11.10.2021
859 Clouds 29 1009 77 10000 2.06 270 14:53 11.10.2021
860 Clouds 29 1009 78 10000 3.09 280 14:19 11.10.2021
861 Clouds 29 1008 75 10000 3.09 280 13:35 11.10.2021
862 Clouds 30 1007 70 10000 4.63 320 11:18 11.10.2021
863 Clouds 32 1006 60 10000 5.66 350 09:46 11.10.2021
864 Clouds 34 1006 52 10000 4.63 330 08:31 11.10.2021
865 Clouds 29 1009 74 10000 3.09 30 01:45 11.10.2021
866 Clouds 29 1009 75 10000 3.09 20 00:58 11.10.2021
867 Clouds 29 1009 78 10000 2.06 20 00:39 11.10.2021
868 Clouds 27 1008 81 10000 1.54 360 22:41 10.10.2021
869 Clouds 28 1009 80 10000 1.03 340 21:49 10.10.2021
870 Clouds 28 1009 81 10000 1.54 340 21:19 10.10.2021
871 Clouds 28 1007 80 10000 1.54 350 20:39 10.10.2021
872 Clouds 28 1007 81 10000 1.54 350 20:19 10.10.2021
873 Clouds 28 1007 76 10000 2.57 330 19:41 10.10.2021
874 Clouds 28 1007 75 10000 3.09 300 18:57 10.10.2021
875 Clouds 28 1008 75 10000 2.06 320 18:20 10.10.2021
876 Clouds 28 1008 77 10000 2.57 330 15:49 10.10.2021
877 Clouds 28 1008 74 10000 2.06 260 14:57 10.10.2021
878 Clouds 29 1007 72 10000 2.57 300 13:41 10.10.2021
879 Clear 30 1007 67 10000 2.57 260 12:43 10.10.2021
880 Clouds 31 1006 56 10000 4.63 20 11:31 10.10.2021
881 Clouds 33 1006 48 10000 5.14 10 10:29 10.10.2021
882 Clouds 34 1006 46 10000 4.63 340 09:19 10.10.2021
883 Clouds 33 1006 52 10000 4.63 340 08:50 10.10.2021
884 Clouds 31 1010 64 10000 4.12 300 04:50 10.10.2021
885 Clouds 31 1011 65 10000 1.54 350 02:20 10.10.2021
886 Clouds 29 1013 73 10000 2.57 360 00:47 10.10.2021
887 Clouds 26 1012 82 10000 1.54 330 23:45 09.10.2021
888 Clouds 26 1012 81 10000 1.54 360 22:20 09.10.2021
889 Clouds 27 1009 80 10000 2.57 340 21:30 09.10.2021
890 Clouds 27 1008 80 10000 2.57 320 20:19 09.10.2021
891 Clouds 27 1009 82 10000 2.06 290 19:41 09.10.2021
892 Clouds 27 1009 82 10000 2.06 270 18:48 09.10.2021
893 Clouds 27 1009 82 10000 2.06 290 18:26 09.10.2021
894 Clouds 28 1009 80 10000 3.6 290 16:21 09.10.2021
895 Clear 28 1009 75 10000 3.6 290 14:37 09.10.2021
896 Clouds 28 1009 78 10000 4.63 300 13:39 09.10.2021
897 Clouds 29 1008 72 10000 4.12 10 12:35 09.10.2021
898 Clouds 31 1007 59 10000 4.63 20 10:47 09.10.2021
899 Clouds 32 1007 57 10000 5.14 20 10:21 09.10.2021
900 Clouds 33 1007 50 10000 5.14 10 09:23 09.10.2021
901 Clouds 34 1007 49 10000 6.17 30 08:20 09.10.2021
902 Clouds 34 1007 49 10000 6.17 30 08:20 09.10.2021
903 Clouds 34 1008 59 10000 5.66 350 06:46 09.10.2021
904 Clouds 33 1012 54 10000 5.14 350 04:55 09.10.2021
905 Clouds 31 1014 59 10000 2.06 30 02:46 09.10.2021
906 Clouds 29 1010 77 10000 1.54 20 00:43 09.10.2021
907 Clouds 26 1010 82 10000 1.54 10 23:35 08.10.2021
908 Clouds 26 1010 81 10000 2.57 360 22:47 08.10.2021
909 Clouds 27 1010 84 10000 2.57 360 21:45 08.10.2021
910 Clouds 27 1009 82 10000 2.57 340 20:30 08.10.2021
911 Clouds 28 1010 80 10000 3.09 320 18:23 08.10.2021
912 Clouds 28 1010 78 10000 4.12 310 17:18 08.10.2021
913 Clouds 28 1010 78 10000 4.12 310 17:18 08.10.2021
914 Clear 28 1010 78 10000 3.6 310 16:44 08.10.2021
915 Clear 28 1010 75 10000 4.63 300 16:22 08.10.2021
916 Clear 29 1009 70 10000 4.63 330 13:48 08.10.2021
917 Clear 30 1008 60 10000 4.63 10 11:56 08.10.2021
918 Clear 32 1007 54 10000 5.66 20 10:47 08.10.2021
919 Clear 33 1007 51 10000 6.17 10 09:48 08.10.2021
920 Clouds 33 1009 52 10000 3.09 290 06:49 08.10.2021
921 Clouds 25 1010 89 10000 1.03 60 23:28 07.10.2021
922 Clear 25 1009 88 10000 1.03 70 22:55 07.10.2021
923 Clouds 25 1009 90 10000 1.54 60 21:30 07.10.2021
924 Clouds 26 1009 89 10000 1.54 40 20:42 07.10.2021
925 Clouds 26 1009 87 10000 0 0 19:38 07.10.2021
926 Clouds 26 1009 86 10000 0 0 18:54 07.10.2021
927 Clouds 27 1010 82 10000 1.03 260 17:34 07.10.2021
928 Clouds 28 1010 81 10000 2.06 260 16:42 07.10.2021
929 Clouds 29 1010 78 10000 3.09 270 14:56 07.10.2021
930 Clouds 29 1009 76 10000 4.12 270 13:44 07.10.2021
931 Clouds 29 1009 76 10000 5.14 270 13:20 07.10.2021
932 Clear 30 1007 67 10000 6.17 280 11:26 07.10.2021
933 Clear 31 1007 52 10000 5.66 310 10:47 07.10.2021
934 Clear 34 1006 40 10000 4.63 350 09:47 07.10.2021
935 Clear 36 1007 19 10000 6.17 340 08:55 07.10.2021
936 Clear 36 1007 19 10000 5.66 20 08:20 07.10.2021
937 Clear 35 1007 29 10000 4.63 360 07:39 07.10.2021
938 Clear 34 1008 38 10000 5.14 350 06:47 07.10.2021
939 Clouds 29 1012 75 10000 1.03 100 00:55 07.10.2021
940 Clouds 26 1012 94 10000 1.54 80 23:25 06.10.2021
941 Clouds 26 1011 90 10000 1.54 190 22:40 06.10.2021
942 Clouds 26 1008 88 10000 1.54 210 21:40 06.10.2021
943 Clouds 26 1008 87 10000 2.06 210 20:33 06.10.2021
944 Clouds 27 1008 86 10000 2.06 220 19:23 06.10.2021
945 Clouds 27 1009 82 10000 3.09 260 17:41 06.10.2021
946 Clouds 28 1009 80 10000 3.09 260 15:44 06.10.2021
947 Clear 28 1009 81 10000 3.09 280 14:53 06.10.2021
948 Clear 28 1008 78 10000 4.63 300 13:31 06.10.2021
949 Clear 28 1008 78 10000 4.63 300 12:47 06.10.2021
950 Clear 29 1007 78 10000 4.12 300 12:28 06.10.2021
951 Clear 29 1006 74 10000 4.63 300 11:38 06.10.2021
952 Clouds 32 1006 60 10000 4.63 310 09:40 06.10.2021
953 Clouds 33 1006 57 10000 4.12 310 08:59 06.10.2021
954 Clouds 33 1006 59 10000 4.63 300 08:31 06.10.2021
955 Clouds 33 1008 52 10000 4.63 310 06:18 06.10.2021
956 Clouds 31 1011 62 10000 2.57 340 02:52 06.10.2021
957 Clouds 29 1009 81 10000 1.54 330 00:24 06.10.2021
958 Clouds 27 1009 88 10000 1.54 340 23:51 05.10.2021
959 Clouds 26 1008 89 10000 1.54 330 23:30 05.10.2021
960 Clouds 27 1008 89 10000 1.54 340 22:35 05.10.2021
961 Clouds 27 1007 85 10000 2.06 320 21:57 05.10.2021
962 Clouds 27 1007 86 10000 2.57 320 21:20 05.10.2021
963 Clouds 27 1006 87 10000 2.57 320 20:31 05.10.2021
964 Clouds 27 1006 86 10000 2.57 320 19:51 05.10.2021
965 Clouds 27 1007 86 10000 2.57 320 19:24 05.10.2021
966 Clouds 27 1007 86 10000 2.57 320 18:21 05.10.2021
967 Clear 28 1007 83 10000 3.09 300 15:36 05.10.2021
968 Clear 28 1007 82 10000 3.6 320 13:52 05.10.2021
969 Clear 28 1006 78 10000 3.6 320 13:23 05.10.2021
970 Clear 29 1006 75 10000 3.6 320 12:34 05.10.2021
971 Clear 29 1005 72 10000 3.09 330 11:41 05.10.2021
972 Clouds 31 1006 61 10000 3.6 310 10:37 05.10.2021
973 Clouds 32 1006 59 10000 4.63 310 07:59 05.10.2021
974 Clouds 30 1009 74 10000 2.06 30 01:46 05.10.2021
975 Clouds 27 1007 86 10000 1.03 330 22:56 04.10.2021
976 Clouds 28 1006 85 10000 3.6 280 21:27 04.10.2021
977 Clouds 28 1006 86 10000 4.12 290 18:51 04.10.2021
978 Clouds 28 1007 86 10000 4.63 300 17:29 04.10.2021
979 Clear 28 1007 85 10000 3.09 280 15:33 04.10.2021
980 Clear 28 1007 85 10000 3.09 280 14:46 04.10.2021
981 Clear 28 1007 85 10000 3.6 280 14:18 04.10.2021
982 Clear 28 1006 84 10000 3.6 280 13:32 04.10.2021
983 Clouds 28 1006 81 10000 3.6 270 12:50 04.10.2021
984 Clouds 29 1005 77 10000 4.12 270 11:34 04.10.2021
985 Clouds 30 1004 74 10000 5.14 280 10:47 04.10.2021
986 Clouds 31 1003 68 10000 6.69 290 09:44 04.10.2021
987 Clouds 33 1005 62 10000 7.2 300 07:53 04.10.2021
988 Clouds 33 1005 62 10000 7.2 290 06:50 04.10.2021
989 Clouds 27 1007 86 10000 2.57 270 23:38 03.10.2021
990 Clouds 27 1006 88 10000 3.09 290 21:56 03.10.2021
991 Clouds 27 1006 88 10000 3.09 300 21:34 03.10.2021
992 Clouds 27 1006 89 10000 3.6 280 20:49 03.10.2021
993 Clouds 27 1005 88 10000 3.6 310 19:49 03.10.2021
994 Clouds 27 1006 86 10000 3.6 330 18:29 03.10.2021
995 Clouds 27 1006 84 10000 3.6 330 17:37 03.10.2021
996 Clouds 27 1008 82 10000 2.57 290 15:30 03.10.2021
997 Clear 27 1007 82 10000 4.12 300 14:31 03.10.2021
998 Clear 27 1007 82 10000 4.12 300 14:31 03.10.2021
999 Clouds 27 1007 81 10000 4.63 290 13:36 03.10.2021
1000 Clouds 28 1006 81 10000 4.63 290 12:47 03.10.2021
1001 Clouds 28 1006 77 10000 5.14 300 11:37 03.10.2021
1002 Clouds 30 1005 71 10000 6.17 300 10:21 03.10.2021
1003 Clouds 32 1007 65 10000 7.2 290 06:42 03.10.2021
1004 Clouds 27 1007 89 10000 2.57 270 22:59 02.10.2021
1005 Clouds 27 1006 90 10000 3.09 270 21:59 02.10.2021
1006 Clouds 26 1006 89 10000 3.6 270 20:33 02.10.2021
1007 Clouds 26 1006 89 10000 3.6 290 18:57 02.10.2021
1008 Clouds 26 1006 89 10000 3.6 290 18:20 02.10.2021
1009 Clouds 27 1007 89 10000 2.57 290 17:38 02.10.2021
1010 Clear 26 1008 89 10000 2.57 280 16:39 02.10.2021
1011 Clouds 29 1006 75 10000 2.57 290 07:51 02.10.2021
1012 Clouds 28 1010 74 10000 2.57 280 15:37 30.09.2021
1013 Clear 28 1010 70 10000 2.57 270 14:22 30.09.2021
1014 Clouds 29 1009 65 10000 2.57 290 11:58 30.09.2021
1015 Clouds 30 1008 58 10000 4.12 340 10:55 30.09.2021
1016 Clouds 32 1008 54 10000 4.63 360 10:25 30.09.2021
1017 Clouds 33 1008 49 10000 5.14 340 08:31 30.09.2021
1018 Clouds 32 1009 51 10000 4.12 340 07:36 30.09.2021
1019 Clouds 32 1011 48 10000 5.14 320 05:25 30.09.2021
1020 Clouds 32 1011 48 10000 5.14 320 05:25 30.09.2021
1021 Clouds 31 1013 65 10000 3.6 60 02:33 30.09.2021
1022 Clouds 27 1012 80 10000 3.6 30 00:31 30.09.2021
1023 Clouds 26 1010 90 10000 0.51 360 22:41 29.09.2021
1024 Clouds 26 1010 88 10000 0 0 21:28 29.09.2021
1025 Clouds 26 1010 85 10000 2.57 350 20:30 29.09.2021
1026 Clouds 27 1010 81 10000 1.03 270 19:56 29.09.2021
1027 Clouds 27 1011 78 10000 1.54 280 18:54 29.09.2021
1028 Clouds 27 1011 77 10000 2.06 270 17:58 29.09.2021
1029 Clouds 28 1012 76 10000 2.57 280 16:55 29.09.2021
1030 Clouds 28 1012 76 10000 2.57 270 16:22 29.09.2021
1031 Clouds 28 1014 77 10000 1.54 330 14:42 29.09.2021
1032 Clouds 29 1014 77 10000 1.54 330 14:18 29.09.2021
1033 Clear 28 1011 74 10000 2.06 330 13:27 29.09.2021
1034 Clear 29 1010 66 10000 3.6 360 12:38 29.09.2021
1035 Clear 31 1009 57 10000 5.14 360 10:57 29.09.2021
1036 Clouds 31 1008 56 10000 6.17 350 10:25 29.09.2021
1037 Clear 34 1008 45 10000 5.14 50 09:39 29.09.2021
1038 Clouds 33 1009 49 10000 4.63 350 07:48 29.09.2021
1039 Clouds 33 1011 56 10000 4.63 310 05:50 29.09.2021
1040 Clouds 25 1011 89 10000 1.03 30 23:36 28.09.2021
1041 Clouds 24 1011 89 10000 0 0 22:24 28.09.2021
1042 Clouds 25 1010 88 10000 1.54 20 21:45 28.09.2021
1043 Clouds 25 1010 84 10000 1.54 30 20:44 28.09.2021
1044 Clouds 26 1010 83 10000 1.54 350 19:47 28.09.2021
1045 Clouds 26 1011 79 10000 2.06 350 18:53 28.09.2021
1046 Clouds 26 1011 80 10000 2.06 340 18:27 28.09.2021
1047 Clouds 28 1015 76 10000 3.6 350 16:42 28.09.2021
1048 Clouds 28 1011 75 10000 4.63 290 14:52 28.09.2021
1049 Clouds 29 1014 74 10000 3.6 290 13:22 28.09.2021
1050 Clouds 29 1013 73 10000 4.12 290 12:22 28.09.2021
1051 Clouds 29 1009 72 10000 4.63 300 11:47 28.09.2021
1052 Clouds 29 1008 71 10000 5.14 300 11:25 28.09.2021
1053 Clouds 32 1007 51 10000 5.66 30 10:26 28.09.2021
1054 Clear 33 1007 45 10000 5.66 30 09:25 28.09.2021
1055 Clouds 33 1007 50 10000 5.14 10 08:43 28.09.2021
1056 Clouds 32 1008 53 10000 5.14 350 07:49 28.09.2021
1057 Clouds 32 1008 55 10000 5.14 340 06:23 28.09.2021
1058 Clouds 29 1011 65 10000 2.06 40 01:29 28.09.2021
1059 Clouds 28 1011 80 10000 1.03 90 00:28 28.09.2021
1060 Clouds 26 1011 89 10000 1.03 90 23:48 27.09.2021
1061 Clouds 26 1010 89 10000 1.54 70 23:23 27.09.2021
1062 Clouds 25 1014 92 10000 0 0 22:20 27.09.2021
1063 Clouds 25 1009 90 10000 0 0 20:54 27.09.2021
1064 Clouds 25 1013 90 10000 0 0 20:24 27.09.2021
1065 Clouds 25 1009 86 10000 1.03 340 19:36 27.09.2021
1066 Clouds 26 1010 86 10000 1.03 330 18:52 27.09.2021
1067 Clouds 26 1010 86 10000 1.03 330 18:52 27.09.2021
1068 Clouds 27 1010 81 10000 2.06 320 17:36 27.09.2021
1069 Clouds 27 1011 80 10000 2.57 300 16:53 27.09.2021
1070 Clouds 27 1011 79 10000 2.57 310 16:33 27.09.2021
1071 Clouds 27 1011 81 10000 2.06 280 15:36 27.09.2021
1072 Clouds 27 1010 78 10000 3.09 280 13:44 27.09.2021
1073 Clouds 28 1009 77 10000 4.12 280 12:22 27.09.2021
1074 Clouds 29 1008 64 10000 4.12 300 10:48 27.09.2021
1075 Clouds 32 1007 56 10000 3.6 300 09:40 27.09.2021
1076 Clouds 31 1008 55 10000 5.14 320 07:44 27.09.2021
1077 Clouds 30 1012 64 10000 1.03 290 03:31 27.09.2021
1078 Clouds 25 1011 88 10000 2.57 110 23:42 26.09.2021
1079 Clouds 24 1009 92 10000 2.06 110 21:55 26.09.2021
1080 Clouds 24 1010 89 10000 1.54 130 21:27 26.09.2021
1081 Clouds 24 1010 89 10000 1.54 130 21:27 26.09.2021
1082 Clouds 25 1009 85 10000 1.03 130 20:25 26.09.2021
1083 Clouds 25 1009 84 10000 1.54 230 19:54 26.09.2021
1084 Clouds 26 1010 81 10000 1.54 270 19:25 26.09.2021
1085 Clouds 26 1010 81 10000 1.54 270 19:25 26.09.2021
1086 Clouds 26 1010 81 10000 1.54 270 19:25 26.09.2021
1087 Clouds 26 1010 81 10000 1.54 270 19:25 26.09.2021
1088 Clouds 26 1010 81 10000 1.54 270 19:25 26.09.2021
1089 Clouds 26 1010 82 10000 2.06 260 18:41 26.09.2021
1090 Clouds 27 1010 80 10000 2.06 240 17:38 26.09.2021
1091 Clouds 27 1010 80 10000 2.06 240 17:20 26.09.2021
1092 Clouds 27 1011 80 10000 2.06 250 16:22 26.09.2021
1093 Clouds 26 1010 78 10000 2.57 270 15:27 26.09.2021
1094 Clear 27 1010 74 10000 3.09 270 14:22 26.09.2021
1095 Clear 27 1009 69 10000 0.51 270 13:42 26.09.2021
1096 Clear 28 1009 62 10000 1.54 320 12:31 26.09.2021
1097 Clear 28 1009 59 10000 2.06 330 11:56 26.09.2021
1098 Clear 29 1008 55 10000 2.57 350 11:23 26.09.2021
1099 Clear 32 1007 43 10000 5.66 10 09:51 26.09.2021
1100 Clouds 32 1008 54 10000 6.17 360 08:41 26.09.2021
1101 Clouds 26 1012 78 10000 3.09 110 00:30 26.09.2021
1102 Clouds 25 1012 83 10000 1.54 90 23:46 25.09.2021
1103 Clouds 25 1011 84 10000 2.06 80 22:39 25.09.2021
1104 Clouds 25 1011 85 10000 2.06 80 22:19 25.09.2021
1105 Clouds 25 1011 85 10000 2.06 80 22:19 25.09.2021
1106 Clouds 25 1013 85 10000 2.06 90 21:45 25.09.2021
1107 Clouds 25 1011 85 10000 1.54 40 20:52 25.09.2021
1108 Clouds 25 1011 85 10000 1.54 40 20:52 25.09.2021
1109 Clouds 26 1011 81 10000 0.51 230 19:41 25.09.2021
1110 Clouds 26 1011 84 10000 1.54 230 18:28 25.09.2021
1111 Clouds 26 1011 80 10000 1.03 230 17:45 25.09.2021
1112 Clear 27 1011 77 10000 5.14 300 14:39 25.09.2021
1113 Clear 27 1010 78 10000 4.12 310 13:55 25.09.2021
1114 Clouds 28 1010 66 10000 2.57 340 12:46 25.09.2021
1115 Clouds 28 1009 60 10000 4.63 10 11:27 25.09.2021
1116 Clear 30 1008 53 10000 5.14 360 10:20 25.09.2021
1117 Clear 31 1008 51 10000 5.14 360 09:22 25.09.2021
1118 Clear 32 1009 51 10000 4.12 360 07:48 25.09.2021
1119 Clouds 26 1013 79 10000 4.63 110 00:52 25.09.2021
1120 Clouds 22 1012 89 10000 2.57 110 23:25 24.09.2021
1121 Clouds 22 1012 91 10000 2.06 100 21:34 24.09.2021
1122 Clouds 23 1012 85 10000 1.54 80 20:32 24.09.2021
1123 Clouds 23 1012 83 10000 1.54 30 19:32 24.09.2021
1124 Clouds 23 1012 83 10000 1.54 30 19:32 24.09.2021
1125 Clouds 24 1012 85 10000 1.03 360 18:21 24.09.2021
1126 Clouds 25 1013 81 10000 1.54 360 17:53 24.09.2021
1127 Clouds 25 1013 81 10000 2.06 360 17:34 24.09.2021
1128 Clouds 26 1014 77 10000 2.57 340 15:59 24.09.2021
1129 Clouds 27 1011 71 10000 5.14 330 13:28 24.09.2021
1130 Clear 27 1011 66 10000 4.12 10 12:43 24.09.2021
1131 Clear 28 1011 65 10000 4.63 10 12:25 24.09.2021
1132 Clear 29 1009 54 10000 5.66 360 10:56 24.09.2021
1133 Clouds 30 1009 52 10000 6.17 10 09:57 24.09.2021
1134 Clouds 32 1009 49 10000 6.17 10 08:23 24.09.2021
1135 Clouds 31 1010 53 10000 6.69 360 07:30 24.09.2021
1136 Clouds 31 1011 45 10000 4.63 20 05:57 24.09.2021
1137 Clouds 30 1013 51 10000 2.06 110 04:51 24.09.2021
1138 Clear 21 1012 73 10000 1.54 90 22:44 23.09.2021
1139 Clouds 22 1012 73 10000 0.51 170 21:59 23.09.2021
1140 Clouds 22 1012 73 10000 0.51 170 21:20 23.09.2021
1141 Clouds 22 1012 73 10000 0.51 170 21:20 23.09.2021
1142 Clouds 23 1012 64 10000 1.54 200 20:32 23.09.2021
1143 Clouds 23 1013 66 10000 1.54 190 18:55 23.09.2021
1144 Clear 25 1014 64 10000 1.54 330 16:47 23.09.2021
1145 Clear 25 1014 62 10000 3.6 330 15:20 23.09.2021
1146 Clear 25 1013 62 10000 2.57 340 14:58 23.09.2021
1147 Clear 25 1013 55 10000 1.03 360 13:36 23.09.2021
1148 Clear 25 1013 54 10000 1.03 360 13:18 23.09.2021
1149 Clear 26 1012 47 10000 0.51 360 12:45 23.09.2021
1150 Clear 26 1012 46 10000 2.57 10 12:21 23.09.2021
1151 Clear 29 1010 36 10000 6.17 20 10:41 23.09.2021
1152 Clear 29 1010 37 10000 6.17 20 10:19 23.09.2021
1153 Clear 29 1010 37 10000 6.17 20 10:19 23.09.2021
1154 Clear 31 1010 35 10000 5.66 10 09:47 23.09.2021
1155 Clear 33 1012 10 10000 4.63 20 06:25 23.09.2021
1156 Clear 22 1015 24 10000 3.6 140 00:28 23.09.2021
1157 Clear 20 1014 28 10000 3.6 130 22:54 22.09.2021
1158 Clear 20 1014 28 10000 3.6 140 22:22 22.09.2021
1159 Clouds 21 1013 27 10000 3.09 140 21:44 22.09.2021
1160 Clouds 22 1013 23 10000 4.12 130 20:58 22.09.2021
1161 Clouds 21 1013 28 10000 2.57 110 20:27 22.09.2021
1162 Clouds 22 1013 26 10000 2.57 70 19:27 22.09.2021
1163 Clouds 25 1014 19 10000 4.63 130 18:35 22.09.2021
1164 Rain 24 1014 30 10000 0.45 235 17:38 22.09.2021
1165 Clear 27 1014 26 10000 5.91 131 15:53 22.09.2021
1166 Clear 25 1014 65 10000 1.54 240 14:37 22.09.2021
1167 Smoke 27 1013 54 10000 1.54 290 13:24 22.09.2021
1168 Smoke 29 1011 44 10000 3.09 360 11:20 22.09.2021
1169 Clear 30 1010 39 10000 6.17 360 10:18 22.09.2021
1170 Smoke 35 1010 13 10000 3.6 110 08:52 22.09.2021
1171 Clear 34 1010 13 10000 4.12 110 07:49 22.09.2021
1172 Clear 34 1011 10 10000 4.63 140 06:56 22.09.2021
1173 Clear 34 1012 13 10000 6.69 130 05:49 22.09.2021
1174 Clear 32 1013 10 10000 6.17 140 05:23 22.09.2021
1175 Clear 31 1015 18 10000 8.23 130 03:34 22.09.2021
1176 Clear 24 1014 50 10000 4.12 120 00:19 22.09.2021
1177 Clear 24 1013 57 10000 3.09 110 22:28 21.09.2021
1178 Clear 24 1012 65 10000 3.6 110 21:31 21.09.2021
1179 Clouds 24 1012 84 10000 5.66 125 19:38 21.09.2021
1180 Clouds 25 1013 83 10000 2.57 170 19:20 21.09.2021
1181 Clear 26 1013 78 10000 0 0 16:59 21.09.2021
1182 Clear 26 1013 78 10000 0 0 16:27 21.09.2021
1183 Clear 26 1014 78 10000 1.03 140 15:31 21.09.2021
1184 Clear 27 1013 76 10000 1.54 150 14:56 21.09.2021
1185 Clear 28 1012 63 10000 1.03 280 13:40 21.09.2021
1186 Clear 28 1012 63 10000 2.06 290 12:58 21.09.2021
1187 Clouds 31 1009 43 10000 3.23 299 11:19 21.09.2021
1188 Clear 31 1009 51 10000 5.14 300 09:54 21.09.2021
1189 Clear 33 1009 46 10000 7.2 310 07:51 21.09.2021
1190 Clouds 37 1010 18 10000 7.2 120 06:18 21.09.2021
1191 Clear 24 1012 83 10000 0 0 23:58 20.09.2021
1192 Clouds 24 1011 78 10000 1.54 70 21:58 20.09.2021
1193 Clouds 24 1011 78 10000 2.06 80 21:32 20.09.2021
1194 Clouds 24 1011 73 10000 1.54 90 20:29 20.09.2021
1195 Clouds 24 1011 73 10000 1.54 60 19:28 20.09.2021
1196 Clouds 25 1013 69 10000 1.54 100 17:39 20.09.2021
1197 Clear 25 1013 72 10000 1.54 90 16:33 20.09.2021
1198 Clear 25 1013 70 10000 1.03 80 15:49 20.09.2021
1199 Clear 25 1013 70 10000 0 0 15:22 20.09.2021
1200 Clear 26 1012 61 10000 0 0 13:43 20.09.2021
1201 Clear 27 1011 58 10000 2.06 360 12:35 20.09.2021
1202 Clear 29 1010 54 10000 4.12 10 11:23 20.09.2021
1203 Clear 31 1009 50 10000 7.2 10 09:57 20.09.2021
1204 Clear 31 1009 50 10000 6.69 10 09:36 20.09.2021
1205 Clear 31 1009 53 10000 8.75 360 08:58 20.09.2021
1206 Clear 36 1010 25 10000 7.2 130 06:55 20.09.2021
1207 Clear 23 1014 81 10000 2.06 140 23:45 19.09.2021
1208 Clear 22 1013 83 10000 1.03 130 22:26 19.09.2021
1209 Clouds 23 1012 83 10000 0 0 21:40 19.09.2021
1210 Clouds 24 1013 73 10000 1.54 130 20:34 19.09.2021
1211 Clouds 24 1013 77 10000 1.54 140 19:22 19.09.2021
1212 Clouds 25 1014 73 10000 0 0 18:29 19.09.2021
1213 Clouds 25 1014 73 10000 1.03 160 17:22 19.09.2021
1214 Clear 26 1014 74 10000 1.54 170 15:55 19.09.2021
1215 Clear 25 1014 75 10000 0 0 15:29 19.09.2021
1216 Clear 27 1013 68 10000 0.51 160 14:46 19.09.2021
1217 Clear 27 1012 64 10000 4.63 40 13:24 19.09.2021
1218 Clear 28 1012 62 10000 5.14 40 12:50 19.09.2021
1219 Clear 29 1011 55 10000 7.72 40 11:28 19.09.2021
1220 Clear 29 1011 54 10000 7.72 40 10:47 19.09.2021
1221 Clear 31 1011 51 10000 7.72 30 09:40 19.09.2021
1222 Clear 32 1011 46 10000 8.23 20 08:35 19.09.2021
1223 Clear 34 1012 34 10000 5.14 60 06:42 19.09.2021
1224 Clear 23 1014 86 10000 2.06 140 23:43 18.09.2021
1225 Clear 23 1013 88 10000 1.54 130 22:23 18.09.2021
1226 Clouds 24 1013 85 10000 1.54 150 20:52 18.09.2021
1227 Clouds 24 1013 85 10000 1.54 150 20:52 18.09.2021
1228 Clouds 23 1013 87 10000 1.54 100 20:32 18.09.2021
1229 Clouds 25 1013 82 10000 1.03 70 19:39 18.09.2021
1230 Clouds 25 1013 81 10000 1.03 70 19:20 18.09.2021
1231 Clouds 24 1014 82 10000 1.54 80 18:32 18.09.2021
1232 Clouds 26 1014 77 10000 1.54 40 17:34 18.09.2021
1233 Clouds 26 1014 75 10000 1.54 10 16:20 18.09.2021
1234 Clear 26 1013 73 10000 2.57 40 13:49 18.09.2021
1235 Clear 27 1013 70 10000 2.06 40 13:29 18.09.2021
1236 Clear 27 1012 68 10000 1.54 30 12:49 18.09.2021
1237 Clear 28 1011 62 10000 3.6 30 11:40 18.09.2021
1238 Clear 31 1010 51 10000 6.17 20 10:32 18.09.2021
1239 Clear 30 1010 56 10000 6.69 10 09:28 18.09.2021
1240 Clear 31 1010 54 10000 6.69 10 08:57 18.09.2021
1241 Clouds 32 1014 51 10000 0.89 228 03:51 18.09.2021
1242 Clouds 27 1014 78 10000 3.84 83 00:41 18.09.2021
1243 Clouds 24 1014 87 10000 2.94 82 23:48 17.09.2021
1244 Clouds 23 1013 92 10000 2.49 82 22:38 17.09.2021
1245 Clouds 24 1012 92 10000 1.54 60 22:19 17.09.2021
1246 Clouds 24 1012 93 10000 0.51 340 20:47 17.09.2021
1247 Clouds 25 1012 86 10000 1.54 340 19:22 17.09.2021
1248 Clouds 26 1013 78 10000 1.54 320 17:21 17.09.2021
1249 Clear 27 1013 78 10000 2.57 290 16:24 17.09.2021
1250 Clear 27 1012 61 10000 0 0 13:21 17.09.2021
1251 Clear 31 1009 43 10000 6.17 30 10:53 17.09.2021
1252 Clouds 32 1009 50 10000 6.69 360 08:46 17.09.2021
1253 Clear 33 1010 50 10000 6.69 300 06:53 17.09.2021
1254 Clear 27 1014 74 10000 2.06 120 01:26 17.09.2021
1255 Clear 24 1013 88 10000 1.54 150 23:25 16.09.2021
1256 Clear 24 1012 94 10000 2.06 120 22:25 16.09.2021
1257 Clouds 23 1012 94 10000 1.54 110 21:43 16.09.2021
1258 Clouds 24 1012 91 10000 1.54 100 21:22 16.09.2021
1259 Clouds 24 1012 91 10000 1.54 140 20:18 16.09.2021
1260 Clouds 24 1012 91 10000 1.54 140 20:18 16.09.2021
1261 Clouds 24 1013 97 10000 0 0 18:20 16.09.2021
1262 Clouds 24 1013 94 10000 0.51 250 17:33 16.09.2021
1263 Clouds 28 1013 80 10000 3.6 280 14:56 16.09.2021
1264 Clouds 28 1012 75 10000 2.57 340 13:56 16.09.2021
1265 Clouds 28 1011 67 10000 2.57 10 12:49 16.09.2021
1266 Clouds 29 1010 65 10000 4.63 30 12:28 16.09.2021
1267 Clouds 30 1009 59 10000 6.17 30 11:25 16.09.2021
1268 Clear 31 1008 56 10000 6.69 30 10:33 16.09.2021
1269 Clear 32 1008 54 10000 6.17 20 09:57 16.09.2021
1270 Clear 34 1009 47 10000 6.69 20 08:42 16.09.2021
1271 Clear 34 1009 47 10000 6.69 20 08:42 16.09.2021
1272 Clouds 33 1010 46 10000 7.2 10 07:36 16.09.2021
1273 Clear 34 1010 48 10000 5.66 20 06:46 16.09.2021
1274 Clear 34 1012 38 10000 5.14 70 05:26 16.09.2021
1275 Clouds 29 1014 69 10000 3.09 40 01:41 16.09.2021
1276 Clear 24 1013 91 10000 0 0 23:47 15.09.2021
1277 Clear 24 1012 90 10000 0 0 22:47 15.09.2021
1278 Clear 24 1012 90 10000 0 0 22:47 15.09.2021
1279 Clouds 25 1012 87 10000 1.03 310 21:48 15.09.2021
1280 Clouds 24 1011 89 10000 1.03 30 21:29 15.09.2021
1281 Clouds 26 1012 82 10000 2.57 20 19:58 15.09.2021
1282 Clouds 26 1012 81 10000 2.57 30 19:27 15.09.2021
1283 Clouds 26 1013 83 10000 4.12 360 18:20 15.09.2021
1284 Clouds 27 1013 84 10000 2.06 190 16:59 15.09.2021
1285 Clouds 28 1013 81 10000 3.6 200 15:46 15.09.2021
1286 Clouds 28 1013 83 10000 3.09 210 14:45 15.09.2021
1287 Clouds 28 1013 83 10000 3.09 210 14:45 15.09.2021
1288 Clear 28 1012 78 10000 3.09 210 13:52 15.09.2021
1289 Clear 28 1012 78 10000 3.09 210 13:30 15.09.2021
1290 Clear 29 1011 70 10000 2.57 230 12:48 15.09.2021
1291 Clouds 30 1010 66 10000 5.66 300 11:52 15.09.2021
1292 Clouds 30 1010 66 10000 5.66 300 11:52 15.09.2021
1293 Clouds 30 1010 66 10000 5.66 300 11:32 15.09.2021
1294 Clouds 30 1010 66 10000 2.06 290 10:55 15.09.2021
1295 Clouds 31 1009 62 10000 5.14 300 09:30 15.09.2021
1296 Clouds 32 1009 62 10000 5.66 320 08:20 15.09.2021
1297 Clouds 32 1013 64 10000 3.6 300 04:55 15.09.2021
1298 Clouds 25 1014 98 10000 1.03 260 23:54 14.09.2021
1299 Clouds 25 1012 94 10000 1.03 260 21:42 14.09.2021
1300 Clouds 25 1012 94 10000 0.51 260 20:39 14.09.2021
1301 Clouds 26 1012 94 10000 1.03 260 19:42 14.09.2021
1302 Clouds 26 1013 90 10000 1.54 260 17:40 14.09.2021
1303 Clouds 26 1013 90 10000 1.54 260 17:40 14.09.2021
1304 Clouds 27 1013 89 10000 1.54 260 16:59 14.09.2021
1305 Clear 26 1013 90 10000 2.06 280 15:37 14.09.2021
1306 Clear 26 1012 87 10000 2.06 260 14:31 14.09.2021
1307 Clear 27 1012 81 10000 3.6 240 12:45 14.09.2021
1308 Clouds 30 1010 70 10000 4.63 300 10:54 14.09.2021
1309 Clouds 31 1010 66 10000 4.63 350 09:51 14.09.2021
1310 Clouds 31 1010 65 10000 3.09 350 08:41 14.09.2021
1311 Clouds 25 1012 94 10000 2.57 20 06:24 14.09.2021
1312 Clouds 26 1014 93 10000 1.03 90 00:33 14.09.2021
1313 Clouds 26 1013 94 10000 2.06 110 22:53 13.09.2021
1314 Clouds 26 1012 94 10000 1.03 300 22:24 13.09.2021
1315 Clouds 25 1012 94 10000 1.03 300 21:51 13.09.2021
1316 Clouds 26 1012 91 10000 1.03 300 20:50 13.09.2021
1317 Clouds 26 1012 94 10000 1.03 200 19:22 13.09.2021
1318 Clouds 26 1012 94 10000 2.06 220 18:39 13.09.2021
1319 Clouds 26 1013 90 10000 1.54 230 16:50 13.09.2021
1320 Clear 27 1013 89 10000 2.06 260 15:31 13.09.2021
1321 Clear 27 1011 83 10000 4.12 270 12:26 13.09.2021
1322 Clouds 29 1010 74 10000 3.6 320 10:58 13.09.2021
1323 Clouds 29 1010 78 10000 2.06 310 09:40 13.09.2021
1324 Clouds 30 1013 69 10000 3.6 300 04:59 13.09.2021
1325 Clouds 25 1012 94 10000 1.54 120 23:41 12.09.2021
1326 Clouds 25 1011 90 10000 0 0 22:25 12.09.2021
1327 Clouds 25 1011 90 10000 1.54 200 21:37 12.09.2021
1328 Clouds 26 1011 86 10000 1.54 240 20:29 12.09.2021
1329 Clouds 26 1011 86 10000 1.54 210 19:51 12.09.2021
1330 Clouds 26 1011 86 10000 1.54 250 19:19 12.09.2021
1331 Clouds 26 1011 83 10000 2.06 270 18:20 12.09.2021
1332 Clouds 27 1012 81 10000 3.09 260 16:32 12.09.2021
1333 Clear 27 1011 82 10000 3.09 270 14:54 12.09.2021
1334 Clear 27 1011 80 10000 2.57 280 13:20 12.09.2021
1335 Clear 29 1008 60 10000 3.09 10 11:31 12.09.2021
1336 Clouds 32 1008 54 10000 5.14 20 09:27 12.09.2021
1337 Clouds 32 1008 54 10000 5.66 360 08:38 12.09.2021
1338 Clouds 29 1013 74 10000 1.54 160 01:50 12.09.2021
1339 Clouds 24 1011 91 10000 1.54 140 23:28 11.09.2021
1340 Clouds 24 1011 90 10000 1.54 160 21:50 11.09.2021
1341 Clear 25 1010 87 10000 1.54 200 20:31 11.09.2021
1342 Clear 25 1011 86 10000 2.06 240 19:21 11.09.2021
1343 Clouds 27 1012 81 10000 2.06 250 17:34 11.09.2021
1344 Clouds 27 1012 81 10000 3.09 270 15:48 11.09.2021
1345 Clouds 27 1011 78 10000 1.54 350 13:49 11.09.2021
1346 Clear 27 1010 72 10000 1.03 330 12:50 11.09.2021
1347 Clear 29 1009 65 10000 4.63 10 11:19 11.09.2021
1348 Clear 32 1008 50 10000 6.69 10 09:38 11.09.2021
1349 Clear 32 1009 48 10000 6.69 350 07:45 11.09.2021
1350 Clear 32 1010 52 10000 5.66 340 06:50 11.09.2021
1351 Clear 24 1012 88 10000 1.03 350 23:37 10.09.2021
1352 Clear 23 1012 91 10000 1.03 350 22:24 10.09.2021
1353 Clouds 23 1012 91 10000 0.51 350 21:54 10.09.2021
1354 Clouds 24 1012 88 10000 0 0 19:58 10.09.2021
1355 Clouds 25 1013 87 10000 1.03 350 18:27 10.09.2021
1356 Clouds 25 1014 84 10000 2.06 340 16:51 10.09.2021
1357 Clear 26 1012 78 10000 1.54 10 14:41 10.09.2021
1358 Clear 28 1011 65 10000 3.09 360 11:56 10.09.2021
1359 Clear 33 1011 43 10000 5.14 50 08:36 10.09.2021
1360 Clear 34 1011 37 10000 4.63 70 07:49 10.09.2021
1361 Clear 24 1015 69 10000 4.63 130 00:42 10.09.2021
1362 Clear 23 1014 83 10000 3.09 90 22:31 09.09.2021
1363 Clouds 24 1013 87 10000 2.57 100 21:45 09.09.2021
1364 Clouds 24 1014 90 10000 2.06 90 20:46 09.09.2021
1365 Clouds 25 1014 83 10000 1.54 80 19:54 09.09.2021
1366 Clouds 24 1014 87 10000 1.54 50 18:31 09.09.2021
1367 Clear 25 1014 79 10000 1.54 70 16:40 09.09.2021
1368 Clear 25 1014 79 10000 1.03 70 15:36 09.09.2021
1369 Clear 27 1012 67 10000 3.6 30 12:48 09.09.2021
1370 Smoke 28 1011 63 10000 5.14 30 11:41 09.09.2021
1371 Smoke 32 1011 45 10000 6.69 60 09:50 09.09.2021
1372 Clear 33 1011 38 10000 5.14 60 08:47 09.09.2021
1373 Clear 33 1011 38 10000 5.14 60 08:47 09.09.2021
1374 Clear 33 1013 31 10000 7.72 80 06:26 09.09.2021
1375 Clear 28 1016 35 10000 8.23 110 02:19 09.09.2021
1376 Clear 24 1014 46 10000 6.17 110 22:40 08.09.2021
1377 Clouds 25 1014 45 10000 6.17 120 21:31 08.09.2021
1378 Clouds 25 1014 55 10000 5.66 110 19:56 08.09.2021
1379 Clouds 26 1014 55 10000 5.66 100 18:58 08.09.2021
1380 Clouds 25 1014 58 10000 4.12 100 18:29 08.09.2021
1381 Clouds 26 1014 53 10000 4.63 90 17:55 08.09.2021
1382 Clear 27 1015 52 10000 4.63 70 16:28 08.09.2021
1383 Clear 28 1014 50 10000 3.09 60 14:25 08.09.2021
1384 Clear 28 1013 46 10000 2.57 60 12:46 08.09.2021
1385 Clear 29 1012 45 10000 3.09 50 12:26 08.09.2021
1386 Clear 31 1011 39 10000 2.57 90 11:29 08.09.2021
1387 Clear 33 1011 26 10000 6.69 100 10:33 08.09.2021
1388 Clear 33 1011 26 10000 6.69 120 09:59 08.09.2021
1389 Clear 34 1011 25 10000 7.2 120 08:31 08.09.2021
1390 Clear 34 1011 22 10000 8.23 110 07:32 08.09.2021
1391 Clear 31 1014 30 10000 9.77 110 04:19 08.09.2021
1392 Clear 24 1013 43 10000 4.12 130 22:43 07.09.2021
1393 Clear 24 1013 47 10000 3.6 110 21:52 07.09.2021
1394 Clouds 24 1013 40 10000 2.57 110 19:52 07.09.2021
1395 Clouds 24 1014 38 10000 4.12 130 18:45 07.09.2021
1396 Clouds 25 1014 43 10000 3.6 130 17:49 07.09.2021
1397 Clear 25 1015 65 10000 2.06 230 16:33 07.09.2021
1398 Clear 26 1014 61 10000 2.06 230 15:35 07.09.2021
1399 Clear 26 1014 61 10000 2.06 240 14:41 07.09.2021
1400 Clear 26 1013 57 10000 1.54 320 12:38 07.09.2021
1401 Clear 30 1012 37 10000 5.14 310 11:36 07.09.2021
1402 Clear 32 1011 24 10000 4.12 120 10:40 07.09.2021
1403 Clear 32 1012 25 10000 5.66 110 08:25 07.09.2021
1404 Clear 32 1013 25 10000 6.17 100 06:45 07.09.2021
1405 Smoke 31 1014 25 10000 7.2 130 05:24 07.09.2021
1406 Clear 25 1016 27 10000 7.72 150 02:32 07.09.2021
1407 Clear 23 1015 33 10000 6.17 150 00:43 07.09.2021
1408 Clear 23 1015 39 10000 5.66 140 23:34 06.09.2021
1409 Clear 23 1014 39 10000 5.14 140 22:53 06.09.2021
1410 Clear 23 1014 40 10000 4.63 130 22:32 06.09.2021
1411 Clear 24 1013 40 10000 4.63 140 20:55 06.09.2021
1412 Clouds 25 1013 42 10000 4.12 140 19:23 06.09.2021
1413 Clouds 24 1013 46 10000 3.6 130 18:46 06.09.2021
1414 Clouds 24 1013 47 10000 3.6 140 18:23 06.09.2021
1415 Clouds 25 1014 47 10000 3.09 140 17:36 06.09.2021
1416 Clear 25 1014 73 10000 1.03 220 15:52 06.09.2021
1417 Clear 26 1014 66 10000 0 0 13:48 06.09.2021
1418 Clear 26 1013 63 10000 1.54 320 12:47 06.09.2021
1419 Clear 30 1011 48 10000 4.63 360 10:45 06.09.2021
1420 Clear 33 1011 29 10000 6.17 100 07:59 06.09.2021
1421 Clear 30 1015 34 10000 6.17 140 04:48 06.09.2021
1422 Clouds 24 1014 45 10000 7.2 140 23:35 05.09.2021
1423 Clouds 24 1014 45 10000 5.14 140 22:48 05.09.2021
1424 Clouds 25 1013 61 10000 4.63 160 21:58 05.09.2021
1425 Clouds 25 1013 79 10000 2.57 100 21:30 05.09.2021
1426 Clouds 25 1013 81 10000 1.54 100 20:33 05.09.2021
1427 Clouds 25 1013 83 10000 0.51 110 18:46 05.09.2021
1428 Clouds 26 1014 78 10000 1.54 100 17:31 05.09.2021
1429 Smoke 27 1014 76 10000 2.57 180 15:28 05.09.2021
1430 Smoke 27 1014 69 10000 2.06 160 14:19 05.09.2021
1431 Smoke 28 1012 64 10000 2.06 300 12:29 05.09.2021
1432 Smoke 31 1010 49 10000 5.66 30 10:53 05.09.2021
1433 Clouds 31 1010 49 10000 6.69 30 10:23 05.09.2021
1434 Clear 32 1009 48 10000 7.2 30 09:21 05.09.2021
1435 Clear 33 1010 50 10000 4.63 30 07:51 05.09.2021
1436 Clouds 28 1013 78 10000 3.6 80 01:22 05.09.2021
1437 Clouds 25 1013 88 10000 1.54 70 00:27 05.09.2021
1438 Clouds 24 1012 89 10000 0.51 70 23:39 04.09.2021
1439 Clouds 24 1012 89 10000 1.03 70 22:36 04.09.2021
1440 Clouds 25 1012 85 10000 4.12 60 21:56 04.09.2021
1441 Clouds 27 1012 84 10000 2.57 330 19:41 04.09.2021
1442 Clouds 27 1012 83 10000 0.51 350 18:43 04.09.2021
1443 Clouds 26 1012 79 10000 0.51 190 16:22 04.09.2021
1444 Clear 28 1011 67 10000 2.06 190 13:22 04.09.2021
1445 Clouds 29 1009 62 10000 6.17 20 11:19 04.09.2021
1446 Clouds 32 1008 53 10000 6.17 30 09:19 04.09.2021
1447 Clouds 33 1010 46 10000 4.12 80 05:50 04.09.2021
1448 Clouds 26 1012 86 10000 1.03 80 00:25 04.09.2021
1449 Clouds 25 1011 86 10000 1.54 90 23:31 03.09.2021
1450 Clouds 25 1010 86 10000 1.03 100 22:35 03.09.2021
1451 Clouds 25 1011 86 10000 0 0 21:35 03.09.2021
1452 Clouds 25 1011 86 10000 0 0 21:35 03.09.2021
1453 Clouds 26 1010 82 10000 0.51 60 20:42 03.09.2021
1454 Clouds 26 1011 83 10000 1.54 60 19:50 03.09.2021
1455 Clouds 27 1011 78 10000 2.57 50 19:18 03.09.2021
1456 Clouds 28 1012 74 10000 1.54 320 17:47 03.09.2021
1457 Clouds 28 1012 83 10000 4.63 300 16:34 03.09.2021
1458 Clouds 28 1011 78 10000 3.09 20 14:53 03.09.2021
1459 Clouds 29 1008 66 10000 6.17 40 11:59 03.09.2021
1460 Clouds 31 1007 57 10000 7.2 30 10:31 03.09.2021
1461 Clouds 33 1007 55 10000 7.2 10 08:46 03.09.2021
1462 Clouds 33 1008 46 10000 7.72 20 07:44 03.09.2021
1463 Clouds 28 1012 77 10000 3.6 100 01:40 03.09.2021
1464 Clouds 25 1011 91 10000 0 0 23:20 02.09.2021
1465 Clouds 27 1011 81 10000 1.03 60 21:35 02.09.2021
1466 Clouds 27 1011 77 10000 0.51 10 19:55 02.09.2021
1467 Clouds 28 1012 82 10000 1.54 290 17:32 02.09.2021
1468 Clear 28 1012 79 10000 2.57 340 15:52 02.09.2021
1469 Clear 28 1010 78 10000 4.12 20 13:57 02.09.2021
1470 Clear 28 1010 75 10000 4.63 30 12:48 02.09.2021
1471 Clouds 29 1009 67 10000 6.17 30 11:35 02.09.2021
1472 Clear 32 1008 58 10000 6.69 360 09:40 02.09.2021
1473 Clear 33 1009 46 10000 6.69 20 07:48 02.09.2021
1474 Clear 34 1009 40 10000 5.66 40 07:18 02.09.2021
1475 Clouds 30 1014 56 10000 5.14 80 02:56 02.09.2021
1476 Clear 29 1014 63 10000 4.63 90 01:56 02.09.2021
1477 Clear 28 1013 70 10000 4.12 100 01:25 02.09.2021
1478 Clouds 26 1012 84 10000 1.03 90 23:39 01.09.2021
1479 Clouds 26 1012 82 10000 1.54 70 22:40 01.09.2021
1480 Clouds 26 1012 79 10000 2.57 50 21:39 01.09.2021
1481 Clouds 27 1012 79 10000 2.57 40 20:39 01.09.2021
1482 Clouds 26 1012 87 10000 1.54 320 18:43 01.09.2021
1483 Clouds 26 1012 86 10000 2.06 300 17:40 01.09.2021
1484 Clouds 26 1012 84 10000 1.54 300 16:47 01.09.2021
1485 Rain 26 1012 80 10000 1.54 350 15:29 01.09.2021
1486 Clear 28 1010 69 10000 3.6 30 12:19 01.09.2021
1487 Clear 29 1009 66 10000 4.63 20 11:44 01.09.2021
1488 Clear 33 1009 52 10000 6.69 330 08:48 01.09.2021
1489 Clear 32 1010 58 10000 6.69 290 07:52 01.09.2021
1490 Clouds 31 1012 62 10000 5.14 300 05:23 01.09.2021
1491 Clouds 25 1012 87 10000 1.54 190 22:41 31.08.2021
1492 Clouds 26 1012 84 10000 1.54 190 21:27 31.08.2021
1493 Clouds 27 1012 81 10000 0.51 260 19:46 31.08.2021
1494 Clouds 27 1012 78 10000 1.03 300 18:29 31.08.2021
1495 Clouds 28 1013 74 10000 3.09 320 17:37 31.08.2021
1496 Clouds 28 1013 77 10000 3.09 330 16:53 31.08.2021
1497 Clouds 28 1013 73 10000 3.6 320 16:24 31.08.2021
1498 Clouds 28 1013 73 10000 3.6 320 16:24 31.08.2021
1499 Clear 26 1011 75 10000 0 0 13:20 31.08.2021
1500 Clear 29 1010 65 10000 4.12 20 11:28 31.08.2021
1501 Clear 30 1010 57 10000 4.63 20 10:52 31.08.2021
1502 Clear 31 1009 51 10000 4.63 360 09:44 31.08.2021
1503 Clouds 32 1009 54 10000 5.66 350 08:38 31.08.2021
1504 Clear 32 1011 54 10000 5.14 310 05:59 31.08.2021
1505 Clouds 30 1014 56 10000 3.09 70 03:40 31.08.2021
1506 Clear 23 1012 94 10000 0.51 190 23:35 30.08.2021
1507 Clouds 23 1012 94 10000 2.06 160 21:45 30.08.2021
1508 Clouds 23 1012 94 10000 2.06 160 21:27 30.08.2021
1509 Clouds 24 1012 94 10000 2.06 170 20:20 30.08.2021
1510 Clouds 25 1011 88 10000 2.06 190 19:29 30.08.2021
1511 Clouds 25 1012 88 10000 2.06 240 18:30 30.08.2021
1512 Clouds 24 1012 91 10000 2.06 210 17:44 30.08.2021
1513 Clear 25 1012 83 10000 1.54 230 16:20 30.08.2021
1514 Clear 26 1012 78 10000 1.54 250 15:38 30.08.2021
1515 Clear 26 1011 79 10000 2.57 240 13:35 30.08.2021
1516 Clear 27 1010 70 10000 2.57 280 12:24 30.08.2021
1517 Clear 33 1008 40 10000 4.63 350 08:58 30.08.2021
1518 Clear 22 1011 96 10000 0.51 230 22:27 29.08.2021
1519 Clouds 23 1011 93 10000 2.06 230 21:32 29.08.2021
1520 Clouds 23 1011 93 10000 0 0 19:59 29.08.2021
1521 Clouds 23 1011 91 10000 0 0 19:18 29.08.2021
1522 Clouds 24 1012 91 10000 1.54 190 17:47 29.08.2021
1523 Clear 25 1011 85 10000 3.6 220 15:47 29.08.2021
1524 Clear 26 1011 81 10000 3.09 230 14:18 29.08.2021
1525 Clear 26 1010 76 10000 3.6 240 13:33 29.08.2021
1526 Clear 26 1009 68 10000 2.57 270 12:31 29.08.2021
1527 Clear 27 1009 66 10000 3.09 280 11:45 29.08.2021
1528 Clouds 29 1008 52 8000 3.6 310 10:52 29.08.2021
1529 Clear 30 1008 50 10000 3.6 340 10:33 29.08.2021
1530 Clear 31 1008 49 10000 4.63 350 09:54 29.08.2021
1531 Clear 34 1009 37 10000 3.09 350 06:55 29.08.2021
1532 Clear 23 1012 83 10000 2.06 140 00:20 29.08.2021
1533 Clouds 23 1011 88 10000 1.54 160 21:50 28.08.2021
1534 Clouds 23 1011 83 10000 2.57 190 19:54 28.08.2021
1535 Clouds 23 1011 77 10000 1.54 130 18:28 28.08.2021
1536 Clouds 23 1012 74 10000 2.06 170 17:48 28.08.2021
1537 Clouds 23 1012 74 10000 2.06 170 17:48 28.08.2021
1538 Clear 23 1012 77 10000 0 0 16:58 28.08.2021
1539 Clear 23 1012 72 10000 0 0 15:32 28.08.2021
1540 Clear 25 1012 64 10000 1.03 110 14:19 28.08.2021
1541 Clear 26 1011 61 10000 1.54 50 13:43 28.08.2021
1542 Clear 27 1010 55 10000 3.09 30 12:41 28.08.2021
1543 Clear 28 1010 51 10000 4.63 30 11:51 28.08.2021
1544 Clear 31 1009 41 10000 4.63 360 10:29 28.08.2021
1545 Clear 32 1009 43 10000 5.66 330 08:38 28.08.2021
1546 Clear 34 1010 19 10000 6.17 100 06:23 28.08.2021
1547 Clear 22 1011 94 10000 1.03 130 22:28 27.08.2021
1548 Clouds 22 1011 93 10000 1.54 130 20:56 27.08.2021
1549 Clouds 22 1012 90 10000 1.54 100 20:19 27.08.2021
1550 Clouds 22 1012 91 10000 0 0 18:46 27.08.2021
1551 Clouds 23 1012 89 10000 0.51 90 18:28 27.08.2021
1552 Clear 23 1013 90 10000 0.51 70 16:55 27.08.2021
1553 Clear 24 1013 84 10000 2.06 40 15:21 27.08.2021
1554 Clear 24 1013 84 10000 2.06 40 15:21 27.08.2021
1555 Clear 25 1012 80 10000 3.6 210 14:38 27.08.2021
1556 Clear 27 1011 68 10000 3.09 260 12:30 27.08.2021
1557 Clear 28 1010 56 10000 3.6 290 11:24 27.08.2021
1558 Clear 30 1009 51 10000 4.63 350 10:42 27.08.2021
1559 Clear 32 1009 41 10000 4.12 330 09:30 27.08.2021
1560 Clear 33 1009 35 10000 4.63 310 08:41 27.08.2021
1561 Clear 33 1011 22 10000 6.69 100 05:53 27.08.2021
1562 Clear 29 1013 52 10000 4.63 100 02:44 27.08.2021
1563 Clear 23 1012 89 10000 1.54 140 00:31 27.08.2021
1564 Clear 22 1011 88 10000 1.03 50 22:29 26.08.2021
1565 Clear 22 1011 88 8000 0.51 50 21:57 26.08.2021
1566 Clouds 23 1011 78 10000 1.03 50 20:18 26.08.2021
1567 Clouds 23 1012 82 10000 2.57 60 18:49 26.08.2021
1568 Clouds 25 1012 80 10000 2.57 350 17:34 26.08.2021
1569 Clouds 25 1012 73 10000 0.51 350 16:32 26.08.2021
1570 Clouds 24 1012 79 10000 0 0 15:53 26.08.2021
1571 Clear 25 1010 72 10000 2.06 360 13:29 26.08.2021
1572 Clear 25 1010 68 10000 1.54 360 12:49 26.08.2021
1573 Clear 27 1009 57 10000 1.54 340 11:51 26.08.2021
1574 Clear 31 1009 41 10000 4.12 360 09:40 26.08.2021
1575 Clear 32 1009 37 10000 4.63 350 08:27 26.08.2021
1576 Clear 23 1013 56 10000 4.12 100 00:46 26.08.2021
1577 Clear 21 1012 66 10000 3.6 150 22:46 25.08.2021
1578 Clear 21 1012 73 10000 3.6 150 22:26 25.08.2021
1579 Clouds 21 1012 94 10000 2.06 190 20:58 25.08.2021
1580 Clouds 21 1012 94 10000 1.54 210 20:31 25.08.2021
1581 Clouds 22 1012 88 10000 2.06 220 19:55 25.08.2021
1582 Clouds 22 1012 89 10000 0 0 18:18 25.08.2021
1583 Clear 24 1013 83 10000 1.03 240 16:31 25.08.2021
1584 Clear 25 1012 73 10000 2.06 250 15:40 25.08.2021
1585 Clear 25 1012 69 10000 2.06 240 14:47 25.08.2021
1586 Clear 24 1011 69 10000 2.06 360 13:58 25.08.2021
1587 Clear 26 1011 57 10000 1.03 80 12:40 25.08.2021
1588 Clear 28 1010 44 10000 2.06 80 11:21 25.08.2021
1589 Clear 30 1010 31 10000 3.09 80 10:26 25.08.2021
1590 Clear 31 1010 31 10000 2.57 80 09:42 25.08.2021
1591 Clear 31 1010 30 10000 3.09 90 08:39 25.08.2021
1592 Clear 31 1011 28 10000 4.12 70 07:32 25.08.2021
1593 Clear 23 1014 61 10000 3.09 120 01:26 25.08.2021
1594 Clear 21 1013 81 10000 3.09 90 23:40 24.08.2021
1595 Clouds 21 1013 78 10000 6.17 80 21:41 24.08.2021
1596 Clouds 21 1013 88 10000 6.17 50 20:23 24.08.2021
1597 Clouds 21 1013 88 10000 6.69 60 19:44 24.08.2021
1598 Clouds 23 1013 94 6000 4.63 90 17:56 24.08.2021
1599 Clouds 23 1013 100 10000 3.6 80 17:22 24.08.2021
1600 Clouds 23 1013 100 5000 5.66 120 16:38 24.08.2021
1601 Clouds 25 1012 87 8000 4.12 200 14:24 24.08.2021
1602 Clouds 27 1011 74 10000 3.09 190 12:45 24.08.2021
1603 Clouds 27 1010 77 10000 3.6 230 11:25 24.08.2021
1604 Clouds 30 1009 69 10000 3.09 310 10:47 24.08.2021
1605 Clouds 31 1009 67 10000 3.09 310 10:25 24.08.2021
1606 Clouds 31 1009 62 10000 4.63 30 08:39 24.08.2021
1607 Clouds 30 1011 72 10000 4.63 340 06:35 24.08.2021
1608 Clouds 31 1013 66 10000 2.06 300 03:49 24.08.2021
1609 Clouds 24 1012 92 10000 1.54 150 23:59 23.08.2021
1610 Clouds 25 1011 91 10000 1.54 320 22:51 23.08.2021
1611 Clouds 25 1011 89 10000 0 0 21:52 23.08.2021
1612 Clouds 25 1011 87 10000 1.03 320 20:25 23.08.2021
1613 Clouds 26 1012 84 10000 1.54 340 18:39 23.08.2021
1614 Clouds 26 1012 84 10000 3.6 310 16:29 23.08.2021
1615 Clear 26 1011 81 10000 1.54 210 13:58 23.08.2021
1616 Clear 27 1010 77 10000 2.57 350 12:34 23.08.2021
1617 Clouds 29 1009 73 10000 3.6 310 11:24 23.08.2021
1618 Clouds 30 1009 65 10000 4.12 350 10:36 23.08.2021
1619 Clouds 31 1009 62 10000 5.66 350 09:21 23.08.2021
1620 Clouds 32 1009 59 10000 5.14 330 07:54 23.08.2021
1621 Clouds 31 1010 60 10000 4.12 340 06:47 23.08.2021
1622 Clouds 32 1012 54 10000 3.6 270 04:46 23.08.2021
1623 Clear 25 1013 91 10000 0.51 180 00:48 23.08.2021
1624 Fog 21 1012 95 9000 1.03 180 22:43 22.08.2021
1625 Clouds 21 1012 95 10000 1.03 180 21:58 22.08.2021
1626 Clear 22 1012 92 10000 1.03 180 20:21 22.08.2021
1627 Clouds 23 1012 91 10000 1.03 180 18:54 22.08.2021
1628 Clear 25 1012 86 10000 1.54 210 16:27 22.08.2021
1629 Clear 26 1012 82 10000 3.6 220 14:55 22.08.2021
1630 Clear 26 1011 79 10000 3.6 230 13:59 22.08.2021
1631 Clear 26 1011 76 10000 3.6 240 13:20 22.08.2021
1632 Clear 26 1011 76 10000 3.6 240 13:20 22.08.2021
1633 Clear 26 1011 76 10000 3.6 240 13:20 22.08.2021
1634 Clear 26 1011 74 10000 3.09 260 12:50 22.08.2021
1635 Clear 27 1010 68 10000 2.57 290 11:55 22.08.2021
1636 Clear 27 1010 68 10000 3.6 290 11:33 22.08.2021
1637 Clear 30 1009 58 10000 5.66 310 09:59 22.08.2021
1638 Clear 33 1010 48 10000 4.12 330 07:59 22.08.2021
1639 Clouds 31 1013 53 10000 2.57 310 04:46 22.08.2021
1640 Fog 22 1013 95 9000 1.54 170 22:49 21.08.2021
1641 Clear 23 1012 95 10000 2.06 180 22:25 21.08.2021
1642 Clear 22 1013 89 10000 2.06 230 19:22 21.08.2021
1643 Clear 22 1013 78 10000 1.03 180 18:39 21.08.2021
1644 Clear 22 1013 83 10000 0.51 180 17:48 21.08.2021
1645 Clouds 22 1013 78 10000 0 0 16:50 21.08.2021
1646 Clear 23 1013 73 10000 1.54 200 15:51 21.08.2021
1647 Clear 23 1013 72 10000 1.54 200 15:26 21.08.2021
1648 Clear 24 1013 65 10000 1.03 240 14:20 21.08.2021
1649 Clear 26 1011 56 10000 2.06 30 12:41 21.08.2021
1650 Clear 26 1011 56 10000 2.06 30 12:22 21.08.2021
1651 Clear 31 1010 44 10000 5.66 360 09:21 21.08.2021
1652 Clear 27 1014 72 10000 2.06 60 01:39 21.08.2021
1653 Clear 22 1013 91 10000 0 0 22:41 20.08.2021
1654 Clear 22 1013 91 10000 0.51 170 20:47 20.08.2021
1655 Clear 24 1013 85 10000 2.06 360 17:46 20.08.2021
1656 Clear 24 1013 75 10000 2.57 110 15:42 20.08.2021
1657 Clear 26 1012 68 10000 0 0 13:23 20.08.2021
1658 Clear 27 1011 63 10000 4.63 20 11:32 20.08.2021
1659 Clouds 29 1010 58 10000 5.14 20 10:37 20.08.2021
1660 Clear 30 1010 54 10000 5.66 360 09:29 20.08.2021
1661 Clouds 31 1011 52 10000 4.63 10 08:38 20.08.2021
1662 Clouds 31 1012 59 10000 5.14 290 06:22 20.08.2021
1663 Clouds 31 1014 55 10000 5.14 90 04:21 20.08.2021
1664 Clouds 23 1014 89 10000 1.54 130 00:18 20.08.2021
1665 Clear 23 1013 85 10000 3.09 110 22:39 19.08.2021
1666 Clear 23 1013 84 10000 3.09 110 22:18 19.08.2021
1667 Clear 23 1012 83 10000 0.51 120 20:23 19.08.2021
1668 Clouds 22 1013 83 10000 1.54 130 18:57 19.08.2021
1669 Clear 23 1013 84 10000 1.54 130 17:18 19.08.2021
1670 Clear 24 1013 79 10000 1.03 160 15:40 19.08.2021
1671 Clear 26 1011 73 10000 2.06 30 13:19 19.08.2021
1672 Clear 27 1011 66 10000 3.09 30 12:31 19.08.2021
1673 Clear 28 1010 58 10000 4.12 20 11:21 19.08.2021
1674 Clear 30 1009 52 10000 5.66 360 09:50 19.08.2021
1675 Clear 30 1009 51 10000 5.66 10 09:30 19.08.2021
1676 Clear 31 1009 50 10000 5.14 360 08:54 19.08.2021
1677 Clear 33 1011 27 10000 3.6 90 06:32 19.08.2021
1678 Clear 28 1014 62 10000 4.12 80 02:22 19.08.2021
1679 Clear 26 1013 77 10000 3.6 90 01:41 19.08.2021
1680 Clouds 23 1011 86 10000 2.06 110 22:42 18.08.2021
1681 Clouds 23 1011 83 10000 2.06 100 21:37 18.08.2021
1682 Clouds 23 1011 87 10000 3.09 110 20:24 18.08.2021
1683 Clear 22 1011 89 10000 1.54 210 19:28 18.08.2021
1684 Clear 22 1011 88 10000 0 0 18:46 18.08.2021
1685 Clear 23 1012 82 10000 2.57 270 17:29 18.08.2021
1686 Clear 23 1012 76 10000 1.54 50 15:46 18.08.2021
1687 Clear 24 1012 71 10000 1.54 80 15:22 18.08.2021
1688 Clear 25 1011 63 10000 0 0 13:29 18.08.2021
1689 Clear 27 1010 57 10000 2.57 20 12:41 18.08.2021
1690 Clear 27 1010 57 10000 2.57 20 12:23 18.08.2021
1691 Clouds 30 1009 53 10000 5.66 360 09:25 18.08.2021
1692 Clear 32 1012 36 10000 3.09 50 04:30 18.08.2021
1693 Clear 22 1013 67 10000 1.54 110 00:41 18.08.2021
1694 Clear 20 1012 88 10000 0.51 260 22:28 17.08.2021
1695 Clouds 21 1012 78 10000 0.51 260 21:22 17.08.2021
1696 Clouds 21 1011 82 9000 0 0 20:43 17.08.2021
1697 Clear 21 1012 84 10000 0 0 18:56 17.08.2021
1698 Clear 23 1013 73 10000 0.51 200 17:27 17.08.2021
1699 Clear 23 1013 79 10000 1.03 20 16:31 17.08.2021
1700 Clear 24 1013 77 10000 2.06 230 15:35 17.08.2021
1701 Clear 25 1013 78 10000 1.54 250 13:57 17.08.2021
1702 Clear 28 1011 61 10000 3.09 340 11:36 17.08.2021
1703 Clear 33 1010 25 10000 4.63 60 09:20 17.08.2021
1704 Clear 33 1011 26 10000 4.63 70 07:44 17.08.2021
1705 Clear 21 1014 59 10000 3.6 150 23:30 16.08.2021
1706 Clear 21 1014 69 10000 3.6 150 22:54 16.08.2021
1707 Clear 21 1014 76 10000 3.09 140 22:36 16.08.2021
1708 Clouds 22 1014 71 10000 2.57 140 21:52 16.08.2021
1709 Clear 22 1014 62 10000 2.06 140 20:53 16.08.2021
1710 Clear 22 1014 67 10000 3.09 120 19:44 16.08.2021
1711 Clear 23 1014 59 10000 2.57 90 19:22 16.08.2021
1712 Clear 23 1014 77 10000 1.03 90 18:22 16.08.2021
1713 Clear 23 1015 80 10000 1.54 80 17:51 16.08.2021
1714 Clear 26 1015 69 10000 2.06 230 15:30 16.08.2021
1715 Clear 27 1015 69 10000 2.57 230 14:36 16.08.2021
1716 Clear 26 1014 69 10000 0.51 340 13:31 16.08.2021
1717 Clear 27 1014 66 10000 1.54 340 12:31 16.08.2021
1718 Clear 31 1012 48 10000 5.66 350 10:37 16.08.2021
1719 Clear 35 1012 25 10000 4.12 130 08:44 16.08.2021
1720 Clear 35 1012 26 10000 4.63 110 07:33 16.08.2021
1721 Clear 34 1013 31 10000 7.72 120 06:35 16.08.2021
1722 Clear 28 1017 58 10000 6.69 150 02:18 16.08.2021
1723 Clear 23 1014 92 10000 1.54 90 21:53 15.08.2021
1724 Clouds 23 1014 90 10000 1.54 70 20:28 15.08.2021
1725 Clouds 24 1015 83 10000 0 0 18:47 15.08.2021
1726 Clouds 25 1015 83 10000 1.54 70 17:54 15.08.2021
1727 Clouds 25 1016 81 10000 2.06 60 17:32 15.08.2021
1728 Clear 25 1016 83 10000 0 0 16:24 15.08.2021
1729 Clear 26 1015 75 10000 0 0 14:42 15.08.2021
1730 Clear 27 1014 69 10000 1.54 180 13:55 15.08.2021
1731 Clear 29 1012 62 10000 4.12 20 11:18 15.08.2021
1732 Clear 34 1011 38 10000 4.63 60 08:59 15.08.2021
1733 Clear 27 1015 68 10000 3.09 140 01:56 15.08.2021
1734 Clear 24 1015 86 10000 2.06 150 00:37 15.08.2021
1735 Clouds 23 1013 91 9000 2.06 180 21:59 14.08.2021
1736 Clouds 23 1013 91 10000 1.54 160 20:58 14.08.2021
1737 Clear 23 1013 89 10000 1.54 180 19:43 14.08.2021
1738 Clear 24 1013 84 10000 0 0 18:40 14.08.2021
1739 Clear 24 1014 83 10000 0 0 16:59 14.08.2021
1740 Clear 24 1014 82 10000 0 0 15:47 14.08.2021
1741 Clear 26 1014 77 10000 3.6 50 14:24 14.08.2021
1742 Clear 27 1012 71 10000 4.12 40 12:19 14.08.2021
1743 Clouds 29 1011 64 10000 5.14 20 10:45 14.08.2021
1744 Clear 32 1011 54 10000 7.2 360 07:40 14.08.2021
1745 Clear 21 1015 83 10000 1.03 140 23:53 13.08.2021
1746 Clear 21 1013 82 10000 1.54 130 22:26 13.08.2021
1747 Clear 22 1013 75 10000 1.03 150 20:31 13.08.2021
1748 Clear 23 1014 78 10000 2.06 160 18:47 13.08.2021
1749 Clear 23 1014 72 10000 2.06 190 17:43 13.08.2021
1750 Clear 24 1014 67 10000 1.54 190 16:24 13.08.2021
1751 Clear 26 1012 58 10000 3.09 50 13:30 13.08.2021
1752 Clear 29 1011 46 10000 5.66 50 11:20 13.08.2021
1753 Clear 34 1009 23 10000 4.63 130 09:41 13.08.2021
1754 Clear 34 1010 22 10000 6.17 130 08:36 13.08.2021
1755 Clear 34 1011 25 10000 7.2 110 07:19 13.08.2021
1756 Clear 32 1014 28 10000 9.26 120 04:59 13.08.2021
1757 Clear 22 1014 91 10000 1.54 150 23:37 12.08.2021
1758 Clouds 23 1014 86 10000 1.03 170 21:20 12.08.2021
1759 Clouds 23 1014 83 10000 1.03 140 20:22 12.08.2021
1760 Clouds 23 1014 83 6000 1.03 140 19:42 12.08.2021
1761 Clouds 24 1015 79 10000 1.03 140 17:51 12.08.2021
1762 Clear 24 1015 76 10000 1.54 160 16:29 12.08.2021
1763 Clear 24 1015 76 10000 1.54 160 16:29 12.08.2021
1764 Clear 24 1015 76 10000 1.54 160 16:29 12.08.2021
1765 Clear 25 1015 70 10000 1.54 140 14:52 12.08.2021
1766 Clear 27 1013 62 10000 4.12 40 12:59 12.08.2021
1767 Clear 30 1012 55 10000 6.17 40 10:49 12.08.2021
1768 Clear 34 1012 42 10000 6.69 130 07:56 12.08.2021
1769 Clouds 27 1016 82 10000 3.6 60 01:51 12.08.2021
1770 Clear 23 1015 90 10000 0 0 22:54 11.08.2021
1771 Clouds 23 1015 87 10000 1.54 90 20:45 11.08.2021
1772 Clear 23 1016 84 10000 1.03 100 18:28 11.08.2021
1773 Clear 24 1016 79 10000 2.06 90 15:39 11.08.2021
1774 Clear 25 1016 78 10000 1.54 90 15:20 11.08.2021
1775 Clear 25 1015 77 10000 1.03 90 14:22 11.08.2021
1776 Clear 27 1013 70 10000 4.12 30 12:30 11.08.2021
1777 Clear 28 1013 68 10000 4.12 30 11:46 11.08.2021
1778 Clear 28 1013 66 10000 5.14 30 11:22 11.08.2021
1779 Clear 31 1012 55 10000 5.14 360 09:46 11.08.2021
1780 Clear 33 1013 43 10000 4.63 20 07:59 11.08.2021
1781 Clouds 23 1015 87 10000 1.54 80 23:34 10.08.2021
1782 Clouds 23 1015 81 10000 1.03 90 22:32 10.08.2021
1783 Clouds 23 1014 83 10000 1.54 80 21:19 10.08.2021
1784 Clouds 24 1014 83 10000 1.03 120 19:52 10.08.2021
1785 Clouds 24 1015 89 10000 1.54 170 18:33 10.08.2021
1786 Clear 25 1015 83 10000 0.51 360 16:37 10.08.2021
1787 Clear 25 1015 82 10000 0 0 14:53 10.08.2021
1788 Clear 26 1013 68 10000 5.66 40 12:26 10.08.2021
1789 Clouds 30 1012 52 10000 6.17 20 10:38 10.08.2021
1790 Clear 33 1012 37 10000 5.14 10 06:55 10.08.2021
1791 Clouds 31 1014 40 10000 5.66 50 04:58 10.08.2021
1792 Clouds 22 1014 83 10000 1.54 100 23:42 09.08.2021
1793 Clear 20 1014 91 10000 1.54 100 21:55 09.08.2021
1794 Clear 20 1013 90 10000 1.54 120 21:36 09.08.2021
1795 Clear 21 1014 91 10000 1.03 140 19:37 09.08.2021
1796 Clear 22 1014 89 10000 1.03 190 17:54 09.08.2021
1797 Clear 24 1014 78 10000 2.06 220 15:35 09.08.2021
1798 Clear 23 1014 78 10000 0 0 14:25 09.08.2021
1799 Clear 24 1013 76 10000 2.06 20 13:27 09.08.2021
1800 Clear 26 1013 67 10000 3.09 360 11:47 09.08.2021
1801 Clear 31 1012 45 10000 4.63 330 08:31 09.08.2021
1802 Clear 27 1016 49 10000 5.14 80 02:54 09.08.2021
1803 Clear 20 1014 83 10000 2.57 160 21:28 08.08.2021
1804 Clear 19 1014 82 10000 1.54 140 19:51 08.08.2021
1805 Clear 21 1015 79 10000 2.06 180 16:55 08.08.2021
1806 Clear 22 1016 73 10000 1.54 180 15:42 08.08.2021
1807 Clear 23 1015 70 10000 2.57 30 13:41 08.08.2021
1808 Clear 26 1014 58 10000 2.57 350 11:41 08.08.2021
1809 Clear 32 1013 22 10000 2.57 200 08:21 08.08.2021
1810 Clear 30 1015 28 10000 4.63 120 06:40 08.08.2021
1811 Clouds 21 1017 60 10000 4.12 100 00:33 08.08.2021
1812 Clear 21 1016 56 10000 5.14 100 23:18 07.08.2021
1813 Clear 20 1016 51 10000 2.57 110 21:41 07.08.2021
1814 Clear 19 1016 59 10000 2.57 140 20:55 07.08.2021
1815 Clouds 19 1017 85 10000 1.03 160 17:57 07.08.2021
1816 Clear 21 1017 81 10000 0 0 16:50 07.08.2021
1817 Clear 22 1017 67 10000 1.54 180 14:56 07.08.2021
1818 Clear 22 1016 71 10000 1.03 50 13:33 07.08.2021
1819 Clear 28 1014 45 10000 4.63 350 10:27 07.08.2021
1820 Clear 30 1015 21 10000 3.6 120 06:31 07.08.2021
1821 Clear 22 1018 30 10000 5.14 130 01:51 07.08.2021
1822 Clouds 19 1017 31 10000 3.6 130 21:51 06.08.2021
1823 Clear 21 1017 27 10000 4.12 120 20:34 06.08.2021
1824 Clouds 21 1017 26 10000 4.12 130 19:56 06.08.2021
1825 Clouds 21 1017 28 10000 4.63 140 18:45 06.08.2021
1826 Clouds 21 1019 27 10000 3.6 150 17:23 06.08.2021
1827 Clear 29 1014 20 10000 2.57 100 10:53 06.08.2021
1828 Clear 31 1017 12 10000 4.12 120 09:56 06.08.2021
1829 Clear 30 1017 11 10000 5.66 140 07:47 06.08.2021
1830 Clear 20 1017 31 10000 5.14 130 23:33 05.08.2021
1831 Clouds 21 1017 34 10000 4.12 140 21:56 05.08.2021
1832 Clouds 22 1016 34 10000 4.63 140 20:44 05.08.2021
1833 Clouds 22 1017 35 10000 4.12 140 19:25 05.08.2021
1834 Clouds 24 1017 37 10000 2.57 150 16:33 05.08.2021
1835 Clear 26 1017 53 10000 1.54 230 14:49 05.08.2021
1836 Clear 29 1014 26 10000 3.09 120 11:34 05.08.2021
1837 Clear 32 1013 22 10000 4.63 130 08:38 05.08.2021
1838 Clear 29 1017 26 10000 7.2 110 04:50 05.08.2021
1839 Clear 22 1016 46 10000 3.6 130 23:36 04.08.2021
1840 Clouds 22 1016 51 10000 4.12 140 21:44 04.08.2021
1841 Clouds 22 1016 53 10000 4.12 140 21:21 04.08.2021
1842 Clouds 23 1016 82 10000 3.6 170 18:22 04.08.2021
1843 Clear 25 1017 79 10000 2.06 180 16:42 04.08.2021
1844 Clear 27 1016 72 10000 2.06 200 14:43 04.08.2021
1845 Clear 28 1014 64 10000 4.63 10 11:34 04.08.2021
1846 Clouds 31 1016 52 10000 5.14 100 04:55 04.08.2021
1847 Clouds 23 1014 85 10000 2.57 70 20:35 03.08.2021
1848 Clouds 23 1014 90 10000 2.06 70 19:59 03.08.2021
1849 Clouds 23 1015 90 10000 1.03 90 17:50 03.08.2021
1850 Clear 24 1015 86 10000 1.54 160 16:23 03.08.2021
1851 Clear 26 1013 72 10000 1.54 290 12:20 03.08.2021
1852 Clouds 29 1012 65 10000 4.63 310 10:39 03.08.2021
1853 Clouds 30 1013 59 10000 4.63 330 06:46 03.08.2021
1854 Clouds 24 1013 84 10000 2.57 180 17:48 02.08.2021
1855 Clear 23 1013 87 10000 1.03 200 16:38 02.08.2021
1856 Clear 25 1013 82 10000 2.06 180 14:51 02.08.2021
1857 Clear 28 1011 62 10000 4.63 30 11:59 02.08.2021
1858 Clear 28 1011 62 10000 4.63 30 11:59 02.08.2021
1859 Clear 28 1011 60 10000 5.14 30 11:34 02.08.2021
1860 Clear 32 1010 46 10000 5.14 20 09:49 02.08.2021
1861 Clear 22 1013 95 10000 1.03 110 22:40 01.08.2021
1862 Clouds 23 1012 91 10000 0 0 18:19 01.08.2021
1863 Clear 24 1012 84 10000 0 0 15:29 01.08.2021
1864 Clear 28 1010 70 10000 4.63 10 11:38 01.08.2021
1865 Clouds 31 1009 58 10000 4.63 10 09:25 01.08.2021
1866 Clouds 30 1015 63 10000 2.57 90 03:48 01.08.2021
1867 Clouds 24 1008 95 10000 1.54 160 22:52 31.07.2021
1868 Clear 23 1012 93 10000 1.03 160 20:52 31.07.2021
1869 Clear 23 1013 91 10000 0 0 17:49 31.07.2021
1870 Clear 23 1013 88 10000 1.03 250 16:36 31.07.2021
1871 Clear 26 1012 80 10000 2.57 300 12:38 31.07.2021
1872 Clouds 30 1013 57 10000 3.6 340 08:34 31.07.2021
1873 Clouds 30 1013 57 10000 3.6 340 08:34 31.07.2021
1874 Clear 25 1017 89 10000 1.54 70 01:38 31.07.2021
1875 Clouds 23 1013 95 10000 1.54 150 20:31 30.07.2021
1876 Clouds 23 1013 92 10000 1.54 150 19:23 30.07.2021
1877 Clouds 31 1014 57 10000 4.63 350 07:50 30.07.2021
1878 Clear 24 1013 91 10000 1.54 220 16:53 29.07.2021
1879 Clouds 31 1012 62 10000 3.6 310 06:32 29.07.2021
1880 Clouds 31 1013 61 10000 3.09 290 04:29 29.07.2021
1881 Clouds 21 1012 95 10000 1.03 110 21:21 28.07.2021
1882 Clouds 24 1013 91 10000 1.54 180 17:22 28.07.2021
1883 Clear 25 1013 82 10000 2.57 220 15:25 28.07.2021
1884 Clouds 31 1012 60 10000 5.14 330 07:53 28.07.2021
1885 Clouds 21 1013 96 8000 1.03 140 22:54 27.07.2021
1886 Clouds 22 1012 95 9000 2.06 150 21:27 27.07.2021
1887 Clear 25 1013 77 10000 1.54 200 14:52 27.07.2021
1888 Clear 29 1014 55 10000 4.63 360 10:46 27.07.2021
1889 Clouds 31 1012 51 10000 5.14 330 07:59 27.07.2021
1890 Clouds 23 1016 87 10000 1.03 350 17:43 26.07.2021
1891 Clear 24 1013 81 10000 0 0 15:31 26.07.2021
1892 Clouds 29 1013 61 10000 4.63 80 04:51 26.07.2021
1893 Clouds 23 1013 97 10000 2.57 80 20:56 25.07.2021
1894 Clouds 23 1013 95 10000 1.54 240 18:24 25.07.2021
1895 Clear 24 1014 89 10000 1.54 260 15:46 25.07.2021
1896 Clear 28 1012 53 10000 3.09 320 10:56 25.07.2021
1897 Clouds 30 1012 60 10000 5.14 310 08:19 25.07.2021
1898 Clouds 22 1012 93 10000 1.03 350 21:22 24.07.2021
1899 Clouds 22 1012 93 10000 2.06 340 20:18 24.07.2021
1900 Clear 24 1013 86 10000 2.06 230 14:37 24.07.2021
1901 Clear 29 1014 45 10000 1.54 220 04:20 24.07.2021
1902 Clear 24 1012 82 10000 1.54 270 14:37 23.07.2021
1903 Clear 25 1011 74 10000 2.57 270 12:41 23.07.2021
1904 Clouds 30 1013 60 10000 2.57 240 04:48 23.07.2021
1905 Clouds 21 1012 94 10000 1.54 240 19:26 22.07.2021
1906 Clear 26 1010 48 10000 2.06 330 11:21 22.07.2021
1907 Clear 30 1010 41 10000 3.6 350 08:38 22.07.2021
1908 Clear 27 1015 50 10000 1.03 10 03:22 22.07.2021
1909 Clouds 18 1013 90 10000 0 0 21:45 21.07.2021
1910 Clouds 18 1013 90 10000 1.03 160 21:27 21.07.2021
1911 Clear 23 1013 60 10000 1.54 10 13:23 21.07.2021
1912 Clear 30 1010 42 10000 4.12 330 09:24 21.07.2021
1913 Smoke 31 1012 18 5000 3.09 140 07:25 21.07.2021
1914 Clouds 20 1014 79 8000 2.57 140 23:28 20.07.2021
1915 Clear 23 1015 82 10000 3.09 180 16:37 20.07.2021
1916 Clear 23 1015 83 10000 3.09 190 15:59 20.07.2021
1917 Clear 24 1015 80 10000 2.57 190 15:24 20.07.2021
1918 Clear 29 1012 51 10000 4.12 350 10:21 20.07.2021
1919 Clear 30 1014 29 10000 6.17 80 04:48 20.07.2021
1920 Clear 21 1013 58 10000 3.6 120 22:25 19.07.2021
1921 Clear 26 1012 70 10000 1.54 360 12:53 19.07.2021
1922 Clear 30 1011 55 10000 3.6 330 10:29 19.07.2021
1923 Clouds 22 1012 84 10000 2.57 200 19:38 18.07.2021
1924 Clear 24 1012 69 10000 1.03 50 13:49 18.07.2021
1925 Clear 28 1010 57 10000 3.09 20 10:18 18.07.2021
1926 Clear 21 1011 84 10000 3.09 80 22:25 17.07.2021
1927 Clouds 21 1012 85 10000 2.06 110 21:45 17.07.2021
1928 Clear 22 1011 84 10000 2.06 160 21:23 17.07.2021
1929 Clear 26 1010 76 10000 2.57 280 12:28 17.07.2021
1930 Clear 31 1007 53 10000 3.6 340 08:55 17.07.2021
1931 Clear 26 1012 64 10000 3.09 130 02:46 17.07.2021
1932 Clear 25 1011 75 10000 2.57 270 13:22 16.07.2021
1933 Clear 31 1010 58 10000 5.14 310 07:33 16.07.2021
1934 Fog 23 1012 96 10000 0 0 00:41 16.07.2021
1935 Clear 25 1011 87 10000 1.54 350 13:53 15.07.2021
1936 Clear 27 1011 77 10000 1.54 350 12:25 15.07.2021
1937 Clouds 31 1010 65 10000 4.12 340 07:27 15.07.2021
1938 Clouds 22 1011 91 10000 0.51 170 19:39 14.07.2021
1939 Clear 23 1011 83 10000 0.51 270 15:55 14.07.2021
1940 Clear 30 1007 51 10000 4.63 350 09:52 14.07.2021
1941 Clear 20 1011 84 10000 1.54 60 23:19 13.07.2021
1942 Clouds 20 1010 83 10000 0 0 19:57 13.07.2021
1943 Clouds 21 1010 79 10000 1.54 180 19:37 13.07.2021
1944 Clouds 21 1010 78 10000 1.54 180 19:18 13.07.2021
1945 Clouds 23 1011 73 10000 0 0 18:42 13.07.2021
1946 Clouds 23 1011 74 10000 0 0 18:23 13.07.2021
1947 Clear 25 1010 73 10000 2.57 260 13:21 13.07.2021
1948 Clear 31 1008 40 10000 3.6 300 09:23 13.07.2021
1949 Clouds 21 1011 61 10000 2.06 70 20:24 12.07.2021
1950 Clear 22 1012 81 10000 1.03 210 16:46 12.07.2021
1951 Clear 26 1010 68 10000 2.57 260 12:22 12.07.2021
1952 Clear 20 1013 45 10000 3.09 100 23:22 11.07.2021
1953 Clouds 19 1012 82 10000 1.03 180 19:57 11.07.2021
1954 Clear 25 1012 69 10000 2.06 330 12:41 11.07.2021
1955 Clear 21 1013 60 10000 3.09 90 23:57 10.07.2021
1956 Clear 24 1013 84 10000 1.54 180 15:30 10.07.2021
1957 Clear 33 1010 35 10000 2.06 180 07:50 10.07.2021
1958 Clouds 26 1014 80 10000 4.63 120 02:18 10.07.2021
1959 Clouds 23 1013 91 10000 1.54 90 18:29 09.07.2021
1960 Clear 24 1012 85 10000 1.54 70 14:50 09.07.2021
1961 Clear 26 1011 73 10000 3.6 30 12:24 09.07.2021
1962 Fog 21 1012 98 10000 2.06 90 23:52 08.07.2021
1963 Fog 21 1012 95 10000 0 0 22:48 08.07.2021
1964 Clouds 22 1012 95 10000 1.03 40 18:57 08.07.2021
1965 Clouds 22 1012 91 10000 0 0 17:43 08.07.2021
1966 Clear 25 1011 78 10000 0 0 13:32 08.07.2021
1967 Clear 24 1011 79 10000 1.54 30 12:45 08.07.2021
1968 Clear 26 1010 74 10000 2.06 350 11:50 08.07.2021
1969 Clear 28 1009 63 10000 4.12 360 10:30 08.07.2021
1970 Clear 31 1012 38 10000 2.57 290 05:30 08.07.2021
1971 Clear 26 1013 59 10000 2.06 200 02:22 08.07.2021
1972 Clear 21 1012 87 10000 1.03 160 22:56 07.07.2021
1973 Clear 21 1012 86 10000 1.54 170 22:19 07.07.2021
1974 Clouds 21 1010 86 10000 2.06 170 21:43 07.07.2021
1975 Clouds 21 1010 86 10000 2.06 170 21:43 07.07.2021
1976 Clouds 21 1010 86 10000 2.06 170 21:23 07.07.2021
1977 Clouds 22 1012 89 10000 3.09 190 19:57 07.07.2021
1978 Clouds 22 1012 86 10000 3.6 190 19:28 07.07.2021
1979 Clouds 23 1015 89 10000 3.09 190 17:36 07.07.2021
1980 Clear 23 1012 78 10000 1.03 10 15:45 07.07.2021
1981 Clear 25 1011 71 10000 2.06 10 12:27 07.07.2021
1982 Clear 31 1009 42 10000 3.6 20 08:39 07.07.2021
1983 Clear 31 1011 38 10000 4.12 70 06:46 07.07.2021
1984 Clear 31 1011 37 10000 5.66 80 05:48 07.07.2021
1985 Clear 20 1012 73 10000 3.6 160 23:47 06.07.2021
1986 Clear 21 1011 78 10000 3.6 200 19:30 06.07.2021
1987 Clear 22 1012 77 10000 3.6 190 18:48 06.07.2021
1988 Clear 22 1012 77 10000 3.6 180 18:30 06.07.2021
1989 Clear 24 1013 75 10000 2.06 210 14:58 06.07.2021
1990 Clear 24 1011 76 10000 2.06 260 12:58 06.07.2021
1991 Clear 29 1010 49 10000 4.12 320 09:42 06.07.2021
1992 Clouds 32 1010 31 8000 5.14 290 08:35 06.07.2021
1993 Clear 31 1010 33 10000 3.09 80 07:34 06.07.2021
1994 Clouds 21 1013 45 6000 4.63 150 01:43 06.07.2021
1995 Clear 19 1011 48 10000 4.12 150 22:44 05.07.2021
1996 Clouds 20 1011 48 10000 3.6 150 20:27 05.07.2021
1997 Clear 20 1012 55 10000 2.57 170 16:50 05.07.2021
1998 Clear 30 1010 29 10000 2.57 90 08:45 05.07.2021
1999 Clear 28 1012 29 10000 4.12 140 05:47 05.07.2021
2000 Clear 26 1013 30 10000 4.63 130 04:40 05.07.2021
2001 Clear 19 1013 42 10000 4.63 140 23:19 04.07.2021
2002 Clouds 20 1013 45 10000 4.12 150 20:42 04.07.2021
2003 Clear 21 1014 44 10000 3.09 160 16:57 04.07.2021
2004 Rain 22 1013 43 10000 1.54 120 13:37 04.07.2021
2005 Clear 28 1011 28 10000 4.12 90 09:28 04.07.2021
2006 Clear 18 1013 59 10000 3.6 130 23:34 03.07.2021
2007 Clear 19 1012 57 10000 4.12 140 22:40 03.07.2021
2008 Clear 22 1013 47 10000 3.09 160 15:41 03.07.2021
2009 Clear 24 1012 46 10000 2.57 170 12:39 03.07.2021
2010 Clear 30 1009 25 10000 4.63 140 09:41 03.07.2021
2011 Clear 31 1009 25 10000 4.63 140 09:20 03.07.2021
2012 Clear 31 1010 25 10000 4.12 160 08:44 03.07.2021
2013 Clouds 22 1012 52 10000 3.09 160 17:57 02.07.2021
2014 Clear 32 1010 32 10000 5.14 130 07:41 02.07.2021
2015 Clear 32 1011 35 10000 5.66 120 06:34 02.07.2021
2016 Clear 21 1013 70 10000 3.09 100 23:25 01.07.2021
2017 Clear 22 1013 70 10000 2.57 130 22:29 01.07.2021
2018 Clear 23 1012 67 10000 3.09 90 21:34 01.07.2021
2019 Clouds 25 1013 66 10000 2.57 100 19:37 01.07.2021
2020 Clouds 24 1013 66 10000 2.57 100 19:18 01.07.2021
2021 Clouds 23 1013 79 10000 1.54 110 18:46 01.07.2021
2022 Clear 23 1013 82 10000 2.06 190 17:33 01.07.2021
2023 Clear 24 1013 78 10000 2.06 190 15:51 01.07.2021
2024 Clear 24 1013 81 10000 2.06 180 15:22 01.07.2021
2025 Clear 26 1011 72 10000 2.06 310 11:48 01.07.2021
2026 Clear 33 1010 31 10000 5.14 130 08:53 01.07.2021
2027 Clear 22 1013 71 10000 4.12 80 23:23 30.06.2021
2028 Clear 23 1013 67 10000 6.17 90 22:21 30.06.2021
2029 Clouds 23 1013 67 10000 5.66 90 21:55 30.06.2021
2030 Clouds 23 1013 75 10000 2.57 120 20:59 30.06.2021
2031 Clouds 22 1013 83 10000 2.57 130 20:20 30.06.2021
2032 Clear 24 1014 79 10000 3.6 190 16:42 30.06.2021
2033 Clear 25 1013 70 10000 0 0 13:25 30.06.2021
2034 Clear 30 1011 49 10000 4.63 20 09:59 30.06.2021
2035 Clouds 22 1013 75 10000 4.12 100 23:58 29.06.2021
2036 Clear 23 1013 93 10000 3.09 180 19:31 29.06.2021
2037 Clear 24 1013 86 10000 2.57 220 17:45 29.06.2021
2038 Clear 24 1013 87 10000 3.09 220 17:24 29.06.2021
2039 Clear 23 1014 82 10000 2.57 200 15:51 29.06.2021
2040 Clear 23 1013 82 10000 1.03 30 14:55 29.06.2021
2041 Clear 24 1013 76 10000 1.54 20 13:23 29.06.2021
2042 Clear 29 1015 50 10000 6.17 110 04:38 29.06.2021
2043 Clear 20 1014 76 10000 3.09 130 23:24 28.06.2021
2044 Clouds 21 1013 94 10000 2.57 180 20:59 28.06.2021
2045 Clouds 22 1014 94 10000 1.54 190 18:42 28.06.2021
2046 Clear 22 1014 90 10000 3.09 190 16:58 28.06.2021
2047 Clear 23 1013 78 10000 1.03 50 14:31 28.06.2021
2048 Clear 25 1012 68 10000 2.57 10 11:57 28.06.2021
2049 Clear 19 1015 68 10000 3.6 150 23:47 27.06.2021
2050 Clear 19 1015 67 10000 2.57 130 22:31 27.06.2021
2051 Clouds 21 1018 61 10000 3.09 140 19:44 27.06.2021
2052 Clouds 22 1018 59 10000 3.6 160 18:19 27.06.2021
2053 Clear 23 1016 83 10000 2.57 210 15:39 27.06.2021
2054 Clear 26 1014 67 10000 2.57 330 11:22 27.06.2021
2055 Clear 21 1016 60 10000 5.14 130 00:42 27.06.2021
2056 Clouds 21 1015 66 10000 5.14 140 21:53 26.06.2021
2057 Clouds 22 1015 67 10000 5.66 140 20:49 26.06.2021
2058 Clouds 23 1018 67 10000 5.14 150 19:48 26.06.2021
2059 Clear 25 1015 76 10000 3.09 110 15:40 26.06.2021
2060 Clear 26 1015 71 10000 2.57 90 14:26 26.06.2021
2061 Clouds 27 1012 71 10000 5.14 40 11:33 26.06.2021
2062 Clouds 31 1013 54 10000 2.57 110 07:20 26.06.2021
2063 Clouds 23 1013 92 10000 3.6 90 22:26 25.06.2021
2064 Clouds 25 1013 86 10000 1.54 80 20:37 25.06.2021
2065 Clouds 26 1013 85 10000 1.03 120 18:48 25.06.2021
2066 Clouds 26 1013 89 10000 1.54 130 17:30 25.06.2021
2067 Clouds 26 1014 89 10000 3.09 190 16:22 25.06.2021
2068 Clouds 26 1013 84 10000 1.54 40 13:42 25.06.2021
2069 Clouds 29 1011 71 10000 3.6 340 10:29 25.06.2021
2070 Clouds 30 1011 61 10000 4.12 100 07:24 25.06.2021
2071 Clouds 30 1012 65 10000 4.12 100 06:31 25.06.2021
2072 Clouds 24 1013 75 10000 5.66 130 01:38 25.06.2021
2073 Clouds 25 1013 83 10000 4.63 160 21:48 24.06.2021
2074 Clouds 25 1012 88 10000 2.57 160 20:44 24.06.2021
2075 Clouds 25 1012 89 10000 2.57 160 20:19 24.06.2021
2076 Clouds 26 1013 86 10000 2.06 210 18:35 24.06.2021
2077 Clouds 27 1013 85 10000 2.57 200 15:24 24.06.2021
2078 Clouds 27 1013 85 10000 1.54 190 14:54 24.06.2021
2079 Clouds 27 1012 78 10000 1.54 50 13:34 24.06.2021
2080 Clouds 29 1011 69 10000 2.57 270 10:23 24.06.2021
2081 Clouds 29 1011 72 10000 4.63 210 08:33 24.06.2021
2082 Clouds 29 1012 65 10000 3.09 210 07:34 24.06.2021
2083 Clouds 25 1013 91 10000 2.06 120 00:46 24.06.2021
2084 Clouds 25 1013 94 10000 1.03 130 22:30 23.06.2021
2085 Clouds 25 1013 94 10000 2.06 170 21:35 23.06.2021
2086 Clouds 25 1013 92 10000 1.54 350 20:21 23.06.2021
2087 Clouds 26 1014 92 10000 1.03 350 18:32 23.06.2021
2088 Clouds 26 1014 90 10000 2.06 10 17:18 23.06.2021
2089 Clear 26 1013 83 10000 2.57 360 14:31 23.06.2021
2090 Clear 27 1013 72 10000 3.09 30 12:50 23.06.2021
2091 Clear 28 1012 68 10000 3.09 360 11:38 23.06.2021
2092 Clouds 30 1010 59 10000 4.63 30 09:54 23.06.2021
2093 Clouds 32 1012 45 10000 4.12 50 08:42 23.06.2021
2094 Clouds 31 1012 48 10000 5.14 70 07:50 23.06.2021
2095 Clouds 31 1013 53 10000 5.14 80 05:55 23.06.2021
2096 Clouds 27 1015 76 10000 3.6 90 02:26 23.06.2021
2097 Clear 24 1014 94 10000 3.09 90 00:21 23.06.2021
2098 Clear 23 1014 95 10000 2.06 120 23:47 22.06.2021
2099 Clear 23 1013 91 10000 1.03 130 22:43 22.06.2021
2100 Clouds 23 1013 91 10000 1.03 80 21:46 22.06.2021
2101 Clouds 23 1013 92 10000 2.06 80 20:55 22.06.2021
2102 Clear 24 1013 93 10000 3.6 70 19:23 22.06.2021
2103 Clear 24 1014 91 10000 3.6 60 18:40 22.06.2021
2104 Clear 24 1014 90 10000 3.6 60 18:18 22.06.2021
2105 Clear 24 1015 86 10000 3.6 70 17:20 22.06.2021
2106 Clear 25 1015 82 10000 3.09 70 15:48 22.06.2021
2107 Clear 25 1014 69 10000 4.12 60 14:32 22.06.2021
2108 Clear 25 1014 75 10000 4.12 60 13:42 22.06.2021
2109 Clear 26 1013 74 10000 4.12 60 12:31 22.06.2021
2110 Clear 28 1012 59 10000 5.14 60 10:57 22.06.2021
2111 Clear 31 1011 51 10000 4.12 20 08:56 22.06.2021
2112 Clouds 29 1013 60 10000 5.66 60 04:43 22.06.2021
2113 Clear 21 1013 84 10000 3.09 80 00:37 22.06.2021
2114 Clear 21 1012 86 10000 3.09 70 22:59 21.06.2021
2115 Clouds 21 1012 84 10000 2.57 90 21:38 21.06.2021
2116 Clouds 20 1012 87 10000 1.54 110 20:52 21.06.2021
2117 Clear 22 1013 73 10000 1.03 70 19:56 21.06.2021
2118 Clear 22 1013 73 10000 1.54 40 19:31 21.06.2021
2119 Clear 22 1013 73 10000 1.03 30 18:22 21.06.2021
2120 Clear 21 1014 73 10000 1.03 50 16:54 21.06.2021
2121 Clear 22 1014 68 10000 0.51 50 16:29 21.06.2021
2122 Clear 22 1013 68 10000 1.54 40 15:56 21.06.2021
2123 Clear 22 1013 68 10000 2.06 50 15:19 21.06.2021
2124 Clear 23 1013 69 10000 2.06 40 13:47 21.06.2021
2125 Clear 23 1013 68 10000 2.06 50 12:55 21.06.2021
2126 Clear 24 1013 65 10000 2.57 50 12:31 21.06.2021
2127 Clear 29 1012 48 10000 5.14 30 10:43 21.06.2021
2128 Clear 29 1012 47 10000 5.14 30 10:22 21.06.2021
2129 Clear 31 1011 37 10000 3.6 100 08:47 21.06.2021
2130 Clear 31 1012 36 10000 4.12 90 07:57 21.06.2021
2131 Clear 23 1015 42 10000 3.6 120 01:53 21.06.2021
2132 Clear 19 1015 47 10000 3.09 120 23:52 20.06.2021
2133 Clear 18 1014 52 10000 3.6 120 23:32 20.06.2021
2134 Clear 18 1014 59 10000 3.09 130 22:47 20.06.2021
2135 Clear 18 1014 69 9000 3.09 140 21:48 20.06.2021
2136 Clear 18 1014 79 10000 2.57 150 20:27 20.06.2021
2137 Clear 18 1014 87 10000 3.09 170 19:38 20.06.2021
2138 Clear 19 1014 89 10000 3.6 160 18:49 20.06.2021
2139 Clear 19 1014 85 10000 2.57 170 17:45 20.06.2021
2140 Clear 20 1015 77 10000 2.06 170 16:44 20.06.2021
2141 Clear 20 1015 73 10000 1.54 80 15:38 20.06.2021
2142 Clear 20 1015 73 10000 1.54 80 15:19 20.06.2021
2143 Clear 21 1015 68 9000 1.54 50 14:38 20.06.2021
2144 Clear 22 1014 64 10000 2.06 40 13:28 20.06.2021
2145 Clear 22 1014 65 10000 2.57 20 12:20 20.06.2021
2146 Clear 24 1013 60 10000 2.57 10 11:43 20.06.2021
2147 Clear 27 1012 45 10000 3.6 320 09:50 20.06.2021
2148 Clear 29 1012 38 10000 3.09 310 08:59 20.06.2021
2149 Clouds 25 1016 36 10000 5.66 110 04:32 20.06.2021
2150 Clear 19 1015 50 10000 3.6 130 23:35 19.06.2021
2151 Clear 19 1014 50 10000 3.6 130 22:51 19.06.2021
2152 Clouds 19 1014 51 10000 4.12 130 21:49 19.06.2021
2153 Clouds 19 1014 51 10000 4.12 130 21:49 19.06.2021
2154 Clouds 20 1014 45 10000 3.6 150 20:40 19.06.2021
2155 Clouds 21 1014 49 10000 4.12 140 18:48 19.06.2021
2156 Clouds 21 1014 46 10000 4.12 140 18:18 19.06.2021
2157 Clouds 22 1015 47 10000 4.12 140 17:22 19.06.2021
2158 Clear 22 1015 53 10000 3.09 150 15:55 19.06.2021
2159 Clear 23 1015 49 10000 2.57 150 14:21 19.06.2021
2160 Clear 24 1014 50 10000 2.06 70 12:47 19.06.2021
2161 Clear 26 1013 42 10000 2.06 70 11:53 19.06.2021
2162 Clear 29 1013 36 10000 3.6 110 10:42 19.06.2021
2163 Clear 29 1013 34 10000 3.6 110 10:22 19.06.2021
2164 Clear 30 1012 31 10000 4.12 100 08:57 19.06.2021
2165 Clear 30 1013 32 10000 4.63 80 07:44 19.06.2021
2166 Clear 29 1015 32 10000 5.66 140 05:55 19.06.2021
2167 Clear 24 1016 51 10000 6.69 120 01:45 19.06.2021
2168 Clear 22 1015 65 10000 4.63 120 00:18 19.06.2021
2169 Clear 22 1014 67 10000 4.63 120 23:29 18.06.2021
2170 Clear 23 1014 67 10000 4.12 110 22:50 18.06.2021
2171 Clear 23 1014 65 10000 3.6 130 22:21 18.06.2021
2172 Clouds 25 1012 60 10000 4.63 100 21:29 18.06.2021
2173 Clouds 25 1012 59 10000 4.12 100 20:58 18.06.2021
2174 Clouds 25 1013 72 10000 3.6 150 19:38 18.06.2021
2175 Clouds 25 1014 89 10000 2.57 180 18:23 18.06.2021
2176 Clouds 25 1014 90 10000 3.6 180 17:29 18.06.2021
2177 Clear 25 1014 91 10000 3.09 180 16:21 18.06.2021
2178 Clear 25 1014 87 10000 2.57 190 15:43 18.06.2021
2179 Clear 25 1014 73 10000 1.03 180 14:32 18.06.2021
2180 Clear 26 1014 76 10000 2.06 60 13:37 18.06.2021
2181 Clear 26 1013 74 10000 2.57 50 12:45 18.06.2021
2182 Clear 27 1013 74 10000 2.57 40 12:26 18.06.2021
2183 Clear 28 1012 66 10000 3.6 40 11:28 18.06.2021
2184 Clear 29 1012 62 10000 5.14 40 10:52 18.06.2021
2185 Clear 30 1011 63 10000 4.12 30 10:22 18.06.2021
2186 Clear 30 1011 60 10000 4.63 20 09:44 18.06.2021
2187 Clear 32 1011 48 10000 5.66 100 08:49 18.06.2021
2188 Clear 33 1011 46 10000 4.63 100 08:22 18.06.2021
2189 Clear 33 1012 45 10000 5.14 90 07:24 18.06.2021
2190 Clear 26 1015 75 10000 1.54 90 01:43 18.06.2021
2191 Clear 22 1014 90 10000 1.54 80 23:42 17.06.2021
2192 Clear 22 1014 90 10000 0 0 22:55 17.06.2021
2193 Clear 21 1013 91 10000 0.51 70 22:24 17.06.2021
2194 Clouds 22 1013 94 10000 0 0 21:46 17.06.2021
2195 Clouds 22 1013 92 10000 0 0 20:57 17.06.2021
2196 Clouds 22 1013 92 10000 0 0 20:27 17.06.2021
2197 Clouds 22 1013 91 10000 0 0 19:48 17.06.2021
2198 Clouds 23 1014 88 10000 1.03 100 18:48 17.06.2021
2199 Clouds 24 1014 84 10000 1.54 80 17:48 17.06.2021
2200 Clouds 24 1014 84 10000 0.51 230 17:20 17.06.2021
2201 Clear 25 1014 82 10000 2.06 220 16:27 17.06.2021
2202 Clear 25 1014 79 10000 2.06 240 15:39 17.06.2021
2203 Clear 25 1014 78 10000 2.06 250 14:24 17.06.2021
2204 Clear 25 1013 79 10000 1.54 290 12:54 17.06.2021
2205 Clear 26 1013 76 10000 2.06 280 12:30 17.06.2021
2206 Clouds 27 1012 72 10000 3.6 320 11:21 17.06.2021
2207 Clouds 28 1012 67 10000 3.6 340 10:42 17.06.2021
2208 Clouds 28 1012 64 10000 3.6 340 10:19 17.06.2021
2209 Clouds 29 1011 60 10000 3.6 340 09:38 17.06.2021
2210 Clouds 31 1011 55 10000 4.12 310 08:31 17.06.2021
2211 Clear 31 1011 48 10000 4.12 310 07:47 17.06.2021
2212 Clouds 31 1014 49 10000 2.57 220 04:36 17.06.2021
2213 Clear 23 1015 94 10000 1.03 190 00:43 17.06.2021
2214 Clear 22 1014 95 10000 0 0 23:38 16.06.2021
2215 Clear 22 1014 96 10000 0 0 23:18 16.06.2021
2216 Clear 22 1014 94 10000 0 0 22:18 16.06.2021
2217 Clouds 23 1013 97 10000 1.54 190 21:39 16.06.2021
2218 Clouds 23 1013 97 10000 1.54 190 21:18 16.06.2021
2219 Clouds 23 1013 94 10000 3.09 190 20:36 16.06.2021
2220 Clouds 24 1013 94 10000 4.12 190 19:49 16.06.2021
2221 Clouds 24 1014 94 10000 3.09 190 19:28 16.06.2021
2222 Clouds 24 1014 90 10000 2.06 190 18:49 16.06.2021
2223 Clouds 24 1014 90 10000 2.57 210 18:23 16.06.2021
2224 Clouds 24 1014 92 10000 2.57 210 17:28 16.06.2021
2225 Clear 25 1014 86 10000 3.6 210 16:58 16.06.2021
2226 Clouds 25 1014 89 10000 3.09 230 16:40 16.06.2021
2227 Clear 25 1014 89 10000 2.06 210 15:49 16.06.2021
2228 Clear 25 1014 88 10000 2.06 210 15:26 16.06.2021
2229 Clear 24 1014 84 10000 1.03 50 14:43 16.06.2021
2230 Clear 24 1014 78 10000 1.03 50 14:25 16.06.2021
2231 Clear 25 1013 78 10000 1.54 10 13:43 16.06.2021
2232 Clear 25 1013 78 10000 1.54 10 13:22 16.06.2021
2233 Clear 25 1012 76 10000 2.06 30 12:35 16.06.2021
2234 Clouds 26 1012 72 10000 2.06 10 11:59 16.06.2021
2235 Clear 27 1012 69 10000 2.57 20 11:31 16.06.2021
2236 Clouds 28 1009 67 10000 3.6 360 10:44 16.06.2021
2237 Clouds 29 1013 67 10000 3.6 350 09:50 16.06.2021
2238 Clouds 29 1013 66 10000 3.09 360 09:23 16.06.2021
2239 Clouds 30 1013 62 10000 4.63 350 08:19 16.06.2021
2240 Clouds 31 1012 57 10000 3.6 300 07:38 16.06.2021
2241 Clouds 28 1016 70 10000 0.51 200 02:59 16.06.2021
2242 Clouds 23 1014 99 10000 1.54 140 00:48 16.06.2021
2243 Fog 22 1016 99 10000 2.06 170 23:44 15.06.2021
2244 Fog 22 1016 99 10000 2.06 170 23:44 15.06.2021
2245 Fog 22 1014 99 10000 2.06 170 23:20 15.06.2021
2246 Mist 21 1013 96 10000 0.51 190 22:40 15.06.2021
2247 Clear 21 1013 98 9000 0 0 21:57 15.06.2021
2248 Clouds 21 1012 93 10000 0 0 20:54 15.06.2021
2249 Clouds 22 1012 95 10000 1.03 230 19:58 15.06.2021
2250 Clouds 22 1012 95 10000 1.54 230 19:22 15.06.2021
2251 Clouds 23 1012 92 6000 0.51 220 17:41 15.06.2021
2252 Clear 23 1013 94 10000 1.54 220 16:42 15.06.2021
2253 Clear 23 1013 88 10000 1.54 270 15:42 15.06.2021
2254 Clear 24 1013 88 10000 2.06 270 14:53 15.06.2021
2255 Clear 25 1012 86 10000 1.54 270 14:23 15.06.2021
2256 Clear 24 1012 87 10000 1.03 280 13:37 15.06.2021
2257 Clear 24 1012 83 10000 1.54 330 12:50 15.06.2021
2258 Clear 25 1011 79 10000 1.54 300 12:18 15.06.2021
2259 Clear 26 1011 72 10000 2.57 280 11:24 15.06.2021
2260 Clear 27 1011 68 10000 3.09 270 10:56 15.06.2021
2261 Clouds 27 1010 72 10000 4.12 290 10:36 15.06.2021
2262 Clouds 28 1010 65 10000 5.66 300 09:50 15.06.2021
2263 Clouds 29 1010 54 10000 5.66 300 08:44 15.06.2021
2264 Clouds 30 1010 53 10000 5.14 310 08:19 15.06.2021
2265 Clouds 30 1010 51 10000 4.12 320 06:58 15.06.2021
2266 Clouds 30 1011 53 10000 2.57 310 05:58 15.06.2021
2267 Clouds 26 1013 79 10000 1.54 120 02:53 15.06.2021
2268 Fog 22 1013 97 4900 1.54 180 00:38 15.06.2021
2269 Fog 22 1013 97 4900 1.54 180 00:38 15.06.2021
2270 Clouds 22 1011 98 10000 3.09 200 23:33 14.06.2021
2271 Clouds 22 1011 97 10000 2.57 190 22:48 14.06.2021
2272 Clouds 22 1011 98 10000 2.06 190 22:22 14.06.2021
2273 Clouds 22 1011 95 10000 2.57 200 21:58 14.06.2021
2274 Clouds 23 1011 95 10000 1.54 200 21:27 14.06.2021
2275 Clouds 23 1011 95 10000 2.57 210 20:58 14.06.2021
2276 Clouds 23 1011 95 10000 2.06 210 20:40 14.06.2021
2277 Clouds 23 1011 99 10000 1.54 220 19:48 14.06.2021
2278 Clouds 22 1011 90 10000 0.51 230 19:28 14.06.2021
2279 Clouds 23 1011 90 10000 2.06 240 18:47 14.06.2021
2280 Clouds 22 1011 92 10000 1.54 240 18:21 14.06.2021
2281 Clouds 22 1011 95 10000 0.51 270 17:36 14.06.2021
2282 Clear 22 1011 94 10000 0 0 16:52 14.06.2021
2283 Clear 22 1012 91 10000 0 0 15:54 14.06.2021
2284 Clear 22 1012 91 10000 0 0 15:36 14.06.2021
2285 Clear 23 1012 86 10000 0.51 270 14:52 14.06.2021
2286 Clear 25 1012 82 10000 1.54 270 13:50 14.06.2021
2287 Clouds 25 1012 77 10000 1.54 250 13:23 14.06.2021
2288 Clear 24 1011 78 10000 2.06 270 12:51 14.06.2021
2289 Clear 25 1011 71 10000 2.06 280 11:57 14.06.2021
2290 Rain 26 1010 73 10000 2.57 290 11:36 14.06.2021
2291 Clear 27 1010 64 10000 4.63 310 10:24 14.06.2021
2292 Rain 29 1009 58 10000 5.66 310 09:26 14.06.2021
2293 Rain 30 1009 53 10000 6.69 310 08:46 14.06.2021
2294 Rain 31 1010 47 10000 6.17 310 07:56 14.06.2021
2295 Clear 32 1010 48 10000 5.14 310 07:35 14.06.2021
2296 Clear 30 1012 32 10000 2.57 210 05:45 14.06.2021
2297 Clear 29 1013 44 10000 2.57 180 03:40 14.06.2021
2298 Clear 21 1013 86 10000 0 0 00:26 14.06.2021
2299 Clear 22 1013 83 10000 1.03 190 23:24 13.06.2021
2300 Clear 22 1012 83 10000 2.57 190 22:41 13.06.2021
2301 Clear 22 1012 83 10000 2.57 190 22:21 13.06.2021
2302 Clear 22 1012 83 10000 2.57 190 22:21 13.06.2021
2303 Clear 22 1012 83 10000 2.06 190 21:53 13.06.2021
2304 Clouds 22 1012 88 10000 2.57 190 21:33 13.06.2021
2305 Clouds 22 1012 88 10000 2.57 190 20:48 13.06.2021
2306 Clouds 23 1012 90 10000 3.09 190 20:29 13.06.2021
2307 Clouds 24 1012 93 10000 2.06 200 19:49 13.06.2021
2308 Clouds 24 1012 93 10000 2.06 200 19:49 13.06.2021
2309 Clouds 24 1012 94 10000 2.06 210 19:30 13.06.2021
2310 Clouds 24 1012 94 10000 2.06 210 19:30 13.06.2021
2311 Clouds 24 1012 94 10000 2.57 220 18:55 13.06.2021
2312 Rain 24 1012 92 10000 2.06 240 18:23 13.06.2021
2313 Rain 25 1014 94 10000 3.09 240 17:43 13.06.2021
2314 Clouds 24 1014 91 10000 2.06 230 16:38 13.06.2021
2315 Clear 24 1013 91 10000 2.06 280 15:41 13.06.2021
2316 Clear 24 1013 88 10000 1.54 330 14:48 13.06.2021
2317 Clear 25 1012 86 10000 1.54 350 14:21 13.06.2021
2318 Clear 25 1012 83 10000 1.54 350 13:25 13.06.2021
2319 Clear 25 1011 86 10000 2.06 360 12:54 13.06.2021
2320 Clear 26 1011 82 10000 2.06 360 12:35 13.06.2021
2321 Clear 26 1011 79 10000 2.57 350 11:47 13.06.2021
2322 Clear 28 1010 72 10000 3.09 340 10:59 13.06.2021
2323 Clear 28 1010 69 10000 3.09 340 10:38 13.06.2021
2324 Clouds 29 1012 64 10000 3.6 330 09:49 13.06.2021
2325 Clouds 30 1012 64 10000 4.12 350 09:30 13.06.2021
2326 Clear 31 1010 60 10000 4.12 350 08:59 13.06.2021
2327 Clear 31 1010 51 10000 4.12 340 08:34 13.06.2021
2328 Clouds 31 1013 51 10000 5.14 360 07:34 13.06.2021
2329 Clear 29 1014 58 10000 4.63 60 04:21 13.06.2021
2330 Fog 20 1013 96 10000 1.03 110 23:50 12.06.2021
2331 Fog 20 1013 96 10000 1.54 70 23:19 12.06.2021
2332 Clear 21 1013 94 10000 2.06 180 22:30 12.06.2021
2333 Clouds 21 1013 92 10000 2.57 190 21:44 12.06.2021
2334 Clouds 21 1013 92 10000 2.57 190 21:44 12.06.2021
2335 Clouds 22 1013 90 10000 2.57 180 20:52 12.06.2021
2336 Clouds 22 1013 89 10000 2.06 180 20:22 12.06.2021
2337 Clouds 23 1014 86 10000 2.57 180 19:57 12.06.2021
2338 Clouds 22 1014 88 10000 2.06 170 18:57 12.06.2021
2339 Clouds 22 1014 91 10000 3.09 170 18:30 12.06.2021
2340 Clouds 23 1016 90 10000 2.06 170 17:39 12.06.2021
2341 Clouds 23 1016 90 9000 2.57 180 16:59 12.06.2021
2342 Clear 24 1015 87 10000 2.57 190 15:40 12.06.2021
2343 Clear 24 1014 87 10000 2.06 190 14:54 12.06.2021
2344 Clear 24 1014 86 10000 2.06 190 14:32 12.06.2021
2345 Clear 25 1014 80 10000 0 0 13:58 12.06.2021
2346 Clear 25 1013 76 10000 1.03 350 12:41 12.06.2021
2347 Clear 25 1013 75 10000 1.03 350 12:23 12.06.2021
2348 Clear 25 1013 75 10000 1.03 350 12:23 12.06.2021
2349 Clear 26 1012 72 10000 2.57 350 11:35 12.06.2021
2350 Clear 28 1012 65 10000 3.09 350 10:46 12.06.2021
2351 Clear 28 1012 64 10000 3.09 350 10:27 12.06.2021
2352 Clouds 29 1013 60 10000 3.09 350 09:45 12.06.2021
2353 Clouds 30 1014 51 9000 3.09 290 08:35 12.06.2021
2354 Clouds 31 1013 46 9000 4.12 250 07:35 12.06.2021
2355 Smoke 30 1015 49 5000 4.12 100 05:40 12.06.2021
2356 Clear 20 1014 54 10000 3.6 100 00:38 12.06.2021
2357 Clear 19 1013 54 10000 2.06 130 22:26 11.06.2021
2358 Rain 19 1013 51 10000 3.09 130 21:58 11.06.2021
2359 Clouds 19 1013 60 10000 3.09 120 21:34 11.06.2021
2360 Rain 20 1013 59 10000 2.57 120 20:56 11.06.2021
2361 Rain 20 1013 65 10000 3.09 140 20:21 11.06.2021
2362 Rain 19 1013 83 10000 1.54 170 19:23 11.06.2021
2363 Clouds 20 1014 85 10000 2.06 170 18:37 11.06.2021
2364 Rain 20 1014 86 10000 2.06 150 17:48 11.06.2021
2365 Rain 20 1013 83 10000 0 0 16:33 11.06.2021
2366 Rain 22 1013 78 10000 0 0 15:26 11.06.2021
2367 Rain 22 1013 74 10000 1.03 230 14:42 11.06.2021
2368 Rain 23 1012 74 10000 0 0 13:39 11.06.2021
2369 Clouds 24 1012 66 10000 2.06 20 12:29 11.06.2021
2370 Rain 24 1012 64 10000 2.06 10 11:52 11.06.2021
2371 Rain 25 1011 62 10000 2.57 10 11:24 11.06.2021
2372 Rain 29 1011 46 10000 3.09 300 09:37 11.06.2021
2373 Rain 30 1011 42 10000 3.6 300 08:57 11.06.2021
2374 Clear 30 1011 38 10000 4.12 260 07:54 11.06.2021
2375 Rain 29 1012 35 10000 3.09 50 06:26 11.06.2021
2376 Clear 18 1013 44 10000 2.57 130 23:45 10.06.2021
2377 Rain 19 1012 42 10000 4.12 140 22:42 10.06.2021
2378 Rain 19 1012 42 10000 4.12 140 22:23 10.06.2021
2379 Rain 19 1012 42 10000 3.6 140 21:41 10.06.2021
2380 Rain 19 1012 43 10000 3.09 130 20:59 10.06.2021
2381 Rain 20 1012 39 10000 3.6 140 19:56 10.06.2021
2382 Clouds 20 1012 41 10000 4.12 140 19:26 10.06.2021
2383 Clouds 20 1013 40 10000 3.6 150 18:34 10.06.2021
2384 Clouds 21 1013 39 10000 3.6 140 17:58 10.06.2021
2385 Clouds 21 1013 41 10000 3.6 140 17:23 10.06.2021
2386 Clear 21 1012 42 10000 2.57 140 16:43 10.06.2021
2387 Clear 21 1012 43 10000 2.57 150 15:55 10.06.2021
2388 Clear 21 1012 45 10000 2.06 110 13:43 10.06.2021
2389 Clear 22 1011 44 10000 2.06 100 12:45 10.06.2021
2390 Clear 25 1010 39 10000 1.54 110 11:32 10.06.2021
2391 Clear 28 1010 33 10000 2.06 120 10:36 10.06.2021
2392 Clear 30 1010 24 10000 4.63 170 08:35 10.06.2021
2393 Clear 21 1014 44 10000 5.14 140 01:21 10.06.2021
2394 Clear 19 1013 48 10000 4.12 140 00:20 10.06.2021
2395 Clear 19 1012 51 10000 3.6 150 22:53 09.06.2021
2396 Clear 20 1012 51 10000 3.09 140 22:19 09.06.2021
2397 Clouds 20 1012 54 10000 2.57 130 21:31 09.06.2021
2398 Rain 21 1012 46 10000 2.57 120 20:51 09.06.2021
2399 Clouds 21 1012 46 10000 2.57 130 20:18 09.06.2021
2400 Clouds 21 1012 52 10000 3.09 130 19:45 09.06.2021
2401 Clouds 22 1013 57 10000 3.09 150 17:48 09.06.2021
2402 Clear 24 1013 73 10000 3.6 190 15:35 09.06.2021
2403 Clear 24 1012 75 10000 2.57 180 14:53 09.06.2021
2404 Clear 24 1012 72 10000 1.03 50 13:58 09.06.2021
2405 Clear 24 1011 72 10000 1.03 50 13:29 09.06.2021
2406 Clear 26 1011 65 10000 1.54 30 12:40 09.06.2021
2407 Clear 27 1010 60 10000 3.09 30 11:31 09.06.2021
2408 Clear 31 1010 44 10000 4.12 80 09:46 09.06.2021
2409 Clear 32 1010 27 10000 4.63 50 08:49 09.06.2021
2410 Clear 32 1010 35 10000 5.14 80 07:19 09.06.2021
2411 Clear 31 1011 43 10000 6.17 100 05:44 09.06.2021
2412 Clear 21 1011 92 10000 0.51 50 22:59 08.06.2021
2413 Clear 21 1011 92 10000 0.51 50 22:39 08.06.2021
2414 Clear 21 1011 92 10000 0.51 50 21:57 08.06.2021
2415 Clear 22 1012 90 10000 0 0 19:55 08.06.2021
2416 Clouds 24 1012 84 10000 1.54 160 17:55 08.06.2021
2417 Clouds 24 1012 83 10000 1.54 160 17:37 08.06.2021
2418 Clear 24 1013 87 10000 2.06 190 16:20 08.06.2021
2419 Clear 25 1012 83 10000 1.54 30 13:34 08.06.2021
2420 Clouds 26 1011 81 10000 2.57 10 12:29 08.06.2021
2421 Clouds 30 1010 57 10000 4.12 350 08:42 08.06.2021
2422 Clouds 31 1012 39 10000 3.09 330 05:24 08.06.2021
2423 Clear 21 1013 94 10000 1.03 190 23:54 07.06.2021
2424 Clouds 22 1013 89 10000 3.09 210 20:55 07.06.2021
2425 Clouds 23 1013 90 10000 1.03 180 19:42 07.06.2021
2426 Clouds 24 1014 86 10000 1.54 190 17:21 07.06.2021
2427 Clear 24 1014 73 10000 1.03 360 14:38 07.06.2021
2428 Clear 25 1012 75 10000 1.54 10 12:38 07.06.2021
2429 Clear 26 1011 68 10000 3.6 10 11:24 07.06.2021
2430 Clouds 28 1015 58 10000 3.6 350 10:20 07.06.2021
2431 Clouds 29 1014 56 10000 4.12 350 09:30 07.06.2021
2432 Clouds 30 1016 48 10000 5.14 310 07:53 07.06.2021
2433 Clouds 29 1013 50 10000 3.09 90 04:42 07.06.2021
2434 Clouds 20 1013 58 10000 3.09 140 21:26 06.06.2021
2435 Clouds 20 1013 67 10000 2.06 140 19:53 06.06.2021
2436 Clouds 20 1017 73 10000 1.54 170 18:18 06.06.2021
2437 Clear 22 1014 71 10000 2.57 190 15:54 06.06.2021
2438 Clear 23 1012 56 10000 2.06 50 12:54 06.06.2021
2439 Clear 24 1012 51 10000 0.51 160 12:24 06.06.2021
2440 Clear 28 1011 38 10000 1.54 70 10:40 06.06.2021
2441 Clear 29 1011 32 10000 3.09 70 10:22 06.06.2021
2442 Clear 30 1010 29 10000 3.09 100 09:28 06.06.2021
2443 Clear 30 1010 28 10000 4.63 120 08:54 06.06.2021
2444 Clear 29 1011 27 10000 4.12 110 06:26 06.06.2021
2445 Clear 19 1015 63 10000 3.09 130 00:18 06.06.2021
2446 Clear 19 1014 57 10000 3.09 120 22:49 05.06.2021
2447 Clouds 19 1014 56 10000 3.09 130 21:46 05.06.2021
2448 Clouds 20 1014 51 10000 4.12 140 19:56 05.06.2021
2449 Clouds 21 1014 48 10000 3.6 140 18:44 05.06.2021
2450 Clear 23 1014 43 10000 2.57 150 16:19 05.06.2021
2451 Clear 24 1014 48 10000 2.57 140 15:26 05.06.2021
2452 Clear 25 1013 46 10000 2.57 110 12:49 05.06.2021
2453 Clear 26 1012 43 10000 2.57 100 11:40 05.06.2021
2454 Clear 30 1011 29 10000 3.09 130 09:26 05.06.2021
2455 Clear 31 1011 31 10000 4.63 110 07:54 05.06.2021
2456 Clear 28 1015 36 10000 6.17 120 04:25 05.06.2021
2457 Clear 23 1013 63 10000 4.63 140 22:24 04.06.2021
2458 Clouds 24 1013 64 10000 4.63 140 21:42 04.06.2021
2459 Clouds 24 1013 71 10000 3.09 120 20:32 04.06.2021
2460 Clouds 26 1013 70 10000 3.6 140 18:43 04.06.2021
2461 Clouds 26 1014 75 10000 2.57 160 18:23 04.06.2021
2462 Clouds 26 1014 75 10000 3.09 180 15:56 04.06.2021
2463 Clear 26 1012 75 10000 3.09 40 12:57 04.06.2021
2464 Clouds 27 1011 69 10000 3.6 40 11:30 04.06.2021
2465 Clouds 27 1011 69 10000 3.6 40 11:30 04.06.2021
2466 Clear 31 1010 49 10000 6.69 90 08:53 04.06.2021
2467 Clear 32 1012 50 10000 5.66 90 06:44 04.06.2021
2468 Clouds 27 1015 80 10000 4.63 50 01:36 04.06.2021
2469 Clouds 24 1013 94 10000 2.57 70 22:23 03.06.2021
2470 Clouds 25 1012 94 10000 1.54 30 20:37 03.06.2021
2471 Clouds 24 1013 92 10000 1.03 180 19:54 03.06.2021
2472 Clouds 25 1013 93 10000 1.03 180 18:29 03.06.2021
2473 Clouds 25 1013 91 10000 2.06 200 17:32 03.06.2021
2474 Clear 26 1013 86 10000 1.03 250 15:19 03.06.2021
2475 Clear 26 1012 83 10000 1.54 250 12:59 03.06.2021
2476 Clouds 28 1010 72 10000 4.12 10 10:41 03.06.2021
2477 Clouds 29 1010 70 10000 5.14 360 09:51 03.06.2021
2478 Clouds 30 1010 65 10000 4.12 360 08:40 03.06.2021
2479 Clouds 24 1012 91 10000 2.06 100 00:27 03.06.2021
2480 Clear 24 1013 91 10000 1.54 120 22:57 02.06.2021
2481 Clouds 24 1012 91 10000 2.57 120 21:36 02.06.2021
2482 Clouds 23 1012 91 10000 1.54 150 20:55 02.06.2021
2483 Clouds 24 1013 90 10000 1.54 130 20:24 02.06.2021
2484 Clouds 24 1014 91 10000 2.06 150 18:29 02.06.2021
2485 Clear 25 1013 89 10000 1.54 180 16:36 02.06.2021
2486 Clear 26 1013 85 10000 3.09 30 14:32 02.06.2021
2487 Clear 26 1012 80 10000 2.57 40 12:47 02.06.2021
2488 Clouds 29 1010 66 10000 4.63 30 10:56 02.06.2021
2489 Clouds 29 1010 65 10000 4.63 30 10:38 02.06.2021
2490 Clouds 30 1009 60 10000 5.66 20 09:49 02.06.2021
2491 Clouds 31 1010 57 6000 5.66 30 08:56 02.06.2021
2492 Clouds 32 1009 51 10000 5.14 30 08:18 02.06.2021
2493 Clouds 30 1011 59 10000 5.66 70 04:31 02.06.2021
2494 Clouds 29 1012 64 10000 6.69 70 03:33 02.06.2021
2495 Clear 24 1012 90 10000 2.57 60 22:24 01.06.2021
2496 Clouds 24 1012 92 10000 1.54 110 20:51 01.06.2021
2497 Clouds 23 1012 92 10000 2.06 100 19:50 01.06.2021
2498 Clouds 23 1012 88 10000 0.51 60 17:30 01.06.2021
2499 Clear 24 1012 84 10000 1.03 60 16:20 01.06.2021
2500 Clear 25 1012 79 10000 2.57 40 14:20 01.06.2021
2501 Clear 26 1011 74 10000 3.09 30 12:37 01.06.2021
2502 Clear 27 1010 73 10000 3.09 30 11:43 01.06.2021
2503 Clear 28 1014 70 10000 4.12 30 11:19 01.06.2021
2504 Clouds 29 1009 68 10000 4.63 30 10:22 01.06.2021
2505 Clouds 30 1008 62 10000 5.14 10 09:24 01.06.2021
2506 Clouds 31 1009 59 10000 0.51 200 08:20 01.06.2021
2507 Clouds 30 1011 58 10000 3.6 100 05:24 01.06.2021
2508 Clouds 22 1011 98 10000 3.09 140 23:42 31.05.2021
2509 Clouds 22 1011 98 10000 3.6 140 23:22 31.05.2021
2510 Clouds 22 1016 98 10000 3.09 140 22:35 31.05.2021
2511 Clouds 22 1011 96 10000 2.57 160 21:24 31.05.2021
2512 Clouds 22 1011 95 10000 1.03 150 20:24 31.05.2021
2513 Clouds 23 1011 95 10000 0.51 40 19:23 31.05.2021
2514 Clouds 23 1011 91 10000 1.54 40 17:58 31.05.2021
2515 Clear 24 1012 90 10000 2.06 30 16:56 31.05.2021
2516 Clear 24 1012 87 10000 2.06 40 16:19 31.05.2021
2517 Clear 24 1011 83 10000 2.57 30 13:54 31.05.2021
2518 Clear 24 1011 82 10000 2.06 20 13:23 31.05.2021
2519 Clear 25 1010 80 10000 2.57 40 12:38 31.05.2021
2520 Clear 26 1010 76 10000 3.6 40 11:48 31.05.2021
2521 Clear 27 1009 69 10000 3.6 20 10:46 31.05.2021
2522 Clouds 29 1013 58 10000 5.14 30 09:40 31.05.2021
2523 Clouds 29 1013 58 10000 5.14 30 09:40 31.05.2021
2524 Clouds 30 1009 56 10000 4.63 20 08:42 31.05.2021
2525 Clouds 31 1009 53 10000 4.63 40 07:55 31.05.2021
2526 Clouds 31 1009 53 10000 4.63 40 07:36 31.05.2021
2527 Clouds 24 1012 85 10000 2.57 100 00:52 31.05.2021
2528 Clouds 22 1011 90 10000 1.54 130 23:24 30.05.2021
2529 Clouds 22 1011 90 10000 1.54 170 22:43 30.05.2021
2530 Clouds 22 1011 90 10000 1.54 150 22:23 30.05.2021
2531 Clouds 22 1011 91 10000 2.06 160 21:42 30.05.2021
2532 Clouds 22 1011 91 10000 1.54 160 21:18 30.05.2021
2533 Clouds 23 1011 88 10000 1.54 160 20:39 30.05.2021
2534 Clouds 23 1011 83 10000 1.03 140 19:52 30.05.2021
2535 Clouds 23 1011 89 10000 1.03 120 19:22 30.05.2021
2536 Clouds 23 1015 87 10000 1.54 160 18:26 30.05.2021
2537 Clouds 23 1012 88 10000 2.57 170 17:18 30.05.2021
2538 Clear 23 1012 85 10000 2.06 170 16:40 30.05.2021
2539 Clear 24 1012 83 10000 1.54 170 15:53 30.05.2021
2540 Clear 24 1012 85 10000 1.54 90 15:22 30.05.2021
2541 Clear 25 1011 78 10000 2.57 40 13:41 30.05.2021
2542 Clear 26 1010 74 10000 2.57 30 12:23 30.05.2021
2543 Clear 27 1010 70 10000 3.6 10 11:20 30.05.2021
2544 Clear 28 1009 68 10000 3.6 10 10:39 30.05.2021
2545 Clear 28 1009 68 10000 3.6 360 10:18 30.05.2021
2546 Clouds 29 1009 64 10000 4.12 340 09:44 30.05.2021
2547 Clouds 29 1009 62 10000 4.63 330 09:25 30.05.2021
2548 Clouds 30 1009 52 10000 3.09 280 08:22 30.05.2021
2549 Clouds 29 1010 55 10000 4.63 100 05:43 30.05.2021
2550 Clouds 23 1012 66 10000 2.57 90 00:55 30.05.2021
2551 Clouds 22 1012 64 10000 4.12 100 23:49 29.05.2021
2552 Clouds 21 1011 66 10000 3.6 130 22:25 29.05.2021
2553 Clouds 21 1011 72 10000 3.09 130 21:54 29.05.2021
2554 Clouds 21 1011 73 10000 2.57 130 21:21 29.05.2021
2555 Clouds 22 1011 68 10000 3.09 120 20:48 29.05.2021
2556 Clouds 22 1011 73 10000 2.57 130 20:29 29.05.2021
2557 Clouds 22 1011 80 10000 2.57 160 19:45 29.05.2021
2558 Clouds 22 1011 91 10000 2.57 160 18:39 29.05.2021
2559 Clouds 22 1012 90 10000 0 0 17:27 29.05.2021
2560 Clear 23 1012 84 10000 1.54 180 16:23 29.05.2021
2561 Clear 24 1012 79 10000 1.54 200 14:59 29.05.2021
2562 Clear 24 1012 78 10000 0 0 13:53 29.05.2021
2563 Clear 25 1012 77 10000 1.03 290 13:21 29.05.2021
2564 Clear 25 1012 76 10000 2.57 30 12:43 29.05.2021
2565 Clear 25 1011 74 10000 2.06 30 12:25 29.05.2021
2566 Clear 26 1011 68 10000 3.09 10 11:25 29.05.2021
2567 Clear 27 1010 62 10000 3.6 360 10:51 29.05.2021
2568 Clear 28 1010 58 10000 3.6 350 10:26 29.05.2021
2569 Clear 30 1010 49 10000 3.09 300 09:22 29.05.2021
2570 Clear 31 1010 35 10000 2.06 230 08:57 29.05.2021
2571 Clear 31 1010 33 10000 1.03 60 07:58 29.05.2021
2572 Clear 31 1011 36 10000 3.6 90 06:50 29.05.2021
2573 Clear 21 1014 57 10000 3.09 130 00:54 29.05.2021
2574 Clear 20 1013 60 10000 3.09 130 23:50 28.05.2021
2575 Clouds 22 1013 54 10000 4.12 130 21:55 28.05.2021
2576 Clouds 22 1013 54 10000 4.12 130 21:36 28.05.2021
2577 Clouds 22 1013 51 10000 4.12 120 20:47 28.05.2021
2578 Clouds 21 1014 52 10000 3.09 140 19:58 28.05.2021
2579 Clouds 22 1014 51 10000 3.09 140 19:37 28.05.2021
2580 Clouds 22 1014 50 10000 3.6 130 18:49 28.05.2021
2581 Clouds 23 1014 48 10000 3.6 140 18:27 28.05.2021
2582 Clouds 23 1015 47 10000 3.6 140 17:32 28.05.2021
2583 Clear 23 1015 49 10000 3.6 150 16:42 28.05.2021
2584 Clear 24 1015 47 10000 3.09 150 15:58 28.05.2021
2585 Clear 24 1015 45 10000 3.6 150 15:33 28.05.2021
2586 Rain 25 1015 44 10000 3.09 130 14:38 28.05.2021
2587 Clear 25 1014 41 10000 3.09 130 13:46 28.05.2021
2588 Clear 25 1014 44 10000 3.6 130 12:59 28.05.2021
2589 Clear 25 1014 48 10000 3.6 130 12:37 28.05.2021
2590 Clear 27 1012 42 10000 3.09 140 11:44 28.05.2021
2591 Clear 28 1012 37 10000 3.6 120 10:53 28.05.2021
2592 Clear 30 1012 34 10000 4.12 100 10:30 28.05.2021
2593 Clear 31 1011 32 10000 6.17 110 09:31 28.05.2021
2594 Clear 31 1011 33 10000 4.63 140 08:49 28.05.2021
2595 Clear 31 1011 27 10000 5.14 110 08:31 28.05.2021
2596 Clear 31 1012 34 10000 5.14 140 07:50 28.05.2021
2597 Clear 30 1012 35 10000 5.14 110 07:32 28.05.2021
2598 Clear 31 1012 35 10000 5.66 150 06:43 28.05.2021
2599 Clear 28 1015 41 10000 8.75 110 04:32 28.05.2021
2600 Clear 22 1015 66 10000 3.6 130 23:57 27.05.2021
2601 Clear 22 1015 63 10000 3.6 120 23:34 27.05.2021
2602 Clear 23 1014 62 10000 4.12 120 22:22 27.05.2021
2603 Clouds 23 1014 63 10000 4.63 120 21:48 27.05.2021
2604 Clouds 23 1014 63 10000 4.63 120 21:48 27.05.2021
2605 Clouds 23 1014 63 10000 4.63 120 21:48 27.05.2021
2606 Clouds 23 1014 63 10000 4.63 120 21:48 27.05.2021
2607 Clouds 23 1014 61 10000 4.12 120 21:28 27.05.2021
2608 Clouds 23 1014 50 10000 4.63 110 20:48 27.05.2021
2609 Clouds 24 1015 50 10000 4.63 110 20:25 27.05.2021
2610 Clouds 24 1015 56 10000 5.14 110 19:32 27.05.2021
2611 Clouds 25 1015 54 10000 5.66 110 18:45 27.05.2021
2612 Clouds 25 1015 52 10000 5.66 100 18:27 27.05.2021
2613 Clouds 26 1015 45 10000 6.17 110 17:32 27.05.2021
2614 Clear 27 1014 50 10000 6.17 110 16:58 27.05.2021
2615 Clouds 26 1014 50 10000 7.2 130 16:32 27.05.2021
2616 Clear 26 1014 50 10000 6.17 120 15:44 27.05.2021
2617 Clear 26 1014 53 10000 3.6 130 15:18 27.05.2021
2618 Clear 25 1015 44 10000 2.57 120 14:35 27.05.2021
2619 Clear 26 1014 57 10000 3.09 110 13:59 27.05.2021
2620 Clear 26 1014 57 10000 2.57 120 13:41 27.05.2021
2621 Clear 27 1014 57 10000 2.57 120 13:19 27.05.2021
2622 Clear 27 1013 54 10000 3.6 100 12:46 27.05.2021
2623 Clear 27 1013 54 10000 3.6 100 12:25 27.05.2021
2624 Clear 27 1013 54 10000 3.09 100 11:55 27.05.2021
2625 Clear 27 1013 52 10000 2.57 90 11:19 27.05.2021
2626 Clear 29 1012 47 10000 5.66 100 10:45 27.05.2021
2627 Clear 30 1012 36 10000 5.66 100 09:58 27.05.2021
2628 Clear 30 1012 37 10000 6.17 100 09:34 27.05.2021
2629 Clear 31 1012 38 10000 7.2 100 08:28 27.05.2021
2630 Clear 31 1013 39 10000 7.72 90 07:31 27.05.2021
2631 Clear 29 1015 50 10000 8.75 120 04:21 27.05.2021
2632 Clear 24 1016 59 10000 3.6 120 00:49 27.05.2021
2633 Clear 22 1015 73 10000 3.09 130 23:39 26.05.2021
2634 Clear 22 1015 74 10000 3.09 130 23:21 26.05.2021
2635 Clear 22 1015 84 10000 2.06 130 22:42 26.05.2021
2636 Clear 21 1015 86 10000 2.06 130 22:21 26.05.2021
2637 Clouds 21 1015 89 10000 2.57 140 21:39 26.05.2021
2638 Clouds 22 1015 89 10000 2.57 140 21:21 26.05.2021
2639 Clouds 21 1014 92 10000 2.06 120 20:43 26.05.2021
2640 Clouds 21 1015 91 10000 2.06 120 20:22 26.05.2021
2641 Clouds 21 1015 91 10000 2.06 110 19:49 26.05.2021
2642 Clouds 22 1015 89 10000 2.06 110 19:22 26.05.2021
2643 Clouds 23 1015 86 10000 1.54 120 18:53 26.05.2021
2644 Clouds 24 1014 81 10000 2.57 100 18:18 26.05.2021
2645 Clouds 24 1015 80 10000 3.09 110 17:20 26.05.2021
2646 Clear 24 1015 80 10000 1.54 110 16:42 26.05.2021
2647 Clear 24 1015 80 10000 1.54 110 16:20 26.05.2021
2648 Clear 25 1014 79 10000 1.54 90 15:47 26.05.2021
2649 Clear 23 1015 82 10000 1.54 90 15:24 26.05.2021
2650 Clear 25 1014 80 10000 1.54 50 14:47 26.05.2021
2651 Clear 25 1015 78 10000 1.54 50 14:21 26.05.2021
2652 Clear 25 1014 76 10000 2.57 30 13:50 26.05.2021
2653 Clear 25 1014 74 10000 2.06 40 13:18 26.05.2021
2654 Clouds 26 1014 71 5000 1.54 20 12:29 26.05.2021
2655 Clouds 27 1014 65 4000 2.57 50 11:42 26.05.2021
2656 Clouds 27 1014 64 4000 2.57 50 11:23 26.05.2021
2657 Clouds 28 1012 62 5000 3.09 70 10:40 26.05.2021
2658 Clouds 28 1012 61 6000 4.63 60 10:21 26.05.2021
2659 Clear 29 1012 52 10000 5.66 80 09:51 26.05.2021
2660 Clear 31 1011 43 10000 5.66 90 09:29 26.05.2021
2661 Clear 31 1011 41 10000 6.17 70 08:49 26.05.2021
2662 Clear 32 1012 39 10000 7.2 90 07:38 26.05.2021
2663 Clear 32 1012 39 10000 6.69 80 06:43 26.05.2021
2664 Clear 30 1013 44 10000 5.66 130 05:27 26.05.2021
2665 Clear 30 1013 44 10000 5.66 130 05:27 26.05.2021
2666 Clear 23 1014 77 10000 4.12 110 00:20 26.05.2021
2667 Clear 22 1013 78 10000 3.6 110 23:26 25.05.2021
2668 Clear 22 1013 80 10000 2.57 120 22:46 25.05.2021
2669 Clouds 23 1013 80 10000 2.06 110 21:56 25.05.2021
2670 Clouds 23 1013 84 10000 2.06 90 21:30 25.05.2021
2671 Clouds 23 1013 78 10000 2.57 110 20:51 25.05.2021
2672 Clear 23 1013 83 10000 2.06 160 20:32 25.05.2021
2673 Clouds 23 1013 91 10000 3.22 102 19:41 25.05.2021
2674 Clouds 23 1013 91 10000 3.06 124 19:22 25.05.2021
2675 Clouds 24 1014 85 10000 2.06 170 18:46 25.05.2021
2676 Clouds 25 1013 82 10000 2.06 170 18:24 25.05.2021
2677 Clouds 25 1013 81 10000 1.54 170 17:33 25.05.2021
2678 Clear 25 1013 80 10000 0 0 16:40 25.05.2021
2679 Clear 24 1013 82 10000 0 0 16:21 25.05.2021
2680 Clear 25 1013 81 10000 1.54 80 15:40 25.05.2021
2681 Clear 26 1013 77 10000 1.54 80 15:18 25.05.2021
2682 Clear 25 1013 78 10000 2.06 70 14:47 25.05.2021
2683 Clear 25 1013 78 10000 2.06 60 14:22 25.05.2021
2684 Clear 26 1013 76 10000 2.06 60 13:43 25.05.2021
2685 Clear 26 1012 76 10000 2.06 60 13:24 25.05.2021
2686 Clear 27 1012 69 10000 3.09 40 12:45 25.05.2021
2687 Clear 27 1012 69 10000 3.09 40 12:23 25.05.2021
2688 Clear 28 1012 67 10000 3.09 40 11:41 25.05.2021
2689 Clear 28 1012 67 10000 3.09 40 11:41 25.05.2021
2690 Clear 29 1012 63 10000 4.63 90 10:58 25.05.2021
2691 Clouds 30 1011 55 10000 4.63 90 10:32 25.05.2021
2692 Clear 32 1010 44 10000 5.14 110 09:42 25.05.2021
2693 Clear 32 1010 45 10000 6.17 80 08:36 25.05.2021
2694 Clear 32 1011 45 10000 5.66 60 07:36 25.05.2021
2695 Clear 32 1012 48 10000 5.66 90 05:49 25.05.2021
2696 Clouds 29 1014 60 10000 5.14 120 03:30 25.05.2021
2697 Clouds 23 1014 78 10000 3.09 140 00:35 25.05.2021
2698 Clouds 23 1013 79 10000 4.12 140 23:30 24.05.2021
2699 Clouds 23 1013 79 10000 3.09 140 22:47 24.05.2021
2700 Clouds 23 1013 80 10000 2.57 130 22:28 24.05.2021
2701 Clouds 22 1013 80 10000 2.57 130 21:47 24.05.2021
2702 Clouds 23 1013 83 10000 2.57 140 21:19 24.05.2021
2703 Clouds 23 1013 88 10000 2.57 160 20:38 24.05.2021
2704 Clouds 23 1013 87 10000 2.57 160 20:20 24.05.2021
2705 Clouds 23 1013 86 10000 2.57 170 19:47 24.05.2021
2706 Clouds 23 1013 90 10000 2.57 170 19:28 24.05.2021
2707 Clouds 23 1013 89 10000 1.03 170 18:53 24.05.2021
2708 Clouds 24 1013 87 10000 1.54 150 18:23 24.05.2021
2709 Clouds 24 1013 85 10000 1.54 20 17:46 24.05.2021
2710 Clouds 24 1013 88 10000 1.54 20 17:21 24.05.2021
2711 Clear 24 1013 81 10000 2.06 30 16:43 24.05.2021
2712 Clear 24 1013 80 10000 2.57 30 15:46 24.05.2021
2713 Clear 25 1013 78 10000 3.6 40 14:58 24.05.2021
2714 Clear 25 1013 78 10000 3.6 40 14:58 24.05.2021
2715 Clear 25 1013 76 10000 3.6 30 14:36 24.05.2021
2716 Clear 25 1013 76 10000 3.6 30 14:36 24.05.2021
2717 Clear 25 1013 72 10000 3.6 30 13:55 24.05.2021
2718 Clear 25 1013 69 10000 4.12 40 13:26 24.05.2021
2719 Clear 26 1013 65 10000 4.12 40 12:49 24.05.2021
2720 Clear 26 1012 61 10000 4.12 50 12:28 24.05.2021
2721 Clear 27 1012 59 10000 3.6 40 11:43 24.05.2021
2722 Clear 27 1012 57 10000 4.63 40 11:23 24.05.2021
2723 Clear 29 1011 47 10000 5.66 20 10:41 24.05.2021
2724 Clear 29 1011 47 10000 5.66 20 10:19 24.05.2021
2725 Clear 32 1011 31 10000 3.6 70 09:28 24.05.2021
2726 Clear 32 1011 31 10000 4.12 100 08:56 24.05.2021
2727 Clear 32 1011 29 10000 5.14 70 08:35 24.05.2021
2728 Clear 32 1011 33 10000 5.14 70 06:57 24.05.2021
2729 Clear 30 1014 48 10000 5.66 90 04:26 24.05.2021
2730 Clear 28 1014 59 10000 7.72 90 02:43 24.05.2021
2731 Clouds 23 1013 86 10000 3.09 110 00:33 24.05.2021
2732 Clouds 23 1012 89 10000 2.57 100 23:37 23.05.2021
2733 Clouds 23 1012 89 10000 2.57 100 23:19 23.05.2021
2734 Clouds 23 1016 89 10000 1.54 130 22:25 23.05.2021
2735 Clouds 23 1016 89 10000 1.03 140 21:45 23.05.2021
2736 Clouds 24 1016 91 10000 2.06 130 21:20 23.05.2021
2737 Clouds 24 1016 90 10000 2.06 150 20:48 23.05.2021
2738 Clouds 23 1016 90 10000 1.54 150 20:30 23.05.2021
2739 Clouds 23 1012 94 10000 0 0 19:43 23.05.2021
2740 Clouds 23 1012 94 10000 0.51 90 19:24 23.05.2021
2741 Clouds 23 1012 94 10000 1.54 160 18:35 23.05.2021
2742 Clouds 23 1012 94 10000 2.06 170 17:51 23.05.2021
2743 Clouds 24 1012 89 10000 2.06 180 17:32 23.05.2021
2744 Clear 24 1012 88 10000 2.06 180 16:54 23.05.2021
2745 Clear 24 1012 86 10000 1.03 180 16:26 23.05.2021
2746 Clear 23 1012 89 10000 1.54 190 15:59 23.05.2021
2747 Clear 25 1012 83 10000 2.06 180 15:33 23.05.2021
2748 Clear 25 1012 82 10000 2.57 190 14:58 23.05.2021
2749 Clear 25 1012 82 10000 0.51 60 14:34 23.05.2021
2750 Clear 25 1011 79 10000 1.03 60 13:48 23.05.2021
2751 Clear 26 1011 79 10000 2.06 50 13:25 23.05.2021
2752 Clear 26 1010 77 10000 2.57 20 12:33 23.05.2021
2753 Clear 27 1010 72 10000 2.57 10 11:51 23.05.2021
2754 Clouds 28 1009 72 10000 3.09 360 11:25 23.05.2021
2755 Clear 29 1009 64 10000 3.6 350 10:37 23.05.2021
2756 Clear 29 1009 62 10000 3.6 350 10:18 23.05.2021
2757 Clouds 30 1009 59 10000 4.12 350 09:36 23.05.2021
2758 Clouds 31 1009 58 10000 4.12 350 08:27 23.05.2021
2759 Clouds 32 1009 48 10000 5.14 320 07:45 23.05.2021
2760 Clouds 33 1009 43 10000 5.14 320 07:27 23.05.2021
2761 Clouds 33 1009 43 10000 5.14 320 07:27 23.05.2021
2762 Clouds 31 1014 52 10000 5.14 120 05:27 23.05.2021
2763 Clouds 25 1012 79 10000 1.54 110 00:59 23.05.2021
2764 Clouds 21 1011 94 10000 2.57 120 23:42 22.05.2021
2765 Clouds 21 1011 92 10000 2.57 120 23:21 22.05.2021
2766 Clouds 21 1011 90 10000 1.54 100 22:44 22.05.2021
2767 Clouds 21 1010 90 10000 1.54 180 22:26 22.05.2021
2768 Clouds 22 1010 87 10000 1.54 180 21:47 22.05.2021
2769 Clouds 21 1010 90 10000 0 0 21:25 22.05.2021
2770 Clouds 22 1010 92 10000 0.51 120 20:50 22.05.2021
2771 Clouds 22 1010 90 10000 1.54 130 20:22 22.05.2021
2772 Clouds 22 1010 90 10000 1.03 140 19:37 22.05.2021
2773 Clouds 22 1010 92 10000 1.03 140 19:19 22.05.2021
2774 Clouds 22 1010 90 10000 1.03 170 18:39 22.05.2021
2775 Clouds 23 1010 88 10000 1.03 170 17:56 22.05.2021
2776 Clouds 22 1011 86 9000 0.51 70 17:31 22.05.2021
2777 Clear 24 1011 78 10000 2.06 180 16:51 22.05.2021
2778 Clear 24 1011 78 10000 2.06 180 16:51 22.05.2021
2779 Clear 23 1011 81 10000 0 0 15:58 22.05.2021
2780 Clear 24 1011 78 10000 1.03 40 15:30 22.05.2021
2781 Clear 25 1011 78 10000 0 0 14:33 22.05.2021
2782 Clear 25 1011 73 10000 1.03 40 13:55 22.05.2021
2783 Clear 24 1011 77 10000 1.54 20 13:34 22.05.2021
2784 Clear 25 1010 72 10000 2.06 30 12:52 22.05.2021
2785 Clear 26 1010 72 10000 2.57 30 12:23 22.05.2021
2786 Clear 26 1009 68 10000 3.6 30 11:44 22.05.2021
2787 Clear 28 1009 64 10000 4.12 10 10:52 22.05.2021
2788 Clear 29 1008 60 10000 4.63 10 10:28 22.05.2021
2789 Clear 30 1008 52 10000 5.14 30 09:38 22.05.2021
2790 Clear 32 1008 36 10000 3.6 80 08:34 22.05.2021
2791 Clear 32 1012 38 10000 3.6 100 07:48 22.05.2021
2792 Clear 31 1010 41 10000 5.66 100 05:59 22.05.2021
2793 Clouds 29 1012 60 10000 4.63 110 02:57 22.05.2021
2794 Clear 22 1011 90 10000 1.54 90 23:51 21.05.2021
2795 Clear 23 1010 90 10000 2.06 130 23:18 21.05.2021
2796 Clear 22 1010 94 10000 2.06 110 22:29 21.05.2021
2797 Clouds 23 1014 94 10000 1.54 80 21:51 21.05.2021
2798 Clouds 23 1009 94 10000 1.54 70 21:27 21.05.2021
2799 Clouds 23 1009 98 10000 1.03 70 20:52 21.05.2021
2800 Clouds 23 1009 94 10000 0.51 70 20:31 21.05.2021
2801 Clouds 23 1010 94 10000 1.03 70 19:59 21.05.2021
2802 Clouds 23 1010 94 10000 1.54 70 19:31 21.05.2021
2803 Clouds 24 1010 91 10000 0.51 230 18:56 21.05.2021
2804 Clouds 24 1010 91 10000 1.54 230 18:28 21.05.2021
2805 Clouds 24 1010 90 10000 1.54 230 17:47 21.05.2021
2806 Clouds 25 1011 92 10000 1.03 230 17:29 21.05.2021
2807 Clear 25 1011 90 10000 2.06 220 16:45 21.05.2021
2808 Clear 25 1011 86 10000 1.54 210 16:26 21.05.2021
2809 Clear 25 1012 86 10000 1.54 200 15:44 21.05.2021
2810 Clear 25 1012 82 10000 1.03 200 15:26 21.05.2021
2811 Clear 25 1012 81 10000 1.03 200 14:52 21.05.2021
2812 Clear 25 1012 81 10000 1.03 200 14:52 21.05.2021
2813 Clear 25 1012 81 10000 2.57 210 14:32 21.05.2021
2814 Clear 26 1011 78 10000 2.57 20 13:29 21.05.2021
2815 Clear 26 1010 72 10000 2.57 20 12:25 21.05.2021
2816 Clear 27 1010 69 10000 3.09 10 11:58 21.05.2021
2817 Clear 28 1010 68 10000 3.6 20 11:33 21.05.2021
2818 Clear 29 1009 63 10000 3.6 10 10:52 21.05.2021
2819 Clear 29 1009 61 10000 4.63 20 10:28 21.05.2021
2820 Clear 31 1009 48 10000 3.09 20 09:33 21.05.2021
2821 Clear 33 1009 33 10000 2.57 80 08:47 21.05.2021
2822 Clear 33 1009 33 10000 4.12 140 08:21 21.05.2021
2823 Clear 33 1009 33 10000 2.57 110 07:27 21.05.2021
2824 Clear 32 1011 36 10000 5.66 100 05:58 21.05.2021
2825 Clear 25 1012 89 10000 2.57 160 00:56 21.05.2021
2826 Clear 24 1012 92 10000 1.03 170 00:19 21.05.2021
2827 Clear 23 1012 90 10000 1.03 150 23:39 20.05.2021
2828 Clear 23 1012 90 10000 1.03 150 23:19 20.05.2021
2829 Clear 24 1011 90 10000 1.54 160 22:40 20.05.2021
2830 Clear 24 1011 90 10000 1.54 160 22:20 20.05.2021
2831 Clouds 23 1012 90 10000 2.06 160 21:48 20.05.2021
2832 Clouds 24 1012 94 10000 2.57 150 21:19 20.05.2021
2833 Clouds 24 1012 94 9000 1.03 170 20:37 20.05.2021
2834 Clouds 24 1012 94 9000 1.03 170 20:18 20.05.2021
2835 Clouds 24 1012 90 10000 1.54 170 19:42 20.05.2021
2836 Clouds 24 1012 90 10000 1.54 170 19:22 20.05.2021
2837 Clouds 25 1012 90 10000 2.57 170 18:37 20.05.2021
2838 Clouds 25 1013 87 10000 2.57 180 17:53 20.05.2021
2839 Clouds 25 1013 86 10000 2.57 190 17:33 20.05.2021
2840 Clear 25 1013 86 10000 2.06 190 16:56 20.05.2021
2841 Clear 25 1013 85 10000 2.06 190 16:30 20.05.2021
2842 Clear 25 1013 81 10000 2.06 190 15:43 20.05.2021
2843 Clear 25 1013 81 10000 1.54 200 15:25 20.05.2021
2844 Clear 26 1013 80 10000 2.06 30 14:42 20.05.2021
2845 Clear 26 1013 81 10000 2.06 30 14:21 20.05.2021
2846 Clear 26 1013 79 10000 2.57 30 13:42 20.05.2021
2847 Clear 27 1012 70 10000 3.09 40 12:57 20.05.2021
2848 Clear 27 1012 69 10000 3.09 30 12:37 20.05.2021
2849 Clear 27 1012 69 10000 3.09 30 12:18 20.05.2021
2850 Clear 28 1011 65 10000 4.12 30 11:22 20.05.2021
2851 Clear 29 1011 61 10000 3.6 40 10:58 20.05.2021
2852 Clear 29 1010 61 10000 4.63 30 10:37 20.05.2021
2853 Clear 30 1010 60 10000 4.63 30 10:18 20.05.2021
2854 Clear 33 1010 44 10000 4.12 30 09:41 20.05.2021
2855 Clear 32 1010 35 10000 4.12 30 09:21 20.05.2021
2856 Clear 34 1009 38 10000 3.6 120 08:53 20.05.2021
2857 Clear 34 1009 38 10000 3.6 120 08:33 20.05.2021
2858 Clear 35 1009 34 10000 4.63 70 07:51 20.05.2021
2859 Clear 34 1009 36 10000 5.66 60 07:28 20.05.2021
2860 Clear 34 1010 36 10000 7.2 80 06:47 20.05.2021
2861 Clear 33 1011 38 10000 7.2 80 05:46 20.05.2021
2862 Clear 32 1012 42 10000 7.72 90 04:30 20.05.2021
2863 Clear 27 1013 66 10000 3.09 140 01:36 20.05.2021
2864 Clear 24 1012 75 10000 2.06 150 00:19 20.05.2021
2865 Clear 23 1012 77 10000 2.06 150 23:43 19.05.2021
2866 Clear 23 1012 74 10000 2.57 160 23:21 19.05.2021
2867 Clear 23 1011 74 10000 2.57 140 22:42 19.05.2021
2868 Clear 23 1011 76 10000 2.57 140 22:20 19.05.2021
2869 Clouds 24 1011 73 10000 2.06 150 21:45 19.05.2021
2870 Clouds 24 1011 73 10000 1.54 160 21:23 19.05.2021
2871 Clouds 23 1011 77 10000 2.57 160 20:59 19.05.2021
2872 Clouds 24 1011 75 10000 2.06 180 20:27 19.05.2021
2873 Clouds 25 1011 73 10000 3.09 190 19:54 19.05.2021
2874 Clouds 25 1011 72 10000 3.09 190 19:27 19.05.2021
2875 Clouds 25 1011 72 10000 3.09 190 19:27 19.05.2021
2876 Clouds 26 1011 70 10000 3.09 190 18:54 19.05.2021
2877 Clouds 25 1011 72 10000 3.09 190 18:33 19.05.2021
2878 Clouds 25 1011 73 10000 3.09 190 17:59 19.05.2021
2879 Clouds 25 1012 74 10000 3.09 190 17:24 19.05.2021
2880 Clear 25 1012 75 10000 3.09 190 16:49 19.05.2021
2881 Clear 25 1012 76 10000 2.06 190 16:30 19.05.2021
2882 Clear 26 1012 78 10000 2.57 210 15:52 19.05.2021
2883 Clear 26 1012 80 10000 3.6 190 15:31 19.05.2021
2884 Clear 25 1012 76 10000 3.09 190 14:55 19.05.2021
2885 Clear 25 1012 73 10000 1.54 40 14:25 19.05.2021
2886 Clear 26 1012 75 10000 1.54 40 13:45 19.05.2021
2887 Clear 26 1011 76 10000 2.06 50 13:25 19.05.2021
2888 Clear 27 1011 65 10000 2.06 50 12:42 19.05.2021
2889 Clear 27 1011 65 10000 2.06 50 12:21 19.05.2021
2890 Clear 28 1010 64 10000 2.57 30 11:45 19.05.2021
2891 Clear 28 1010 61 10000 3.09 30 11:25 19.05.2021
2892 Clear 30 1010 55 10000 3.6 20 10:59 19.05.2021
2893 Clear 30 1009 52 10000 3.6 60 10:38 19.05.2021
2894 Clear 32 1009 46 10000 4.63 80 09:57 19.05.2021
2895 Clear 32 1009 40 10000 5.14 60 09:29 19.05.2021
2896 Clear 32 1009 45 10000 5.66 100 08:56 19.05.2021
2897 Clear 33 1009 44 10000 5.14 100 08:35 19.05.2021
2898 Clear 33 1009 44 10000 4.12 80 07:56 19.05.2021
2899 Clear 33 1010 43 10000 5.66 70 06:53 19.05.2021
2900 Clear 32 1010 45 10000 7.2 90 06:31 19.05.2021
2901 Clear 30 1012 44 10000 6.17 90 04:43 19.05.2021
2902 Clear 27 1013 49 10000 7.2 110 02:26 19.05.2021
2903 Clear 22 1012 57 10000 2.57 120 00:33 19.05.2021
2904 Clear 21 1012 62 10000 2.57 130 23:49 18.05.2021
2905 Clear 22 1011 58 10000 3.6 120 22:59 18.05.2021
2906 Clear 21 1011 58 10000 3.09 130 22:35 18.05.2021
2907 Clear 21 1011 58 10000 3.09 130 21:59 18.05.2021
2908 Clear 22 1011 57 10000 3.6 140 21:39 18.05.2021
2909 Clear 22 1011 56 10000 3.6 150 20:58 18.05.2021
2910 Clear 22 1011 58 10000 3.09 150 20:40 18.05.2021
2911 Clouds 22 1011 58 10000 3.09 150 20:18 18.05.2021
2912 Clouds 22 1011 61 10000 3.09 150 19:44 18.05.2021
2913 Clouds 22 1012 63 10000 3.09 150 19:21 18.05.2021
2914 Clouds 22 1012 66 10000 3.6 170 18:45 18.05.2021
2915 Clouds 22 1012 67 10000 3.09 180 18:24 18.05.2021
2916 Clouds 24 1012 60 10000 3.09 180 17:44 18.05.2021
2917 Clouds 24 1012 62 10000 3.6 180 17:23 18.05.2021
2918 Clear 25 1013 60 10000 3.6 200 16:34 18.05.2021
2919 Clear 24 1013 77 10000 2.57 190 15:56 18.05.2021
2920 Clear 24 1013 74 10000 2.57 200 15:34 18.05.2021
2921 Clear 24 1013 73 10000 3.09 180 14:58 18.05.2021
2922 Clear 24 1013 73 10000 0.51 50 14:29 18.05.2021
2923 Clear 24 1012 69 10000 1.54 50 13:28 18.05.2021
2924 Clear 25 1011 64 10000 3.09 30 12:37 18.05.2021
2925 Clear 26 1011 64 10000 3.09 30 12:18 18.05.2021
2926 Clear 27 1010 53 10000 2.06 10 11:35 18.05.2021
2927 Clear 29 1009 45 10000 3.09 30 10:53 18.05.2021
2928 Clear 29 1009 43 10000 3.6 50 10:30 18.05.2021
2929 Clear 30 1009 36 10000 3.6 90 09:53 18.05.2021
2930 Clear 31 1009 36 10000 3.6 100 09:33 18.05.2021
2931 Clear 31 1009 33 10000 3.09 80 08:50 18.05.2021
2932 Clear 31 1009 31 10000 3.6 50 08:19 18.05.2021
2933 Clear 31 1010 30 10000 3.6 110 07:38 18.05.2021
2934 Clear 31 1011 27 10000 4.63 140 06:29 18.05.2021
2935 Clear 25 1014 44 10000 4.63 130 02:30 18.05.2021
2936 Clear 24 1014 49 10000 4.12 140 01:48 18.05.2021
2937 Clear 21 1013 60 10000 3.6 140 00:43 18.05.2021
2938 Clear 21 1013 60 10000 3.6 140 00:23 18.05.2021
2939 Clear 21 1013 56 10000 2.57 140 23:39 17.05.2021
2940 Clear 21 1013 56 10000 2.57 140 23:20 17.05.2021
2941 Clear 21 1012 56 10000 3.09 130 22:43 17.05.2021
2942 Clear 21 1012 56 10000 3.09 130 22:23 17.05.2021
2943 Clouds 22 1012 53 10000 3.6 130 21:55 17.05.2021
2944 Clouds 21 1012 60 10000 2.57 120 21:21 17.05.2021
2945 Rain 22 1012 53 10000 4.12 150 20:40 17.05.2021
2946 Clouds 22 1012 53 10000 4.12 150 20:21 17.05.2021
2947 Rain 22 1012 60 10000 3.6 150 19:45 17.05.2021
2948 Rain 22 1013 56 10000 3.09 160 19:27 17.05.2021
2949 Clouds 22 1012 56 10000 3.09 170 18:50 17.05.2021
2950 Rain 23 1013 60 10000 2.57 150 18:31 17.05.2021
2951 Rain 24 1013 60 10000 3.09 150 17:52 17.05.2021
2952 Rain 24 1013 60 10000 3.09 150 17:52 17.05.2021
2953 Clouds 24 1013 64 10000 2.57 170 17:32 17.05.2021
2954 Clear 24 1013 73 10000 3.6 180 16:56 17.05.2021
2955 Clear 23 1013 78 10000 3.09 190 16:24 17.05.2021
2956 Clear 22 1012 73 10000 1.54 70 15:38 17.05.2021
2957 Clear 23 1012 73 10000 1.54 70 15:19 17.05.2021
2958 Clear 23 1012 68 10000 1.03 70 14:45 17.05.2021
2959 Clear 23 1012 69 10000 1.54 70 14:24 17.05.2021
2960 Clear 24 1012 61 10000 1.54 60 13:49 17.05.2021
2961 Clear 25 1011 57 10000 2.57 40 12:43 17.05.2021
2962 Clear 25 1011 57 10000 2.57 40 12:24 17.05.2021
2963 Clear 28 1011 42 10000 2.57 70 11:48 17.05.2021
2964 Clear 28 1011 42 10000 2.57 70 11:22 17.05.2021
2965 Clear 29 1010 39 10000 3.09 70 10:55 17.05.2021
2966 Clear 30 1010 35 10000 3.6 80 10:29 17.05.2021
2967 Clear 31 1010 35 10000 4.12 60 09:52 17.05.2021
2968 Clear 31 1009 35 10000 3.6 70 08:50 17.05.2021
2969 Clear 31 1009 33 10000 4.63 80 08:20 17.05.2021
2970 Clear 31 1010 33 10000 4.12 70 07:30 17.05.2021
2971 Clear 31 1010 33 10000 4.12 70 07:30 17.05.2021
2972 Clear 31 1010 33 10000 4.63 110 06:37 17.05.2021
2973 Clear 30 1011 32 10000 5.66 110 05:20 17.05.2021
2974 Clear 27 1013 34 10000 6.69 120 02:57 17.05.2021
2975 Clear 23 1013 43 10000 4.12 140 01:29 17.05.2021
2976 Clear 20 1013 52 10000 3.09 140 00:33 17.05.2021
2977 Clear 19 1012 52 10000 3.09 140 23:30 16.05.2021
2978 Clear 19 1012 52 10000 3.6 140 22:51 16.05.2021
2979 Clear 19 1012 52 10000 4.12 150 22:29 16.05.2021
2980 Clear 19 1012 52 10000 4.12 150 21:51 16.05.2021
2981 Clear 20 1011 49 10000 4.12 140 21:32 16.05.2021
2982 Clear 20 1012 49 10000 3.6 150 20:52 16.05.2021
2983 Clear 20 1012 49 10000 3.6 150 20:29 16.05.2021
2984 Clear 21 1012 46 10000 4.12 160 19:59 16.05.2021
2985 Clear 21 1012 43 10000 3.6 160 19:38 16.05.2021
2986 Clear 21 1012 43 10000 3.6 160 19:18 16.05.2021
2987 Clear 22 1012 46 10000 2.57 150 18:41 16.05.2021
2988 Clear 22 1012 46 10000 2.57 150 18:22 16.05.2021
2989 Clear 21 1012 49 10000 3.09 150 17:48 16.05.2021
2990 Clouds 22 1013 53 10000 3.09 150 17:29 16.05.2021
2991 Clear 22 1013 53 10000 3.09 160 16:58 16.05.2021
2992 Clear 21 1013 64 10000 2.57 170 16:39 16.05.2021
2993 Clear 22 1013 64 10000 2.57 170 16:19 16.05.2021
2994 Clear 21 1013 68 10000 1.54 170 15:43 16.05.2021
2995 Clear 23 1013 64 10000 3.6 180 15:21 16.05.2021
2996 Clear 22 1013 68 10000 1.03 60 14:44 16.05.2021
2997 Clear 21 1013 68 10000 1.03 60 14:19 16.05.2021
2998 Clear 23 1012 64 10000 0.51 60 13:51 16.05.2021
2999 Clear 23 1012 60 10000 1.54 50 13:21 16.05.2021
3000 Clear 24 1012 50 10000 2.06 50 12:52 16.05.2021
3001 Clear 24 1011 46 10000 1.03 70 12:33 16.05.2021
3002 Clear 25 1011 41 10000 1.54 70 11:58 16.05.2021
3003 Clear 26 1010 36 10000 1.54 70 11:33 16.05.2021
3004 Clear 28 1010 28 10000 3.09 80 10:53 16.05.2021
3005 Clear 29 1010 26 10000 3.6 80 10:32 16.05.2021
3006 Clear 30 1009 28 10000 4.12 100 09:50 16.05.2021
3007 Clear 30 1009 26 10000 3.6 110 09:27 16.05.2021
3008 Clear 30 1009 28 10000 5.14 90 08:50 16.05.2021
3009 Clear 30 1009 28 10000 5.14 90 08:24 16.05.2021
3010 Clear 31 1010 29 10000 4.63 90 07:32 16.05.2021
3011 Clear 30 1010 30 10000 5.66 110 06:49 16.05.2021
3012 Clear 25 1013 41 10000 7.72 130 02:36 16.05.2021
3013 Clear 20 1012 52 10000 3.6 150 00:42 16.05.2021
3014 Clear 19 1012 52 10000 2.57 140 23:43 15.05.2021
3015 Clear 19 1011 52 10000 2.57 140 23:21 15.05.2021
3016 Clear 20 1010 49 10000 3.09 140 22:38 15.05.2021
3017 Clear 20 1010 49 10000 3.09 140 22:19 15.05.2021
3018 Clouds 20 1010 49 10000 3.09 140 21:31 15.05.2021
3019 Clouds 20 1010 49 10000 2.57 140 20:59 15.05.2021
3020 Clouds 21 1010 43 10000 3.09 140 20:36 15.05.2021
3021 Clouds 21 1010 43 10000 3.09 140 20:18 15.05.2021
3022 Clouds 21 1011 40 10000 3.09 140 19:31 15.05.2021
3023 Clouds 23 1011 35 10000 3.6 140 18:23 15.05.2021
3024 Clouds 22 1011 40 10000 3.09 150 17:55 15.05.2021
3025 Clouds 22 1011 43 10000 2.57 140 17:24 15.05.2021
3026 Clear 22 1011 43 10000 2.06 150 16:44 15.05.2021
3027 Clear 22 1011 49 10000 2.06 140 16:24 15.05.2021
3028 Clear 22 1011 60 10000 2.06 160 15:57 15.05.2021
3029 Clear 22 1011 73 10000 2.69 158 14:53 15.05.2021
3030 Clear 21 1011 68 10000 0.51 100 14:29 15.05.2021
3031 Clear 23 1011 64 10000 1.03 70 13:53 15.05.2021
3032 Clear 23 1011 56 10000 1.03 20 13:29 15.05.2021
3033 Clear 25 1010 50 10000 2.01 304 12:22 15.05.2021
3034 Clear 26 1010 41 10000 2.01 304 11:43 15.05.2021
3035 Clear 29 1009 30 10000 2.06 70 10:54 15.05.2021
3036 Clear 31 1009 22 10000 3.09 90 09:59 15.05.2021
3037 Clear 31 1009 22 10000 3.09 120 09:21 15.05.2021
3038 Clear 32 1009 22 10000 4.12 140 08:23 15.05.2021
3039 Clear 31 1009 23 10000 3.09 130 07:26 15.05.2021
3040 Clear 31 1009 25 10000 3.09 100 06:54 15.05.2021
3041 Clear 31 1010 23 10000 4.63 110 06:34 15.05.2021
3042 Clear 29 1012 28 10000 6.17 120 04:21 15.05.2021
3043 Clear 21 1012 52 10000 4.63 140 00:51 15.05.2021
3044 Clear 20 1011 52 10000 3.6 110 23:48 14.05.2021
3045 Clear 20 1011 49 10000 2.57 110 22:58 14.05.2021
3046 Clear 20 1011 52 10000 2.06 120 22:25 14.05.2021
3047 Clouds 21 1010 46 10000 3.09 140 21:41 14.05.2021
3048 Clear 21 1010 46 10000 3.09 140 21:18 14.05.2021
3049 Clear 22 1010 46 10000 4.63 140 20:35 14.05.2021
3050 Clear 23 1010 43 10000 4.63 140 19:51 14.05.2021
3051 Clear 22 1011 49 10000 3.6 150 19:31 14.05.2021
3052 Clear 22 1011 49 10000 4.12 150 18:57 14.05.2021
3053 Clouds 23 1011 46 10000 3.09 150 18:34 14.05.2021
3054 Clouds 23 1011 49 10000 2.57 170 17:49 14.05.2021
3055 Clouds 22 1011 49 10000 2.57 150 17:25 14.05.2021
3056 Clear 22 1011 49 10000 2.57 140 16:48 14.05.2021
3057 Clear 22 1011 60 10000 1.54 130 16:30 14.05.2021
3058 Clear 22 1011 60 10000 1.54 130 16:29 14.05.2021
3059 Clear 23 1011 56 10000 1.03 130 15:59 14.05.2021
3060 Clear 22 1011 73 10000 0.51 120 15:20 14.05.2021
3061 Clear 23 1011 68 10000 2.13 195 14:40 14.05.2021
3062 Clear 24 1011 60 10000 1.65 220 13:45 14.05.2021
3063 Clear 24 1010 53 10000 0.51 80 13:26 14.05.2021
3064 Clear 24 1010 50 10000 2.06 100 12:37 14.05.2021
3065 Clear 25 1010 50 10000 2.06 100 12:18 14.05.2021
3066 Clear 27 1009 36 10000 2.06 80 11:26 14.05.2021
3067 Clear 30 1009 32 10000 2.57 70 10:43 14.05.2021
3068 Clear 31 1009 25 10000 3.6 70 10:24 14.05.2021
3069 Clear 32 1008 27 10000 3.09 80 09:44 14.05.2021
3070 Clear 32 1008 23 10000 2.57 90 09:25 14.05.2021
3071 Clear 33 1008 24 10000 4.63 110 08:34 14.05.2021
3072 Clear 32 1009 25 10000 3.6 110 07:35 14.05.2021
3073 Clear 32 1010 22 10000 5.66 100 06:43 14.05.2021
3074 Clear 28 1012 34 10000 5.14 120 02:46 14.05.2021
3075 Clear 22 1012 49 10000 4.63 150 00:59 14.05.2021
3076 Clear 21 1011 52 10000 3.09 150 23:54 13.05.2021
3077 Clear 21 1011 52 10000 2.57 150 23:32 13.05.2021
3078 Clear 21 1010 52 10000 3.6 150 22:59 13.05.2021
3079 Clear 21 1010 52 10000 4.12 150 22:39 13.05.2021
3080 Clear 21 1010 52 10000 4.12 150 22:21 13.05.2021
3081 Clear 23 1011 44 10000 3.09 130 21:41 13.05.2021
3082 Clear 23 1010 46 10000 3.09 130 21:22 13.05.2021
3083 Clear 23 1009 45 10000 3.6 120 20:46 13.05.2021
3084 Clear 23 1010 48 10000 3.6 150 19:56 13.05.2021
3085 Clear 23 1010 48 10000 3.6 150 19:37 13.05.2021
3086 Clear 23 1010 48 10000 3.6 150 19:19 13.05.2021
3087 Clear 23 1010 49 10000 3.09 150 18:45 13.05.2021
3088 Clear 23 1010 50 10000 3.09 160 18:22 13.05.2021
3089 Clouds 24 1010 49 10000 2.57 160 17:41 13.05.2021
3090 Clouds 24 1010 48 10000 2.57 160 17:22 13.05.2021
3091 Clear 24 1010 48 10000 3.09 160 16:52 13.05.2021
3092 Clear 24 1010 48 10000 3.09 150 16:20 13.05.2021
3093 Clear 24 1010 48 10000 2.06 150 15:56 13.05.2021
3094 Clear 25 1010 47 10000 2.57 160 15:25 13.05.2021
3095 Clear 26 1010 49 10000 2.06 150 14:58 13.05.2021
3096 Clear 24 1010 44 10000 2.57 150 14:39 13.05.2021
3097 Clear 25 1010 47 10000 2.57 150 14:21 13.05.2021
3098 Clear 25 1010 50 10000 2.57 130 13:43 13.05.2021
3099 Clear 25 1010 50 10000 2.57 130 13:24 13.05.2021
3100 Clear 26 1009 47 10000 1.03 140 12:42 13.05.2021
3101 Clear 26 1009 47 10000 1.03 140 12:20 13.05.2021
3102 Clear 30 1008 41 10000 2.06 140 11:40 13.05.2021
3103 Clear 29 1008 52 10000 1.36 42 10:56 13.05.2021
3104 Clear 31 1008 33 10000 3.6 140 10:37 13.05.2021
3105 Clear 33 1008 28 10000 4.12 150 09:56 13.05.2021
3106 Clear 33 1007 27 10000 4.12 150 09:30 13.05.2021
3107 Clear 33 1008 29 10000 4.12 110 08:39 13.05.2021
3108 Clear 33 1008 29 10000 4.12 110 08:20 13.05.2021
3109 Clear 33 1008 28 10000 4.12 110 07:21 13.05.2021
3110 Clear 32 1010 31 10000 5.14 130 05:55 13.05.2021
3111 Clear 27 1012 41 10000 4.63 130 02:40 13.05.2021
3112 Rain 23 1012 51 10000 4.63 140 00:56 13.05.2021
3113 Rain 22 1012 55 10000 4.12 140 23:43 12.05.2021
3114 Clear 22 1011 49 10000 3.09 120 22:57 12.05.2021
3115 Clear 22 1011 51 10000 3.09 130 22:23 12.05.2021
3116 Clear 22 1011 50 10000 4.12 140 21:55 12.05.2021
3117 Clear 22 1009 49 10000 3.6 150 21:19 12.05.2021
3118 Clear 23 1009 49 10000 3.6 150 20:50 12.05.2021
3119 Clouds 23 1009 50 10000 3.6 140 19:54 12.05.2021
3120 Rain 24 1010 48 10000 3.09 150 19:20 12.05.2021
3121 Rain 24 1011 51 10000 3.6 170 18:28 12.05.2021
3122 Rain 24 1011 50 10000 3.6 160 17:55 12.05.2021
3123 Clouds 25 1010 48 10000 3.09 150 17:35 12.05.2021
3124 Rain 25 1011 51 10000 2.57 150 16:53 12.05.2021
3125 Rain 25 1011 51 10000 2.57 150 16:32 12.05.2021
3126 Clear 25 1011 50 10000 3.09 160 15:44 12.05.2021
3127 Clear 25 1011 57 10000 2.57 150 15:24 12.05.2021
3128 Clear 27 1011 42 10000 3.09 140 14:39 12.05.2021
3129 Clear 27 1011 42 10000 3.09 140 14:39 12.05.2021
3130 Clear 26 1011 47 10000 3.09 130 13:59 12.05.2021
3131 Clear 26 1011 53 10000 2.06 130 13:39 12.05.2021
3132 Rain 27 1010 47 10000 1.54 130 12:43 12.05.2021
3133 Clear 27 1010 47 10000 1.54 130 12:24 12.05.2021
3134 Rain 29 1009 35 10000 2.06 90 11:36 12.05.2021
3135 Clear 31 1009 33 10000 3.6 80 10:59 12.05.2021
3136 Rain 33 1009 29 10000 4.12 90 10:32 12.05.2021
3137 Rain 33 1008 29 10000 5.66 90 09:48 12.05.2021
3138 Rain 33 1008 27 10000 4.12 130 09:28 12.05.2021
3139 Clear 34 1008 27 10000 4.12 140 08:55 12.05.2021
3140 Clear 34 1008 27 10000 5.14 100 08:29 12.05.2021
3141 Clear 34 1009 26 10000 6.17 80 07:50 12.05.2021
3142 Clear 33 1010 27 10000 6.17 120 06:31 12.05.2021
3143 Rain 26 1012 47 10000 4.12 130 01:41 12.05.2021
3144 Clouds 24 1012 50 10000 3.6 100 00:37 12.05.2021
3145 Clear 23 1012 49 10000 3.09 110 23:48 11.05.2021
3146 Clear 23 1011 53 10000 3.09 120 23:28 11.05.2021
3147 Clear 23 1011 46 10000 4.12 110 22:57 11.05.2021
3148 Clear 23 1011 46 10000 4.12 110 22:38 11.05.2021
3149 Clear 24 1011 46 10000 3.6 100 22:18 11.05.2021
3150 Clear 24 1011 44 10000 3.6 100 21:44 11.05.2021
3151 Clear 24 1011 44 10000 3.6 100 21:25 11.05.2021
3152 Rain 24 1011 47 10000 3.6 100 20:44 11.05.2021
3153 Clear 24 1011 47 10000 3.6 110 20:25 11.05.2021
3154 Clear 24 1011 50 10000 2.57 90 19:44 11.05.2021
3155 Clouds 24 1011 50 10000 3.6 110 19:23 11.05.2021
3156 Clouds 24 1011 50 10000 3.09 100 18:48 11.05.2021
3157 Clouds 24 1011 53 10000 3.09 90 18:28 11.05.2021
3158 Clouds 25 1011 50 10000 3.6 80 17:44 11.05.2021
3159 Clouds 26 1012 47 10000 5.14 70 17:23 11.05.2021
3160 Clear 26 1012 44 10000 2.57 110 16:52 11.05.2021
3161 Clear 26 1012 44 10000 2.57 110 16:27 11.05.2021
3162 Clear 24 1012 61 10000 1.54 150 15:45 11.05.2021
3163 Clear 25 1012 61 10000 1.54 150 15:20 11.05.2021
3164 Clear 25 1011 61 10000 1.54 80 14:44 11.05.2021
3165 Clear 25 1011 61 10000 1.54 80 14:24 11.05.2021
3166 Clear 25 1011 57 10000 1.03 60 13:58 11.05.2021
3167 Clear 26 1011 53 10000 1.03 90 13:24 11.05.2021
3168 Clear 26 1010 44 10000 1.54 80 12:59 11.05.2021
3169 Clear 26 1010 44 10000 1.54 80 12:40 11.05.2021
3170 Clear 27 1010 44 10000 1.54 80 11:53 11.05.2021
3171 Clear 29 1010 37 10000 2.06 90 11:32 11.05.2021
3172 Clear 31 1009 31 10000 2.57 90 10:59 11.05.2021
3173 Clear 32 1009 29 10000 4.12 90 10:39 11.05.2021
3174 Clear 33 1009 27 10000 5.14 100 09:59 11.05.2021
3175 Clear 33 1009 27 10000 4.63 80 09:41 11.05.2021
3176 Clear 33 1009 27 10000 4.63 80 09:23 11.05.2021
3177 Clear 34 1009 26 10000 5.66 90 08:50 11.05.2021
3178 Clear 34 1009 26 10000 6.69 80 08:32 11.05.2021
3179 Clear 34 1009 24 10000 6.69 100 07:55 11.05.2021
3180 Clear 34 1009 24 10000 7.2 100 07:30 11.05.2021
3181 Clear 33 1010 24 10000 6.17 120 06:18 11.05.2021
3182 Clear 27 1012 57 10000 3.6 90 01:26 11.05.2021
3183 Clear 24 1012 73 10000 2.06 90 00:39 11.05.2021
3184 Clear 23 1011 73 10000 2.06 90 23:49 10.05.2021
3185 Clear 23 1011 73 10000 2.57 100 23:22 10.05.2021
3186 Clear 23 1011 78 10000 2.57 110 22:50 10.05.2021
3187 Clear 23 1011 83 10000 2.06 140 22:26 10.05.2021
3188 Clouds 22 1011 94 10000 1.54 140 21:50 10.05.2021
3189 Clouds 23 1011 88 10000 1.54 120 21:28 10.05.2021
3190 Clouds 23 1011 88 10000 1.54 120 20:45 10.05.2021
3191 Clouds 23 1011 88 10000 1.03 120 20:23 10.05.2021
3192 Clouds 24 1011 88 10000 2.06 170 19:56 10.05.2021
3193 Clouds 24 1011 83 10000 1.54 170 19:38 10.05.2021
3194 Clouds 24 1011 83 10000 1.54 170 19:19 10.05.2021
3195 Clouds 24 1012 83 10000 1.03 230 18:45 10.05.2021
3196 Clouds 25 1012 78 10000 1.54 230 18:20 10.05.2021
3197 Clouds 26 1012 78 10000 2.06 240 17:41 10.05.2021
3198 Clear 26 1012 78 10000 2.06 240 16:56 10.05.2021
3199 Clear 25 1012 78 10000 2.57 240 16:28 10.05.2021
3200 Clear 26 1012 78 10000 1.54 250 15:52 10.05.2021
3201 Clear 25 1012 78 10000 1.54 260 15:30 10.05.2021
3202 Clear 24 1012 83 10000 1.03 290 14:55 10.05.2021
3203 Clear 25 1012 73 10000 1.54 320 14:31 10.05.2021
3204 Clear 25 1012 73 10000 1.54 310 13:52 10.05.2021
3205 Clear 27 1011 69 10000 1.54 320 12:58 10.05.2021
3206 Clear 27 1010 65 10000 2.57 320 12:34 10.05.2021
3207 Clear 27 1010 61 10000 2.06 320 11:58 10.05.2021
3208 Clear 28 1009 61 10000 3.09 340 11:38 10.05.2021
3209 Clear 28 1009 61 10000 3.09 340 11:19 10.05.2021
3210 Clear 28 1009 61 10000 3.09 340 11:19 10.05.2021
3211 Clear 30 1009 42 10000 3.09 350 10:45 10.05.2021
3212 Clear 31 1009 42 10000 3.09 80 10:21 10.05.2021
3213 Clear 32 1008 35 10000 3.09 150 09:39 10.05.2021
3214 Clear 32 1008 35 10000 3.09 140 08:47 10.05.2021
3215 Clear 32 1009 35 10000 3.6 100 08:29 10.05.2021
3216 Clear 32 1009 35 10000 2.57 130 07:51 10.05.2021
3217 Clear 32 1009 37 10000 3.09 90 07:31 10.05.2021
3218 Clear 32 1009 37 10000 5.14 150 06:48 10.05.2021
3219 Clouds 30 1012 51 10000 2.06 150 03:54 10.05.2021
3220 Clouds 24 1012 88 10000 2.46 142 00:41 10.05.2021
3221 Clouds 23 1011 83 10000 3.6 120 23:22 09.05.2021
3222 Clouds 23 1011 88 10000 2.57 140 22:38 09.05.2021
3223 Clouds 23 1011 88 10000 2.57 140 22:19 09.05.2021
3224 Clouds 23 1010 88 10000 1.54 150 21:47 09.05.2021
3225 Clouds 23 1010 83 10000 1.54 170 20:56 09.05.2021
3226 Clouds 23 1010 83 10000 2.06 170 20:36 09.05.2021
3227 Clouds 23 1011 83 10000 1.54 150 19:55 09.05.2021
3228 Clouds 23 1011 83 10000 1.54 130 19:30 09.05.2021
3229 Clouds 24 1011 78 10000 1.54 150 18:53 09.05.2021
3230 Clouds 24 1011 78 10000 1.03 170 18:32 09.05.2021
3231 Clouds 24 1011 78 10000 1.54 170 17:54 09.05.2021
3232 Clouds 24 1011 78 10000 1.03 160 17:20 09.05.2021
3233 Clear 24 1011 78 10000 2.12 96 16:37 09.05.2021
3234 Clear 23 1011 78 10000 0.8 61 16:18 09.05.2021
3235 Clear 24 1011 69 10000 1.54 30 15:21 09.05.2021
3236 Clear 24 1011 69 10000 1.03 30 14:43 09.05.2021
3237 Clear 24 1011 69 10000 1.03 30 14:43 09.05.2021
3238 Clear 24 1011 65 10000 1.03 30 13:48 09.05.2021
3239 Clear 26 1011 65 10000 1.03 20 13:21 09.05.2021
3240 Clouds 26 1010 61 10000 2.06 20 12:32 09.05.2021
3241 Clouds 27 1010 54 10000 2.57 30 11:45 09.05.2021
3242 Clouds 28 1009 51 10000 3.09 20 11:22 09.05.2021
3243 Clouds 30 1009 48 10000 3.6 20 10:44 09.05.2021
3244 Clear 30 1008 45 10000 3.6 10 10:20 09.05.2021
3245 Clear 30 1008 51 10000 3.6 340 09:35 09.05.2021
3246 Clouds 31 1008 55 10000 4.63 350 08:57 09.05.2021
3247 Clouds 31 1008 48 10000 4.63 340 08:35 09.05.2021
3248 Clouds 31 1009 51 10000 5.14 300 07:57 09.05.2021
3249 Clouds 32 1009 51 10000 4.63 310 07:25 09.05.2021
3250 Rain 32 1010 40 10000 4.63 280 06:36 09.05.2021
3251 Clouds 26 1011 73 10000 1.03 120 01:20 09.05.2021
3252 Clouds 21 1010 88 10000 1.03 140 23:51 08.05.2021
3253 Clouds 21 1010 94 10000 1.03 110 23:29 08.05.2021
3254 Clear 21 1009 94 10000 1.54 100 22:49 08.05.2021
3255 Clear 21 1009 88 10000 2.06 100 22:20 08.05.2021
3256 Clear 21 1009 94 10000 2.06 70 21:49 08.05.2021
3257 Clouds 22 1009 94 10000 1.54 60 21:19 08.05.2021
3258 Clouds 22 1009 94 10000 1.54 60 21:19 08.05.2021
3259 Clouds 22 1009 88 10000 2.57 80 20:51 08.05.2021
3260 Clouds 22 1009 88 10000 2.06 130 20:27 08.05.2021
3261 Clouds 23 1009 88 10000 1.03 180 19:26 08.05.2021
3262 Clouds 24 1009 83 10000 2.06 190 18:54 08.05.2021
3263 Clouds 24 1009 83 10000 2.06 190 18:54 08.05.2021
3264 Clouds 23 1010 88 10000 1.66 116 18:36 08.05.2021
3265 Clouds 23 1010 88 10000 1.03 220 17:55 08.05.2021
3266 Clouds 24 1010 78 10000 1.03 200 17:30 08.05.2021
3267 Clear 23 1011 83 10000 0.51 20 16:31 08.05.2021
3268 Clear 23 1011 83 10000 1.26 240 15:56 08.05.2021
3269 Clear 23 1011 83 10000 0.51 20 15:33 08.05.2021
3270 Clear 24 1011 78 10000 1.54 20 14:51 08.05.2021
3271 Clear 25 1011 69 10000 2.06 40 14:24 08.05.2021
3272 Clear 25 1010 73 10000 3.09 30 13:55 08.05.2021
3273 Clear 26 1010 69 10000 2.06 20 13:24 08.05.2021
3274 Clear 26 1009 65 10000 2.57 30 12:38 08.05.2021
3275 Clear 27 1009 61 10000 3.09 10 11:53 08.05.2021
3276 Clear 27 1008 61 10000 2.57 10 11:29 08.05.2021
3277 Clouds 29 1008 54 10000 3.6 30 10:42 08.05.2021
3278 Clouds 29 1008 54 10000 3.6 30 10:22 08.05.2021
3279 Clouds 30 1008 54 10000 4.12 360 09:52 08.05.2021
3280 Clouds 30 1007 51 10000 4.63 350 09:33 08.05.2021
3281 Clouds 32 1008 48 10000 4.12 340 08:30 08.05.2021
3282 Clouds 32 1008 51 10000 3.09 320 07:41 08.05.2021
3283 Clouds 32 1008 51 10000 3.09 320 07:23 08.05.2021
3284 Clear 33 1009 40 10000 4.63 270 06:40 08.05.2021
3285 Clouds 28 1011 65 10000 2.06 100 02:30 08.05.2021
3286 Clouds 25 1011 83 10000 0.51 80 00:51 08.05.2021
3287 Clouds 24 1010 88 10000 2.95 107 00:31 08.05.2021
3288 Clear 22 1010 94 10000 1.03 80 23:34 07.05.2021
3289 Clear 22 1010 94 10000 0.51 80 22:57 07.05.2021
3290 Clouds 22 1009 88 10000 2.06 80 22:33 07.05.2021
3291 Clouds 23 1009 88 10000 3.09 111 21:45 07.05.2021
3292 Clouds 23 1009 83 10000 1.03 230 21:27 07.05.2021
3293 Clouds 24 1009 78 10000 2.06 230 20:52 07.05.2021
3294 Clouds 24 1009 83 10000 2.57 220 20:32 07.05.2021
3295 Clouds 24 1009 83 10000 2.06 210 19:50 07.05.2021
3296 Clouds 24 1010 83 10000 2.06 210 19:29 07.05.2021
3297 Clouds 24 1010 83 10000 2.57 200 18:48 07.05.2021
3298 Clouds 24 1010 83 10000 1.54 190 18:28 07.05.2021
3299 Clouds 24 1010 83 10000 3.04 127 17:43 07.05.2021
3300 Clouds 23 1010 83 10000 2.35 150 17:20 07.05.2021
3301 Clear 24 1011 78 10000 0.51 190 16:41 07.05.2021
3302 Clear 24 1011 78 10000 0.51 190 16:23 07.05.2021
3303 Clear 25 1011 73 10000 1.03 180 15:44 07.05.2021
3304 Clear 24 1011 78 10000 1.42 243 15:26 07.05.2021
3305 Clear 25 1011 69 10000 0.51 360 14:39 07.05.2021
3306 Clear 26 1011 69 10000 0.51 360 14:20 07.05.2021
3307 Clear 26 1011 69 10000 0.51 360 14:20 07.05.2021
3308 Clouds 26 1010 65 10000 1.03 360 13:34 07.05.2021
3309 Clouds 27 1010 61 10000 1.54 360 12:54 07.05.2021
3310 Rain 27 1009 61 10000 1.54 330 12:34 07.05.2021
3311 Rain 28 1009 65 10000 2.57 10 11:53 07.05.2021
3312 Rain 28 1009 58 10000 3.6 360 11:31 07.05.2021
3313 Rain 29 1008 54 10000 3.09 350 10:53 07.05.2021
3314 Clouds 30 1008 54 10000 4.12 350 10:25 07.05.2021
3315 Clouds 31 1008 48 10000 4.12 350 09:59 07.05.2021
3316 Clouds 31 1008 48 10000 4.63 340 09:18 07.05.2021
3317 Clouds 32 1007 48 10000 3.6 340 08:47 07.05.2021
3318 Clouds 32 1007 48 10000 3.6 330 08:23 07.05.2021
3319 Clear 32 1009 35 10000 2.57 80 06:47 07.05.2021
3320 Clear 32 1010 37 10000 3.09 120 05:44 07.05.2021
3321 Clear 28 1012 54 10000 4.63 90 02:27 07.05.2021
3322 Clear 23 1010 78 10000 2.57 130 23:36 06.05.2021
3323 Clear 24 1010 73 10000 2.57 130 22:39 06.05.2021
3324 Clear 23 1010 83 10000 2.06 150 21:50 06.05.2021
3325 Clear 23 1010 83 10000 2.57 160 20:50 06.05.2021
3326 Clear 23 1010 83 10000 2.06 160 20:26 06.05.2021
3327 Clear 23 1010 83 10000 3.09 160 19:56 06.05.2021
3328 Clear 23 1010 83 10000 2.57 170 19:37 06.05.2021
3329 Clear 24 1010 83 10000 2.57 170 19:18 06.05.2021
3330 Clear 24 1010 83 10000 3.09 190 18:37 06.05.2021
3331 Clear 24 1010 83 10000 2.57 180 17:58 06.05.2021
3332 Clear 24 1010 83 10000 3.09 190 17:39 06.05.2021
3333 Clear 24 1010 83 10000 3.09 190 17:18 06.05.2021
3334 Clear 24 1011 78 10000 1.54 170 16:46 06.05.2021
3335 Clear 24 1011 73 10000 2.06 150 16:23 06.05.2021
3336 Clear 23 1011 78 10000 2.03 177 15:42 06.05.2021
3337 Clear 24 1011 78 10000 0.45 129 15:22 06.05.2021
3338 Clear 25 1010 69 10000 0.9 15 14:26 06.05.2021
3339 Clear 25 1010 69 10000 1.03 30 13:55 06.05.2021
3340 Clear 25 1010 69 10000 1.03 30 13:55 06.05.2021
3341 Clear 25 1010 65 10000 1.54 40 13:27 06.05.2021
3342 Clear 26 1010 61 10000 1.54 40 12:55 06.05.2021
3343 Clear 26 1009 57 10000 2.06 30 12:33 06.05.2021
3344 Clear 28 1009 51 10000 1.54 70 11:49 06.05.2021
3345 Clear 30 1009 42 10000 2.06 80 11:25 06.05.2021
3346 Clear 31 1009 37 10000 3.09 90 10:52 06.05.2021
3347 Clear 31 1008 33 10000 3.09 80 10:27 06.05.2021
3348 Clear 32 1008 35 10000 3.6 110 09:51 06.05.2021
3349 Clear 32 1008 33 10000 1.54 240 09:31 06.05.2021
3350 Clear 33 1008 29 10000 3.6 80 08:51 06.05.2021
3351 Clear 33 1008 31 10000 2.57 80 08:24 06.05.2021
3352 Clear 33 1008 31 10000 2.57 90 07:52 06.05.2021
3353 Clear 33 1008 29 10000 2.06 40 07:30 06.05.2021
3354 Clear 32 1009 31 10000 3.6 100 06:27 06.05.2021
3355 Clear 32 1010 33 10000 4.63 100 05:50 06.05.2021
3356 Clouds 32 1010 43 10000 0.45 204 04:36 06.05.2021
3357 Clouds 29 1012 51 10000 6.17 110 02:35 06.05.2021
3358 Clouds 25 1011 73 10000 3.09 100 00:20 06.05.2021
3359 Clear 23 1010 78 10000 4.63 80 22:47 05.05.2021
3360 Clear 24 1009 73 10000 3.6 100 22:22 05.05.2021
3361 Clouds 24 1009 69 10000 3.09 120 21:42 05.05.2021
3362 Clouds 23 1009 69 10000 3.09 120 21:21 05.05.2021
3363 Clouds 23 1009 78 10000 3.09 150 20:36 05.05.2021
3364 Clouds 23 1009 83 10000 2.06 160 19:56 05.05.2021
3365 Clouds 23 1009 83 10000 1.54 150 19:37 05.05.2021
3366 Clouds 23 1009 83 10000 1.54 150 19:18 05.05.2021
3367 Clouds 23 1010 83 10000 2.06 140 18:21 05.05.2021
3368 Clouds 23 1010 83 10000 2.57 170 17:53 05.05.2021
3369 Clouds 23 1010 83 10000 1.54 170 17:28 05.05.2021
3370 Clear 23 1010 83 10000 1.54 140 16:53 05.05.2021
3371 Clear 23 1010 83 10000 1.03 70 16:32 05.05.2021
3372 Clear 24 1011 83 10000 1.03 20 15:52 05.05.2021
3373 Clear 24 1011 73 10000 1.03 20 15:22 05.05.2021
3374 Clear 24 1011 73 10000 1.03 20 15:22 05.05.2021
3375 Clear 24 1011 73 10000 1.03 20 15:22 05.05.2021
3376 Clear 24 1011 73 10000 1.54 20 14:44 05.05.2021
3377 Clear 24 1011 78 10000 1.54 20 14:25 05.05.2021
3378 Clear 25 1010 73 10000 2.57 20 13:45 05.05.2021
3379 Clear 25 1010 73 10000 2.57 20 13:24 05.05.2021
3380 Clear 25 1009 65 10000 2.57 20 12:30 05.05.2021
3381 Clear 26 1009 57 10000 2.06 10 11:54 05.05.2021
3382 Clear 28 1009 45 10000 2.06 60 11:36 05.05.2021
3383 Clear 29 1009 45 10000 2.06 60 11:18 05.05.2021
3384 Clear 30 1008 35 10000 3.6 90 10:40 05.05.2021
3385 Clear 32 1008 33 10000 4.63 100 09:53 05.05.2021
3386 Clear 32 1007 33 10000 4.63 90 09:29 05.05.2021
3387 Clear 32 1007 31 10000 4.63 70 08:43 05.05.2021
3388 Clear 32 1007 31 10000 4.63 70 08:24 05.05.2021
3389 Clear 32 1008 33 10000 5.14 70 07:48 05.05.2021
3390 Clear 32 1008 31 10000 4.63 70 07:22 05.05.2021
3391 Clear 32 1009 29 10000 4.63 90 06:37 05.05.2021
3392 Clear 27 1012 42 10000 5.66 100 02:20 05.05.2021
3393 Clear 22 1011 57 10000 3.6 110 00:22 05.05.2021
3394 Clear 22 1010 64 10000 3.6 100 23:38 04.05.2021
3395 Clear 23 1010 64 10000 3.6 110 22:55 04.05.2021
3396 Clear 23 1010 69 10000 3.6 130 22:37 04.05.2021
3397 Clear 24 1010 69 10000 3.6 130 22:18 04.05.2021
3398 Clear 24 1010 61 10000 3.6 100 21:42 04.05.2021
3399 Clear 24 1010 61 10000 3.6 100 21:18 04.05.2021
3400 Clear 24 1010 69 10000 3.6 130 20:43 04.05.2021
3401 Clouds 23 1010 73 10000 3.6 150 20:23 04.05.2021
3402 Clouds 24 1010 73 10000 2.57 160 19:43 04.05.2021
3403 Clouds 24 1010 73 10000 2.57 150 19:25 04.05.2021
3404 Clouds 23 1010 78 10000 1.54 150 18:52 04.05.2021
3405 Clouds 23 1010 83 10000 1.54 150 18:32 04.05.2021
3406 Clouds 24 1010 73 10000 1.54 140 17:50 04.05.2021
3407 Clouds 24 1011 83 10000 2.57 140 17:25 04.05.2021
3408 Clear 24 1011 78 10000 2.06 190 16:47 04.05.2021
3409 Clear 24 1011 78 10000 1.54 190 16:22 04.05.2021
3410 Clear 23 1011 83 10000 3.08 57 15:46 04.05.2021
3411 Clear 24 1011 78 10000 0.51 50 15:20 04.05.2021
3412 Clear 25 1011 73 10000 1.03 30 14:29 04.05.2021
3413 Clear 26 1011 69 10000 2.06 50 13:41 04.05.2021
3414 Clear 26 1011 69 10000 2.06 50 13:21 04.05.2021
3415 Clear 26 1010 65 10000 2.57 30 12:53 04.05.2021
3416 Clear 26 1010 61 10000 2.57 40 12:27 04.05.2021
3417 Clear 29 1009 48 10000 2.57 70 11:45 04.05.2021
3418 Clear 30 1009 48 10000 2.57 70 11:24 04.05.2021
3419 Clear 31 1008 40 10000 3.6 80 10:43 04.05.2021
3420 Clear 32 1008 37 10000 4.63 90 10:22 04.05.2021
3421 Clear 32 1008 37 10000 5.66 100 09:41 04.05.2021
3422 Clear 32 1008 37 10000 5.66 100 09:19 04.05.2021
3423 Clear 32 1008 35 10000 5.66 110 08:43 04.05.2021
3424 Clear 33 1008 33 10000 6.17 90 08:19 04.05.2021
3425 Rain 33 1008 33 10000 6.69 80 07:44 04.05.2021
3426 Rain 32 1009 35 10000 6.17 100 06:41 04.05.2021
3427 Rain 32 1009 35 10000 6.17 100 06:18 04.05.2021
3428 Clouds 31 1012 42 10000 6.17 80 03:57 04.05.2021
3429 Rain 28 1012 61 10000 4.12 110 01:33 04.05.2021
3430 Rain 24 1010 69 10000 3.6 100 23:52 03.05.2021
3431 Clear 25 1010 73 10000 2.57 100 23:30 03.05.2021
3432 Clear 25 1010 73 10000 2.57 100 23:30 03.05.2021
3433 Clear 25 1010 73 10000 2.57 100 23:30 03.05.2021
3434 Rain 24 1009 78 10000 3.09 120 22:39 03.05.2021
3435 Rain 24 1009 78 10000 3.09 120 22:39 03.05.2021
3436 Rain 24 1009 78 10000 3.09 120 22:21 03.05.2021
3437 Rain 24 1009 83 10000 3.09 110 21:42 03.05.2021
3438 Rain 25 1009 83 10000 3.09 110 21:22 03.05.2021
3439 Rain 25 1009 83 10000 3.09 110 21:22 03.05.2021
3440 Clouds 25 1009 78 10000 2.06 110 20:49 03.05.2021
3441 Rain 25 1009 78 10000 2.57 130 20:29 03.05.2021
3442 Rain 25 1010 73 10000 2.57 140 19:51 03.05.2021
3443 Clouds 25 1010 73 10000 1.54 140 19:30 03.05.2021
3444 Clouds 24 1010 78 10000 2.06 150 18:38 03.05.2021
3445 Rain 24 1010 78 10000 1.54 180 17:53 03.05.2021
3446 Clouds 23 1011 88 10000 1.54 130 17:33 03.05.2021
3447 Clear 24 1011 88 10000 1.54 130 16:52 03.05.2021
3448 Clear 24 1011 88 10000 0.51 60 16:24 03.05.2021
3449 Rain 25 1011 83 10000 2.06 180 15:50 03.05.2021
3450 Clear 24 1011 83 10000 1.03 160 15:23 03.05.2021
3451 Rain 26 1011 78 10000 1.54 40 14:37 03.05.2021
3452 Rain 26 1011 78 10000 1.54 40 14:18 03.05.2021
3453 Clear 26 1010 74 10000 2.57 40 13:34 03.05.2021
3454 Clear 26 1010 74 10000 3.09 40 12:58 03.05.2021
3455 Rain 27 1010 65 10000 2.57 40 12:31 03.05.2021
3456 Rain 28 1009 51 10000 3.09 50 11:51 03.05.2021
3457 Rain 29 1009 51 10000 3.09 50 11:31 03.05.2021
3458 Rain 30 1009 42 10000 3.09 60 10:52 03.05.2021
3459 Rain 31 1009 37 10000 4.63 90 10:31 03.05.2021
3460 Clear 32 1008 35 10000 5.14 100 09:56 03.05.2021
3461 Clear 32 1008 35 10000 4.63 90 09:36 03.05.2021
3462 Clear 32 1008 35 10000 5.14 110 08:44 03.05.2021
3463 Clear 33 1008 33 10000 5.66 110 08:24 03.05.2021
3464 Clear 33 1008 33 10000 5.66 100 07:52 03.05.2021
3465 Clear 33 1009 35 10000 8.23 90 06:34 03.05.2021
3466 Clear 32 1010 35 10000 8.23 100 05:55 03.05.2021
3467 Clouds 30 1012 54 10000 5.14 70 03:39 03.05.2021
3468 Clouds 24 1011 73 10000 4.63 100 00:22 03.05.2021
3469 Rain 24 1011 64 10000 4.63 110 23:27 02.05.2021
3470 Clouds 24 1011 64 10000 5.14 100 22:51 02.05.2021
3471 Clouds 24 1010 60 10000 4.12 130 22:32 02.05.2021
3472 Clouds 24 1010 60 10000 4.12 130 22:32 02.05.2021
3473 Clear 23 1010 64 10000 3.6 130 21:59 02.05.2021
3474 Clear 23 1010 64 10000 4.12 130 21:40 02.05.2021
3475 Clear 23 1010 64 10000 4.12 130 21:22 02.05.2021
3476 Rain 23 1010 78 10000 2.57 150 20:24 02.05.2021
3477 Clear 23 1011 83 10000 1.54 140 19:43 02.05.2021
3478 Clear 23 1011 83 10000 2.57 150 19:23 02.05.2021
3479 Clear 23 1011 78 10000 3.09 160 18:46 02.05.2021
3480 Clear 23 1011 78 10000 3.09 160 18:28 02.05.2021
3481 Clear 24 1011 78 10000 1.54 160 17:49 02.05.2021
3482 Clear 22 1012 88 10000 1.03 160 17:29 02.05.2021
3483 Clear 23 1012 83 10000 3.01 114 16:59 02.05.2021
3484 Rain 23 1012 83 10000 1.54 160 16:40 02.05.2021
3485 Clear 23 1012 83 10000 1.54 160 16:21 02.05.2021
3486 Clear 23 1012 83 10000 1.54 150 15:43 02.05.2021
3487 Rain 24 1012 73 10000 1.54 160 15:23 02.05.2021
3488 Rain 24 1012 73 10000 1.54 160 15:23 02.05.2021
3489 Clear 24 1012 73 10000 1.03 60 14:41 02.05.2021
3490 Clear 25 1012 73 10000 1.03 60 14:23 02.05.2021
3491 Clear 25 1012 69 10000 2.06 50 13:45 02.05.2021
3492 Clear 26 1012 69 10000 2.57 60 13:22 02.05.2021
3493 Clear 26 1011 61 10000 1.54 70 12:43 02.05.2021
3494 Clear 27 1011 61 10000 1.54 70 12:23 02.05.2021
3495 Clear 27 1011 57 10000 2.06 70 11:50 02.05.2021
3496 Clear 29 1010 45 10000 2.06 70 11:31 02.05.2021
3497 Clear 30 1010 40 10000 3.6 70 10:56 02.05.2021
3498 Clear 31 1010 35 10000 4.12 70 10:21 02.05.2021
3499 Clear 32 1010 33 10000 3.09 80 09:47 02.05.2021
3500 Clear 32 1010 33 10000 3.09 90 09:28 02.05.2021
3501 Clear 32 1010 33 10000 3.09 90 09:28 02.05.2021
3502 Clear 33 1010 33 10000 4.12 90 08:54 02.05.2021
3503 Clear 32 1010 33 10000 3.6 90 08:31 02.05.2021
3504 Clear 32 1010 35 10000 4.12 110 07:53 02.05.2021
3505 Clear 32 1010 35 10000 3.6 120 07:21 02.05.2021
3506 Clear 32 1012 35 10000 5.66 80 05:27 02.05.2021
3507 Clouds 27 1014 65 10000 5.66 100 01:46 02.05.2021
3508 Clouds 24 1013 73 10000 3.6 100 23:49 01.05.2021
3509 Clear 25 1012 73 10000 3.6 100 23:29 01.05.2021
3510 Clear 25 1012 73 10000 4.12 100 22:57 01.05.2021
3511 Clear 25 1012 69 10000 3.6 100 22:32 01.05.2021
3512 Clouds 25 1012 83 10000 3.09 140 21:57 01.05.2021
3513 Rain 24 1012 83 10000 2.57 150 21:39 01.05.2021
3514 Rain 24 1012 83 10000 2.57 150 21:39 01.05.2021
3515 Clouds 24 1012 83 10000 2.57 150 21:21 01.05.2021
3516 Clouds 25 1012 83 10000 2.57 150 20:45 01.05.2021
3517 Clouds 25 1012 88 10000 1.54 160 20:25 01.05.2021
3518 Clouds 24 1012 94 10000 1.03 190 19:52 01.05.2021
3519 Clouds 25 1012 88 10000 2.06 200 19:30 01.05.2021
3520 Clouds 25 1012 88 10000 2.06 220 18:50 01.05.2021
3521 Clouds 25 1012 83 10000 1.54 230 18:24 01.05.2021
3522 Clouds 26 1013 83 10000 2.57 220 17:46 01.05.2021
3523 Clouds 26 1013 83 10000 2.57 220 17:27 01.05.2021
3524 Clear 26 1013 83 10000 2.06 240 16:45 01.05.2021
3525 Clear 25 1013 88 10000 1.54 250 16:25 01.05.2021
3526 Clear 25 1013 88 10000 1.54 250 15:25 01.05.2021
3527 Clear 26 1013 78 10000 1.03 10 14:20 01.05.2021
3528 Clear 26 1013 78 10000 1.03 10 14:20 01.05.2021
3529 Clear 26 1013 73 10000 2.06 10 13:27 01.05.2021
3530 Clear 26 1012 69 10000 2.57 330 12:57 01.05.2021
3531 Clear 26 1012 69 10000 2.57 330 12:57 01.05.2021
3532 Clear 27 1012 69 10000 1.03 360 12:27 01.05.2021
3533 Clouds 27 1011 61 10000 1.54 70 11:58 01.05.2021
3534 Clear 28 1011 48 10000 2.06 90 11:40 01.05.2021
3535 Clear 29 1011 48 10000 2.06 90 11:21 01.05.2021
3536 Clear 31 1011 37 10000 3.6 100 10:42 01.05.2021
3537 Clear 32 1010 37 10000 3.6 110 09:52 01.05.2021
3538 Clear 32 1010 35 10000 3.6 120 09:26 01.05.2021
3539 Clear 32 1010 35 10000 3.09 90 08:44 01.05.2021
3540 Clear 32 1011 35 10000 3.6 110 07:41 01.05.2021
3541 Clear 32 1012 33 10000 5.66 100 06:40 01.05.2021
3542 Clouds 30 1014 45 10000 5.14 100 04:37 01.05.2021
3543 Clear 23 1014 68 10000 3.09 130 00:38 01.05.2021
3544 Clear 23 1014 68 10000 3.09 130 00:19 01.05.2021
3545 Clouds 22 1013 68 10000 2.57 120 23:25 30.04.2021
3546 Clear 22 1013 88 10000 1.54 140 22:38 30.04.2021
3547 Clouds 22 1013 94 10000 1.54 130 22:19 30.04.2021
3548 Clouds 22 1013 94 10000 1.54 130 21:45 30.04.2021
3549 Clear 23 1012 88 10000 2.06 150 21:23 30.04.2021
3550 Clear 23 1012 94 10000 1.54 160 20:45 30.04.2021
3551 Clouds 24 1012 88 10000 2.57 160 19:59 30.04.2021
3552 Clouds 24 1012 83 10000 2.57 170 19:39 30.04.2021
3553 Clouds 24 1012 83 10000 2.57 160 18:47 30.04.2021
3554 Clouds 24 1013 94 10000 2.06 170 18:27 30.04.2021
3555 Clouds 24 1013 83 10000 1.54 170 17:53 30.04.2021
3556 Clouds 24 1013 83 10000 2.06 180 17:28 30.04.2021
3557 Clouds 24 1013 83 10000 2.06 180 17:28 30.04.2021
3558 Clear 23 1012 88 10000 1.54 130 16:53 30.04.2021
3559 Clear 24 1012 88 10000 1.03 70 16:31 30.04.2021
3560 Clear 25 1012 88 10000 1.03 70 15:42 30.04.2021
3561 Clear 24 1012 88 10000 1.03 70 15:21 30.04.2021
3562 Clear 25 1012 88 10000 1.03 70 14:50 30.04.2021
3563 Clear 26 1012 78 10000 1.54 70 14:28 30.04.2021
3564 Clear 26 1012 78 10000 2.06 70 13:55 30.04.2021
3565 Clear 26 1012 74 10000 2.57 60 13:36 30.04.2021
3566 Clear 27 1012 74 10000 2.57 50 12:47 30.04.2021
3567 Clear 27 1011 69 10000 3.09 40 12:29 30.04.2021
3568 Clear 28 1011 58 10000 2.06 70 11:46 30.04.2021
3569 Clouds 29 1010 51 10000 2.57 70 11:22 30.04.2021
3570 Clouds 31 1010 45 10000 3.09 80 10:47 30.04.2021
3571 Clear 31 1010 40 10000 4.12 90 10:27 30.04.2021
3572 Clear 32 1010 37 10000 6.17 90 09:37 30.04.2021
3573 Clear 32 1010 37 10000 6.17 90 09:37 30.04.2021
3574 Clear 32 1010 37 10000 4.63 140 08:57 30.04.2021
3575 Clear 33 1010 33 10000 4.12 100 08:26 30.04.2021
3576 Clear 32 1011 37 10000 4.12 110 07:35 30.04.2021
3577 Clear 32 1011 45 10000 4.12 80 06:54 30.04.2021
3578 Clear 32 1011 40 10000 5.14 110 06:26 30.04.2021
3579 Clear 31 1012 48 10000 4.63 100 05:42 30.04.2021
3580 Clouds 30 1014 48 10000 5.66 80 02:58 30.04.2021
3581 Clouds 28 1014 74 10000 3.09 100 01:46 30.04.2021
3582 Clouds 25 1013 83 10000 1.03 140 00:39 30.04.2021
3583 Clouds 24 1012 88 10000 1.54 150 23:29 29.04.2021
3584 Clouds 24 1012 83 10000 1.54 130 22:45 29.04.2021
3585 Clouds 24 1012 88 10000 1.03 130 22:25 29.04.2021
3586 Clouds 24 1012 88 10000 2.06 130 21:54 29.04.2021
3587 Clouds 24 1012 83 10000 2.57 140 21:36 29.04.2021
3588 Clouds 24 1012 83 10000 2.57 140 21:18 29.04.2021
3589 Clouds 24 1012 94 10000 1.03 170 20:41 29.04.2021
3590 Clouds 24 1012 94 10000 1.03 170 20:23 29.04.2021
3591 Clouds 25 1012 83 10000 2.57 170 19:43 29.04.2021
3592 Clouds 25 1012 83 10000 2.57 170 19:21 29.04.2021
3593 Clouds 25 1012 83 10000 2.06 150 18:44 29.04.2021
3594 Clouds 25 1012 83 10000 2.57 160 18:23 29.04.2021
3595 Clouds 25 1012 83 10000 1.54 170 17:46 29.04.2021
3596 Clouds 25 1012 83 10000 1.03 150 17:20 29.04.2021
3597 Clear 26 1012 83 10000 3.32 55 16:47 29.04.2021
3598 Rain 26 1012 78 10000 3.57 42 16:25 29.04.2021
3599 Clear 27 1012 74 10000 1.54 100 15:53 29.04.2021
3600 Clear 27 1012 74 10000 2.06 100 15:27 29.04.2021
3601 Clouds 27 1013 65 10000 4.12 170 14:47 29.04.2021
3602 Clouds 27 1013 65 10000 4.12 170 14:25 29.04.2021
3603 Clear 26 1012 78 10000 1.54 60 13:46 29.04.2021
3604 Clear 27 1012 78 10000 2.57 40 13:24 29.04.2021
3605 Clear 27 1012 78 10000 2.57 50 12:45 29.04.2021
3606 Clear 27 1011 74 10000 2.57 50 12:27 29.04.2021
3607 Clouds 28 1010 69 10000 3.09 40 11:48 29.04.2021
3608 Clouds 28 1010 70 10000 4.12 40 11:26 29.04.2021
3609 Clouds 29 1010 70 10000 4.12 50 10:52 29.04.2021
3610 Clouds 29 1010 65 10000 4.63 60 10:31 29.04.2021
3611 Clouds 30 1010 62 10000 5.14 60 09:46 29.04.2021
3612 Clouds 30 1010 62 10000 4.63 50 09:27 29.04.2021
3613 Clouds 30 1010 66 10000 4.63 50 08:52 29.04.2021
3614 Clouds 31 1010 62 10000 5.66 40 08:32 29.04.2021
3615 Clouds 31 1010 58 10000 5.66 40 07:48 29.04.2021
3616 Clouds 32 1011 55 10000 5.66 50 06:59 29.04.2021
3617 Clouds 31 1012 58 10000 5.66 60 05:32 29.04.2021
3618 Clear 26 1012 83 10000 3.6 90 00:54 29.04.2021
3619 Clear 25 1012 88 10000 3.09 100 23:49 28.04.2021
3620 Clear 25 1012 88 10000 3.09 100 23:49 28.04.2021
3621 Clear 25 1011 88 10000 3.6 110 23:19 28.04.2021
3622 Clear 24 1011 88 10000 3.09 120 22:37 28.04.2021
3623 Clear 25 1011 88 10000 3.09 120 22:19 28.04.2021
3624 Clouds 24 1011 100 10000 2.06 130 21:38 28.04.2021
3625 Clouds 24 1011 100 10000 2.06 130 21:20 28.04.2021
3626 Clouds 25 1011 94 10000 2.57 130 20:42 28.04.2021
3627 Clouds 25 1011 94 10000 2.57 130 20:24 28.04.2021
3628 Clouds 25 1011 94 10000 3.6 120 19:47 28.04.2021
3629 Clouds 25 1012 94 10000 3.6 110 19:25 28.04.2021
3630 Clouds 25 1012 94 10000 3.09 90 18:51 28.04.2021
3631 Clouds 25 1012 94 10000 2.57 80 18:30 28.04.2021
3632 Clouds 25 1012 89 10000 3.6 90 17:49 28.04.2021
3633 Clouds 25 1012 89 10000 3.6 90 17:26 28.04.2021
3634 Clouds 26 1012 89 10000 4.12 90 16:45 28.04.2021
3635 Clouds 26 1012 89 10000 3.6 70 16:18 28.04.2021
3636 Clouds 26 1013 94 10000 3.6 70 15:46 28.04.2021
3637 Clouds 26 1013 94 10000 3.09 110 14:57 28.04.2021
3638 Clouds 25 1012 100 10000 2.57 70 14:39 28.04.2021
3639 Clouds 25 1012 100 10000 2.57 70 14:19 28.04.2021
3640 Clouds 25 1012 94 8000 2.06 70 13:36 28.04.2021
3641 Clouds 27 1012 89 10000 2.57 80 12:57 28.04.2021
3642 Clouds 27 1011 89 10000 1.54 100 12:39 28.04.2021
3643 Clouds 27 1011 89 10000 1.03 110 11:56 28.04.2021
3644 Clouds 27 1011 89 10000 0.51 10 11:32 28.04.2021
3645 Clouds 27 1010 89 10000 1.03 90 10:56 28.04.2021
3646 Clouds 27 1010 83 10000 2.2 51 10:37 28.04.2021
3647 Clouds 27 1010 83 10000 1.84 45 10:19 28.04.2021
3648 Clouds 27 1010 83 10000 0.51 320 09:40 28.04.2021
3649 Clouds 27 1010 83 10000 0.51 320 09:21 28.04.2021
3650 Clouds 26 1010 94 10000 2.06 40 08:43 28.04.2021
3651 Clouds 28 1011 89 1400 5.14 30 07:30 28.04.2021
3652 Clouds 32 1010 55 10000 3.09 80 06:36 28.04.2021
3653 Clouds 31 1011 62 10000 3.6 90 05:25 28.04.2021
3654 Clouds 29 1013 74 10000 4.63 100 02:40 28.04.2021
3655 Clouds 27 1013 78 10000 4.63 130 01:24 28.04.2021
3656 Clear 25 1012 88 10000 2.06 130 23:58 27.04.2021
3657 Clear 24 1012 88 10000 2.06 140 23:40 27.04.2021
3658 Clouds 24 1011 88 10000 2.57 140 22:52 27.04.2021
3659 Clouds 24 1011 88 10000 2.57 140 22:33 27.04.2021
3660 Clouds 25 1011 94 10000 3.09 150 21:57 27.04.2021
3661 Clouds 25 1011 83 10000 2.06 160 21:39 27.04.2021
3662 Clouds 25 1011 83 10000 2.06 160 21:18 27.04.2021
3663 Clouds 25 1012 89 10000 2.06 150 20:43 27.04.2021
3664 Clouds 25 1012 89 10000 2.06 150 20:19 27.04.2021
3665 Clouds 25 1012 94 10000 1.54 160 19:41 27.04.2021
3666 Clouds 25 1012 94 10000 1.54 160 19:21 27.04.2021
3667 Clouds 25 1012 94 10000 1.03 150 18:46 27.04.2021
3668 Clouds 25 1012 94 10000 1.54 170 18:28 27.04.2021
3669 Clouds 25 1012 94 10000 1.03 120 17:42 27.04.2021
3670 Clouds 25 1012 94 10000 1.03 120 17:24 27.04.2021
3671 Clouds 25 1012 94 10000 1.03 130 16:43 27.04.2021
3672 Clouds 25 1012 94 10000 1.03 130 16:43 27.04.2021
3673 Clouds 25 1012 94 10000 1.03 130 16:43 27.04.2021
3674 Clouds 25 1012 94 10000 1.54 150 16:23 27.04.2021
3675 Clouds 25 1012 94 10000 2.57 140 15:44 27.04.2021
3676 Clear 25 1012 89 10000 1.03 120 15:22 27.04.2021
3677 Clear 25 1012 89 10000 1.03 140 14:50 27.04.2021
3678 Clear 25 1012 89 10000 1.03 110 14:28 27.04.2021
3679 Clear 26 1013 89 10000 2.06 100 13:57 27.04.2021
3680 Clouds 26 1012 89 10000 2.57 80 13:32 27.04.2021
3681 Clouds 26 1012 89 10000 2.06 110 12:44 27.04.2021
3682 Clouds 26 1011 89 10000 3.09 140 11:59 27.04.2021
3683 Clouds 25 1011 94 10000 2.57 180 11:32 27.04.2021
3684 Clouds 26 1010 83 10000 3.09 140 10:58 27.04.2021
3685 Clouds 25 1010 88 10000 3.6 130 10:32 27.04.2021
3686 Clouds 26 1010 83 8000 6.69 110 09:56 27.04.2021
3687 Clouds 29 1009 83 5000 7.2 80 08:58 27.04.2021
3688 Clouds 32 1009 58 10000 5.66 40 08:38 27.04.2021
3689 Clouds 32 1009 55 10000 4.12 90 07:50 27.04.2021
3690 Clouds 32 1009 55 10000 4.12 90 07:28 27.04.2021
3691 Clouds 31 1010 58 10000 4.63 70 06:38 27.04.2021
3692 Clouds 32 1011 55 10000 5.14 90 05:34 27.04.2021
3693 Clouds 32 1011 55 10000 5.14 90 05:34 27.04.2021
3694 Clouds 32 1011 55 10000 5.14 90 05:34 27.04.2021
3695 Clouds 29 1013 70 10000 3.6 90 02:36 27.04.2021
3696 Clouds 25 1013 88 10000 1.03 60 00:30 27.04.2021
3697 Clear 25 1012 88 10000 1.54 90 23:50 26.04.2021
3698 Clear 24 1012 88 10000 3.02 101 23:22 26.04.2021
3699 Clear 25 1012 88 10000 1.03 90 22:53 26.04.2021
3700 Clear 25 1011 88 10000 1.03 90 22:30 26.04.2021
3701 Clouds 25 1011 88 10000 2.06 100 21:44 26.04.2021
3702 Clouds 25 1011 88 10000 2.57 90 21:23 26.04.2021
3703 Clouds 25 1011 88 10000 2.57 100 20:54 26.04.2021
3704 Clouds 25 1011 83 10000 3.09 110 20:35 26.04.2021
3705 Clouds 25 1010 83 10000 1.03 90 19:52 26.04.2021
3706 Clouds 25 1011 78 10000 1.54 90 19:34 26.04.2021
3707 Clouds 25 1011 78 10000 2.06 110 18:48 26.04.2021
3708 Clouds 26 1011 78 10000 2.57 140 18:30 26.04.2021
3709 Clouds 25 1011 78 10000 2.06 130 17:52 26.04.2021
3710 Clouds 26 1012 78 10000 2.57 160 17:32 26.04.2021
3711 Clouds 25 1012 78 10000 2.57 140 16:50 26.04.2021
3712 Clouds 25 1012 78 10000 2.57 140 16:30 26.04.2021
3713 Clouds 25 1012 78 10000 2.57 140 16:30 26.04.2021
3714 Clouds 26 1012 74 10000 3.09 150 15:58 26.04.2021
3715 Clouds 26 1012 69 10000 3.6 130 15:39 26.04.2021
3716 Clouds 27 1012 69 10000 3.6 130 15:20 26.04.2021
3717 Clouds 27 1013 65 10000 4.12 130 14:44 26.04.2021
3718 Clouds 27 1013 65 10000 3.09 110 14:24 26.04.2021
3719 Clouds 28 1012 65 10000 1.54 30 13:44 26.04.2021
3720 Clouds 28 1012 65 10000 1.54 30 13:23 26.04.2021
3721 Clouds 28 1011 61 10000 2.57 20 12:24 26.04.2021
3722 Clouds 29 1010 54 10000 3.09 350 11:39 26.04.2021
3723 Clouds 31 1010 51 10000 2.57 350 10:58 26.04.2021
3724 Clouds 31 1009 51 10000 3.09 350 10:36 26.04.2021
3725 Clouds 31 1009 51 10000 3.09 350 10:18 26.04.2021
3726 Clouds 33 1009 46 10000 4.12 320 09:46 26.04.2021
3727 Clouds 33 1009 46 10000 4.12 320 09:21 26.04.2021
3728 Clouds 33 1009 43 10000 4.63 320 08:37 26.04.2021
3729 Clouds 32 1009 43 10000 4.63 320 08:18 26.04.2021
3730 Clouds 33 1009 43 10000 5.14 310 07:49 26.04.2021
3731 Clear 33 1009 46 10000 2.57 80 06:56 26.04.2021
3732 Clear 32 1010 45 10000 2.57 70 06:20 26.04.2021
3733 Clear 32 1011 43 10000 4.63 90 04:40 26.04.2021
3734 Clear 31 1012 45 10000 4.63 100 03:45 26.04.2021
3735 Clear 27 1012 51 10000 2.57 150 01:52 26.04.2021
3736 Clear 23 1011 61 10000 3.09 160 00:48 26.04.2021
3737 Clouds 23 1011 69 10000 3.09 170 00:21 26.04.2021
3738 Clear 23 1011 73 10000 1.54 170 23:42 25.04.2021
3739 Clear 22 1011 73 10000 1.54 170 23:24 25.04.2021
3740 Clear 23 1010 69 10000 2.57 190 22:40 25.04.2021
3741 Clear 23 1010 69 10000 2.57 190 22:19 25.04.2021
3742 Clouds 22 1010 69 10000 2.57 190 21:43 25.04.2021
3743 Clouds 23 1010 65 10000 2.57 190 21:25 25.04.2021
3744 Clouds 23 1010 65 10000 3.09 200 20:51 25.04.2021
3745 Clouds 23 1010 65 10000 2.06 200 20:28 25.04.2021
3746 Clouds 24 1011 61 10000 2.06 230 19:52 25.04.2021
3747 Clouds 23 1011 65 10000 2.06 240 19:28 25.04.2021
3748 Clouds 25 1011 61 10000 2.57 240 18:58 25.04.2021
3749 Clouds 25 1011 61 10000 2.57 250 18:39 25.04.2021
3750 Clouds 25 1011 61 10000 2.57 250 18:21 25.04.2021
3751 Clouds 26 1012 57 10000 1.54 230 17:42 25.04.2021
3752 Clouds 26 1012 57 10000 1.54 230 17:21 25.04.2021
3753 Clear 26 1012 54 10000 2.06 250 16:44 25.04.2021
3754 Clear 25 1012 54 10000 2.06 260 16:24 25.04.2021
3755 Clear 26 1012 54 10000 2.57 280 15:42 25.04.2021
3756 Clear 26 1012 54 10000 2.57 280 15:20 25.04.2021
3757 Clear 26 1012 50 10000 2.57 270 14:23 25.04.2021
3758 Clear 26 1012 54 10000 2.57 270 13:56 25.04.2021
3759 Clear 26 1011 54 10000 2.57 270 13:24 25.04.2021
3760 Clear 26 1011 50 10000 2.57 280 12:51 25.04.2021
3761 Clear 27 1011 47 10000 2.06 290 12:33 25.04.2021
3762 Clear 27 1010 42 10000 2.06 300 11:59 25.04.2021
3763 Clear 28 1010 37 10000 2.57 320 11:34 25.04.2021
3764 Clear 30 1010 35 10000 2.57 330 10:52 25.04.2021
3765 Clear 30 1009 30 10000 3.6 310 10:22 25.04.2021
3766 Clear 31 1009 30 10000 3.6 330 09:48 25.04.2021
3767 Clear 33 1009 27 10000 3.09 320 09:26 25.04.2021
3768 Clear 33 1009 27 10000 3.09 320 09:26 25.04.2021
3769 Clear 32 1009 22 10000 3.6 190 08:30 25.04.2021
3770 Clear 32 1009 22 10000 3.6 190 08:30 25.04.2021
3771 Clear 32 1009 22 10000 3.6 50 07:48 25.04.2021
3772 Clear 32 1009 22 10000 3.6 80 07:21 25.04.2021
3773 Clear 32 1010 20 10000 2.06 90 06:51 25.04.2021
3774 Clear 32 1011 19 10000 3.09 130 05:29 25.04.2021
3775 Clear 31 1012 25 10000 2.57 160 04:42 25.04.2021
3776 Clear 26 1013 34 10000 3.09 150 01:47 25.04.2021
3777 Clear 25 1013 31 10000 2.57 130 01:25 25.04.2021
3778 Clear 22 1012 31 10000 3.09 120 00:27 25.04.2021
3779 Clear 20 1012 30 10000 3.09 120 23:49 24.04.2021
3780 Clear 22 1012 35 10000 2.06 130 23:26 24.04.2021
3781 Clear 20 1011 46 10000 3.6 150 22:46 24.04.2021
3782 Clouds 19 1011 63 10000 1.54 160 21:56 24.04.2021
3783 Clouds 21 1011 52 10000 1.54 170 21:29 24.04.2021
3784 Clouds 21 1011 49 10000 2.06 150 20:57 24.04.2021
3785 Clouds 20 1011 56 10000 1.54 160 20:36 24.04.2021
3786 Clouds 21 1011 56 10000 1.54 160 20:18 24.04.2021
3787 Clouds 22 1011 49 10000 2.57 160 19:39 24.04.2021
3788 Clouds 22 1011 49 10000 2.57 160 19:19 24.04.2021
3789 Clouds 23 1012 43 10000 3.09 140 18:41 24.04.2021
3790 Clouds 23 1012 43 10000 3.09 140 18:20 24.04.2021
3791 Clouds 24 1012 41 10000 3.09 140 17:31 24.04.2021
3792 Clear 24 1012 46 10000 3.09 150 16:53 24.04.2021
3793 Clear 25 1012 44 10000 2.57 150 16:34 24.04.2021
3794 Clear 25 1011 44 10000 3.09 160 15:44 24.04.2021
3795 Clear 25 1011 38 10000 2.57 160 15:25 24.04.2021
3796 Clear 26 1011 36 10000 3.09 160 14:34 24.04.2021
3797 Clear 26 1011 36 10000 3.09 160 14:34 24.04.2021
3798 Rain 26 1011 36 10000 3.6 160 13:56 24.04.2021
3799 Clear 25 1011 41 10000 2.57 150 13:37 24.04.2021
3800 Clear 27 1010 32 10000 2.57 140 12:43 24.04.2021
3801 Clear 27 1010 32 10000 2.57 140 12:18 24.04.2021
3802 Clear 27 1010 30 10000 2.57 130 11:47 24.04.2021
3803 Clear 29 1010 25 10000 3.6 140 11:18 24.04.2021
3804 Clear 31 1010 22 10000 4.12 130 10:43 24.04.2021
3805 Clear 32 1009 17 10000 6.17 130 09:57 24.04.2021
3806 Clear 33 1009 18 10000 6.17 130 09:32 24.04.2021
3807 Clear 33 1010 19 10000 6.17 140 07:57 24.04.2021
3808 Clear 33 1010 17 10000 6.69 160 07:27 24.04.2021
3809 Clear 32 1012 20 10000 6.69 140 05:21 24.04.2021
3810 Clear 26 1013 57 10000 4.63 150 01:34 24.04.2021
3811 Clear 23 1012 60 10000 2.57 160 23:48 23.04.2021
3812 Clear 24 1011 64 10000 3.6 140 22:48 23.04.2021
3813 Clear 23 1011 68 10000 2.06 150 22:21 23.04.2021
3814 Clouds 23 1011 78 10000 4.29 120 21:49 23.04.2021
3815 Clouds 24 1010 69 10000 1.03 110 21:28 23.04.2021
3816 Clouds 24 1010 65 10000 2.57 120 20:43 23.04.2021
3817 Clouds 25 1010 65 10000 2.57 120 20:22 23.04.2021
3818 Clouds 25 1011 73 10000 2.57 130 19:56 23.04.2021
3819 Clouds 25 1011 83 10000 2.57 120 19:35 23.04.2021
3820 Clouds 26 1011 94 10000 2.06 140 18:59 23.04.2021
3821 Clouds 26 1011 89 10000 2.06 170 18:37 23.04.2021
3822 Clouds 27 1012 83 10000 2.06 200 17:59 23.04.2021
3823 Clouds 27 1012 83 10000 2.06 210 17:39 23.04.2021
3824 Clouds 27 1012 83 10000 2.06 210 17:20 23.04.2021
3825 Clouds 27 1012 83 10000 2.06 220 16:46 23.04.2021
3826 Clouds 28 1012 83 10000 2.06 210 16:25 23.04.2021
3827 Clouds 28 1011 79 10000 1.54 240 15:41 23.04.2021
3828 Clouds 27 1011 78 10000 1.54 290 14:51 23.04.2021
3829 Clouds 28 1010 74 10000 1.54 330 13:42 23.04.2021
3830 Clouds 28 1010 74 10000 1.54 330 13:23 23.04.2021
3831 Clouds 28 1010 74 10000 1.54 350 12:34 23.04.2021
3832 Clouds 29 1009 70 10000 2.06 350 11:55 23.04.2021
3833 Clouds 30 1009 58 10000 2.57 20 11:35 23.04.2021
3834 Clouds 31 1009 48 10000 2.57 90 10:54 23.04.2021
3835 Clouds 31 1009 48 10000 2.57 90 10:54 23.04.2021
3836 Clouds 33 1008 46 10000 3.6 80 10:35 23.04.2021
3837 Clouds 33 1008 43 10000 3.09 120 09:55 23.04.2021
3838 Clouds 33 1008 43 10000 3.09 80 09:28 23.04.2021
3839 Clear 33 1007 43 10000 5.14 80 08:45 23.04.2021
3840 Clear 33 1008 43 10000 5.14 100 07:50 23.04.2021
3841 Clouds 34 1008 43 10000 4.63 100 07:20 23.04.2021
3842 Clouds 33 1010 51 10000 5.14 90 05:37 23.04.2021
3843 Clouds 31 1011 51 10000 5.66 70 03:45 23.04.2021
3844 Clouds 30 1012 74 10000 4.12 90 02:48 23.04.2021
3845 Clear 26 1010 89 10000 3.09 70 00:21 23.04.2021
3846 Clear 26 1009 89 10000 4.12 50 23:21 22.04.2021
3847 Clouds 26 1009 83 10000 2.57 80 22:39 22.04.2021
3848 Clouds 26 1009 83 10000 2.57 80 22:19 22.04.2021
3849 Clouds 26 1009 78 10000 2.57 140 21:43 22.04.2021
3850 Clouds 26 1009 78 10000 2.57 140 21:24 22.04.2021
3851 Clouds 26 1009 78 10000 2.06 150 20:54 22.04.2021
3852 Clouds 26 1009 78 10000 1.54 170 20:29 22.04.2021
3853 Clouds 26 1009 78 10000 1.54 170 19:54 22.04.2021
3854 Clouds 27 1009 83 10000 1.54 150 19:33 22.04.2021
3855 Clouds 27 1009 83 10000 2.57 180 18:49 22.04.2021
3856 Clouds 27 1009 83 10000 2.06 180 18:21 22.04.2021
3857 Clouds 27 1010 83 10000 3.09 190 17:52 22.04.2021
3858 Clouds 28 1010 83 10000 2.06 190 17:21 22.04.2021
3859 Clear 28 1010 78 10000 1.54 240 16:50 22.04.2021
3860 Clear 28 1010 74 10000 2.06 240 16:29 22.04.2021
3861 Clear 28 1010 74 10000 2.06 250 15:55 22.04.2021
3862 Clear 28 1010 74 10000 2.06 240 15:35 22.04.2021
3863 Clear 28 1010 74 10000 2.57 250 14:54 22.04.2021
3864 Clear 28 1010 74 10000 2.06 250 14:33 22.04.2021
3865 Clear 29 1010 74 10000 2.06 260 13:58 22.04.2021
3866 Clouds 29 1010 74 10000 2.06 260 13:38 22.04.2021
3867 Clouds 29 1010 74 10000 2.06 260 13:19 22.04.2021
3868 Clear 29 1009 74 10000 2.57 270 12:44 22.04.2021
3869 Clear 29 1009 70 10000 3.09 270 12:20 22.04.2021
3870 Clouds 30 1009 70 10000 3.09 280 11:45 22.04.2021
3871 Clouds 30 1008 70 10000 4.12 290 11:22 22.04.2021
3872 Clouds 31 1008 58 10000 4.63 300 10:44 22.04.2021
3873 Clouds 31 1007 58 10000 5.14 300 10:22 22.04.2021
3874 Clouds 33 1007 55 10000 4.63 300 09:44 22.04.2021
3875 Clouds 34 1007 52 10000 5.66 300 09:19 22.04.2021
3876 Clear 34 1007 49 10000 5.14 300 08:38 22.04.2021
3877 Clear 35 1007 43 10000 5.14 300 08:18 22.04.2021
3878 Clear 35 1008 36 10000 4.63 310 07:40 22.04.2021
3879 Clear 35 1008 36 10000 4.63 310 07:20 22.04.2021
3880 Clear 35 1008 31 10000 3.09 70 06:27 22.04.2021
3881 Clear 35 1008 31 10000 3.09 70 06:27 22.04.2021
3882 Clouds 35 1009 33 10000 2.57 180 05:26 22.04.2021
3883 Clouds 33 1010 35 10000 2.57 180 04:29 22.04.2021
3884 Clear 27 1010 83 10000 2.57 200 00:55 22.04.2021
3885 Clear 26 1010 89 10000 1.54 220 23:47 21.04.2021
3886 Clear 26 1009 89 10000 2.06 230 23:26 21.04.2021
3887 Clear 26 1009 89 10000 1.54 230 22:42 21.04.2021
3888 Clear 26 1009 89 10000 1.54 230 22:24 21.04.2021
3889 Clouds 26 1009 89 10000 1.54 230 21:49 21.04.2021
3890 Clouds 26 1009 78 10000 2.06 230 21:24 21.04.2021
3891 Clouds 26 1009 89 10000 1.54 220 20:58 21.04.2021
3892 Clouds 26 1009 83 10000 2.06 230 20:21 21.04.2021
3893 Clouds 26 1009 83 10000 2.06 240 19:43 21.04.2021
3894 Clouds 27 1009 83 10000 2.06 230 19:24 21.04.2021
3895 Clouds 27 1009 78 10000 2.57 230 18:46 21.04.2021
3896 Clouds 27 1010 78 10000 3.6 220 18:27 21.04.2021
3897 Clouds 27 1010 78 10000 2.57 230 17:48 21.04.2021
3898 Clouds 27 1011 78 10000 2.57 220 17:25 21.04.2021
3899 Clouds 27 1011 78 10000 2.57 220 17:25 21.04.2021
3900 Clear 27 1011 78 10000 2.57 230 16:55 21.04.2021
3901 Clear 28 1011 78 10000 2.06 240 15:59 21.04.2021
3902 Clear 28 1011 78 10000 2.06 230 15:41 21.04.2021
3903 Clear 28 1012 70 10000 2.06 230 14:58 21.04.2021
3904 Clear 28 1012 70 10000 2.06 240 14:40 21.04.2021
3905 Clear 28 1012 70 10000 2.06 240 14:18 21.04.2021
3906 Clouds 28 1011 70 10000 2.06 250 13:40 21.04.2021
3907 Clouds 28 1011 70 10000 2.06 250 13:21 21.04.2021
3908 Clouds 28 1010 65 10000 2.06 280 12:31 21.04.2021
3909 Clouds 29 1010 65 10000 2.06 280 11:50 21.04.2021
3910 Clouds 29 1010 58 10000 3.6 270 11:30 21.04.2021
3911 Clouds 30 1010 62 10000 3.6 290 10:52 21.04.2021
3912 Clouds 31 1009 58 10000 3.6 290 10:34 21.04.2021
3913 Clouds 32 1009 55 10000 4.12 290 09:51 21.04.2021
3914 Clouds 32 1009 58 10000 4.63 290 09:19 21.04.2021
3915 Clouds 32 1008 55 10000 6.17 300 08:40 21.04.2021
3916 Clouds 33 1008 55 10000 6.17 300 08:20 21.04.2021
3917 Clouds 33 1009 51 10000 4.63 320 07:31 21.04.2021
3918 Clouds 33 1009 49 10000 4.63 310 06:57 21.04.2021
3919 Clouds 33 1009 49 10000 4.63 310 06:57 21.04.2021
3920 Clouds 34 1011 43 10000 2.06 250 05:22 21.04.2021
3921 Clear 28 1012 74 10000 2.57 230 01:32 21.04.2021
3922 Clear 25 1011 83 10000 1.54 210 23:51 20.04.2021
3923 Clear 25 1010 78 10000 1.54 200 23:31 20.04.2021
3924 Clear 26 1010 78 10000 1.54 230 22:41 20.04.2021
3925 Clear 26 1010 78 10000 1.54 230 22:22 20.04.2021
3926 Clouds 25 1010 78 10000 1.54 230 21:47 20.04.2021
3927 Clouds 25 1010 78 10000 2.06 210 21:26 20.04.2021
3928 Clouds 25 1009 83 10000 1.54 210 20:45 20.04.2021
3929 Clouds 26 1009 83 10000 2.06 220 20:24 20.04.2021
3930 Clouds 26 1009 83 10000 2.06 200 19:57 20.04.2021
3931 Clouds 26 1010 83 10000 2.06 220 19:39 20.04.2021
3932 Clouds 25 1010 83 10000 2.06 220 19:21 20.04.2021
3933 Clouds 26 1010 74 10000 2.57 210 18:36 20.04.2021
3934 Clouds 27 1010 74 10000 2.06 260 17:55 20.04.2021
3935 Clouds 26 1010 74 10000 2.06 240 17:37 20.04.2021
3936 Clear 26 1011 74 10000 1.54 240 16:50 20.04.2021
3937 Clear 26 1011 83 10000 1.54 260 15:53 20.04.2021
3938 Clear 26 1011 83 10000 1.54 280 15:29 20.04.2021
3939 Clear 27 1011 74 10000 2.06 280 14:58 20.04.2021
3940 Clear 27 1010 74 10000 1.54 290 14:35 20.04.2021
3941 Rain 27 1010 74 10000 1.03 280 13:53 20.04.2021
3942 Clouds 26 1010 69 10000 1.54 290 13:24 20.04.2021
3943 Clouds 27 1010 65 10000 1.54 290 12:44 20.04.2021
3944 Clouds 27 1009 58 10000 1.54 290 12:22 20.04.2021
3945 Clouds 29 1009 58 10000 1.54 260 11:45 20.04.2021
3946 Clouds 29 1009 51 10000 2.06 290 11:22 20.04.2021
3947 Clear 31 1008 51 10000 2.57 340 10:44 20.04.2021
3948 Clear 31 1008 51 10000 2.57 340 10:23 20.04.2021
3949 Clear 32 1008 45 10000 3.09 310 09:40 20.04.2021
3950 Clouds 32 1008 45 10000 2.57 330 08:56 20.04.2021
3951 Clouds 33 1008 45 10000 3.09 340 08:25 20.04.2021
3952 Clouds 32 1008 43 10000 3.6 350 07:49 20.04.2021
3953 Clouds 33 1009 35 10000 4.63 350 06:49 20.04.2021
3954 Clouds 33 1010 35 10000 3.6 350 05:40 20.04.2021
3955 Clouds 32 1011 37 10000 2.06 320 04:42 20.04.2021
3956 Clear 26 1010 69 10000 2.57 150 01:57 20.04.2021
3957 Clear 23 1010 88 10000 2.98 168 00:38 20.04.2021
3958 Clear 23 1009 88 10000 3.23 179 23:38 19.04.2021
3959 Clear 23 1009 88 10000 1.54 210 22:58 19.04.2021
3960 Clear 23 1008 83 10000 1.54 210 22:36 19.04.2021
3961 Clouds 23 1008 88 10000 1.54 220 21:51 19.04.2021
3962 Clouds 24 1008 88 10000 1.54 230 21:33 19.04.2021
3963 Clouds 23 1008 88 10000 1.03 230 20:56 19.04.2021
3964 Clouds 23 1008 88 10000 1.03 210 20:38 19.04.2021
3965 Clouds 24 1008 88 10000 1.03 210 20:19 19.04.2021
3966 Clouds 24 1009 83 10000 1.03 220 19:41 19.04.2021
3967 Clouds 24 1009 83 10000 1.03 220 19:23 19.04.2021
3968 Clouds 24 1009 83 10000 1.03 220 18:47 19.04.2021
3969 Clouds 24 1009 83 10000 1.03 220 18:47 19.04.2021
3970 Clouds 25 1009 78 10000 2.06 230 18:22 19.04.2021
3971 Clouds 25 1009 78 10000 1.54 230 17:54 19.04.2021
3972 Clouds 26 1009 69 10000 1.54 230 17:29 19.04.2021
3973 Clear 26 1010 65 10000 1.54 240 16:57 19.04.2021
3974 Clouds 27 1010 65 10000 2.06 250 16:38 19.04.2021
3975 Clouds 27 1010 65 10000 2.06 250 16:20 19.04.2021
3976 Clear 27 1010 61 10000 2.06 240 15:33 19.04.2021
3977 Clear 27 1010 61 10000 1.54 250 14:56 19.04.2021
3978 Clear 28 1010 57 10000 2.57 260 14:37 19.04.2021
3979 Clear 28 1010 57 10000 2.57 260 14:18 19.04.2021
3980 Clouds 26 1010 65 10000 2.06 290 13:36 19.04.2021
3981 Clouds 27 1010 65 10000 2.06 290 13:18 19.04.2021
3982 Clouds 28 1009 58 10000 1.54 300 12:40 19.04.2021
3983 Clouds 29 1009 58 10000 1.54 300 12:20 19.04.2021
3984 Clouds 29 1009 58 10000 2.06 350 11:52 19.04.2021
3985 Clear 29 1009 54 10000 2.57 330 11:21 19.04.2021
3986 Clear 31 1008 51 10000 3.09 340 10:45 19.04.2021
3987 Clear 31 1008 48 10000 3.6 330 10:20 19.04.2021
3988 Clear 32 1008 43 10000 4.63 350 09:48 19.04.2021
3989 Clear 33 1008 31 10000 2.57 340 09:27 19.04.2021
3990 Clear 33 1007 33 10000 3.09 80 08:54 19.04.2021
3991 Clear 33 1007 31 10000 3.6 80 08:24 19.04.2021
3992 Clear 33 1007 33 10000 4.63 80 07:45 19.04.2021
3993 Clouds 33 1008 31 10000 5.14 80 07:18 19.04.2021
3994 Clear 32 1009 31 10000 4.63 110 05:43 19.04.2021
3995 Clear 28 1011 42 10000 3.6 150 02:34 19.04.2021
3996 Clear 24 1010 50 10000 3.09 130 00:45 19.04.2021
3997 Clear 23 1009 53 10000 2.57 140 23:38 18.04.2021
3998 Clear 22 1009 53 10000 2.57 140 23:18 18.04.2021
3999 Clear 22 1009 56 10000 2.57 150 22:43 18.04.2021
4000 Clear 22 1009 64 10000 2.57 170 22:23 18.04.2021
4001 Clouds 22 1009 60 10000 3.09 160 21:29 18.04.2021
4002 Clouds 23 1009 64 10000 2.57 160 20:56 18.04.2021
4003 Clouds 23 1009 60 10000 2.57 170 20:37 18.04.2021
4004 Clouds 23 1009 60 10000 2.57 170 20:19 18.04.2021
4005 Clouds 23 1009 68 10000 2.57 170 19:44 18.04.2021
4006 Clouds 23 1009 64 10000 2.57 180 19:21 18.04.2021
4007 Clouds 23 1010 64 10000 3.09 170 18:46 18.04.2021
4008 Clouds 24 1010 61 10000 2.06 170 18:27 18.04.2021
4009 Clouds 24 1010 61 10000 3.09 170 17:50 18.04.2021
4010 Clouds 24 1011 61 10000 2.57 170 17:30 18.04.2021
4011 Clear 25 1011 57 10000 2.06 170 16:54 18.04.2021
4012 Clear 25 1011 57 10000 1.54 170 16:35 18.04.2021
4013 Clear 24 1011 61 10000 2.06 170 15:51 18.04.2021
4014 Rain 24 1011 61 10000 2.06 170 15:30 18.04.2021
4015 Clear 24 1011 65 10000 1.54 160 14:58 18.04.2021
4016 Clear 24 1011 69 10000 1.03 160 14:39 18.04.2021
4017 Clear 24 1011 69 10000 1.03 160 14:18 18.04.2021
4018 Clear 25 1011 57 10000 1.54 120 13:44 18.04.2021
4019 Clear 25 1011 57 10000 1.54 120 13:26 18.04.2021
4020 Clear 25 1010 54 10000 2.06 110 12:35 18.04.2021
4021 Clear 28 1009 37 10000 2.06 100 11:52 18.04.2021
4022 Clear 29 1009 37 10000 2.06 100 11:27 18.04.2021
4023 Clear 30 1009 30 10000 3.6 110 10:54 18.04.2021
4024 Clear 31 1009 27 10000 3.6 120 10:35 18.04.2021
4025 Clear 32 1008 27 10000 4.63 130 09:58 18.04.2021
4026 Clear 32 1008 25 10000 4.63 110 09:39 18.04.2021
4027 Clear 33 1008 25 10000 4.63 110 09:19 18.04.2021
4028 Clear 32 1008 25 10000 4.63 130 08:41 18.04.2021
4029 Clear 32 1008 25 10000 4.63 130 08:19 18.04.2021
4030 Clear 32 1009 27 10000 6.69 140 07:39 18.04.2021
4031 Clear 32 1010 27 10000 5.14 130 05:56 18.04.2021
4032 Clear 31 1011 29 10000 5.14 150 05:26 18.04.2021
4033 Clear 30 1012 30 10000 5.66 140 04:30 18.04.2021
4034 Clear 28 1012 36 10000 7.72 130 02:23 18.04.2021
4035 Clear 24 1011 53 10000 4.12 150 00:41 18.04.2021
4036 Clear 22 1011 56 10000 3.6 150 23:52 17.04.2021
4037 Clear 23 1010 56 10000 3.6 150 23:22 17.04.2021
4038 Clear 23 1010 56 10000 3.09 160 22:43 17.04.2021
4039 Clear 23 1010 53 10000 3.09 150 22:21 17.04.2021
4040 Clouds 24 1010 50 10000 3.09 150 21:41 17.04.2021
4041 Clouds 24 1010 50 10000 3.09 150 21:21 17.04.2021
4042 Clouds 24 1010 47 10000 4.63 140 20:29 17.04.2021
4043 Clouds 25 1010 50 10000 4.63 140 19:46 17.04.2021
4044 Clouds 25 1010 50 10000 4.63 140 19:46 17.04.2021
4045 Clouds 25 1010 53 10000 4.12 150 19:23 17.04.2021
4046 Clouds 25 1010 53 10000 3.6 140 18:59 17.04.2021
4047 Clouds 26 1011 57 10000 3.6 140 18:40 17.04.2021
4048 Clouds 26 1011 57 10000 3.6 140 18:20 17.04.2021
4049 Clouds 26 1011 53 10000 3.6 150 17:41 17.04.2021
4050 Clear 27 1011 54 10000 3.6 150 16:56 17.04.2021
4051 Clear 27 1011 54 10000 2.57 150 16:29 17.04.2021
4052 Clear 27 1011 54 10000 2.57 150 16:29 17.04.2021
4053 Clear 28 1011 51 10000 3.09 150 15:56 17.04.2021
4054 Clear 28 1011 65 10000 1.54 170 14:51 17.04.2021
4055 Clear 29 1011 74 10000 2.06 230 14:33 17.04.2021
4056 Clear 29 1011 74 10000 2.57 240 13:50 17.04.2021
4057 Clear 29 1011 74 10000 2.57 250 13:27 17.04.2021
4058 Clear 29 1010 74 10000 1.54 270 12:42 17.04.2021
4059 Clear 29 1010 74 10000 1.54 270 12:21 17.04.2021
4060 Clouds 29 1009 70 10000 2.57 290 11:50 17.04.2021
4061 Clouds 29 1009 70 10000 2.57 290 11:30 17.04.2021
4062 Clouds 30 1009 66 10000 2.57 340 10:46 17.04.2021
4063 Clouds 30 1009 66 10000 2.57 340 10:27 17.04.2021
4064 Clouds 31 1008 62 10000 3.6 350 09:44 17.04.2021
4065 Clouds 32 1008 58 10000 3.09 330 08:41 17.04.2021
4066 Clouds 31 1008 58 10000 3.09 330 08:22 17.04.2021
4067 Clouds 32 1009 58 10000 2.57 300 06:58 17.04.2021
4068 Clouds 31 1012 66 10000 1.54 280 03:55 17.04.2021
4069 Clouds 32 1013 58 10000 0.51 220 03:37 17.04.2021
4070 Clouds 28 1012 78 10000 2.06 20 00:49 17.04.2021
4071 Clouds 27 1012 89 10000 1.03 40 00:28 17.04.2021
4072 Clouds 25 1012 94 10000 1.03 50 23:48 16.04.2021
4073 Clouds 25 1012 94 10000 1.03 50 23:48 16.04.2021
4074 Clouds 25 1011 89 10000 1.03 10 23:25 16.04.2021
4075 Clouds 26 1011 94 10000 2.06 20 22:46 16.04.2021
4076 Clouds 26 1011 94 10000 2.06 20 22:21 16.04.2021
4077 Clouds 26 1011 94 10000 1.03 10 21:51 16.04.2021
4078 Clouds 26 1011 94 10000 0.54 91 21:30 16.04.2021
4079 Clouds 26 1011 94 10000 0.54 91 21:30 16.04.2021
4080 Clouds 26 1011 94 10000 0.89 187 20:50 16.04.2021
4081 Clouds 26 1011 94 10000 0.51 360 20:24 16.04.2021
4082 Clouds 26 1011 94 10000 1.03 360 19:52 16.04.2021
4083 Clouds 26 1011 89 10000 1.03 260 19:29 16.04.2021
4084 Clouds 26 1012 89 10000 2.51 154 18:40 16.04.2021
4085 Clouds 27 1012 89 10000 1.04 136 18:19 16.04.2021
4086 Clouds 27 1012 83 10000 1.54 230 17:37 16.04.2021
4087 Clouds 28 1012 83 10000 1.54 230 17:18 16.04.2021
4088 Clouds 27 1012 78 10000 2.57 210 16:42 16.04.2021
4089 Clouds 28 1012 78 10000 2.57 210 16:23 16.04.2021
4090 Clouds 28 1012 78 10000 2.06 230 15:44 16.04.2021
4091 Clouds 28 1012 78 10000 1.54 240 15:18 16.04.2021
4092 Clear 28 1012 78 10000 2.06 260 14:42 16.04.2021
4093 Clear 28 1012 78 10000 2.06 260 14:18 16.04.2021
4094 Clear 28 1011 78 10000 2.57 270 13:42 16.04.2021
4095 Clear 28 1011 78 10000 2.57 270 13:20 16.04.2021
4096 Clear 29 1011 74 10000 2.57 260 12:47 16.04.2021
4097 Clouds 29 1011 74 10000 2.57 260 12:27 16.04.2021
4098 Clouds 29 1011 74 10000 2.57 260 12:27 16.04.2021
4099 Clouds 29 1010 74 10000 3.09 280 11:49 16.04.2021
4100 Clouds 29 1010 74 10000 2.57 290 11:26 16.04.2021
4101 Clouds 30 1010 70 10000 3.6 310 10:48 16.04.2021
4102 Clouds 31 1009 66 10000 4.12 300 10:26 16.04.2021
4103 Clouds 31 1009 62 10000 4.12 330 09:52 16.04.2021
4104 Clouds 31 1009 66 10000 3.6 340 09:24 16.04.2021
4105 Clouds 32 1009 62 10000 4.12 350 08:46 16.04.2021
4106 Clouds 32 1009 62 10000 4.12 350 08:28 16.04.2021
4107 Clouds 32 1009 62 10000 3.6 340 07:53 16.04.2021
4108 Clouds 32 1009 62 10000 3.6 310 07:34 16.04.2021
4109 Clouds 32 1010 62 10000 3.6 320 06:56 16.04.2021
4110 Clouds 32 1011 55 10000 2.57 250 05:33 16.04.2021
4111 Clouds 31 1012 62 10000 2.57 100 04:19 16.04.2021
4112 Clouds 25 1012 83 10000 2.06 130 00:54 16.04.2021
4113 Clouds 25 1012 88 10000 1.54 140 00:36 16.04.2021
4114 Clouds 25 1012 88 10000 1.54 140 00:18 16.04.2021
4115 Clouds 25 1011 83 10000 2.06 140 23:36 15.04.2021
4116 Clear 24 1011 88 10000 2.06 120 22:53 15.04.2021
4117 Clouds 25 1010 88 10000 1.54 130 22:33 15.04.2021
4118 Clouds 24 1011 94 10000 2.57 60 21:59 15.04.2021
4119 Clouds 24 1011 88 10000 2.57 110 21:40 15.04.2021
4120 Clouds 24 1011 88 10000 2.57 110 21:19 15.04.2021
4121 Clouds 24 1011 94 9000 8.23 60 20:40 15.04.2021
4122 Clouds 24 1011 94 9000 8.23 60 20:21 15.04.2021
4123 Clouds 26 1011 83 10000 7.72 70 19:43 15.04.2021
4124 Clouds 27 1010 83 10000 1.54 150 19:24 15.04.2021
4125 Clouds 26 1011 83 10000 1.54 150 18:42 15.04.2021
4126 Clouds 26 1011 83 10000 1.54 150 18:20 15.04.2021
4127 Clouds 26 1011 83 10000 2.06 170 17:54 15.04.2021
4128 Clouds 26 1011 89 10000 2.31 92 17:36 15.04.2021
4129 Clouds 26 1011 83 10000 0.51 360 16:57 15.04.2021
4130 Clear 26 1011 83 10000 1.03 350 16:39 15.04.2021
4131 Clear 26 1011 83 10000 1.03 350 16:20 15.04.2021
4132 Clear 27 1011 83 10000 1.03 330 15:44 15.04.2021
4133 Clear 27 1011 74 10000 1.03 260 15:25 15.04.2021
4134 Clear 28 1011 74 10000 1.03 360 14:40 15.04.2021
4135 Clear 28 1011 74 10000 1.03 360 14:22 15.04.2021
4136 Clouds 28 1010 70 10000 2.06 30 13:42 15.04.2021
4137 Clouds 29 1010 70 10000 2.06 30 13:18 15.04.2021
4138 Clouds 29 1009 65 10000 3.09 20 12:40 15.04.2021
4139 Clouds 29 1009 65 10000 3.09 20 12:20 15.04.2021
4140 Clouds 29 1009 65 10000 3.6 30 11:45 15.04.2021
4141 Clouds 29 1009 58 10000 3.6 30 11:23 15.04.2021
4142 Clouds 30 1009 58 10000 4.63 30 10:49 15.04.2021
4143 Clouds 30 1008 55 10000 4.12 50 10:27 15.04.2021
4144 Clouds 31 1008 51 10000 4.63 50 09:48 15.04.2021
4145 Clouds 32 1008 48 10000 5.14 60 09:23 15.04.2021
4146 Clouds 32 1008 51 10000 3.09 80 08:47 15.04.2021
4147 Clouds 32 1008 51 10000 3.09 80 07:53 15.04.2021
4148 Clouds 32 1008 48 10000 2.57 100 07:24 15.04.2021
4149 Clouds 32 1009 48 10000 3.09 90 06:40 15.04.2021
4150 Clouds 32 1009 48 10000 3.09 90 06:21 15.04.2021
4151 Clouds 32 1011 55 10000 3.6 70 04:51 15.04.2021
4152 Clouds 25 1012 89 10000 2.57 70 01:24 15.04.2021
4153 Clouds 24 1010 88 10000 1.54 70 23:42 14.04.2021
4154 Clouds 24 1010 88 10000 1.54 70 23:22 14.04.2021
4155 Clear 24 1010 88 10000 1.03 70 22:46 14.04.2021
4156 Clouds 25 1010 88 10000 1.03 90 22:25 14.04.2021
4157 Clouds 24 1010 88 10000 1.54 80 21:49 14.04.2021
4158 Clouds 24 1010 88 10000 1.03 80 21:31 14.04.2021
4159 Clouds 24 1009 88 10000 1.54 80 20:56 14.04.2021
4160 Clouds 25 1009 94 10000 1.54 50 20:34 14.04.2021
4161 Clouds 25 1009 94 10000 1.54 50 20:34 14.04.2021
4162 Clouds 25 1009 88 10000 1.7 94 19:54 14.04.2021
4163 Clouds 24 1009 88 10000 1.03 270 19:21 14.04.2021
4164 Clouds 25 1010 94 10000 1.03 300 18:57 14.04.2021
4165 Clouds 25 1010 94 10000 1.54 310 18:22 14.04.2021
4166 Clouds 25 1010 94 10000 1.03 320 17:59 14.04.2021
4167 Clouds 26 1010 89 10000 1.54 310 17:28 14.04.2021
4168 Clear 25 1010 89 10000 1.54 330 16:54 14.04.2021
4169 Clear 26 1010 89 10000 1.54 360 16:28 14.04.2021
4170 Clear 26 1010 89 10000 1.54 20 15:47 14.04.2021
4171 Clear 26 1011 89 10000 1.54 40 15:27 14.04.2021
4172 Clear 26 1011 83 10000 1.03 10 14:56 14.04.2021
4173 Clouds 26 1010 83 10000 1.54 360 14:37 14.04.2021
4174 Clouds 27 1010 83 10000 1.54 360 14:18 14.04.2021
4175 Clear 27 1010 78 10000 1.54 360 13:44 14.04.2021
4176 Clouds 28 1009 70 10000 2.06 360 12:41 14.04.2021
4177 Rain 28 1009 70 10000 2.06 360 12:18 14.04.2021
4178 Clouds 29 1009 66 10000 2.57 350 11:39 14.04.2021
4179 Clouds 29 1009 66 10000 2.57 350 11:39 14.04.2021
4180 Clouds 29 1009 66 10000 2.57 350 11:19 14.04.2021
4181 Clouds 30 1008 58 10000 4.12 340 10:33 14.04.2021
4182 Clouds 32 1007 58 10000 5.14 350 09:43 14.04.2021
4183 Clouds 32 1007 58 10000 5.14 350 09:23 14.04.2021
4184 Clouds 33 1008 52 10000 5.14 10 08:48 14.04.2021
4185 Clouds 33 1008 55 10000 3.6 110 08:23 14.04.2021
4186 Clouds 34 1008 26 10000 3.6 160 07:27 14.04.2021
4187 Clouds 33 1009 31 10000 3.09 130 06:27 14.04.2021
4188 Clouds 34 1010 27 10000 3.09 150 05:24 14.04.2021
4189 Clouds 29 1012 74 10000 2.57 190 02:24 14.04.2021
4190 Clouds 27 1012 89 10000 1.54 210 00:50 14.04.2021
4191 Clouds 26 1011 94 10000 0.51 210 00:27 14.04.2021
4192 Clouds 25 1011 94 10000 1.54 250 23:31 13.04.2021
4193 Clouds 25 1010 100 10000 1.54 270 22:44 13.04.2021
4194 Clouds 25 1010 94 10000 0.51 320 22:20 13.04.2021
4195 Clouds 25 1010 100 10000 0.51 110 21:48 13.04.2021
4196 Clouds 26 1010 94 10000 0.51 130 21:30 13.04.2021
4197 Clouds 25 1010 94 10000 1.25 182 20:48 13.04.2021
4198 Clouds 25 1010 89 10000 1.34 192 20:24 13.04.2021
4199 Clouds 25 1010 89 10000 1.03 40 19:58 13.04.2021
4200 Clouds 26 1010 89 10000 1.03 350 19:25 13.04.2021
4201 Clouds 26 1010 89 10000 1.54 300 18:49 13.04.2021
4202 Clouds 26 1010 83 10000 2.57 260 18:30 13.04.2021
4203 Clouds 26 1010 83 10000 2.57 260 18:30 13.04.2021
4204 Clouds 26 1010 83 10000 2.57 260 18:30 13.04.2021
4205 Clouds 26 1010 89 10000 1.54 330 17:40 13.04.2021
4206 Clouds 26 1010 89 10000 1.54 330 17:19 13.04.2021
4207 Clear 26 1010 89 10000 1.54 330 16:45 13.04.2021
4208 Clear 26 1011 89 10000 1.54 340 16:26 13.04.2021
4209 Clear 26 1011 89 10000 1.54 340 16:26 13.04.2021
4210 Clouds 26 1011 89 10000 1.54 340 15:55 13.04.2021
4211 Clouds 27 1011 83 10000 0.51 290 15:36 13.04.2021
4212 Clouds 26 1011 83 10000 1.03 310 14:54 13.04.2021
4213 Clouds 27 1011 83 10000 1.03 340 14:24 13.04.2021
4214 Clouds 27 1011 78 10000 1.03 290 13:53 13.04.2021
4215 Clear 28 1010 70 10000 1.03 310 13:27 13.04.2021
4216 Clouds 28 1010 65 10000 1.54 300 12:59 13.04.2021
4217 Clouds 28 1010 70 10000 2.06 320 12:41 13.04.2021
4218 Clouds 28 1010 70 10000 2.06 320 12:22 13.04.2021
4219 Clouds 29 1009 66 10000 2.57 330 11:36 13.04.2021
4220 Clouds 30 1009 66 10000 3.09 350 10:57 13.04.2021
4221 Clouds 31 1008 62 10000 3.6 340 10:39 13.04.2021
4222 Clouds 31 1008 62 10000 3.6 340 10:18 13.04.2021
4223 Clouds 32 1008 62 10000 4.12 340 09:42 13.04.2021
4224 Clouds 33 1008 62 10000 4.12 340 09:18 13.04.2021
4225 Clouds 33 1008 62 10000 4.12 340 09:18 13.04.2021
4226 Clouds 33 1008 58 10000 3.6 330 08:42 13.04.2021
4227 Clouds 33 1009 58 10000 3.6 350 08:21 13.04.2021
4228 Clouds 33 1009 58 10000 3.6 350 08:21 13.04.2021
4229 Clouds 33 1009 58 10000 3.09 320 07:36 13.04.2021
4230 Clouds 33 1010 58 10000 3.09 300 06:59 13.04.2021
4231 Clouds 32 1010 62 10000 2.57 320 06:18 13.04.2021
4232 Clouds 31 1013 58 10000 2.57 50 02:52 13.04.2021
4233 Clouds 29 1012 74 10000 2.57 170 01:28 13.04.2021
4234 Clouds 26 1012 94 10000 1.54 200 23:49 12.04.2021
4235 Clouds 26 1011 94 10000 0.51 190 23:29 12.04.2021
4236 Clouds 26 1011 94 10000 2.36 123 22:43 12.04.2021
4237 Clouds 26 1011 94 10000 1.03 240 22:25 12.04.2021
4238 Clouds 26 1010 94 10000 1.63 142 21:47 12.04.2021
4239 Clouds 26 1010 94 10000 1.03 10 21:23 12.04.2021
4240 Clouds 26 1010 94 10000 1.54 210 20:45 12.04.2021
4241 Clouds 26 1010 94 10000 2.06 220 20:26 12.04.2021
4242 Clouds 26 1010 94 10000 0.51 190 19:58 12.04.2021
4243 Clouds 27 1011 94 10000 1.03 210 19:38 12.04.2021
4244 Clouds 26 1011 94 10000 1.03 210 19:19 12.04.2021
4245 Clouds 26 1011 94 10000 1.03 200 18:46 12.04.2021
4246 Clouds 27 1011 89 10000 1.03 230 18:27 12.04.2021
4247 Clouds 28 1011 83 10000 1.54 240 17:45 12.04.2021
4248 Clouds 28 1011 83 10000 2.06 220 17:24 12.04.2021
4249 Clear 27 1011 83 10000 1.54 250 16:49 12.04.2021
4250 Clear 28 1011 83 10000 1.54 240 16:28 12.04.2021
4251 Clear 27 1011 83 10000 2.06 250 15:54 12.04.2021
4252 Clear 28 1011 78 10000 2.06 240 15:33 12.04.2021
4253 Clouds 28 1011 78 10000 2.06 270 14:55 12.04.2021
4254 Clouds 28 1011 74 10000 2.06 270 14:36 12.04.2021
4255 Clouds 29 1011 74 10000 2.57 260 13:53 12.04.2021
4256 Clouds 28 1010 74 10000 2.06 270 13:31 12.04.2021
4257 Clouds 29 1010 74 10000 2.06 270 12:56 12.04.2021
4258 Clouds 29 1009 70 10000 3.09 270 12:36 12.04.2021
4259 Clouds 29 1009 70 10000 3.09 270 12:18 12.04.2021
4260 Clouds 30 1009 62 10000 3.6 320 11:25 12.04.2021
4261 Clouds 30 1008 58 10000 3.6 320 10:49 12.04.2021
4262 Clouds 31 1008 58 10000 3.6 320 10:27 12.04.2021
4263 Clouds 32 1008 55 10000 4.12 310 09:51 12.04.2021
4264 Clouds 33 1008 55 10000 3.09 340 09:23 12.04.2021
4265 Clouds 33 1008 55 10000 3.09 300 08:40 12.04.2021
4266 Clouds 33 1009 58 10000 3.6 310 07:42 12.04.2021
4267 Clouds 33 1009 58 10000 3.6 310 07:22 12.04.2021
4268 Clouds 33 1010 52 10000 2.06 350 06:27 12.04.2021
4269 Clouds 32 1011 55 10000 3.09 260 05:42 12.04.2021
4270 Clouds 28 1012 78 10000 2.57 40 01:40 12.04.2021
4271 Clouds 26 1012 78 10000 3.6 70 00:26 12.04.2021
4272 Clouds 26 1011 89 10000 3.6 30 23:49 11.04.2021
4273 Clouds 26 1011 89 10000 3.6 30 23:31 11.04.2021
4274 Clouds 26 1010 83 10000 3.6 10 22:48 11.04.2021
4275 Clouds 26 1010 83 10000 3.6 10 22:26 11.04.2021
4276 Clouds 26 1010 83 10000 3.09 360 21:52 11.04.2021
4277 Clouds 27 1010 89 10000 2.06 350 21:31 11.04.2021
4278 Clouds 27 1010 94 10000 2.06 310 20:59 11.04.2021
4279 Clouds 27 1010 89 10000 1.03 310 20:39 11.04.2021
4280 Clouds 28 1010 89 10000 1.03 310 20:20 11.04.2021
4281 Clouds 27 1009 89 10000 3.09 280 19:40 11.04.2021
4282 Clouds 27 1009 89 10000 3.09 280 19:19 11.04.2021
4283 Clouds 28 1010 89 10000 2.06 280 18:47 11.04.2021
4284 Clouds 27 1010 89 10000 2.06 280 18:26 11.04.2021
4285 Clouds 27 1011 89 10000 1.54 280 17:50 11.04.2021
4286 Clouds 28 1011 89 10000 2.06 270 17:30 11.04.2021
4287 Clouds 28 1011 89 10000 2.06 270 17:30 11.04.2021
4288 Clouds 28 1011 89 10000 2.57 260 16:59 11.04.2021
4289 Clouds 28 1011 89 10000 2.06 280 16:40 11.04.2021
4290 Clouds 28 1011 89 10000 2.06 280 16:20 11.04.2021
4291 Clouds 29 1011 84 10000 3.09 270 15:42 11.04.2021
4292 Clouds 29 1011 84 10000 3.09 270 15:22 11.04.2021
4293 Clouds 29 1010 84 10000 3.09 270 14:49 11.04.2021
4294 Clouds 28 1010 84 10000 3.09 270 14:19 11.04.2021
4295 Clouds 27 1009 78 10000 2.57 290 13:40 11.04.2021
4296 Clouds 28 1009 78 10000 2.57 290 13:22 11.04.2021
4297 Clouds 28 1009 65 10000 1.54 230 12:26 11.04.2021
4298 Clouds 29 1009 65 10000 2.06 250 11:56 11.04.2021
4299 Clouds 29 1008 74 10000 3.09 260 11:38 11.04.2021
4300 Clouds 29 1008 74 10000 3.09 260 11:19 11.04.2021
4301 Clouds 31 1008 70 10000 5.14 300 10:40 11.04.2021
4302 Clouds 31 1008 70 10000 5.14 300 10:20 11.04.2021
4303 Clouds 32 1008 70 10000 5.14 290 09:43 11.04.2021
4304 Clouds 32 1008 70 10000 5.14 290 09:43 11.04.2021
4305 Clouds 32 1008 66 10000 6.17 300 09:25 11.04.2021
4306 Clouds 32 1007 70 10000 5.66 290 08:39 11.04.2021
4307 Clouds 34 1008 62 10000 5.66 310 07:41 11.04.2021
4308 Clouds 34 1008 62 10000 5.66 310 07:19 11.04.2021
4309 Clouds 33 1009 62 10000 4.12 300 05:47 11.04.2021
4310 Clouds 34 1010 66 10000 3.09 310 05:23 11.04.2021
4311 Clouds 33 1011 70 10000 3.09 330 04:36 11.04.2021
4312 Clouds 31 1011 66 10000 1.54 280 03:35 11.04.2021
4313 Rain 28 1010 94 10000 1.23 184 00:55 11.04.2021
4314 Rain 27 1010 100 10000 1.54 70 00:32 11.04.2021
4315 Rain 24 1010 94 8000 0.68 225 23:45 10.04.2021
4316 Clear 24 1010 100 10000 1.14 296 22:55 10.04.2021
4317 Clear 24 1009 100 10000 0.87 328 22:28 10.04.2021
4318 Clouds 24 1009 100 9000 0.87 328 21:54 10.04.2021
4319 Clouds 24 1009 94 10000 0.79 354 21:25 10.04.2021
4320 Clouds 24 1009 94 10000 0.79 354 20:57 10.04.2021
4321 Clouds 24 1009 94 10000 1.03 80 20:36 10.04.2021
4322 Clouds 25 1009 94 10000 1.03 80 20:18 10.04.2021
4323 Clouds 25 1009 94 10000 0.51 90 19:42 10.04.2021
4324 Clouds 25 1009 94 10000 0.51 90 19:24 10.04.2021
4325 Clouds 25 1009 94 10000 1.03 30 18:42 10.04.2021
4326 Clouds 25 1009 94 10000 1.03 30 18:23 10.04.2021
4327 Clouds 25 1010 94 10000 1.54 350 17:35 10.04.2021
4328 Clear 25 1010 94 10000 0.61 41 16:43 10.04.2021
4329 Clear 25 1010 94 10000 0.61 311 16:24 10.04.2021
4330 Rain 25 1010 89 10000 0.61 311 15:48 10.04.2021
4331 Clear 26 1010 89 10000 1.03 350 14:55 10.04.2021
4332 Rain 26 1010 78 10000 1.54 350 14:34 10.04.2021
4333 Rain 27 1010 83 10000 0.51 170 13:58 10.04.2021
4334 Rain 27 1009 78 10000 2.06 180 13:36 10.04.2021
4335 Clear 27 1009 78 10000 3.09 200 12:43 10.04.2021
4336 Clouds 27 1009 74 10000 2.06 190 12:20 10.04.2021
4337 Clouds 27 1008 74 10000 1.03 260 11:46 10.04.2021
4338 Clouds 28 1008 74 10000 3.6 240 11:23 10.04.2021
4339 Clouds 29 1008 70 10000 3.6 290 10:51 10.04.2021
4340 Clouds 30 1008 70 10000 3.6 290 10:31 10.04.2021
4341 Clouds 30 1007 70 10000 3.09 300 09:45 10.04.2021
4342 Clouds 30 1007 74 10000 3.09 350 09:19 10.04.2021
4343 Clouds 29 1007 79 10000 4.12 350 08:36 10.04.2021
4344 Clouds 29 1007 79 10000 4.12 350 08:18 10.04.2021
4345 Clouds 31 1007 66 10000 3.6 340 07:26 10.04.2021
4346 Clouds 31 1008 79 10000 5.66 330 06:42 10.04.2021
4347 Clouds 32 1009 62 10000 3.6 300 05:36 10.04.2021
4348 Clouds 33 1010 62 10000 3.09 200 03:46 10.04.2021
4349 Clouds 31 1010 84 10000 2.57 260 02:49 10.04.2021
4350 Clouds 29 1010 89 10000 2.57 250 01:43 10.04.2021
4351 Clear 28 1009 89 10000 1.54 250 00:37 10.04.2021
4352 Clear 26 1009 94 10000 1.03 220 23:58 09.04.2021
4353 Clear 26 1008 94 10000 1.54 260 23:36 09.04.2021
4354 Clear 26 1008 94 10000 1.54 270 22:57 09.04.2021
4355 Clear 26 1008 89 10000 2.06 270 22:37 09.04.2021
4356 Clouds 26 1008 94 10000 2.06 320 21:41 09.04.2021
4357 Clouds 26 1008 94 10000 2.06 320 21:22 09.04.2021
4358 Clouds 26 1008 89 10000 2.06 290 20:59 09.04.2021
4359 Clouds 25 1008 94 10000 2.06 320 20:40 09.04.2021
4360 Clouds 25 1008 94 10000 2.06 320 20:21 09.04.2021
4361 Clouds 25 1008 83 10000 2.06 260 19:43 09.04.2021
4362 Clouds 24 1008 94 10000 2.35 257 19:23 09.04.2021
4363 Clouds 25 1008 89 10000 1.54 280 18:44 09.04.2021
4364 Clouds 25 1009 88 10000 2.06 300 18:25 09.04.2021
4365 Clouds 25 1009 88 10000 1.54 310 17:52 09.04.2021
4366 Clouds 24 1009 94 10000 0.51 80 17:33 09.04.2021
4367 Clouds 24 1010 94 10000 2.57 10 16:55 09.04.2021
4368 Clouds 25 1010 94 8000 4.63 50 16:32 09.04.2021
4369 Clouds 26 1010 88 4000 8.75 100 15:50 09.04.2021
4370 Clouds 28 1010 89 10000 2.06 190 15:25 09.04.2021
4371 Clouds 28 1009 89 10000 2.06 270 14:47 09.04.2021
4372 Clouds 28 1009 89 10000 2.06 270 14:29 09.04.2021
4373 Clouds 28 1008 89 10000 2.57 290 13:49 09.04.2021
4374 Clouds 28 1008 89 10000 2.57 290 13:23 09.04.2021
4375 Clouds 29 1007 79 10000 4.63 280 12:48 09.04.2021
4376 Clouds 29 1007 79 10000 4.63 280 12:48 09.04.2021
4377 Clouds 29 1007 79 10000 4.63 280 12:27 09.04.2021
4378 Clouds 29 1007 79 10000 4.63 280 11:44 09.04.2021
4379 Clouds 29 1007 79 10000 4.63 280 11:21 09.04.2021
4380 Clouds 30 1006 79 10000 5.66 290 10:40 09.04.2021
4381 Clouds 30 1006 79 10000 5.66 290 10:18 09.04.2021
4382 Clouds 31 1006 70 10000 5.14 290 09:29 09.04.2021
4383 Clouds 31 1007 66 10000 5.14 300 08:56 09.04.2021
4384 Clouds 31 1007 66 10000 5.14 300 08:37 09.04.2021
4385 Clouds 30 1007 66 10000 5.66 310 07:35 09.04.2021
4386 Clouds 32 1008 62 10000 5.66 300 06:33 09.04.2021
4387 Clouds 31 1008 62 10000 5.14 310 05:45 09.04.2021
4388 Clouds 32 1010 62 10000 3.09 330 03:48 09.04.2021
4389 Clouds 24 1009 88 10000 2.06 50 00:40 09.04.2021
4390 Clouds 24 1009 88 10000 2.06 50 00:21 09.04.2021
4391 Clouds 24 1009 83 10000 3.6 70 23:57 08.04.2021
4392 Clouds 26 1008 83 10000 3.09 320 22:58 08.04.2021
4393 Clouds 25 1008 83 10000 2.57 330 22:38 08.04.2021
4394 Clouds 25 1008 83 10000 2.57 330 22:20 08.04.2021
4395 Clouds 25 1008 83 10000 3.6 340 21:54 08.04.2021
4396 Clouds 25 1008 83 10000 3.6 340 21:54 08.04.2021
4397 Clouds 24 1007 83 10000 4.12 330 21:36 08.04.2021
4398 Clouds 24 1007 83 10000 4.12 330 21:18 08.04.2021
4399 Clouds 24 1008 94 10000 5.14 30 20:42 08.04.2021
4400 Clouds 24 1008 94 10000 5.14 30 20:20 08.04.2021
4401 Clouds 25 1008 94 4600 8.75 70 19:42 08.04.2021
4402 Clouds 26 1008 89 10000 5.14 60 19:19 08.04.2021
4403 Clouds 28 1008 83 10000 1.03 340 18:44 08.04.2021
4404 Clouds 28 1008 83 10000 1.03 260 18:20 08.04.2021
4405 Clouds 28 1008 83 10000 3.09 270 17:48 08.04.2021
4406 Clouds 28 1008 79 10000 3.6 280 17:24 08.04.2021
4407 Clouds 29 1008 79 10000 4.12 270 16:46 08.04.2021
4408 Clouds 29 1008 79 10000 4.12 280 16:25 08.04.2021
4409 Clouds 29 1008 79 10000 4.12 290 15:47 08.04.2021
4410 Clouds 29 1008 79 10000 4.12 290 15:28 08.04.2021
4411 Clouds 29 1008 74 10000 3.6 290 14:45 08.04.2021
4412 Clouds 29 1008 79 10000 1.54 300 14:24 08.04.2021
4413 Clouds 29 1008 79 10000 2.57 270 13:56 08.04.2021
4414 Clouds 29 1007 79 10000 3.6 280 13:38 08.04.2021
4415 Clouds 29 1007 79 10000 3.6 280 13:19 08.04.2021
4416 Clouds 28 1006 74 10000 3.09 270 12:38 08.04.2021
4417 Clouds 29 1006 74 10000 3.6 280 11:59 08.04.2021
4418 Clouds 29 1006 74 10000 3.09 270 11:41 08.04.2021
4419 Clouds 29 1005 74 10000 3.6 280 10:57 08.04.2021
4420 Clouds 29 1005 79 10000 2.57 280 10:28 08.04.2021
4421 Clouds 29 1005 74 10000 2.57 250 09:51 08.04.2021
4422 Clouds 30 1004 66 10000 4.63 270 09:33 08.04.2021
4423 Clouds 30 1004 58 10000 3.6 260 08:45 08.04.2021
4424 Clouds 30 1005 65 10000 5.66 200 08:25 08.04.2021
4425 Clouds 31 1005 66 10000 4.12 280 07:53 08.04.2021
4426 Clouds 33 1005 52 10000 7.72 310 06:55 08.04.2021
4427 Clouds 31 1009 70 10000 3.09 260 02:34 08.04.2021
4428 Clouds 28 1008 83 10000 2.57 260 00:44 08.04.2021
4429 Clouds 27 1008 89 10000 2.57 270 23:56 07.04.2021
4430 Rain 26 1008 89 10000 2.57 270 23:37 07.04.2021
4431 Clouds 26 1008 89 10000 2.57 270 23:18 07.04.2021
4432 Rain 26 1007 89 10000 2.57 270 22:43 07.04.2021
4433 Rain 26 1007 89 10000 2.57 270 22:22 07.04.2021
4434 Rain 26 1007 89 10000 2.06 280 21:42 07.04.2021
4435 Rain 26 1007 89 10000 2.06 280 21:21 07.04.2021
4436 Clouds 26 1007 89 10000 1.03 250 20:42 07.04.2021
4437 Clouds 27 1007 89 10000 1.03 250 20:20 07.04.2021
4438 Clouds 27 1007 89 10000 2.06 250 19:42 07.04.2021
4439 Clouds 27 1007 89 10000 2.06 250 19:24 07.04.2021
4440 Clouds 27 1007 89 10000 2.06 260 18:47 07.04.2021
4441 Clouds 27 1007 83 10000 2.06 250 18:19 07.04.2021
4442 Clouds 28 1008 83 10000 2.57 260 17:53 07.04.2021
4443 Clouds 28 1008 83 10000 2.57 260 17:35 07.04.2021
4444 Clouds 28 1008 83 10000 2.57 270 16:49 07.04.2021
4445 Clouds 28 1008 83 10000 2.57 270 16:23 07.04.2021
4446 Clear 28 1009 83 10000 2.57 270 15:57 07.04.2021
4447 Clear 28 1009 83 10000 2.57 270 15:38 07.04.2021
4448 Clear 28 1009 83 10000 2.57 270 14:56 07.04.2021
4449 Clear 28 1009 83 10000 2.57 270 14:29 07.04.2021
4450 Clear 28 1008 83 10000 2.57 260 13:49 07.04.2021
4451 Clear 28 1008 83 10000 2.57 270 13:23 07.04.2021
4452 Clear 28 1008 74 10000 2.57 270 12:50 07.04.2021
4453 Clouds 29 1007 74 10000 3.09 270 12:24 07.04.2021
4454 Clouds 29 1007 74 10000 4.12 270 11:48 07.04.2021
4455 Clouds 30 1007 70 10000 4.12 270 11:25 07.04.2021
4456 Clouds 30 1007 70 10000 5.14 300 10:52 07.04.2021
4457 Clouds 31 1006 66 10000 5.14 290 10:19 07.04.2021
4458 Clouds 31 1006 66 10000 6.69 310 09:40 07.04.2021
4459 Clouds 31 1006 66 10000 6.69 310 09:21 07.04.2021
4460 Clouds 31 1007 62 10000 6.69 300 08:34 07.04.2021
4461 Clouds 33 1007 62 10000 6.17 300 07:59 07.04.2021
4462 Clouds 33 1007 58 10000 5.66 300 07:37 07.04.2021
4463 Clouds 33 1007 58 10000 5.66 300 07:19 07.04.2021
4464 Clouds 33 1008 62 10000 5.14 290 06:24 07.04.2021
4465 Clouds 33 1009 48 10000 2.06 300 04:23 07.04.2021
4466 Clouds 25 1010 89 10000 2.06 140 00:20 07.04.2021
4467 Clouds 25 1010 94 10000 2.06 120 23:46 06.04.2021
4468 Clouds 25 1010 94 10000 2.06 120 23:18 06.04.2021
4469 Clear 26 1009 89 10000 2.57 180 22:39 06.04.2021
4470 Clear 26 1009 89 10000 2.57 180 22:19 06.04.2021
4471 Clouds 25 1009 94 10000 2.05 96 21:40 06.04.2021
4472 Clouds 25 1009 94 10000 2.28 102 21:21 06.04.2021
4473 Clouds 26 1009 89 10000 1.03 190 20:53 06.04.2021
4474 Clouds 27 1009 83 10000 1.54 190 20:24 06.04.2021
4475 Clouds 27 1009 78 10000 1.54 210 19:52 06.04.2021
4476 Clouds 26 1009 89 10000 1.54 290 19:34 06.04.2021
4477 Clouds 26 1009 89 10000 1.54 320 18:52 06.04.2021
4478 Clouds 26 1009 89 10000 1.03 300 18:33 06.04.2021
4479 Rain 26 1010 89 10000 0.51 330 17:57 06.04.2021
4480 Clouds 26 1010 89 10000 2.02 335 17:38 06.04.2021
4481 Clouds 26 1010 89 10000 3.04 341 17:18 06.04.2021
4482 Clouds 26 1011 78 10000 3.04 341 16:41 06.04.2021
4483 Clear 26 1011 83 10000 3.27 353 15:49 06.04.2021
4484 Clear 26 1011 83 10000 0.51 350 15:24 06.04.2021
4485 Clear 27 1010 78 10000 1.54 360 14:40 06.04.2021
4486 Clear 27 1010 78 10000 1.54 360 14:21 06.04.2021
4487 Clear 28 1010 69 10000 2.57 330 13:46 06.04.2021
4488 Clear 28 1010 69 10000 2.57 330 13:25 06.04.2021
4489 Clear 28 1009 74 10000 3.6 340 12:43 06.04.2021
4490 Clear 28 1009 74 10000 3.6 340 12:24 06.04.2021
4491 Clear 28 1009 78 10000 4.63 340 11:54 06.04.2021
4492 Clear 28 1009 70 10000 4.63 340 11:36 06.04.2021
4493 Clear 29 1009 70 10000 4.63 340 11:18 06.04.2021
4494 Clouds 30 1008 55 10000 4.12 360 10:38 06.04.2021
4495 Clouds 31 1008 55 10000 3.09 350 10:19 06.04.2021
4496 Clouds 31 1008 55 10000 2.57 360 09:42 06.04.2021
4497 Clouds 31 1008 55 10000 2.57 20 08:50 06.04.2021
4498 Clouds 30 1008 58 10000 2.57 30 08:19 06.04.2021
4499 Clouds 31 1009 55 10000 3.09 40 06:57 06.04.2021
4500 Clouds 30 1009 62 10000 3.09 30 06:24 06.04.2021
4501 Clouds 30 1011 70 10000 1.54 20 03:54 06.04.2021
4502 Rain 28 1011 83 10000 2.06 40 00:48 06.04.2021
4503 Clouds 26 1011 94 10000 1.03 10 00:21 06.04.2021
4504 Clouds 26 1010 89 10000 1.03 30 23:50 05.04.2021
4505 Clouds 26 1010 89 10000 1.03 70 23:28 05.04.2021
4506 Clouds 26 1009 89 10000 1.03 20 22:53 05.04.2021
4507 Clouds 26 1009 89 10000 1.54 60 22:33 05.04.2021
4508 Clouds 26 1009 83 10000 2.06 40 21:47 05.04.2021
4509 Clouds 26 1009 89 10000 2.06 50 21:23 05.04.2021
4510 Clouds 26 1008 94 10000 1.54 40 20:49 05.04.2021
4511 Clouds 26 1009 94 10000 1.54 50 20:30 05.04.2021
4512 Clouds 26 1008 94 10000 1.54 20 19:45 05.04.2021
4513 Clouds 26 1008 94 10000 1.54 20 19:25 05.04.2021
4514 Clouds 26 1009 94 10000 1.03 360 18:58 05.04.2021
4515 Clouds 26 1009 94 10000 1.03 10 18:39 05.04.2021
4516 Rain 26 1009 94 10000 1.03 10 18:19 05.04.2021
4517 Rain 25 1009 100 10000 0.51 30 17:46 05.04.2021
4518 Rain 26 1009 94 10000 1.03 360 17:21 05.04.2021
4519 Clear 26 1009 89 10000 1.54 360 16:45 05.04.2021
4520 Clear 26 1010 89 10000 1.03 360 16:22 05.04.2021
4521 Clear 26 1010 89 10000 1.54 20 15:56 05.04.2021
4522 Clear 26 1010 89 10000 2.06 40 15:32 05.04.2021
4523 Clear 26 1010 89 10000 2.06 50 14:58 05.04.2021
4524 Rain 27 1010 83 10000 1.54 40 14:35 05.04.2021
4525 Clear 27 1009 78 10000 1.54 70 13:41 05.04.2021
4526 Rain 27 1009 78 10000 1.54 70 13:22 05.04.2021
4527 Clear 28 1009 74 10000 2.06 50 12:45 05.04.2021
4528 Clear 28 1008 69 10000 2.57 60 12:23 05.04.2021
4529 Clear 29 1008 58 10000 4.12 50 11:46 05.04.2021
4530 Clear 29 1008 58 10000 4.12 50 11:27 05.04.2021
4531 Clear 30 1007 54 10000 4.63 60 10:48 05.04.2021
4532 Clouds 31 1007 55 10000 5.14 60 10:29 05.04.2021
4533 Clouds 31 1007 55 10000 5.14 60 09:48 05.04.2021
4534 Clouds 31 1007 55 10000 5.66 70 09:26 05.04.2021
4535 Clouds 32 1007 51 10000 6.17 60 08:45 05.04.2021
4536 Clouds 32 1007 48 10000 5.14 50 08:26 05.04.2021
4537 Clouds 31 1008 55 10000 4.63 20 07:38 05.04.2021
4538 Clouds 32 1008 55 10000 4.63 20 07:18 05.04.2021
4539 Clouds 30 1009 74 10000 5.66 60 03:42 05.04.2021
4540 Clouds 25 1008 94 10000 4.12 80 00:54 05.04.2021
4541 Clear 24 1008 94 10000 4.12 110 23:53 04.04.2021
4542 Clear 24 1008 94 10000 4.12 110 23:30 04.04.2021
4543 Clouds 24 1008 94 10000 4.12 110 22:56 04.04.2021
4544 Clouds 25 1008 88 10000 3.6 110 22:33 04.04.2021
4545 Clouds 24 1008 94 10000 2.06 100 21:48 04.04.2021
4546 Clouds 24 1007 94 10000 2.06 120 21:21 04.04.2021
4547 Clouds 24 1007 94 10000 2.06 120 20:42 04.04.2021
4548 Clouds 24 1007 94 10000 2.06 120 20:20 04.04.2021
4549 Clouds 24 1007 94 10000 2.06 120 20:20 04.04.2021
4550 Clouds 24 1008 94 10000 1.54 60 19:38 04.04.2021
4551 Clouds 24 1008 94 10000 1.54 60 19:19 04.04.2021
4552 Clouds 24 1008 94 10000 1.54 50 18:49 04.04.2021
4553 Clouds 24 1008 94 10000 1.54 10 18:24 04.04.2021
4554 Clouds 24 1008 94 10000 1.54 10 18:24 04.04.2021
4555 Clouds 24 1008 94 10000 0.51 70 17:56 04.04.2021
4556 Clouds 24 1009 94 10000 1.03 80 17:24 04.04.2021
4557 Clouds 24 1009 94 10000 1.54 90 16:54 04.04.2021
4558 Clouds 24 1009 94 10000 2.06 80 16:33 04.04.2021
4559 Clouds 23 1010 100 8000 1.54 60 15:46 04.04.2021
4560 Clouds 23 1010 100 5000 4.63 50 15:28 04.04.2021
4561 Clouds 24 1010 94 10000 4.12 40 14:38 04.04.2021
4562 Clouds 24 1010 94 10000 4.12 40 14:19 04.04.2021
4563 Clouds 24 1009 94 10000 3.09 100 13:26 04.04.2021
4564 Clouds 25 1008 88 10000 4.12 140 12:51 04.04.2021
4565 Clouds 25 1008 83 10000 4.63 150 12:27 04.04.2021
4566 Clouds 26 1008 78 10000 3.09 160 11:49 04.04.2021
4567 Clouds 27 1007 78 10000 2.06 40 11:30 04.04.2021
4568 Clouds 28 1006 74 10000 2.57 360 10:46 04.04.2021
4569 Clouds 29 1006 74 10000 2.57 360 10:20 04.04.2021
4570 Clouds 29 1006 74 10000 3.6 10 09:37 04.04.2021
4571 Clouds 29 1006 74 10000 3.6 10 09:18 04.04.2021
4572 Clouds 29 1006 79 10000 1.54 30 08:42 04.04.2021
4573 Clouds 29 1006 79 10000 1.54 30 08:24 04.04.2021
4574 Clouds 28 1007 78 10000 3.6 30 06:39 04.04.2021
4575 Clouds 28 1007 78 10000 5.14 20 05:43 04.04.2021
4576 Clouds 26 1008 94 10000 2.57 100 01:49 04.04.2021
4577 Clouds 25 1008 94 10000 2.06 80 00:44 04.04.2021
4578 Clouds 25 1007 94 10000 1.54 70 00:18 04.04.2021
4579 Clouds 24 1007 100 7000 6.17 40 23:39 03.04.2021
4580 Clouds 24 1007 94 5000 5.66 40 22:56 03.04.2021
4581 Clouds 25 1006 88 10000 6.17 70 22:24 03.04.2021
4582 Clouds 24 1006 88 10000 4.63 60 21:59 03.04.2021
4583 Clouds 25 1006 89 10000 1.54 90 21:39 03.04.2021
4584 Clouds 25 1006 89 10000 1.54 90 21:20 03.04.2021
4585 Clouds 26 1005 89 10000 2.06 50 20:38 03.04.2021
4586 Clouds 26 1005 89 10000 2.06 50 20:18 03.04.2021
4587 Clouds 26 1006 89 10000 2.06 80 19:43 03.04.2021
4588 Clouds 26 1006 89 10000 1.54 60 19:18 03.04.2021
4589 Clouds 26 1006 89 10000 1.54 90 18:44 03.04.2021
4590 Clouds 26 1006 89 10000 1.54 90 18:18 03.04.2021
4591 Clouds 27 1007 78 10000 2.57 30 17:39 03.04.2021
4592 Clouds 27 1007 78 10000 2.57 30 17:20 03.04.2021
4593 Clear 27 1008 78 10000 3.6 30 16:43 03.04.2021
4594 Clear 27 1008 78 10000 3.6 30 16:21 03.04.2021
4595 Clouds 27 1008 78 10000 2.57 10 15:41 03.04.2021
4596 Clouds 27 1008 78 10000 2.57 10 15:19 03.04.2021
4597 Clouds 27 1008 74 10000 2.06 10 14:42 03.04.2021
4598 Clouds 27 1008 74 10000 2.06 10 14:20 03.04.2021
4599 Clouds 27 1008 78 10000 2.57 30 13:46 03.04.2021
4600 Clouds 27 1007 78 10000 3.09 20 13:20 03.04.2021
4601 Clouds 28 1007 74 10000 3.09 30 12:47 03.04.2021
4602 Clouds 28 1007 74 10000 3.09 30 12:20 03.04.2021
4603 Clouds 29 1006 61 10000 2.06 70 11:35 03.04.2021
4604 Clouds 30 1005 51 10000 2.57 60 10:50 03.04.2021
4605 Clear 30 1005 48 10000 2.57 70 10:31 03.04.2021
4606 Clear 31 1005 42 10000 2.57 80 09:51 03.04.2021
4607 Clear 31 1004 40 10000 4.12 100 09:28 03.04.2021
4608 Clear 31 1004 40 10000 5.14 110 08:44 03.04.2021
4609 Clear 31 1004 37 10000 6.17 110 08:26 03.04.2021
4610 Clear 32 1004 37 10000 9.26 110 07:28 03.04.2021
4611 Clear 31 1005 40 10000 9.77 90 05:49 03.04.2021
4612 Clear 30 1008 45 10000 6.69 100 03:50 03.04.2021
4613 Clouds 28 1009 65 10000 4.12 80 02:49 03.04.2021
4614 Clouds 27 1009 74 10000 3.6 80 02:23 03.04.2021
4615 Clear 25 1008 83 10000 2.06 90 00:20 03.04.2021
4616 Clear 25 1008 83 10000 1.54 100 23:47 02.04.2021
4617 Clear 24 1007 83 10000 1.03 130 23:24 02.04.2021
4618 Clear 24 1007 88 10000 1.54 120 22:52 02.04.2021
4619 Rain 24 1007 83 10000 1.54 130 22:33 02.04.2021
4620 Clouds 24 1007 83 10000 2.06 110 21:46 02.04.2021
4621 Clouds 25 1007 83 10000 2.57 90 21:23 02.04.2021
4622 Clouds 25 1007 83 10000 2.57 110 20:48 02.04.2021
4623 Clouds 25 1007 83 10000 5.14 90 20:28 02.04.2021
4624 Clouds 25 1007 88 10000 5.66 110 19:57 02.04.2021
4625 Clouds 25 1007 78 10000 5.66 90 19:38 02.04.2021
4626 Clouds 26 1007 78 10000 5.66 90 19:20 02.04.2021
4627 Clouds 26 1008 83 10000 5.14 80 18:38 02.04.2021
4628 Clouds 26 1008 83 10000 5.14 80 18:20 02.04.2021
4629 Clouds 26 1009 89 10000 4.12 60 17:37 02.04.2021
4630 Clouds 27 1009 89 10000 4.12 50 16:48 02.04.2021
4631 Clouds 27 1009 89 10000 4.63 50 16:22 02.04.2021
4632 Clouds 27 1009 83 10000 2.57 30 15:33 02.04.2021
4633 Clouds 27 1009 89 10000 2.57 40 14:55 02.04.2021
4634 Clouds 27 1009 89 10000 3.6 30 14:29 02.04.2021
4635 Clouds 27 1008 83 10000 4.12 30 13:42 02.04.2021
4636 Clouds 27 1008 83 10000 4.12 30 13:20 02.04.2021
4637 Clear 27 1008 74 10000 4.63 20 12:41 02.04.2021
4638 Clear 27 1008 74 10000 4.63 20 12:41 02.04.2021
4639 Clear 28 1008 74 10000 4.63 20 12:20 02.04.2021
4640 Clear 28 1007 74 10000 3.6 30 11:54 02.04.2021
4641 Clear 29 1007 70 10000 2.57 20 11:20 02.04.2021
4642 Clear 29 1006 70 10000 3.6 30 10:46 02.04.2021
4643 Clear 29 1006 70 10000 3.6 30 10:28 02.04.2021
4644 Clouds 30 1006 66 10000 4.12 40 09:53 02.04.2021
4645 Clear 30 1006 66 10000 4.12 20 09:27 02.04.2021
4646 Clear 31 1006 51 10000 3.6 30 08:51 02.04.2021
4647 Clear 31 1006 48 10000 5.14 80 08:29 02.04.2021
4648 Clear 32 1006 45 10000 4.12 80 07:30 02.04.2021
4649 Clear 32 1006 45 10000 4.12 90 06:47 02.04.2021
4650 Clear 32 1008 45 10000 6.69 80 04:49 02.04.2021
4651 Clear 28 1008 69 10000 5.66 90 02:30 02.04.2021
4652 Clear 26 1008 83 10000 3.09 90 00:50 02.04.2021
4653 Clear 25 1008 88 10000 2.57 90 00:22 02.04.2021
4654 Clear 25 1007 88 10000 2.57 120 23:39 01.04.2021
4655 Rain 25 1007 88 10000 2.57 120 22:57 01.04.2021
4656 Clear 25 1007 88 10000 2.57 120 22:20 01.04.2021
4657 Clouds 25 1006 88 10000 3.09 130 21:50 01.04.2021
4658 Clouds 25 1006 88 10000 2.57 130 21:27 01.04.2021
4659 Rain 25 1006 88 10000 4.63 120 20:47 01.04.2021
4660 Clouds 25 1006 83 10000 4.12 110 20:25 01.04.2021
4661 Rain 25 1006 83 10000 4.63 100 19:56 01.04.2021
4662 Clouds 25 1007 83 10000 5.14 110 19:35 01.04.2021
4663 Clouds 26 1007 83 10000 7.2 100 18:46 01.04.2021
4664 Rain 26 1007 83 10000 7.72 90 18:19 01.04.2021
4665 Rain 26 1008 83 10000 5.14 100 17:53 01.04.2021
4666 Clouds 26 1008 83 10000 3.09 80 17:33 01.04.2021
4667 Clouds 27 1008 83 10000 3.09 70 16:53 01.04.2021
4668 Clouds 27 1008 83 10000 3.09 50 16:31 01.04.2021
4669 Clouds 27 1008 83 10000 3.6 50 15:48 01.04.2021
4670 Clouds 27 1008 78 10000 1.54 90 15:20 01.04.2021
4671 Clear 26 1008 83 10000 1.54 80 14:46 01.04.2021
4672 Clear 26 1008 83 10000 1.54 130 14:26 01.04.2021
4673 Clear 26 1007 83 10000 1.54 110 13:56 01.04.2021
4674 Clear 26 1007 83 10000 1.03 70 13:31 01.04.2021
4675 Clear 27 1007 83 10000 0.51 20 12:54 01.04.2021
4676 Clear 27 1007 83 10000 2.13 81 12:33 01.04.2021
4677 Clear 27 1007 83 10000 1.03 360 11:55 01.04.2021
4678 Clouds 27 1006 78 10000 0.51 360 11:37 01.04.2021
4679 Rain 28 1006 78 10000 0.51 360 11:18 01.04.2021
4680 Clouds 28 1006 65 10000 1.03 340 10:42 01.04.2021
4681 Rain 28 1006 65 10000 1.03 340 10:22 01.04.2021
4682 Clouds 29 1006 65 10000 1.54 50 09:31 01.04.2021
4683 Clouds 29 1006 61 10000 2.06 70 08:42 01.04.2021
4684 Clouds 29 1006 61 10000 2.06 70 08:24 01.04.2021
4685 Rain 29 1006 54 10000 2.57 80 07:21 01.04.2021
4686 Clouds 29 1006 54 10000 3.09 80 06:54 01.04.2021
4687 Clear 30 1007 54 10000 5.14 80 04:56 01.04.2021
4688 Clear 28 1008 65 10000 5.14 110 02:58 01.04.2021
4689 Clear 25 1006 83 10000 3.6 100 23:52 31.03.2021
4690 Clear 25 1006 83 10000 3.6 100 23:34 31.03.2021
4691 Clear 24 1006 83 10000 3.09 100 22:43 31.03.2021
4692 Clear 24 1005 94 10000 3.09 100 22:22 31.03.2021
4693 Clouds 24 1006 94 10000 2.57 100 21:48 31.03.2021
4694 Clouds 24 1006 94 10000 2.06 80 21:24 31.03.2021
4695 Clouds 24 1006 88 10000 2.57 100 20:59 31.03.2021
4696 Clouds 24 1006 88 10000 2.57 110 20:40 31.03.2021
4697 Clouds 24 1006 88 10000 2.57 110 20:19 31.03.2021
4698 Clouds 24 1006 88 10000 3.09 100 19:42 31.03.2021
4699 Clouds 24 1006 88 10000 3.09 100 19:20 31.03.2021
4700 Clouds 24 1006 88 10000 2.57 90 18:53 31.03.2021
4701 Clouds 24 1007 88 10000 3.09 90 18:34 31.03.2021
4702 Clouds 24 1007 88 10000 4.12 100 17:38 31.03.2021
4703 Clouds 24 1007 88 10000 4.12 100 17:19 31.03.2021
4704 Clouds 24 1007 88 10000 5.14 120 16:50 31.03.2021
4705 Clouds 23 1008 100 10000 6.69 110 16:31 31.03.2021
4706 Clouds 23 1009 94 10000 6.69 90 15:53 31.03.2021
4707 Clouds 23 1009 94 10000 8.23 120 15:20 31.03.2021
4708 Clouds 23 1009 94 2000 13.38 110 14:50 31.03.2021
4709 Clouds 26 1009 83 7000 11.83 120 14:25 31.03.2021
4710 Clouds 28 1007 74 10000 3.6 20 13:55 31.03.2021
4711 Clouds 29 1007 74 10000 3.09 10 13:23 31.03.2021
4712 Clouds 29 1006 70 10000 3.09 30 12:40 31.03.2021
4713 Rain 29 1006 70 10000 3.09 30 12:18 31.03.2021
4714 Clouds 29 1005 66 10000 3.6 30 11:23 31.03.2021
4715 Clouds 30 1005 66 10000 4.12 30 10:50 31.03.2021
4716 Clouds 31 1005 62 10000 4.12 30 10:28 31.03.2021
4717 Clouds 31 1004 58 10000 3.6 50 09:57 31.03.2021
4718 Clouds 31 1004 55 10000 5.14 80 09:33 31.03.2021
4719 Clear 32 1004 49 10000 5.14 80 08:48 31.03.2021
4720 Clouds 32 1004 51 10000 5.66 70 08:27 31.03.2021
4721 Clouds 32 1005 51 10000 7.72 80 07:37 31.03.2021
4722 Clouds 31 1006 55 10000 7.72 80 05:21 31.03.2021
4723 Clouds 29 1007 65 10000 6.17 90 02:42 31.03.2021
4724 Clouds 26 1007 83 10000 3.6 90 00:54 31.03.2021
4725 Clouds 26 1006 78 10000 2.06 100 00:26 31.03.2021
4726 Clouds 25 1006 88 10000 3.09 90 23:57 30.03.2021
4727 Clear 25 1006 78 10000 4.12 100 23:25 30.03.2021
4728 Clear 26 1006 78 10000 4.12 90 22:50 30.03.2021
4729 Clear 26 1006 78 10000 4.12 90 22:31 30.03.2021
4730 Clouds 26 1006 78 10000 4.12 90 21:59 30.03.2021
4731 Clouds 25 1005 78 10000 4.63 90 21:31 30.03.2021
4732 Clouds 26 1005 78 10000 5.14 90 20:59 30.03.2021
4733 Clouds 26 1005 78 10000 5.66 100 20:40 30.03.2021
4734 Clouds 26 1005 78 10000 5.66 100 20:20 30.03.2021
4735 Clouds 26 1006 78 10000 4.63 90 19:43 30.03.2021
4736 Clouds 26 1006 78 10000 4.63 110 18:58 30.03.2021
4737 Rain 26 1007 78 10000 3.6 100 18:30 30.03.2021
4738 Rain 26 1007 78 10000 3.6 110 17:48 30.03.2021
4739 Clouds 26 1007 83 10000 3.09 110 17:30 30.03.2021
4740 Clouds 26 1008 78 10000 4.12 90 16:47 30.03.2021
4741 Clouds 27 1008 78 10000 4.63 90 16:28 30.03.2021
4742 Clouds 27 1008 69 10000 6.69 70 15:39 30.03.2021
4743 Clouds 28 1008 69 10000 6.69 70 15:19 30.03.2021
4744 Clouds 28 1007 83 10000 3.09 60 14:45 30.03.2021
4745 Rain 28 1007 83 10000 3.6 50 14:21 30.03.2021
4746 Clear 29 1007 79 10000 3.6 40 13:49 30.03.2021
4747 Clouds 29 1007 79 10000 3.09 50 13:26 30.03.2021
4748 Clouds 29 1006 79 10000 3.09 50 12:42 30.03.2021
4749 Clouds 29 1006 79 10000 3.09 50 12:21 30.03.2021
4750 Clouds 29 1005 70 10000 4.12 40 11:47 30.03.2021
4751 Clouds 30 1005 62 10000 3.09 70 11:19 30.03.2021
4752 Clouds 31 1004 51 10000 3.6 70 10:42 30.03.2021
4753 Clouds 31 1004 51 10000 3.6 70 10:19 30.03.2021
4754 Clouds 32 1004 49 10000 6.69 80 09:41 30.03.2021
4755 Clouds 33 1004 49 10000 6.69 80 09:21 30.03.2021
4756 Clouds 33 1004 46 10000 5.66 90 08:43 30.03.2021
4757 Rain 33 1005 48 10000 7.2 100 07:56 30.03.2021
4758 Rain 33 1005 46 10000 7.2 100 07:31 30.03.2021
4759 Clouds 33 1006 46 10000 8.75 100 06:30 30.03.2021
4760 Clouds 33 1007 43 10000 8.23 100 05:25 30.03.2021
4761 Clear 26 1007 78 10000 3.09 120 01:57 30.03.2021
4762 Clear 24 1007 88 10000 2.06 130 23:55 29.03.2021
4763 Clear 24 1007 88 10000 1.54 140 23:22 29.03.2021
4764 Clear 24 1007 88 10000 1.54 120 22:43 29.03.2021
4765 Clouds 24 1006 88 10000 3.09 140 21:57 29.03.2021
4766 Clouds 24 1006 88 10000 3.6 130 21:35 29.03.2021
4767 Clouds 23 1006 94 10000 2.57 140 20:51 29.03.2021
4768 Clouds 23 1006 94 10000 2.57 140 20:33 29.03.2021
4769 Clouds 24 1006 94 10000 3.09 150 19:56 29.03.2021
4770 Clouds 24 1006 94 10000 2.57 130 19:32 29.03.2021
4771 Clouds 24 1007 94 10000 2.06 150 18:57 29.03.2021
4772 Clouds 24 1007 94 10000 2.57 110 18:38 29.03.2021
4773 Clouds 24 1007 94 10000 2.57 110 18:19 29.03.2021
4774 Clouds 24 1008 94 10000 2.06 100 17:36 29.03.2021
4775 Clear 25 1008 88 10000 2.06 100 16:54 29.03.2021
4776 Clear 25 1009 83 10000 3.09 90 16:34 29.03.2021
4777 Clear 25 1009 83 10000 3.09 100 15:43 29.03.2021
4778 Clear 25 1009 88 10000 3.6 120 15:24 29.03.2021
4779 Clear 25 1009 83 10000 4.12 120 14:48 29.03.2021
4780 Clouds 25 1009 83 10000 4.63 120 14:23 29.03.2021
4781 Clouds 25 1009 89 10000 4.12 110 13:45 29.03.2021
4782 Clear 25 1009 94 10000 4.12 110 13:19 29.03.2021
4783 Clear 25 1008 88 10000 4.63 140 12:49 29.03.2021
4784 Clouds 25 1007 88 10000 4.12 90 11:49 29.03.2021
4785 Clouds 25 1007 88 10000 4.12 90 11:30 29.03.2021
4786 Clouds 25 1007 88 10000 5.14 110 10:52 29.03.2021
4787 Clouds 24 1006 94 10000 6.17 110 10:31 29.03.2021
4788 Clouds 24 1007 94 10000 8.75 110 09:34 29.03.2021
4789 Clouds 24 1007 94 800 12.86 100 08:51 29.03.2021
4790 Clouds 28 1006 89 3000 10.8 110 08:27 29.03.2021
4791 Rain 33 1006 55 10000 9.26 80 07:22 29.03.2021
4792 Rain 33 1007 52 10000 9.26 90 06:26 29.03.2021
4793 Clouds 31 1009 62 10000 3.6 130 03:35 29.03.2021
4794 Clear 27 1009 74 10000 3.09 120 00:55 29.03.2021
4795 Clear 26 1008 78 10000 2.57 110 00:20 29.03.2021
4796 Clear 25 1008 83 10000 2.57 130 23:30 28.03.2021
4797 Clear 25 1008 83 10000 3.6 130 22:54 28.03.2021
4798 Clear 25 1008 88 10000 3.6 140 22:35 28.03.2021
4799 Clouds 25 1008 88 10000 3.6 140 21:59 28.03.2021
4800 Clouds 25 1007 88 10000 2.57 140 21:40 28.03.2021
4801 Clouds 25 1007 88 10000 2.57 140 21:40 28.03.2021
4802 Clouds 25 1007 88 10000 2.57 140 21:22 28.03.2021
4803 Clouds 25 1007 88 10000 3.09 140 20:47 28.03.2021
4804 Clouds 26 1007 83 10000 3.6 140 20:29 28.03.2021
4805 Clouds 26 1007 83 10000 2.57 130 19:43 28.03.2021
4806 Clouds 26 1007 83 10000 2.06 130 19:22 28.03.2021
4807 Clouds 26 1007 83 10000 1.54 150 18:58 28.03.2021
4808 Clouds 25 1007 83 10000 1.03 170 18:26 28.03.2021
4809 Clouds 26 1008 89 10000 4.6 97 17:47 28.03.2021
4810 Clouds 26 1008 83 10000 1.54 150 17:23 28.03.2021
4811 Clear 26 1009 83 10000 2.06 150 16:46 28.03.2021
4812 Clear 26 1009 83 10000 3.09 150 16:23 28.03.2021
4813 Clear 27 1009 78 10000 3.09 130 15:26 28.03.2021
4814 Clear 27 1009 78 10000 4.12 110 14:52 28.03.2021
4815 Clear 27 1009 74 10000 3.6 110 14:31 28.03.2021
4816 Clear 28 1008 74 10000 4.12 90 13:46 28.03.2021
4817 Clear 28 1008 69 10000 5.14 90 13:21 28.03.2021
4818 Clear 28 1007 65 10000 6.69 100 12:50 28.03.2021
4819 Clouds 29 1007 70 10000 5.14 90 12:31 28.03.2021
4820 Clouds 29 1007 70 10000 4.63 80 11:43 28.03.2021
4821 Clouds 29 1006 65 10000 6.17 60 11:24 28.03.2021
4822 Clouds 31 1006 62 10000 4.63 70 10:44 28.03.2021
4823 Clouds 31 1005 66 10000 5.14 80 10:24 28.03.2021
4824 Clouds 32 1005 62 10000 3.6 70 09:46 28.03.2021
4825 Clouds 32 1005 62 10000 5.14 90 09:24 28.03.2021
4826 Clouds 32 1005 62 10000 5.14 70 08:45 28.03.2021
4827 Clouds 33 1005 55 10000 6.69 90 07:49 28.03.2021
4828 Clouds 33 1006 52 10000 8.23 90 06:40 28.03.2021
4829 Clouds 32 1008 55 10000 6.17 80 04:18 28.03.2021
4830 Clouds 29 1008 65 10000 4.12 130 01:22 28.03.2021
4831 Clear 27 1008 89 10000 3.09 160 00:20 28.03.2021
4832 Clear 25 1008 94 10000 2.57 160 23:40 27.03.2021
4833 Clear 25 1007 94 10000 1.54 170 22:58 27.03.2021
4834 Clear 24 1007 94 10000 1.03 130 22:36 27.03.2021
4835 Clear 24 1007 94 10000 2.06 160 21:58 27.03.2021
4836 Clear 24 1007 88 10000 1.54 160 21:37 27.03.2021
4837 Clear 24 1007 88 10000 1.54 160 21:19 27.03.2021
4838 Clouds 24 1007 88 10000 1.54 170 20:38 27.03.2021
4839 Clouds 24 1007 88 10000 1.54 170 20:19 27.03.2021
4840 Clouds 24 1007 88 10000 1.03 160 19:42 27.03.2021
4841 Clouds 24 1007 88 10000 1.03 160 19:23 27.03.2021
4842 Clouds 24 1007 88 10000 1.54 170 18:48 27.03.2021
4843 Clouds 25 1007 83 10000 2.06 170 18:28 27.03.2021
4844 Clouds 25 1008 83 10000 2.06 170 17:54 27.03.2021
4845 Clouds 25 1008 78 10000 1.54 160 17:24 27.03.2021
4846 Clouds 25 1007 83 10000 2.06 140 16:49 27.03.2021
4847 Clouds 25 1008 88 10000 1.54 130 16:29 27.03.2021
4848 Clear 25 1008 88 10000 2.06 160 15:50 27.03.2021
4849 Clear 25 1008 83 10000 1.54 170 15:24 27.03.2021
4850 Clear 25 1008 83 10000 2.57 160 14:49 27.03.2021
4851 Clear 25 1007 89 10000 2.57 230 13:51 27.03.2021
4852 Clear 25 1007 89 10000 1.03 260 13:24 27.03.2021
4853 Clear 25 1008 89 10000 1.54 160 12:55 27.03.2021
4854 Clouds 25 1008 94 10000 2.06 110 12:24 27.03.2021
4855 Clouds 25 1007 88 10000 2.06 10 11:42 27.03.2021
4856 Clouds 25 1007 88 10000 2.06 10 11:20 27.03.2021
4857 Clouds 26 1007 78 10000 3.6 40 10:45 27.03.2021
4858 Clouds 27 1007 89 10000 2.97 60 10:22 27.03.2021
4859 Clouds 28 1006 83 10000 2.06 290 09:28 27.03.2021
4860 Clouds 28 1006 78 10000 2.57 360 08:43 27.03.2021
4861 Clouds 28 1006 78 10000 2.57 360 08:21 27.03.2021
4862 Clouds 30 1005 78 10000 1.54 10 07:34 27.03.2021
4863 Clouds 29 1006 89 10000 6.17 170 06:43 27.03.2021
4864 Clouds 32 1007 62 10000 2.06 20 04:57 27.03.2021
4865 Clouds 32 1007 62 10000 3.6 100 04:39 27.03.2021
4866 Clouds 28 1008 83 10000 2.57 120 00:49 27.03.2021
4867 Clouds 27 1008 83 10000 2.57 120 00:29 27.03.2021
4868 Clouds 25 1008 94 10000 3.09 140 23:54 26.03.2021
4869 Clouds 24 1007 94 10000 4.12 140 22:56 26.03.2021
4870 Clear 24 1007 94 10000 3.6 150 22:34 26.03.2021
4871 Clear 24 1007 94 10000 3.09 150 21:25 26.03.2021
4872 Clouds 25 1006 88 10000 3.09 90 20:59 26.03.2021
4873 Clouds 24 1006 94 10000 2.57 90 20:33 26.03.2021
4874 Clouds 24 1006 94 10000 4.12 50 19:57 26.03.2021
4875 Clouds 24 1007 94 10000 4.63 50 19:39 26.03.2021
4876 Clouds 24 1007 94 10000 4.63 50 19:20 26.03.2021
4877 Clouds 24 1007 94 10000 1.54 70 18:42 26.03.2021
4878 Clouds 24 1007 94 10000 1.54 70 18:20 26.03.2021
4879 Clouds 24 1008 94 10000 1.03 60 17:46 26.03.2021
4880 Clouds 24 1009 94 10000 2.57 90 16:56 26.03.2021
4881 Clouds 24 1009 94 10000 4.62 72 16:33 26.03.2021
4882 Clouds 24 1010 100 10000 2.06 80 15:53 26.03.2021
4883 Clouds 24 1010 94 10000 3.6 90 15:21 26.03.2021
4884 Clouds 25 1009 94 5000 6.17 130 14:30 26.03.2021
4885 Clear 26 1008 89 10000 0.51 170 13:38 26.03.2021
4886 Clouds 26 1007 89 10000 1.54 100 12:54 26.03.2021
4887 Clouds 26 1007 94 10000 2.99 96 12:32 26.03.2021
4888 Clear 26 1006 89 10000 1.03 170 11:35 26.03.2021
4889 Clear 26 1006 89 10000 2.28 84 10:55 26.03.2021
4890 Clouds 26 1006 94 10000 2.57 280 10:35 26.03.2021
4891 Clouds 26 1006 94 8000 2.57 190 09:45 26.03.2021
4892 Clouds 26 1006 94 8000 2.57 190 09:22 26.03.2021
4893 Clouds 28 1005 83 10000 6.17 110 08:42 26.03.2021
4894 Clouds 31 1005 62 10000 4.12 30 08:22 26.03.2021
4895 Clouds 32 1004 62 10000 2.57 110 07:24 26.03.2021
4896 Clouds 32 1005 58 10000 4.12 110 06:58 26.03.2021
4897 Clouds 33 1005 58 10000 3.6 100 06:35 26.03.2021
4898 Clouds 33 1006 55 10000 4.12 110 05:31 26.03.2021
4899 Clouds 29 1008 70 10000 4.63 140 02:22 26.03.2021
4900 Clouds 27 1008 78 10000 3.6 150 00:32 26.03.2021
4901 Clouds 26 1009 94 10000 4.12 140 23:44 25.03.2021
4902 Clouds 26 1008 89 10000 3.09 140 23:20 25.03.2021
4903 Clouds 25 1007 89 10000 2.06 130 22:37 25.03.2021
4904 Clouds 25 1007 89 10000 2.57 150 21:53 25.03.2021
4905 Clouds 26 1007 94 10000 1.54 140 21:34 25.03.2021
4906 Clouds 26 1006 94 10000 1.03 130 20:45 25.03.2021
4907 Clouds 26 1006 94 10000 2.06 180 20:26 25.03.2021
4908 Clouds 26 1006 89 10000 2.06 190 19:49 25.03.2021
4909 Clouds 26 1006 89 10000 2.06 190 19:49 25.03.2021
4910 Clouds 26 1006 89 10000 2.06 190 19:49 25.03.2021
4911 Clouds 26 1006 89 10000 1.03 200 19:31 25.03.2021
4912 Clouds 26 1006 83 10000 2.06 210 18:51 25.03.2021
4913 Clouds 26 1007 83 10000 2.06 210 18:28 25.03.2021
4914 Clouds 27 1007 83 10000 1.54 210 17:57 25.03.2021
4915 Clouds 27 1007 83 10000 1.54 220 17:37 25.03.2021
4916 Clouds 27 1008 83 10000 1.54 250 16:56 25.03.2021
4917 Clouds 27 1008 83 10000 1.54 230 16:32 25.03.2021
4918 Clouds 27 1008 83 10000 2.06 240 15:46 25.03.2021
4919 Clouds 27 1008 83 10000 2.06 240 15:24 25.03.2021
4920 Clear 27 1008 83 10000 2.57 240 14:48 25.03.2021
4921 Clear 27 1008 83 10000 2.57 240 14:29 25.03.2021
4922 Clear 27 1008 83 10000 2.57 240 13:25 25.03.2021
4923 Clear 27 1008 83 10000 2.57 250 12:46 25.03.2021
4924 Clear 27 1008 83 10000 2.57 250 12:22 25.03.2021
4925 Clouds 27 1007 83 10000 2.06 240 11:53 25.03.2021
4926 Clouds 27 1007 78 10000 2.06 230 11:33 25.03.2021
4927 Clouds 27 1006 78 10000 2.06 250 10:58 25.03.2021
4928 Clouds 27 1006 78 10000 2.57 240 10:39 25.03.2021
4929 Clouds 29 1005 74 10000 2.57 250 10:18 25.03.2021
4930 Clouds 29 1005 74 10000 3.09 280 09:43 25.03.2021
4931 Clouds 29 1005 74 10000 3.09 280 09:21 25.03.2021
4932 Clouds 29 1005 74 10000 2.06 290 08:30 25.03.2021
4933 Clouds 29 1006 78 10000 3.6 240 07:26 25.03.2021
4934 Clouds 29 1007 74 10000 1.03 220 06:43 25.03.2021
4935 Clouds 28 1007 74 10000 1.03 220 06:22 25.03.2021
4936 Clouds 26 1008 83 10000 3.09 150 04:50 25.03.2021
4937 Clouds 25 1009 88 10000 2.05 223 01:20 25.03.2021
4938 Clouds 25 1010 88 10000 2.06 140 00:19 25.03.2021
4939 Clouds 26 1008 89 10000 3.09 210 23:39 24.03.2021
4940 Clouds 27 1008 89 10000 3.09 210 23:18 24.03.2021
4941 Clouds 28 1007 83 10000 1.54 220 22:39 24.03.2021
4942 Clouds 27 1006 83 10000 2.57 280 21:51 24.03.2021
4943 Clouds 27 1006 83 10000 2.57 280 21:51 24.03.2021
4944 Clouds 27 1006 83 10000 2.06 260 21:32 24.03.2021
4945 Clouds 28 1006 83 10000 2.06 250 20:56 24.03.2021
4946 Clouds 27 1006 83 10000 1.54 260 20:38 24.03.2021
4947 Clouds 28 1006 83 10000 1.54 260 20:18 24.03.2021
4948 Clouds 27 1006 89 10000 1.54 260 19:33 24.03.2021
4949 Clouds 27 1006 89 10000 1.54 260 19:33 24.03.2021
4950 Clouds 27 1006 83 10000 1.54 240 18:53 24.03.2021
4951 Clouds 27 1006 83 10000 2.06 280 18:24 24.03.2021
4952 Clouds 27 1006 83 10000 1.54 250 17:53 24.03.2021
4953 Clouds 27 1007 83 10000 1.54 240 17:32 24.03.2021
4954 Clouds 27 1007 89 10000 1.54 240 16:56 24.03.2021
4955 Clouds 28 1007 89 10000 2.06 230 16:38 24.03.2021
4956 Clouds 28 1007 89 10000 2.06 230 16:18 24.03.2021
4957 Clouds 28 1008 79 10000 2.57 240 15:33 24.03.2021
4958 Clouds 29 1008 79 10000 2.57 230 14:59 24.03.2021
4959 Clouds 29 1008 79 10000 2.57 230 14:29 24.03.2021
4960 Clouds 29 1007 79 10000 3.09 240 13:58 24.03.2021
4961 Clouds 29 1007 79 10000 3.09 240 13:28 24.03.2021
4962 Clouds 29 1006 79 10000 3.09 250 12:50 24.03.2021
4963 Clouds 29 1006 79 10000 3.09 250 12:29 24.03.2021
4964 Clouds 29 1006 79 10000 2.57 260 11:54 24.03.2021
4965 Clouds 29 1006 74 10000 3.6 270 11:36 24.03.2021
4966 Clouds 29 1005 74 10000 4.12 260 10:49 24.03.2021
4967 Clouds 29 1005 70 10000 4.12 270 10:28 24.03.2021
4968 Clouds 30 1005 70 10000 4.63 270 09:54 24.03.2021
4969 Clouds 31 1005 66 10000 4.12 280 09:29 24.03.2021
4970 Clouds 31 1005 66 10000 4.63 290 08:57 24.03.2021
4971 Rain 32 1004 62 10000 6.69 300 08:34 24.03.2021
4972 Clouds 32 1005 62 10000 6.69 290 07:48 24.03.2021
4973 Clouds 33 1005 62 10000 6.69 280 07:18 24.03.2021
4974 Clouds 32 1006 70 10000 6.69 300 06:41 24.03.2021
4975 Clouds 31 1010 74 10000 2.06 240 01:26 24.03.2021
4976 Clouds 29 1009 84 10000 2.06 320 00:40 24.03.2021
4977 Clouds 28 1009 89 10000 1.03 360 23:46 23.03.2021
4978 Clouds 27 1008 89 10000 1.03 360 23:19 23.03.2021
4979 Rain 26 1008 94 10000 2.03 204 22:47 23.03.2021
4980 Clouds 26 1008 94 10000 0.51 10 22:24 23.03.2021
4981 Clouds 26 1007 89 10000 2.2 219 21:45 23.03.2021
4982 Clouds 26 1007 83 10000 1.54 340 21:25 23.03.2021
4983 Clouds 26 1007 83 10000 1.54 290 20:45 23.03.2021
4984 Clouds 26 1007 89 10000 3.6 330 20:25 23.03.2021
4985 Clouds 27 1007 94 10000 0.51 50 19:47 23.03.2021
4986 Clouds 26 1007 94 10000 0.51 70 19:26 23.03.2021
4987 Clouds 27 1007 94 10000 1.54 70 18:44 23.03.2021
4988 Clouds 27 1007 94 10000 1.03 150 18:22 23.03.2021
4989 Clouds 27 1008 89 10000 1.03 170 17:46 23.03.2021
4990 Clouds 27 1008 89 10000 1.03 180 17:21 23.03.2021
4991 Clouds 27 1008 89 10000 1.03 190 16:42 23.03.2021
4992 Clouds 27 1008 89 10000 1.03 190 16:19 23.03.2021
4993 Clouds 28 1008 89 10000 1.54 200 15:40 23.03.2021
4994 Clouds 27 1008 79 10000 1.54 210 14:55 23.03.2021
4995 Clouds 27 1008 89 10000 1.03 190 14:21 23.03.2021
4996 Clouds 28 1008 79 10000 1.54 200 13:55 23.03.2021
4997 Clouds 28 1008 79 10000 2.06 230 13:37 23.03.2021
4998 Clouds 28 1008 79 10000 2.06 230 13:18 23.03.2021
4999 Clouds 29 1007 79 10000 2.06 260 12:41 23.03.2021
5000 Clouds 29 1007 79 10000 2.06 260 12:20 23.03.2021
5001 Clouds 29 1006 79 10000 3.09 270 11:44 23.03.2021
5002 Clouds 29 1006 79 10000 2.06 280 10:44 23.03.2021
5003 Clouds 29 1006 79 10000 2.57 290 10:25 23.03.2021
5004 Clouds 30 1006 79 10000 2.06 290 09:58 23.03.2021
5005 Clouds 30 1006 79 10000 3.09 280 09:38 23.03.2021
5006 Clouds 30 1006 79 10000 3.09 280 09:19 23.03.2021
5007 Clouds 31 1006 70 10000 3.09 280 08:40 23.03.2021
5008 Clouds 31 1006 70 10000 3.09 280 08:22 23.03.2021
5009 Clouds 29 1007 74 10000 3.6 270 07:28 23.03.2021
5010 Clouds 29 1007 79 2000 3.6 260 06:59 23.03.2021
5011 Clouds 30 1007 74 10000 5.14 260 06:26 23.03.2021
5012 Clouds 31 1009 66 10000 2.06 360 03:22 23.03.2021
5013 Clouds 29 1010 83 8000 6.17 20 02:18 23.03.2021
5014 Clouds 29 1010 83 8000 6.17 20 02:18 23.03.2021
5015 Clouds 28 1009 89 10000 1.54 140 23:43 22.03.2021
5016 Clouds 26 1008 94 10000 1.03 220 22:56 22.03.2021
5017 Clouds 26 1008 100 10000 1.03 220 22:37 22.03.2021
5018 Clouds 26 1008 100 10000 1.03 220 22:37 22.03.2021
5019 Clouds 26 1008 100 10000 1.03 220 22:18 22.03.2021
5020 Clouds 26 1008 94 10000 0.51 220 21:40 22.03.2021
5021 Clouds 26 1008 94 10000 0.51 220 21:40 22.03.2021
5022 Clouds 26 1008 94 10000 0.51 220 21:21 22.03.2021
5023 Clouds 26 1007 100 10000 1.03 230 20:41 22.03.2021
5024 Clouds 26 1007 100 10000 1.03 230 20:21 22.03.2021
5025 Clouds 26 1008 94 10000 1.54 220 19:53 22.03.2021
5026 Clouds 26 1008 94 10000 1.03 230 19:31 22.03.2021
5027 Clouds 26 1008 94 9000 1.54 230 18:47 22.03.2021
5028 Clouds 26 1008 100 10000 1.54 250 18:29 22.03.2021
5029 Clouds 27 1008 94 10000 1.03 290 17:59 22.03.2021
5030 Clouds 26 1009 100 10000 1.54 350 17:41 22.03.2021
5031 Clouds 26 1009 100 10000 1.54 350 17:19 22.03.2021
5032 Clouds 27 1009 94 10000 1.03 330 16:44 22.03.2021
5033 Clouds 27 1009 94 10000 1.54 360 16:18 22.03.2021
5034 Clouds 27 1010 94 10000 0.51 50 15:38 22.03.2021
5035 Clouds 27 1010 94 10000 0.51 50 15:18 22.03.2021
5036 Clouds 26 1010 94 10000 0.51 50 14:51 22.03.2021
5037 Clouds 27 1009 94 10000 1.03 70 14:32 22.03.2021
5038 Clouds 27 1009 94 10000 1.03 100 13:47 22.03.2021
5039 Clouds 27 1009 94 10000 1.03 100 13:26 22.03.2021
5040 Clouds 27 1009 94 10000 1.54 100 12:54 22.03.2021
5041 Clouds 27 1009 94 10000 1.54 100 12:24 22.03.2021
5042 Clouds 28 1008 89 5000 2.06 230 11:49 22.03.2021
5043 Clouds 28 1008 89 5000 2.06 230 11:26 22.03.2021
5044 Clouds 30 1007 74 10000 1.54 280 10:44 22.03.2021
5045 Clouds 30 1007 70 10000 2.06 280 10:24 22.03.2021
5046 Clouds 30 1007 70 10000 2.06 280 09:46 22.03.2021
5047 Clouds 30 1007 74 10000 3.09 280 09:26 22.03.2021
5048 Clouds 31 1007 66 10000 3.6 300 08:45 22.03.2021
5049 Clouds 31 1007 62 10000 2.57 290 08:26 22.03.2021
5050 Clouds 31 1006 62 10000 2.57 300 07:47 22.03.2021
5051 Clouds 32 1006 62 10000 4.12 300 06:59 22.03.2021
5052 Clouds 32 1006 62 10000 4.63 310 06:36 22.03.2021
5053 Clouds 32 1009 66 10000 3.6 330 02:47 22.03.2021
5054 Clouds 29 1008 84 10000 1.03 260 00:33 22.03.2021
5055 Clouds 28 1008 89 10000 2.63 7 23:54 21.03.2021
5056 Clouds 27 1008 89 10000 1.03 300 23:20 21.03.2021
5057 Clouds 26 1008 94 10000 1.03 300 22:56 21.03.2021
5058 Clouds 27 1008 89 10000 1.54 310 22:29 21.03.2021
5059 Clouds 27 1007 83 10000 3.09 320 21:41 21.03.2021
5060 Clouds 27 1007 83 10000 3.09 320 21:23 21.03.2021
5061 Clouds 28 1007 83 10000 3.09 320 20:46 21.03.2021
5062 Clouds 28 1006 83 10000 2.57 320 20:27 21.03.2021
5063 Clouds 27 1006 89 10000 2.57 330 19:57 21.03.2021
5064 Clouds 28 1006 83 10000 2.06 330 19:23 21.03.2021
5065 Clouds 27 1007 94 10000 2.57 330 18:55 21.03.2021
5066 Clouds 27 1007 94 10000 1.54 340 18:31 21.03.2021
5067 Rain 27 1007 94 10000 0.51 90 17:54 21.03.2021
5068 Clouds 27 1007 89 10000 1.54 30 17:36 21.03.2021
5069 Clouds 27 1007 89 10000 1.54 30 17:18 21.03.2021
5070 Clouds 27 1008 89 10000 0.51 320 16:41 21.03.2021
5071 Clouds 27 1008 89 10000 0.51 320 16:22 21.03.2021
5072 Clouds 27 1008 89 10000 1.03 40 15:42 21.03.2021
5073 Clouds 27 1008 89 10000 1.54 60 15:20 21.03.2021
5074 Clouds 27 1008 89 10000 0.51 70 14:46 21.03.2021
5075 Clouds 28 1008 83 10000 1.54 70 14:27 21.03.2021
5076 Clouds 28 1008 83 10000 0.51 10 13:55 21.03.2021
5077 Clouds 28 1008 83 10000 3.55 354 13:33 21.03.2021
5078 Clouds 28 1008 83 10000 1.54 60 12:42 21.03.2021
5079 Clouds 28 1008 83 10000 1.54 60 12:24 21.03.2021
5080 Clear 29 1006 74 10000 2.57 20 11:41 21.03.2021
5081 Clear 29 1006 74 10000 2.57 20 11:20 21.03.2021
5082 Clouds 29 1006 70 10000 1.54 330 10:44 21.03.2021
5083 Clouds 29 1006 70 10000 3.09 320 10:25 21.03.2021
5084 Clouds 30 1006 70 10000 3.6 350 09:47 21.03.2021
5085 Clouds 31 1006 66 10000 4.63 310 09:29 21.03.2021
5086 Clouds 31 1005 66 10000 5.66 310 08:54 21.03.2021
5087 Clouds 32 1005 66 10000 4.63 330 08:28 21.03.2021
5088 Clouds 32 1005 55 10000 4.12 320 07:41 21.03.2021
5089 Clouds 32 1005 58 10000 3.6 340 07:21 21.03.2021
5090 Clouds 32 1006 62 10000 3.6 350 05:59 21.03.2021
5091 Rain 31 1008 74 10000 4.63 350 02:46 21.03.2021
5092 Rain 29 1007 74 10000 3.6 10 00:55 21.03.2021
5093 Clouds 29 1007 74 10000 3.6 10 00:36 21.03.2021
5094 Clouds 29 1007 74 10000 3.6 10 00:18 21.03.2021
5095 Clouds 27 1006 94 10000 1.54 360 23:37 20.03.2021
5096 Clouds 25 1005 94 10000 1.03 10 22:57 20.03.2021
5097 Clouds 25 1005 94 10000 1.54 50 22:24 20.03.2021
5098 Clouds 25 1005 94 10000 1.03 70 21:48 20.03.2021
5099 Clear 25 1004 100 10000 1.03 60 21:25 20.03.2021
5100 Clouds 25 1004 100 10000 2.06 60 20:49 20.03.2021
5101 Clouds 25 1004 100 10000 2.06 50 20:24 20.03.2021
5102 Clouds 25 1004 100 10000 1.03 40 19:52 20.03.2021
5103 Clouds 25 1004 100 10000 1.03 360 19:29 20.03.2021
5104 Clouds 26 1004 94 10000 2.76 5 18:52 20.03.2021
5105 Clouds 26 1005 94 10000 1.03 270 18:28 20.03.2021
5106 Clouds 26 1005 94 10000 0.51 280 17:58 20.03.2021
5107 Clouds 26 1006 94 10000 2.7 4 17:40 20.03.2021
5108 Clouds 26 1006 94 10000 2.23 360 17:20 20.03.2021
5109 Clouds 26 1006 89 10000 1.03 300 16:39 20.03.2021
5110 Clouds 26 1006 89 10000 1.03 300 16:18 20.03.2021
5111 Clouds 27 1006 83 10000 1.03 290 15:42 20.03.2021
5112 Clouds 27 1006 83 10000 1.03 290 15:24 20.03.2021
5113 Clouds 27 1006 89 10000 2.57 310 14:40 20.03.2021
5114 Clouds 28 1006 89 10000 2.57 310 14:19 20.03.2021
5115 Clouds 28 1006 83 10000 2.06 330 13:31 20.03.2021
5116 Clouds 28 1006 83 10000 2.57 350 12:41 20.03.2021
5117 Clouds 28 1006 83 10000 2.57 350 12:23 20.03.2021
5118 Clouds 28 1005 83 10000 1.54 330 11:43 20.03.2021
5119 Clouds 28 1005 83 10000 1.54 350 11:22 20.03.2021
5120 Clouds 29 1005 79 10000 2.57 350 10:46 20.03.2021
5121 Clouds 29 1004 74 10000 2.57 340 10:24 20.03.2021
5122 Clouds 30 1004 66 10000 3.6 340 09:48 20.03.2021
5123 Clouds 30 1004 66 10000 3.09 340 09:23 20.03.2021
5124 Clouds 30 1003 62 10000 2.57 340 08:53 20.03.2021
5125 Clouds 31 1003 66 10000 3.09 340 08:27 20.03.2021
5126 Clouds 31 1003 62 10000 1.54 290 07:49 20.03.2021
5127 Clouds 31 1003 62 10000 1.54 290 07:29 20.03.2021
5128 Clouds 30 1004 79 10000 2.57 100 06:41 20.03.2021
5129 Clouds 29 1005 83 10000 2.06 120 05:29 20.03.2021
5130 Clouds 30 1006 74 10000 2.57 50 03:45 20.03.2021
5131 Clouds 27 1007 94 7000 2.57 130 01:43 20.03.2021
5132 Clouds 26 1006 89 10000 3.09 130 23:48 19.03.2021
5133 Clouds 26 1006 89 10000 3.09 130 23:48 19.03.2021
5134 Clouds 26 1006 94 10000 2.57 130 23:21 19.03.2021
5135 Clouds 25 1006 94 10000 2.57 140 22:45 19.03.2021
5136 Rain 25 1005 94 10000 1.54 130 22:25 19.03.2021
5137 Clouds 25 1005 94 10000 1.54 120 21:51 19.03.2021
5138 Clouds 26 1005 89 10000 1.54 110 21:21 19.03.2021
5139 Clouds 26 1005 89 10000 1.03 240 20:46 19.03.2021
5140 Clouds 26 1005 83 10000 2.06 270 20:27 19.03.2021
5141 Clouds 26 1005 83 10000 2.06 270 20:27 19.03.2021
5142 Rain 26 1005 83 10000 2.57 270 19:52 19.03.2021
5143 Clouds 27 1005 83 10000 4.12 270 19:25 19.03.2021
5144 Clouds 26 1005 89 10000 2.57 300 18:58 19.03.2021
5145 Clouds 26 1005 94 10000 1.54 310 18:36 19.03.2021
5146 Clouds 25 1005 94 10000 1.54 310 18:18 19.03.2021
5147 Clouds 25 1006 94 10000 2.88 284 17:48 19.03.2021
5148 Clouds 25 1006 100 10000 2.77 287 17:23 19.03.2021
5149 Clouds 26 1007 94 10000 2.77 287 16:44 19.03.2021
5150 Clouds 26 1007 94 10000 2.5 293 16:26 19.03.2021
5151 Clouds 26 1007 89 10000 0.51 360 15:34 19.03.2021
5152 Clouds 26 1007 94 10000 2.23 305 14:56 19.03.2021
5153 Clouds 26 1007 94 10000 2.23 305 14:35 19.03.2021
5154 Clouds 26 1007 94 10000 0.51 50 13:59 19.03.2021
5155 Clouds 26 1007 94 10000 1.03 10 13:24 19.03.2021
5156 Clouds 26 1006 94 10000 1.54 10 12:48 19.03.2021
5157 Clouds 27 1006 89 10000 1.03 340 12:30 19.03.2021
5158 Clouds 27 1006 78 10000 2.57 320 11:39 19.03.2021
5159 Clouds 28 1005 78 10000 2.57 340 10:53 19.03.2021
5160 Clouds 29 1004 70 10000 3.6 350 10:27 19.03.2021
5161 Clouds 29 1004 70 10000 4.63 350 09:48 19.03.2021
5162 Clouds 30 1004 66 10000 4.12 10 09:29 19.03.2021
5163 Clouds 30 1004 66 10000 4.63 360 08:54 19.03.2021
5164 Clouds 31 1004 66 10000 5.14 30 08:32 19.03.2021
5165 Clouds 30 1004 70 10000 5.66 20 07:52 19.03.2021
5166 Clouds 29 1004 83 10000 1.54 100 07:34 19.03.2021
5167 Clouds 28 1005 89 10000 4.63 130 06:36 19.03.2021
5168 Clouds 29 1008 74 10000 5.14 70 02:45 19.03.2021
5169 Clouds 26 1008 83 10000 3.09 130 00:26 19.03.2021
5170 Clouds 25 1007 88 10000 3.6 110 23:30 18.03.2021
5171 Clouds 25 1007 94 10000 1.54 120 22:58 18.03.2021
5172 Clouds 25 1007 94 10000 2.06 90 22:38 18.03.2021
5173 Clouds 25 1007 94 10000 2.06 90 22:18 18.03.2021
5174 Clouds 25 1006 94 10000 1.54 70 21:39 18.03.2021
5175 Clouds 25 1006 94 10000 1.54 70 21:39 18.03.2021
5176 Clouds 25 1006 94 10000 0.51 90 20:44 18.03.2021
5177 Clouds 25 1006 88 10000 2.57 130 20:24 18.03.2021
5178 Clouds 25 1006 94 10000 2.06 150 19:45 18.03.2021
5179 Clouds 25 1006 89 10000 2.06 130 19:25 18.03.2021
5180 Clouds 26 1006 89 10000 1.03 160 18:55 18.03.2021
5181 Clouds 26 1006 89 10000 0.51 200 18:33 18.03.2021
5182 Clouds 25 1006 89 10000 1.54 130 17:50 18.03.2021
5183 Clouds 25 1006 89 10000 1.54 130 17:25 18.03.2021
5184 Clouds 25 1006 89 10000 1.54 150 16:47 18.03.2021
5185 Clouds 26 1007 89 10000 2.06 150 16:29 18.03.2021
5186 Clouds 26 1007 89 10000 2.06 140 15:46 18.03.2021
5187 Clear 26 1007 83 10000 1.03 120 15:24 18.03.2021
5188 Clear 27 1007 83 10000 2.06 110 14:53 18.03.2021
5189 Clear 27 1007 83 10000 2.57 130 14:32 18.03.2021
5190 Clear 27 1007 78 10000 2.57 110 13:53 18.03.2021
5191 Clear 27 1007 78 10000 2.06 130 13:26 18.03.2021
5192 Clear 28 1006 78 10000 2.06 100 12:44 18.03.2021
5193 Clear 28 1006 78 10000 1.54 90 12:25 18.03.2021
5194 Clouds 28 1006 78 10000 2.06 80 11:53 18.03.2021
5195 Clouds 28 1006 74 10000 2.57 50 11:32 18.03.2021
5196 Clouds 29 1005 70 10000 1.54 50 10:49 18.03.2021
5197 Clouds 30 1005 70 10000 1.54 50 10:27 18.03.2021
5198 Clouds 30 1005 66 10000 1.03 360 09:56 18.03.2021
5199 Clouds 30 1005 66 10000 1.54 310 09:29 18.03.2021
5200 Clouds 31 1005 70 10000 2.57 300 08:52 18.03.2021
5201 Rain 31 1005 70 10000 3.09 300 08:32 18.03.2021
5202 Clouds 31 1005 70 10000 3.6 290 07:54 18.03.2021
5203 Clouds 31 1006 70 10000 5.14 320 07:25 18.03.2021
5204 Rain 31 1007 70 10000 5.66 290 06:30 18.03.2021
5205 Clouds 30 1007 70 10000 6.17 300 05:55 18.03.2021
5206 Clouds 27 1009 70 10000 1.54 80 02:35 18.03.2021
5207 Clouds 27 1009 70 10000 1.54 80 02:35 18.03.2021
5208 Clear 24 1009 88 10000 3.6 100 00:19 18.03.2021
5209 Clouds 23 1008 94 10000 2.57 120 22:58 17.03.2021
5210 Clouds 23 1008 94 10000 3.09 120 22:36 17.03.2021
5211 Clouds 23 1008 94 10000 3.09 120 22:18 17.03.2021
5212 Clouds 22 1008 100 10000 3.6 130 21:45 17.03.2021
5213 Clouds 22 1008 100 10000 5.14 140 21:27 17.03.2021
5214 Clouds 22 1008 100 10000 5.14 140 20:45 17.03.2021
5215 Clouds 23 1008 94 10000 5.66 140 20:25 17.03.2021
5216 Clouds 23 1008 94 10000 5.66 150 19:51 17.03.2021
5217 Clouds 23 1008 100 10000 5.14 150 19:25 17.03.2021
5218 Clouds 23 1008 100 10000 4.12 150 18:57 17.03.2021
5219 Clouds 23 1008 100 10000 4.12 150 18:39 17.03.2021
5220 Clouds 23 1008 94 10000 4.12 170 17:57 17.03.2021
5221 Clouds 23 1008 94 10000 3.6 180 17:27 17.03.2021
5222 Clouds 23 1009 94 10000 3.6 170 16:55 17.03.2021
5223 Clouds 23 1009 94 10000 3.09 170 16:37 17.03.2021
5224 Clouds 23 1009 94 10000 3.09 170 16:18 17.03.2021
5225 Clouds 23 1009 94 10000 3.09 200 15:37 17.03.2021
5226 Clouds 23 1009 100 7000 6.17 150 14:46 17.03.2021
5227 Rain 25 1010 100 1400 5.14 160 14:27 17.03.2021
5228 Clouds 27 1009 89 5000 4.63 320 13:56 17.03.2021
5229 Rain 28 1008 89 2200 5.14 330 13:37 17.03.2021
5230 Clouds 29 1008 74 10000 3.6 330 12:59 17.03.2021
5231 Clouds 28 1008 78 10000 3.09 330 12:34 17.03.2021
5232 Clouds 28 1007 78 10000 4.12 330 11:53 17.03.2021
5233 Clouds 28 1007 78 10000 4.12 330 11:24 17.03.2021
5234 Rain 28 1007 78 10000 3.6 330 10:57 17.03.2021
5235 Clouds 28 1006 83 10000 2.57 340 10:34 17.03.2021
5236 Clouds 29 1006 74 10000 3.6 350 09:59 17.03.2021
5237 Clouds 29 1006 79 10000 4.63 340 09:41 17.03.2021
5238 Clouds 29 1006 79 10000 4.63 340 09:19 17.03.2021
5239 Clouds 29 1006 79 10000 4.63 340 09:19 17.03.2021
5240 Clouds 29 1005 79 10000 5.66 360 08:39 17.03.2021
5241 Clouds 30 1005 79 10000 5.66 360 08:20 17.03.2021
5242 Clouds 30 1006 78 10000 3.09 210 07:36 17.03.2021
5243 Clouds 30 1006 84 10000 2.57 250 06:47 17.03.2021
5244 Clouds 32 1007 62 10000 3.6 50 04:27 17.03.2021
5245 Clouds 31 1008 62 10000 3.09 60 03:30 17.03.2021
5246 Clouds 27 1009 89 10000 3.6 130 00:43 17.03.2021
5247 Clouds 27 1009 83 10000 4.63 120 00:20 17.03.2021
5248 Fog 25 1009 94 800 2.57 130 23:22 16.03.2021
5249 Clouds 24 1009 100 10000 2.57 130 22:43 16.03.2021
5250 Clouds 25 1009 94 10000 3.6 130 22:25 16.03.2021
5251 Clouds 25 1008 94 10000 2.57 130 21:42 16.03.2021
5252 Clouds 25 1008 94 10000 2.57 130 21:24 16.03.2021
5253 Clouds 25 1008 94 10000 2.57 140 20:47 16.03.2021
5254 Clouds 25 1008 94 10000 2.57 140 20:19 16.03.2021
5255 Clouds 25 1008 94 10000 1.54 140 19:46 16.03.2021
5256 Clouds 25 1008 100 10000 2.06 140 19:27 16.03.2021
5257 Clouds 26 1008 94 10000 0.51 140 18:52 16.03.2021
5258 Clouds 26 1008 94 10000 2.06 150 18:30 16.03.2021
5259 Clouds 26 1008 94 10000 1.54 190 17:51 16.03.2021
5260 Clouds 25 1009 94 10000 1.54 200 17:33 16.03.2021
5261 Clouds 26 1009 94 10000 0.51 180 16:54 16.03.2021
5262 Clouds 26 1009 94 10000 0.51 180 16:54 16.03.2021
5263 Clouds 26 1009 94 10000 0.51 180 16:54 16.03.2021
5264 Clouds 26 1009 94 10000 0.51 180 16:54 16.03.2021
5265 Clouds 26 1010 94 10000 1.03 180 16:31 16.03.2021
5266 Clouds 26 1010 94 10000 1.54 180 15:59 16.03.2021
5267 Clouds 26 1010 94 10000 1.03 140 15:38 16.03.2021
5268 Clouds 26 1010 94 10000 1.03 140 15:19 16.03.2021
5269 Clouds 26 1010 94 10000 1.03 70 14:42 16.03.2021
5270 Clouds 26 1010 94 10000 1.03 70 14:22 16.03.2021
5271 Clouds 26 1010 94 10000 2.57 130 13:58 16.03.2021
5272 Clouds 27 1010 89 10000 2.06 130 13:29 16.03.2021
5273 Clouds 27 1009 89 10000 2.57 110 12:56 16.03.2021
5274 Clouds 27 1009 89 10000 1.54 30 12:37 16.03.2021
5275 Clouds 27 1009 89 10000 1.54 30 12:18 16.03.2021
5276 Clouds 28 1008 83 10000 3.09 10 11:35 16.03.2021
5277 Clouds 28 1008 83 10000 3.6 20 10:50 16.03.2021
5278 Clouds 29 1007 74 10000 3.6 10 10:21 16.03.2021
5279 Clouds 30 1007 70 10000 4.12 350 09:40 16.03.2021
5280 Clouds 30 1007 70 10000 4.12 350 09:21 16.03.2021
5281 Clouds 31 1006 62 10000 3.6 320 08:55 16.03.2021
5282 Clouds 32 1006 58 10000 1.54 130 08:36 16.03.2021
5283 Clouds 31 1007 62 10000 1.54 230 07:55 16.03.2021
5284 Clouds 31 1007 62 10000 2.57 220 07:27 16.03.2021
5285 Clouds 31 1008 58 10000 1.54 200 06:38 16.03.2021
5286 Clouds 30 1008 66 10000 3.09 150 05:37 16.03.2021
5287 Clouds 29 1010 70 10000 3.6 130 04:26 16.03.2021
5288 Clouds 27 1012 83 10000 0.51 20 02:26 16.03.2021
5289 Clouds 24 1012 94 10000 4.63 150 00:47 16.03.2021
5290 Clouds 24 1011 94 10000 6.69 150 23:54 15.03.2021
5291 Clouds 25 1011 94 7000 3.6 130 23:19 15.03.2021
5292 Clouds 25 1010 88 10000 3.6 80 22:43 15.03.2021
5293 Clouds 25 1010 94 10000 2.57 70 22:25 15.03.2021
5294 Clouds 26 1009 94 10000 1.03 340 21:51 15.03.2021
5295 Clouds 26 1009 94 10000 1.03 340 21:29 15.03.2021
5296 Clouds 26 1009 94 10000 1.03 230 20:55 15.03.2021
5297 Clouds 26 1009 94 10000 0.51 320 20:37 15.03.2021
5298 Clouds 26 1009 94 10000 0.51 320 20:19 15.03.2021
5299 Clouds 26 1009 94 10000 0.51 320 20:19 15.03.2021
5300 Clouds 26 1008 89 10000 0.4 347 19:43 15.03.2021
5301 Clouds 25 1009 94 10000 0.62 62 19:24 15.03.2021
5302 Clouds 26 1009 94 10000 0.62 62 18:47 15.03.2021
5303 Clouds 26 1009 94 10000 0.51 290 18:23 15.03.2021
5304 Clouds 26 1009 89 10000 1.54 240 17:55 15.03.2021
5305 Clouds 26 1009 94 10000 0.51 230 17:28 15.03.2021
5306 Clouds 26 1010 83 10000 1.54 200 16:50 15.03.2021
5307 Clouds 26 1010 89 10000 1.54 220 16:31 15.03.2021
5308 Clouds 26 1010 83 10000 1.54 230 15:45 15.03.2021
5309 Clouds 26 1010 83 10000 1.54 230 15:25 15.03.2021
5310 Clouds 26 1011 89 10000 0.51 260 14:43 15.03.2021
5311 Clouds 26 1011 89 10000 0.51 260 14:22 15.03.2021
5312 Clouds 26 1010 89 10000 1.03 180 13:46 15.03.2021
5313 Clouds 26 1010 89 10000 1.03 180 13:46 15.03.2021
5314 Clouds 26 1010 83 10000 1.54 180 13:24 15.03.2021
5315 Clouds 26 1010 89 10000 1.03 250 12:47 15.03.2021
5316 Clouds 26 1010 89 10000 1.19 331 12:19 15.03.2021
5317 Clouds 26 1009 83 10000 2.57 80 11:48 15.03.2021
5318 Clouds 27 1009 83 10000 2.57 80 11:30 15.03.2021
5319 Clouds 27 1008 78 10000 1.54 160 10:49 15.03.2021
5320 Clouds 27 1008 78 10000 1.54 80 10:30 15.03.2021
5321 Clouds 27 1007 83 10000 3.09 150 09:52 15.03.2021
5322 Clouds 27 1007 83 10000 3.09 150 09:33 15.03.2021
5323 Clouds 28 1007 74 10000 2.06 170 08:52 15.03.2021
5324 Clouds 28 1008 83 10000 5.14 190 08:30 15.03.2021
5325 Clouds 28 1008 83 10000 5.14 190 08:30 15.03.2021
5326 Clouds 28 1008 78 10000 5.66 200 07:51 15.03.2021
5327 Clouds 29 1008 65 10000 3.6 240 07:31 15.03.2021
5328 Clouds 31 1008 66 10000 4.63 310 06:39 15.03.2021
5329 Clouds 31 1009 70 10000 2.57 300 05:31 15.03.2021
5330 Clouds 29 1011 78 10000 1.54 230 01:31 15.03.2021
5331 Clouds 27 1010 83 10000 1.54 90 23:54 14.03.2021
5332 Clouds 25 1010 94 10000 1.54 100 23:19 14.03.2021
5333 Clouds 25 1010 100 10000 2.06 100 22:46 14.03.2021
5334 Clouds 25 1009 100 10000 0.51 80 22:19 14.03.2021
5335 Clouds 25 1009 100 10000 1.54 70 21:45 14.03.2021
5336 Clouds 25 1009 100 10000 0.8 286 21:19 14.03.2021
5337 Clouds 25 1008 94 10000 0.8 286 20:43 14.03.2021
5338 Clouds 25 1008 94 10000 1.37 287 20:25 14.03.2021
5339 Clouds 26 1008 89 10000 1.03 300 19:43 14.03.2021
5340 Clouds 25 1008 94 10000 1.88 303 19:23 14.03.2021
5341 Clouds 25 1009 94 10000 1.03 310 18:48 14.03.2021
5342 Clouds 25 1009 94 10000 1.03 280 18:27 14.03.2021
5343 Clouds 25 1009 94 10000 2.15 302 17:41 14.03.2021
5344 Clouds 26 1009 94 10000 2.36 306 17:22 14.03.2021
5345 Clouds 25 1009 94 10000 1.03 340 16:46 14.03.2021
5346 Clouds 25 1009 94 10000 1.03 340 16:46 14.03.2021
5347 Clouds 26 1010 94 10000 2.56 307 16:27 14.03.2021
5348 Clouds 26 1010 94 10000 1.03 360 15:53 14.03.2021
5349 Clouds 26 1010 94 10000 1.03 290 15:34 14.03.2021
5350 Clouds 26 1010 89 10000 2.11 307 14:41 14.03.2021
5351 Clouds 26 1010 89 10000 1.79 292 14:21 14.03.2021
5352 Clouds 26 1009 94 10000 1.03 290 13:49 14.03.2021
5353 Clouds 26 1009 94 10000 0.51 320 13:28 14.03.2021
5354 Clouds 26 1009 94 10000 0.51 290 12:47 14.03.2021
5355 Clear 26 1009 89 10000 1.67 303 12:28 14.03.2021
5356 Clouds 26 1008 83 10000 0.51 360 11:54 14.03.2021
5357 Clouds 27 1008 83 10000 1.67 303 11:35 14.03.2021
5358 Clouds 27 1008 74 10000 1.54 360 10:56 14.03.2021
5359 Clouds 28 1007 74 10000 1.54 350 10:37 14.03.2021
5360 Clouds 28 1007 74 10000 1.54 350 10:18 14.03.2021
5361 Clouds 29 1007 65 10000 1.54 260 09:43 14.03.2021
5362 Clouds 29 1008 70 10000 1.03 270 09:22 14.03.2021
5363 Clouds 30 1007 70 10000 3.09 290 08:48 14.03.2021
5364 Clouds 31 1007 66 10000 2.57 290 08:29 14.03.2021
5365 Clouds 31 1008 66 10000 3.09 290 07:46 14.03.2021
5366 Clouds 28 1007 78 10000 2.57 330 06:51 14.03.2021
5367 Clouds 28 1008 78 10000 2.57 350 05:32 14.03.2021
5368 Clouds 29 1010 84 10000 2.34 102 00:52 14.03.2021
5369 Clouds 28 1010 89 10000 0.51 110 00:19 14.03.2021
5370 Clouds 27 1010 89 10000 0.51 100 23:52 13.03.2021
5371 Clouds 26 1010 94 10000 1.03 50 23:30 13.03.2021
5372 Clouds 25 1009 94 10000 2.03 120 22:54 13.03.2021
5373 Clouds 25 1009 94 10000 1.03 140 22:32 13.03.2021
5374 Clouds 25 1009 100 10000 1.54 160 21:48 13.03.2021
5375 Clouds 25 1009 94 10000 0.51 130 21:26 13.03.2021
5376 Clouds 25 1008 100 10000 1.54 140 20:53 13.03.2021
5377 Clouds 25 1008 100 10000 0.8 140 20:31 13.03.2021
5378 Clouds 25 1008 100 10000 0.27 284 19:54 13.03.2021
5379 Clouds 25 1008 100 10000 0.51 260 19:31 13.03.2021
5380 Clouds 25 1008 94 10000 0.95 291 18:58 13.03.2021
5381 Clouds 25 1008 100 10000 0.95 291 18:39 13.03.2021
5382 Clouds 25 1008 100 10000 1.88 320 18:18 13.03.2021
5383 Clouds 25 1009 94 10000 1.88 320 17:42 13.03.2021
5384 Clouds 25 1009 94 10000 2 317 17:24 13.03.2021
5385 Clouds 26 1009 94 10000 1.03 360 16:44 13.03.2021
5386 Clouds 26 1010 94 10000 1.54 360 16:24 13.03.2021
5387 Clear 26 1010 94 10000 0.51 310 15:39 13.03.2021
5388 Clear 26 1010 83 10000 2.06 300 14:51 13.03.2021
5389 Clouds 26 1010 89 10000 2.57 290 14:29 13.03.2021
5390 Clouds 26 1011 89 10000 2.06 90 13:47 13.03.2021
5391 Clouds 26 1010 89 10000 2.06 150 13:24 13.03.2021
5392 Clouds 26 1010 94 10000 1.6 286 12:45 13.03.2021
5393 Clouds 26 1009 94 10000 2.14 274 12:27 13.03.2021
5394 Clouds 26 1010 89 10000 2.14 274 11:50 13.03.2021
5395 Clouds 26 1010 89 10000 1.54 100 11:29 13.03.2021
5396 Clouds 26 1009 94 10000 2.46 252 10:50 13.03.2021
5397 Clouds 26 1009 83 10000 2.64 252 10:29 13.03.2021
5398 Clouds 27 1009 83 10000 0.51 50 09:47 13.03.2021
5399 Clouds 26 1008 83 10000 1.54 250 09:19 13.03.2021
5400 Clouds 25 1009 83 10000 6.69 240 08:43 13.03.2021
5401 Clouds 25 1009 83 10000 6.69 240 08:19 13.03.2021
5402 Clouds 28 1009 83 8000 2.06 290 07:54 13.03.2021
5403 Clouds 29 1008 79 10000 4.63 310 06:51 13.03.2021
5404 Clouds 31 1012 74 10000 1.03 320 02:55 13.03.2021
5405 Clouds 28 1013 89 10000 2.06 140 00:57 13.03.2021
5406 Clouds 27 1012 94 10000 1.03 150 23:59 12.03.2021
5407 Clouds 26 1011 94 10000 1.03 120 23:32 12.03.2021
5408 Clouds 26 1011 94 10000 1.03 130 22:43 12.03.2021
5409 Clouds 25 1011 94 10000 0.51 120 22:23 12.03.2021
5410 Rain 26 1011 94 10000 0.72 48 21:45 12.03.2021
5411 Clouds 26 1010 94 10000 2.03 356 21:27 12.03.2021
5412 Clouds 25 1010 94 10000 2.03 356 20:56 12.03.2021
5413 Clouds 26 1010 94 10000 2.03 356 20:36 12.03.2021
5414 Clouds 26 1010 94 10000 0.51 340 19:59 12.03.2021
5415 Rain 26 1010 94 10000 0.51 330 19:40 12.03.2021
5416 Rain 26 1010 94 10000 0.51 330 19:40 12.03.2021
5417 Clouds 26 1010 94 10000 0.51 330 19:22 12.03.2021
5418 Clouds 26 1011 94 10000 2.34 356 18:36 12.03.2021
5419 Clouds 26 1011 89 10000 1.03 310 17:58 12.03.2021
5420 Clouds 26 1011 89 10000 1.03 280 17:38 12.03.2021
5421 Clouds 26 1011 89 10000 1.03 280 17:18 12.03.2021
5422 Clouds 26 1011 89 10000 1.03 290 16:40 12.03.2021
5423 Clouds 27 1012 89 10000 1.54 310 15:52 12.03.2021
5424 Clouds 27 1012 89 10000 1.54 320 15:32 12.03.2021
5425 Clouds 27 1012 83 10000 1.54 330 14:49 12.03.2021
5426 Clouds 27 1012 83 10000 1.54 350 14:21 12.03.2021
5427 Clouds 28 1011 78 10000 2.06 10 13:44 12.03.2021
5428 Clouds 28 1011 78 10000 2.06 10 13:24 12.03.2021
5429 Clouds 28 1011 78 10000 2.57 20 12:58 12.03.2021
5430 Clear 28 1010 74 10000 2.57 20 12:38 12.03.2021
5431 Clear 28 1010 74 10000 2.57 20 12:20 12.03.2021
5432 Clear 28 1010 70 10000 2.57 30 11:50 12.03.2021
5433 Clouds 29 1009 70 10000 2.57 10 11:22 12.03.2021
5434 Clouds 29 1009 70 10000 3.6 350 10:53 12.03.2021
5435 Clouds 30 1009 70 10000 4.63 10 10:25 12.03.2021
5436 Clouds 30 1009 70 10000 5.14 10 09:54 12.03.2021
5437 Rain 31 1009 58 10000 6.69 10 09:25 12.03.2021
5438 Clouds 32 1009 58 10000 5.66 20 08:45 12.03.2021
5439 Clouds 33 1009 52 10000 6.17 10 07:58 12.03.2021
5440 Clouds 33 1009 52 10000 5.14 40 07:33 12.03.2021
5441 Clouds 33 1010 49 10000 4.63 10 06:51 12.03.2021
5442 Clouds 33 1010 52 10000 5.14 40 06:28 12.03.2021
5443 Clouds 31 1013 62 10000 3.6 100 02:41 12.03.2021
5444 Clouds 28 1013 78 10000 2.57 110 00:42 12.03.2021
5445 Clouds 26 1012 89 10000 2.57 100 23:30 11.03.2021
5446 Clouds 25 1011 94 10000 3.09 110 22:50 11.03.2021
5447 Clouds 25 1011 94 10000 1.54 110 22:30 11.03.2021
5448 Clear 25 1011 89 10000 2.06 90 21:54 11.03.2021
5449 Clear 25 1010 89 10000 2.57 100 21:32 11.03.2021
5450 Clouds 26 1010 89 10000 2.57 100 20:55 11.03.2021
5451 Clouds 26 1010 89 10000 2.57 100 20:37 11.03.2021
5452 Clouds 26 1010 89 10000 2.57 100 20:19 11.03.2021
5453 Clouds 26 1010 89 10000 3.09 130 19:41 11.03.2021
5454 Clouds 26 1010 89 10000 3.09 130 19:22 11.03.2021
5455 Clouds 26 1011 89 10000 2.57 120 18:46 11.03.2021
5456 Clouds 26 1011 94 10000 2.57 130 18:28 11.03.2021
5457 Clouds 26 1011 89 10000 2.06 120 17:43 11.03.2021
5458 Clouds 26 1011 94 10000 1.54 110 16:53 11.03.2021
5459 Clouds 26 1011 94 10000 1.54 140 16:27 11.03.2021
5460 Clear 26 1011 89 10000 2.06 150 15:48 11.03.2021
5461 Clear 26 1012 89 10000 1.03 100 15:21 11.03.2021
5462 Clear 26 1012 89 10000 1.54 80 14:46 11.03.2021
5463 Clear 26 1011 89 10000 1.03 90 14:19 11.03.2021
5464 Clear 27 1011 89 10000 2.06 100 13:49 11.03.2021
5465 Clear 27 1011 83 10000 2.57 110 13:30 11.03.2021
5466 Clear 27 1010 83 10000 2.06 110 12:58 11.03.2021
5467 Clear 27 1010 83 10000 2.06 100 12:38 11.03.2021
5468 Clear 27 1010 83 10000 2.06 100 12:38 11.03.2021
5469 Clear 27 1010 83 10000 2.06 100 12:20 11.03.2021
5470 Clouds 28 1009 78 10000 2.06 70 11:43 11.03.2021
5471 Clouds 28 1009 78 10000 2.06 70 11:21 11.03.2021
5472 Clouds 28 1009 74 10000 3.09 60 10:42 11.03.2021
5473 Clouds 29 1009 74 10000 3.09 60 10:20 11.03.2021
5474 Clouds 29 1009 66 10000 4.12 60 09:41 11.03.2021
5475 Clouds 29 1009 66 10000 4.12 60 09:22 11.03.2021
5476 Clouds 29 1009 74 10000 1.54 210 08:47 11.03.2021
5477 Clouds 29 1009 79 10000 2.06 180 08:19 11.03.2021
5478 Clouds 28 1009 79 10000 1.03 360 07:29 11.03.2021
5479 Clouds 29 1010 70 10000 2.06 40 06:50 11.03.2021
5480 Clouds 30 1010 70 10000 2.06 40 06:30 11.03.2021
5481 Clouds 31 1012 66 10000 4.63 80 03:46 11.03.2021
5482 Clouds 29 1013 78 10000 3.09 80 01:18 11.03.2021
5483 Clouds 25 1011 94 10000 1.54 70 23:32 10.03.2021
5484 Clouds 25 1011 94 10000 2.06 90 22:59 10.03.2021
5485 Clouds 25 1011 94 10000 2.57 100 22:33 10.03.2021
5486 Clouds 25 1010 94 10000 2.06 110 21:47 10.03.2021
5487 Clouds 25 1010 89 10000 2.57 100 21:26 10.03.2021
5488 Clouds 25 1010 94 10000 1.54 120 20:51 10.03.2021
5489 Clouds 26 1010 94 10000 3.46 88 20:33 10.03.2021
5490 Clouds 25 1010 89 10000 1.03 350 19:54 10.03.2021
5491 Clouds 25 1010 89 10000 1.03 310 19:33 10.03.2021
5492 Clouds 25 1010 89 10000 2.06 110 18:56 10.03.2021
5493 Clouds 25 1010 89 10000 1.03 120 18:37 10.03.2021
5494 Clouds 25 1010 89 10000 1.03 120 18:18 10.03.2021
5495 Clouds 25 1010 89 10000 1.03 100 17:41 10.03.2021
5496 Clouds 25 1010 89 10000 1.03 100 17:19 10.03.2021
5497 Clouds 25 1011 89 10000 1.54 110 16:48 10.03.2021
5498 Clouds 25 1011 89 10000 1.54 100 16:25 10.03.2021
5499 Clouds 25 1011 89 10000 1.03 80 15:51 10.03.2021
5500 Clouds 26 1011 89 10000 4.02 35 15:25 10.03.2021
5501 Clouds 25 1011 89 10000 0.51 40 14:57 10.03.2021
5502 Clear 25 1011 89 10000 1.54 30 14:22 10.03.2021
5503 Clouds 25 1011 88 10000 2.06 30 13:58 10.03.2021
5504 Clouds 25 1011 88 10000 4.63 360 13:31 10.03.2021
5505 Clouds 26 1011 83 6000 3.6 60 12:48 10.03.2021
5506 Clouds 28 1010 83 10000 2.06 360 12:28 10.03.2021
5507 Clouds 28 1010 74 9000 5.14 360 11:53 10.03.2021
5508 Clouds 29 1009 70 10000 3.09 10 11:28 10.03.2021
5509 Clouds 29 1008 70 10000 4.12 20 10:51 10.03.2021
5510 Clouds 30 1008 66 10000 4.63 30 10:33 10.03.2021
5511 Clouds 30 1008 66 10000 6.17 50 09:56 10.03.2021
5512 Clouds 31 1007 62 10000 6.17 20 09:38 10.03.2021
5513 Clouds 31 1007 62 10000 6.17 20 09:18 10.03.2021
5514 Clouds 32 1007 58 10000 5.66 30 08:44 10.03.2021
5515 Clouds 32 1007 49 10000 3.6 30 08:26 10.03.2021
5516 Clouds 33 1007 49 10000 5.14 70 07:44 10.03.2021
5517 Clouds 33 1007 49 10000 5.14 70 07:24 10.03.2021
5518 Clouds 32 1008 58 10000 5.66 30 06:52 10.03.2021
5519 Clouds 30 1011 66 10000 3.6 60 02:44 10.03.2021
5520 Clouds 27 1010 78 10000 3.09 110 00:36 10.03.2021
5521 Clouds 25 1010 88 10000 2.57 110 23:33 09.03.2021
5522 Clouds 25 1009 88 10000 2.57 130 22:52 09.03.2021
5523 Clouds 25 1009 88 10000 1.54 120 22:34 09.03.2021
5524 Clouds 24 1009 88 10000 2.06 100 21:59 09.03.2021
5525 Clouds 25 1009 88 10000 1.54 110 21:38 09.03.2021
5526 Clouds 25 1009 88 10000 1.54 110 21:20 09.03.2021
5527 Clouds 24 1009 88 10000 0.51 110 20:55 09.03.2021
5528 Clouds 25 1009 88 10000 1.03 90 20:36 09.03.2021
5529 Clouds 25 1009 88 10000 1.03 90 20:18 09.03.2021
5530 Clouds 25 1008 88 10000 1.54 100 19:43 09.03.2021
5531 Clouds 25 1008 88 10000 1.54 100 19:24 09.03.2021
5532 Clouds 25 1009 88 10000 0.51 100 18:40 09.03.2021
5533 Clouds 25 1009 88 10000 0.51 100 18:18 09.03.2021
5534 Clouds 25 1009 83 10000 0.51 110 17:45 09.03.2021
5535 Clouds 26 1009 83 10000 2.06 140 17:24 09.03.2021
5536 Clouds 25 1010 83 10000 1.54 150 16:40 09.03.2021
5537 Clouds 26 1010 83 10000 1.54 150 16:21 09.03.2021
5538 Clouds 26 1010 83 10000 1.54 150 16:21 09.03.2021
5539 Clouds 26 1010 83 10000 1.03 150 15:56 09.03.2021
5540 Clear 26 1010 89 10000 1.54 100 15:25 09.03.2021
5541 Clear 26 1010 83 10000 1.03 150 14:49 09.03.2021
5542 Clouds 26 1010 83 10000 2.06 160 14:26 09.03.2021
5543 Clouds 27 1010 78 10000 1.54 180 13:42 09.03.2021
5544 Clouds 28 1010 78 10000 1.54 180 13:21 09.03.2021
5545 Clouds 27 1009 78 10000 1.03 170 12:54 09.03.2021
5546 Clear 27 1009 74 10000 0.51 170 12:35 09.03.2021
5547 Clouds 29 1008 70 10000 1.03 340 11:43 09.03.2021
5548 Clouds 29 1008 66 10000 2.06 360 11:22 09.03.2021
5549 Clouds 29 1007 58 10000 2.57 340 10:58 09.03.2021
5550 Clouds 30 1007 51 10000 2.57 350 10:39 09.03.2021
5551 Clouds 31 1007 51 10000 2.57 350 10:20 09.03.2021
5552 Clouds 32 1006 45 10000 3.6 350 09:46 09.03.2021
5553 Clouds 32 1006 45 10000 3.6 350 09:26 09.03.2021
5554 Clouds 32 1005 58 10000 4.63 340 08:49 09.03.2021
5555 Clouds 32 1005 58 10000 4.63 340 08:30 09.03.2021
5556 Clouds 32 1006 58 10000 4.63 340 07:46 09.03.2021
5557 Clouds 32 1006 58 10000 3.6 340 07:23 09.03.2021
5558 Clouds 32 1006 62 10000 4.12 330 06:44 09.03.2021
5559 Clouds 32 1007 62 10000 2.57 310 05:48 09.03.2021
5560 Clouds 29 1010 74 10000 1.54 150 01:31 09.03.2021
5561 Clouds 29 1010 74 10000 1.54 150 01:31 09.03.2021
5562 Clouds 29 1010 74 10000 1.54 150 01:31 09.03.2021
5563 Clouds 26 1009 83 10000 1.54 120 23:56 08.03.2021
5564 Clouds 25 1009 88 10000 2.06 130 23:37 08.03.2021
5565 Clouds 25 1009 88 10000 2.06 130 23:18 08.03.2021
5566 Clouds 25 1008 88 10000 2.06 120 22:40 08.03.2021
5567 Clouds 24 1008 88 10000 2.06 120 22:21 08.03.2021
5568 Clouds 24 1008 88 10000 1.54 130 21:45 08.03.2021
5569 Clouds 24 1007 88 10000 1.03 140 21:26 08.03.2021
5570 Clouds 24 1007 94 10000 1.03 150 20:40 08.03.2021
5571 Clouds 24 1007 94 10000 1.03 150 20:20 08.03.2021
5572 Clouds 24 1007 88 10000 1.03 150 19:40 08.03.2021
5573 Clouds 25 1008 89 10000 1.03 180 18:57 08.03.2021
5574 Clouds 25 1008 83 10000 1.03 210 18:37 08.03.2021
5575 Clouds 25 1008 83 10000 1.03 210 18:18 08.03.2021
5576 Clouds 25 1008 83 10000 1.54 230 17:43 08.03.2021
5577 Clouds 25 1008 83 10000 1.54 250 17:22 08.03.2021
5578 Clouds 25 1009 83 10000 1.54 240 16:41 08.03.2021
5579 Clouds 25 1009 83 10000 1.54 240 16:21 08.03.2021
5580 Clear 25 1009 83 10000 1.54 250 15:41 08.03.2021
5581 Clear 25 1009 83 10000 1.54 250 15:22 08.03.2021
5582 Clear 25 1009 83 10000 2.06 240 14:21 08.03.2021
5583 Clear 25 1009 83 10000 1.54 250 13:54 08.03.2021
5584 Clear 25 1009 83 10000 1.03 240 13:23 08.03.2021
5585 Clear 25 1008 83 10000 1.54 240 12:56 08.03.2021
5586 Clear 25 1007 83 10000 1.03 250 12:35 08.03.2021
5587 Clear 26 1006 83 10000 1.03 290 11:50 08.03.2021
5588 Clear 27 1006 74 10000 1.54 260 11:30 08.03.2021
5589 Clear 27 1006 74 10000 2.57 250 10:57 08.03.2021
5590 Clear 27 1006 74 10000 3.09 260 10:39 08.03.2021
5591 Clear 27 1006 74 10000 3.09 260 10:18 08.03.2021
5592 Clouds 28 1006 69 10000 3.6 280 09:27 08.03.2021
5593 Clouds 28 1006 69 10000 4.12 280 08:52 08.03.2021
5594 Clouds 28 1006 74 10000 5.66 300 08:25 08.03.2021
5595 Clouds 28 1006 74 10000 5.66 310 07:21 08.03.2021
5596 Clouds 27 1008 74 10000 3.6 300 05:42 08.03.2021
5597 Clouds 26 1009 83 10000 4.12 330 02:43 08.03.2021
5598 Clouds 28 1008 89 10000 2.06 110 00:42 08.03.2021
5599 Clouds 28 1008 89 10000 1.54 130 23:53 07.03.2021
5600 Clouds 28 1008 89 10000 1.03 170 23:22 07.03.2021
5601 Clouds 28 1008 83 10000 2.06 230 22:49 07.03.2021
5602 Clouds 28 1007 83 10000 2.06 260 22:28 07.03.2021
5603 Clouds 28 1007 83 10000 2.57 270 21:53 07.03.2021
5604 Clouds 28 1007 83 10000 2.06 260 21:34 07.03.2021
5605 Clouds 28 1006 83 10000 2.57 260 20:59 07.03.2021
5606 Clouds 28 1006 83 10000 3.6 270 20:41 07.03.2021
5607 Clouds 28 1006 83 10000 3.6 270 20:19 07.03.2021
5608 Clouds 26 1006 94 10000 0.51 160 19:41 07.03.2021
5609 Clouds 25 1006 94 10000 0.51 160 19:22 07.03.2021
5610 Clouds 25 1007 94 10000 1.03 80 18:56 07.03.2021
5611 Clouds 26 1007 89 10000 0.51 30 18:38 07.03.2021
5612 Clouds 26 1007 89 10000 0.51 30 18:18 07.03.2021
5613 Clouds 26 1007 89 10000 1.54 10 17:39 07.03.2021
5614 Clouds 26 1007 89 10000 1.54 10 17:19 07.03.2021
5615 Clouds 26 1008 89 10000 1.54 30 16:43 07.03.2021
5616 Clouds 26 1009 89 10000 2.57 100 16:21 07.03.2021
5617 Clear 26 1009 89 10000 1.54 100 15:52 07.03.2021
5618 Clear 26 1009 83 10000 1.54 60 15:32 07.03.2021
5619 Clear 26 1008 89 10000 2.06 20 14:56 07.03.2021
5620 Clear 26 1008 83 10000 0.51 340 14:29 07.03.2021
5621 Clouds 26 1008 78 10000 1.54 340 13:51 07.03.2021
5622 Clouds 26 1008 83 10000 1.54 80 13:30 07.03.2021
5623 Clouds 26 1007 83 10000 2.57 140 12:59 07.03.2021
5624 Clouds 26 1008 83 10000 1.03 70 12:40 07.03.2021
5625 Clouds 26 1008 83 10000 1.03 70 12:20 07.03.2021
5626 Clouds 27 1008 83 10000 7.2 130 11:24 07.03.2021
5627 Clouds 29 1007 74 10000 8.75 200 10:59 07.03.2021
5628 Clouds 30 1006 74 10000 4.63 270 10:38 07.03.2021
5629 Clouds 31 1006 70 10000 5.14 280 09:58 07.03.2021
5630 Clouds 31 1005 70 10000 6.69 290 09:39 07.03.2021
5631 Clouds 31 1005 70 10000 6.69 290 09:19 07.03.2021
5632 Clouds 31 1005 70 10000 7.72 300 08:45 07.03.2021
5633 Clouds 32 1005 70 10000 5.66 290 08:22 07.03.2021
5634 Clouds 32 1005 70 10000 5.14 280 07:22 07.03.2021
5635 Clouds 33 1009 66 10000 6.69 270 02:40 07.03.2021
5636 Clouds 30 1008 74 10000 5.66 270 00:35 07.03.2021
5637 Clouds 29 1008 79 10000 4.12 280 23:41 06.03.2021
5638 Clouds 29 1008 79 10000 4.12 280 23:20 06.03.2021
5639 Clouds 28 1007 83 10000 4.12 280 22:46 06.03.2021
5640 Clouds 28 1007 83 10000 4.12 270 22:24 06.03.2021
5641 Clouds 28 1007 79 10000 3.6 270 21:49 06.03.2021
5642 Clouds 28 1007 83 10000 5.14 280 21:21 06.03.2021
5643 Clouds 28 1007 83 10000 4.63 280 20:44 06.03.2021
5644 Clouds 28 1006 83 10000 5.14 280 20:21 06.03.2021
5645 Clouds 29 1007 79 10000 5.66 280 19:41 06.03.2021
5646 Clouds 28 1007 79 10000 5.66 280 19:18 06.03.2021
5647 Clouds 28 1007 83 10000 5.14 270 18:43 06.03.2021
5648 Clouds 28 1007 83 10000 5.14 280 18:23 06.03.2021
5649 Clouds 29 1008 79 10000 4.63 270 17:55 06.03.2021
5650 Clouds 29 1008 79 10000 6.69 280 17:33 06.03.2021
5651 Clouds 29 1008 79 10000 6.69 290 17:00 06.03.2021
5652 Clouds 29 1008 79 10000 6.17 290 16:37 06.03.2021
5653 Clouds 29 1008 79 10000 6.17 290 16:18 06.03.2021
5654 Clouds 29 1009 79 10000 5.14 280 15:41 06.03.2021
5655 Clouds 29 1009 79 10000 5.14 280 15:23 06.03.2021
5656 Clouds 29 1009 79 10000 4.12 270 14:33 06.03.2021
5657 Clouds 29 1009 79 10000 4.12 280 13:57 06.03.2021
5658 Clouds 29 1009 84 10000 4.12 280 13:39 06.03.2021
5659 Clouds 29 1009 84 10000 4.12 280 13:19 06.03.2021
5660 Clouds 29 1008 79 10000 4.63 290 12:44 06.03.2021
5661 Clouds 29 1008 84 10000 5.14 300 12:19 06.03.2021
5662 Clouds 29 1007 79 10000 5.14 300 11:48 06.03.2021
5663 Clouds 29 1007 74 10000 4.12 300 11:21 06.03.2021
5664 Clouds 30 1006 74 10000 4.63 290 10:48 06.03.2021
5665 Clouds 30 1006 74 10000 4.63 290 10:19 06.03.2021
5666 Clouds 31 1006 70 10000 6.17 290 09:42 06.03.2021
5667 Clouds 31 1006 70 10000 6.17 290 09:19 06.03.2021
5668 Clouds 32 1006 66 10000 7.72 300 08:39 06.03.2021
5669 Clouds 32 1007 66 10000 7.2 290 07:57 06.03.2021
5670 Clouds 33 1007 66 10000 7.2 300 07:24 06.03.2021
5671 Clouds 32 1007 66 10000 7.72 290 06:58 06.03.2021
5672 Clouds 31 1008 70 10000 7.72 300 05:34 06.03.2021
5673 Clouds 31 1008 70 10000 7.72 300 05:34 06.03.2021
5674 Clouds 31 1010 70 10000 6.17 270 02:38 06.03.2021
5675 Clouds 31 1009 74 10000 5.66 280 00:48 06.03.2021
5676 Clouds 29 1008 79 10000 5.66 280 23:53 05.03.2021
5677 Clouds 29 1008 79 10000 4.63 280 23:29 05.03.2021
5678 Clouds 28 1008 83 10000 4.63 280 22:48 05.03.2021
5679 Clouds 28 1008 83 10000 4.63 280 22:23 05.03.2021
5680 Clouds 28 1008 83 10000 4.63 270 21:54 05.03.2021
5681 Clouds 28 1007 83 10000 3.6 270 21:35 05.03.2021
5682 Clouds 28 1007 83 10000 5.14 290 20:58 05.03.2021
5683 Clouds 28 1007 83 10000 4.63 280 20:40 05.03.2021
5684 Clouds 28 1007 83 10000 4.63 280 20:21 05.03.2021
5685 Clear 28 1007 83 10000 3.6 270 19:36 05.03.2021
5686 Clear 28 1007 83 10000 3.6 270 19:18 05.03.2021
5687 Clear 28 1007 89 10000 3.6 270 18:42 05.03.2021
5688 Clear 28 1007 89 10000 3.6 270 18:23 05.03.2021
5689 Clear 28 1008 89 10000 3.6 280 17:37 05.03.2021
5690 Clear 27 1008 89 10000 3.6 280 17:19 05.03.2021
5691 Clear 27 1009 89 10000 2.06 290 16:41 05.03.2021
5692 Clear 27 1009 89 10000 2.06 290 16:22 05.03.2021
5693 Clouds 27 1009 89 10000 1.03 250 15:52 05.03.2021
5694 Clouds 28 1009 89 10000 1.54 180 15:23 05.03.2021
5695 Clear 28 1008 84 10000 2.57 280 14:39 05.03.2021
5696 Clear 29 1008 84 10000 2.57 280 14:18 05.03.2021
5697 Clear 29 1008 84 10000 3.09 290 13:40 05.03.2021
5698 Clear 29 1008 84 10000 3.09 290 13:19 05.03.2021
5699 Clear 29 1008 79 10000 3.6 270 12:30 05.03.2021
5700 Clouds 29 1007 74 10000 4.63 260 11:37 05.03.2021
5701 Clouds 29 1007 74 10000 4.63 260 11:18 05.03.2021
5702 Clouds 30 1006 70 10000 4.63 280 10:42 05.03.2021
5703 Clouds 30 1006 70 10000 4.63 280 10:24 05.03.2021
5704 Clouds 31 1006 70 10000 5.14 280 09:50 05.03.2021
5705 Clouds 32 1006 74 10000 6.17 290 09:27 05.03.2021
5706 Clouds 33 1006 66 10000 6.69 300 08:46 05.03.2021
5707 Clouds 33 1006 66 10000 6.69 300 08:27 05.03.2021
5708 Clouds 33 1006 66 10000 7.2 300 07:58 05.03.2021
5709 Clouds 33 1007 62 10000 6.17 290 07:29 05.03.2021
5710 Clouds 33 1007 62 10000 7.2 310 06:33 05.03.2021
5711 Clouds 33 1008 66 10000 6.69 300 05:32 05.03.2021
5712 Clear 29 1009 70 10000 2.06 260 00:53 05.03.2021
5713 Clear 27 1008 78 10000 2.57 220 23:44 04.03.2021
5714 Clear 26 1008 83 10000 3.09 200 23:22 04.03.2021
5715 Clear 25 1008 89 10000 1.54 210 22:29 04.03.2021
5716 Clear 25 1008 94 10000 5.09 281 21:53 04.03.2021
5717 Clouds 25 1008 94 10000 1.54 220 21:29 04.03.2021
5718 Clouds 25 1007 89 10000 1.54 210 20:43 04.03.2021
5719 Clouds 25 1007 89 10000 0.51 220 20:24 04.03.2021
5720 Clouds 26 1007 89 10000 2.57 240 19:59 04.03.2021
5721 Clouds 26 1008 89 10000 2.57 200 19:40 04.03.2021
5722 Clouds 26 1008 89 10000 2.57 200 19:21 04.03.2021
5723 Clouds 26 1008 89 10000 3.6 250 18:45 04.03.2021
5724 Clouds 26 1008 89 10000 3.6 250 18:25 04.03.2021
5725 Clouds 26 1009 89 10000 3.6 330 17:47 04.03.2021
5726 Clouds 25 1009 89 10000 3.6 330 17:28 04.03.2021
5727 Clouds 26 1009 89 10000 4.12 280 16:48 04.03.2021
5728 Clouds 26 1009 69 10000 4.12 260 16:29 04.03.2021
5729 Clear 24 1008 73 10000 3.09 270 15:52 04.03.2021
5730 Clouds 24 1009 88 10000 3.09 340 15:33 04.03.2021
5731 Clouds 24 1010 88 9000 2.57 30 14:53 04.03.2021
5732 Clouds 23 1011 94 10000 6.17 70 14:31 04.03.2021
5733 Clouds 23 1012 94 7000 8.75 110 13:50 04.03.2021
5734 Clouds 23 1012 94 3000 10.29 110 13:32 04.03.2021
5735 Clouds 29 1010 79 10000 2.06 270 12:58 04.03.2021
5736 Clouds 29 1008 79 10000 3.6 270 12:39 04.03.2021
5737 Clouds 29 1007 79 10000 3.6 280 11:47 04.03.2021
5738 Clouds 29 1007 74 10000 4.12 280 11:26 04.03.2021
5739 Clouds 29 1007 70 10000 5.66 270 10:55 04.03.2021
5740 Clouds 29 1006 74 10000 6.17 270 10:31 04.03.2021
5741 Clouds 30 1006 74 10000 5.66 280 09:44 04.03.2021
5742 Clouds 30 1006 70 10000 5.14 280 09:23 04.03.2021
5743 Clouds 31 1006 66 10000 5.66 280 08:36 04.03.2021
5744 Clouds 32 1006 58 10000 5.66 270 07:53 04.03.2021
5745 Clouds 32 1007 62 10000 6.17 280 07:31 04.03.2021
5746 Clouds 33 1007 62 10000 6.17 270 06:25 04.03.2021
5747 Clouds 33 1008 58 10000 6.69 280 05:39 04.03.2021
5748 Clouds 31 1010 70 10000 5.14 270 01:44 04.03.2021
5749 Clouds 31 1010 70 10000 5.14 270 01:44 04.03.2021
5750 Clouds 31 1010 70 10000 5.14 270 01:44 04.03.2021
5751 Clouds 31 1010 70 10000 5.14 270 01:44 04.03.2021
5752 Clouds 31 1010 70 10000 5.14 270 01:44 04.03.2021
5753 Clouds 28 1009 83 10000 4.63 280 22:45 03.03.2021
5754 Clouds 28 1008 83 10000 4.63 280 22:26 03.03.2021
5755 Clouds 28 1008 83 10000 5.14 290 21:45 03.03.2021
5756 Clouds 28 1008 83 10000 5.14 290 21:45 03.03.2021
5757 Clouds 28 1008 83 10000 5.14 290 21:24 03.03.2021
5758 Clouds 28 1008 89 10000 4.63 290 20:59 03.03.2021
5759 Clouds 28 1008 89 10000 4.63 290 20:41 03.03.2021
5760 Clouds 28 1008 89 10000 4.63 290 20:19 03.03.2021
5761 Clouds 28 1007 89 10000 3.6 280 19:42 03.03.2021
5762 Clouds 28 1007 89 10000 3.6 280 19:23 03.03.2021
5763 Clouds 28 1008 83 10000 3.6 270 18:48 03.03.2021
5764 Clouds 28 1008 83 10000 3.6 280 18:29 03.03.2021
5765 Clouds 28 1008 83 10000 3.6 280 17:54 03.03.2021
5766 Clouds 28 1008 83 10000 4.12 280 17:20 03.03.2021
5767 Clouds 28 1009 83 10000 3.09 280 16:50 03.03.2021
5768 Clouds 28 1009 83 10000 3.6 270 16:27 03.03.2021
5769 Clear 28 1009 89 10000 3.09 270 15:49 03.03.2021
5770 Clouds 28 1009 83 10000 2.57 270 15:28 03.03.2021
5771 Clear 29 1010 79 10000 3.6 250 14:35 03.03.2021
5772 Clear 29 1010 79 10000 3.09 250 13:59 03.03.2021
5773 Clear 29 1009 79 10000 3.09 250 13:38 03.03.2021
5774 Clear 29 1009 79 10000 3.09 250 13:18 03.03.2021
5775 Clear 29 1008 79 10000 4.63 250 12:41 03.03.2021
5776 Clear 29 1008 79 10000 4.63 250 12:22 03.03.2021
5777 Clouds 29 1008 79 10000 4.63 250 11:44 03.03.2021
5778 Clouds 30 1007 74 10000 5.14 260 11:22 03.03.2021
5779 Clouds 30 1007 74 10000 5.66 260 10:44 03.03.2021
5780 Clouds 30 1007 74 10000 5.66 270 10:21 03.03.2021
5781 Clouds 32 1006 62 10000 6.69 280 09:41 03.03.2021
5782 Clouds 33 1006 58 10000 6.69 270 08:51 03.03.2021
5783 Clouds 33 1006 62 10000 5.66 270 08:23 03.03.2021
5784 Clouds 32 1006 62 10000 6.17 270 07:53 03.03.2021
5785 Clouds 33 1006 58 10000 6.17 290 07:20 03.03.2021
5786 Clouds 33 1007 58 10000 6.17 270 06:19 03.03.2021
5787 Clouds 32 1008 66 10000 5.66 300 05:31 03.03.2021
5788 Clouds 32 1009 66 10000 5.14 280 04:36 03.03.2021
5789 Clouds 32 1009 62 10000 5.14 260 03:52 03.03.2021
5790 Clouds 29 1009 79 10000 3.09 280 00:18 03.03.2021
5791 Clouds 27 1008 89 10000 2.06 280 23:32 02.03.2021
5792 Clouds 27 1008 89 10000 2.06 270 22:50 02.03.2021
5793 Clouds 27 1009 89 10000 2.57 270 22:21 02.03.2021
5794 Clouds 26 1008 89 10000 1.54 280 21:51 02.03.2021
5795 Clouds 26 1008 89 10000 2.06 270 21:32 02.03.2021
5796 Clouds 27 1008 89 10000 2.06 250 20:55 02.03.2021
5797 Clouds 27 1008 83 10000 2.06 300 20:37 02.03.2021
5798 Clouds 27 1008 83 10000 2.06 300 20:19 02.03.2021
5799 Rain 28 1008 83 10000 2.06 260 19:46 02.03.2021
5800 Rain 28 1008 83 10000 3.6 260 19:26 02.03.2021
5801 Clouds 28 1009 79 10000 2.57 270 18:41 02.03.2021
5802 Clouds 28 1009 79 10000 2.57 270 18:21 02.03.2021
5803 Clouds 28 1009 83 10000 4.12 280 17:57 02.03.2021
5804 Clouds 29 1009 74 10000 4.63 290 17:38 02.03.2021
5805 Clouds 29 1009 74 10000 4.63 290 17:18 02.03.2021
5806 Clouds 29 1009 79 10000 4.63 300 16:44 02.03.2021
5807 Clouds 29 1009 79 10000 3.6 290 15:54 02.03.2021
5808 Clouds 29 1009 79 10000 4.12 300 15:27 02.03.2021
5809 Clouds 29 1009 79 10000 4.63 300 14:44 02.03.2021
5810 Clouds 29 1009 79 10000 3.09 290 14:18 02.03.2021
5811 Clouds 29 1009 79 10000 3.09 290 14:18 02.03.2021
5812 Clouds 29 1009 79 10000 3.6 300 13:44 02.03.2021
5813 Clouds 29 1009 74 10000 2.57 280 13:23 02.03.2021
5814 Clouds 29 1009 74 10000 3.09 290 12:45 02.03.2021
5815 Clouds 29 1008 79 10000 3.6 290 12:25 02.03.2021
5816 Clouds 29 1008 84 10000 3.6 300 11:45 02.03.2021
5817 Clouds 29 1008 79 10000 3.6 300 11:22 02.03.2021
5818 Clouds 29 1007 74 10000 3.09 280 10:49 02.03.2021
5819 Clouds 29 1007 74 10000 3.6 270 10:29 02.03.2021
5820 Clouds 30 1006 70 10000 3.6 270 09:41 02.03.2021
5821 Clouds 30 1006 70 10000 3.6 270 09:22 02.03.2021
5822 Clouds 31 1007 70 10000 4.63 260 08:44 02.03.2021
5823 Clouds 31 1007 70 10000 4.63 280 08:26 02.03.2021
5824 Clouds 31 1007 66 10000 5.66 290 07:43 02.03.2021
5825 Clouds 31 1007 70 10000 6.17 290 06:37 02.03.2021
5826 Clouds 31 1008 70 10000 5.14 300 05:48 02.03.2021
5827 Clouds 31 1008 70 10000 5.14 300 05:30 02.03.2021
5828 Clouds 31 1010 74 10000 4.63 290 03:29 02.03.2021
5829 Clouds 30 1010 79 10000 4.63 300 01:42 02.03.2021
5830 Clouds 29 1010 79 10000 4.63 300 01:19 02.03.2021
5831 Clouds 26 1009 100 10000 1.03 300 23:29 01.03.2021
5832 Clear 25 1008 94 10000 1.03 270 22:43 01.03.2021
5833 Clear 25 1008 94 10000 1.03 270 22:43 01.03.2021
5834 Clear 25 1008 94 10000 0.51 280 22:25 01.03.2021
5835 Clear 25 1008 100 10000 1.73 281 21:53 01.03.2021
5836 Clear 25 1007 100 10000 1.9 280 21:24 01.03.2021
5837 Clear 25 1007 100 10000 1.9 280 21:24 01.03.2021
5838 Clouds 25 1007 94 10000 0.51 280 21:00 01.03.2021
5839 Clouds 25 1007 94 10000 1.9 280 20:41 01.03.2021
5840 Clouds 25 1007 94 10000 1.81 278 20:19 01.03.2021
5841 Clouds 26 1007 94 10000 1.81 278 19:43 01.03.2021
5842 Clouds 25 1007 94 10000 1.03 20 19:20 01.03.2021
5843 Clouds 26 1008 94 10000 1.03 40 18:42 01.03.2021
5844 Clouds 26 1008 94 10000 1.03 40 18:22 01.03.2021
5845 Clouds 26 1008 94 10000 3.79 295 17:46 01.03.2021
5846 Clouds 25 1008 94 10000 0.51 230 17:21 01.03.2021
5847 Clouds 25 1009 94 10000 1.03 250 16:46 01.03.2021
5848 Clouds 26 1009 94 10000 1.03 230 16:26 01.03.2021
5849 Clouds 25 1010 94 10000 1.54 190 15:47 01.03.2021
5850 Clouds 25 1010 94 10000 2.57 200 15:22 01.03.2021
5851 Clouds 26 1010 89 10000 1.54 180 14:58 01.03.2021
5852 Clouds 26 1010 89 10000 2.57 190 14:39 01.03.2021
5853 Clouds 26 1010 89 10000 2.06 240 13:50 01.03.2021
5854 Clouds 26 1010 89 10000 3.6 280 13:29 01.03.2021
5855 Clouds 26 1010 89 10000 4.63 280 12:59 01.03.2021
5856 Clouds 26 1010 89 10000 2.57 270 12:41 01.03.2021
5857 Clouds 26 1010 89 10000 2.57 270 12:21 01.03.2021
5858 Clouds 26 1010 89 10000 4.12 290 11:46 01.03.2021
5859 Clouds 26 1009 89 10000 4.63 320 10:59 01.03.2021
5860 Clouds 26 1009 89 10000 4.63 320 10:36 01.03.2021
5861 Clouds 26 1009 89 10000 4.63 320 10:18 01.03.2021
5862 Clouds 27 1008 69 10000 3.6 290 09:46 01.03.2021
5863 Clouds 27 1008 69 10000 3.6 290 09:25 01.03.2021
5864 Clouds 28 1008 74 10000 2.57 270 08:55 01.03.2021
5865 Clouds 28 1008 74 10000 1.54 190 08:22 01.03.2021
5866 Clouds 28 1008 74 10000 1.54 190 08:22 01.03.2021
5867 Clouds 32 1007 62 10000 4.12 230 06:54 01.03.2021
5868 Clouds 33 1007 70 10000 6.17 300 06:24 01.03.2021
5869 -273 0 0 0 0 0 02:38 01.03.2021
5870 Clouds 26 1008 94 10000 1.03 340 23:41 28.02.2021
5871 Clear 26 1008 94 10000 0.51 330 22:56 28.02.2021
5872 Clear 26 1008 94 10000 3.39 306 22:26 28.02.2021
5873 Clear 26 1007 94 10000 3.39 306 21:58 28.02.2021
5874 Clear 26 1007 89 10000 3.39 306 21:33 28.02.2021
5875 Clouds 26 1007 89 10000 3.4 299 20:59 28.02.2021
5876 Clouds 26 1007 89 10000 0.51 360 20:38 28.02.2021
5877 Clouds 26 1007 89 10000 0.51 360 20:38 28.02.2021
5878 Clouds 26 1007 89 10000 0.51 360 20:18 28.02.2021
5879 Clouds 26 1007 89 10000 1.03 360 19:45 28.02.2021
5880 Rain 26 1007 89 10000 3.3 293 19:24 28.02.2021
5881 Rain 26 1008 89 10000 3.84 291 18:44 28.02.2021
5882 Clouds 26 1008 89 10000 1.03 150 18:26 28.02.2021
5883 Clouds 26 1008 89 10000 3.68 284 17:53 28.02.2021
5884 Clouds 26 1008 89 10000 4.04 285 17:28 28.02.2021
5885 Clouds 26 1008 89 10000 4.04 285 17:28 28.02.2021
5886 Clouds 26 1008 89 10000 0.51 170 16:57 28.02.2021
5887 Clouds 26 1009 89 10000 4.04 285 16:38 28.02.2021
5888 Clouds 26 1009 89 10000 4.28 287 16:19 28.02.2021
5889 Clear 26 1009 89 10000 0.51 360 15:49 28.02.2021
5890 Clear 26 1009 89 10000 0.51 110 15:25 28.02.2021
5891 Clear 26 1009 83 10000 1.54 160 14:53 28.02.2021
5892 Rain 26 1009 83 10000 1.54 190 14:30 28.02.2021
5893 Clouds 26 1008 83 10000 2.06 230 13:52 28.02.2021
5894 Clouds 26 1008 83 10000 2.06 230 13:22 28.02.2021
5895 Clouds 26 1008 83 10000 2.06 230 13:21 28.02.2021
5896 Clouds 26 1008 83 10000 1.03 270 12:59 28.02.2021
5897 Clouds 26 1008 83 10000 1.03 270 12:59 28.02.2021
5898 Clouds 26 1008 78 10000 2.57 270 12:40 28.02.2021
5899 Clouds 26 1008 78 10000 2.57 270 12:22 28.02.2021
5900 Clouds 26 1007 78 10000 5.14 290 11:53 28.02.2021
5901 Clouds 26 1007 78 10000 5.14 290 11:26 28.02.2021
5902 Clouds 27 1007 78 10000 3.09 320 10:59 28.02.2021
5903 Clouds 27 1006 78 10000 2.57 250 10:29 28.02.2021
5904 Clouds 28 1006 69 10000 5.66 180 09:57 28.02.2021
5905 Clouds 29 1006 74 10000 6.17 290 09:35 28.02.2021
5906 Clouds 30 1006 74 10000 6.17 300 08:55 28.02.2021
5907 Clouds 31 1005 70 10000 6.17 300 08:33 28.02.2021
5908 Clouds 33 1005 66 10000 6.69 310 07:59 28.02.2021
5909 Clouds 33 1005 66 10000 5.66 310 07:39 28.02.2021
5910 Clouds 33 1005 66 10000 5.66 310 07:19 28.02.2021
5911 Clouds 33 1006 66 10000 4.63 310 06:23 28.02.2021
5912 Clouds 33 1008 70 10000 3.6 300 03:46 28.02.2021
5913 Clouds 31 1008 74 10000 2.57 300 02:25 28.02.2021
5914 Clouds 30 1009 74 10000 1.54 360 01:20 28.02.2021
5915 Clouds 29 1008 84 10000 0.51 350 00:38 28.02.2021
5916 Clouds 28 1008 89 10000 1.54 10 23:50 27.02.2021
5917 Clouds 27 1007 94 10000 1.03 60 23:21 27.02.2021
5918 Clouds 27 1007 94 10000 1.03 60 23:21 27.02.2021
5919 Clouds 26 1007 100 10000 1.54 90 22:50 27.02.2021
5920 Clouds 26 1007 94 10000 1.03 130 22:23 27.02.2021
5921 Clouds 26 1007 94 10000 1.39 250 21:58 27.02.2021
5922 Clouds 26 1006 100 10000 0.51 210 21:37 27.02.2021
5923 Clouds 26 1006 100 10000 0.51 210 20:55 27.02.2021
5924 Clouds 26 1006 94 10000 1.57 260 20:37 27.02.2021
5925 Clouds 26 1006 94 10000 1.93 265 20:18 27.02.2021
5926 Clouds 26 1006 94 10000 1.03 240 19:41 27.02.2021
5927 Clouds 27 1006 94 10000 1.03 240 19:23 27.02.2021
5928 Clouds 27 1006 89 10000 1.54 250 18:39 27.02.2021
5929 Clouds 27 1006 89 10000 1.54 250 18:19 27.02.2021
5930 Clouds 27 1007 83 10000 2.06 270 17:43 27.02.2021
5931 Clouds 27 1007 83 10000 2.06 270 17:20 27.02.2021
5932 Clouds 27 1007 83 10000 2.57 280 16:51 27.02.2021
5933 Clouds 27 1007 83 10000 2.06 270 16:31 27.02.2021
5934 Clouds 27 1007 83 10000 2.06 290 15:53 27.02.2021
5935 Clouds 27 1007 78 10000 2.06 270 15:33 27.02.2021
5936 Clear 27 1007 69 10000 1.03 290 14:48 27.02.2021
5937 Clear 27 1007 69 10000 1.03 290 14:30 27.02.2021
5938 Clouds 27 1006 69 10000 1.54 280 13:49 27.02.2021
5939 Clouds 27 1006 74 10000 2.06 270 13:27 27.02.2021
5940 Clouds 28 1006 78 10000 2.06 270 12:55 27.02.2021
5941 Clouds 28 1005 78 10000 2.06 280 12:28 27.02.2021
5942 Clear 28 1005 83 10000 1.54 290 11:56 27.02.2021
5943 Clear 28 1005 74 10000 2.06 270 11:38 27.02.2021
5944 Clear 28 1005 74 10000 2.06 270 11:18 27.02.2021
5945 Clouds 29 1004 79 10000 3.6 280 10:42 27.02.2021
5946 Clouds 29 1004 79 10000 3.6 280 10:19 27.02.2021
5947 Clouds 30 1004 70 10000 4.12 290 09:44 27.02.2021
5948 Clouds 31 1004 66 10000 4.63 300 09:25 27.02.2021
5949 Clouds 31 1004 70 10000 5.66 300 08:39 27.02.2021
5950 Clouds 32 1004 70 10000 5.66 300 08:20 27.02.2021
5951 Clouds 32 1004 70 10000 5.66 300 07:36 27.02.2021
5952 Clouds 31 1006 66 10000 2.57 200 03:28 27.02.2021
5953 Clouds 28 1006 83 10000 2.06 350 00:41 27.02.2021
5954 Clouds 27 1006 89 10000 1.03 360 23:51 26.02.2021
5955 Clouds 26 1006 89 10000 1.03 360 23:26 26.02.2021
5956 Clouds 25 1005 94 10000 1.54 10 22:44 26.02.2021
5957 Clouds 25 1005 94 10000 2.06 360 22:23 26.02.2021
5958 Clouds 25 1005 94 10000 2.06 360 21:42 26.02.2021
5959 Clouds 25 1005 94 10000 1.54 30 21:19 26.02.2021
5960 Clouds 25 1005 88 10000 2.57 50 20:44 26.02.2021
5961 Clouds 25 1005 88 10000 2.57 50 20:44 26.02.2021
5962 Clouds 25 1005 88 10000 2.57 50 20:21 26.02.2021
5963 Clouds 26 1005 83 10000 3.6 60 19:42 26.02.2021
5964 Clouds 26 1005 83 10000 3.6 60 19:22 26.02.2021
5965 Clouds 26 1005 83 10000 2.06 80 18:42 26.02.2021
5966 Clouds 26 1005 83 10000 2.06 80 18:21 26.02.2021
5967 Clouds 26 1006 89 10000 3.6 90 17:40 26.02.2021
5968 Clouds 26 1006 89 10000 3.6 90 17:22 26.02.2021
5969 Clouds 26 1006 89 10000 0.51 110 16:52 26.02.2021
5970 Clouds 26 1006 83 10000 3.09 110 16:31 26.02.2021
5971 Clear 27 1006 83 10000 1.54 240 15:57 26.02.2021
5972 Clear 26 1006 78 10000 1.54 240 15:37 26.02.2021
5973 Clear 27 1006 78 10000 1.54 240 15:19 26.02.2021
5974 Clouds 27 1006 78 10000 1.54 240 14:44 26.02.2021
5975 Clouds 27 1006 83 10000 1.03 260 14:24 26.02.2021
5976 Clear 27 1005 78 10000 2.57 250 13:42 26.02.2021
5977 Clear 27 1005 78 10000 2.57 250 13:23 26.02.2021
5978 Clouds 28 1005 74 10000 0.51 150 12:39 26.02.2021
5979 Clouds 28 1005 70 10000 1.03 330 11:54 26.02.2021
5980 Clouds 29 1004 70 10000 2.06 310 11:36 26.02.2021
5981 Clouds 29 1003 66 10000 3.6 300 10:48 26.02.2021
5982 Clouds 30 1003 66 10000 4.12 310 09:58 26.02.2021
5983 Clouds 31 1002 58 10000 4.63 300 09:39 26.02.2021
5984 Clouds 31 1002 58 10000 4.63 300 09:20 26.02.2021
5985 Clouds 33 1002 55 10000 2.57 310 08:26 26.02.2021
5986 Clouds 32 1003 55 10000 4.12 310 07:52 26.02.2021
5987 Clouds 33 1003 55 10000 3.6 320 06:43 26.02.2021
5988 Rain 32 1004 45 10000 1.54 310 05:31 26.02.2021
5989 Clouds 30 1006 65 10000 1.13 106 03:49 26.02.2021
5990 Clear 30 1006 69 10000 0.51 80 02:36 26.02.2021
5991 Clear 25 1006 78 10000 2.06 140 00:18 26.02.2021
5992 Clear 25 1005 83 10000 2.06 160 23:28 25.02.2021
5993 Clouds 25 1005 83 10000 1.54 130 22:50 25.02.2021
5994 Clouds 25 1005 83 10000 1.54 130 22:27 25.02.2021
5995 Clear 24 1004 83 10000 1.54 150 21:44 25.02.2021
5996 Clear 24 1004 83 10000 1.03 30 21:26 25.02.2021
5997 Clouds 25 1004 83 10000 3.6 150 20:41 25.02.2021
5998 Clouds 25 1004 83 10000 3.6 150 20:23 25.02.2021
5999 Clouds 25 1004 83 10000 3.6 150 20:23 25.02.2021
6000 Clouds 25 1005 83 10000 4.63 130 19:52 25.02.2021
6001 Clouds 25 1005 83 10000 5.66 130 19:22 25.02.2021
6002 Clouds 25 1005 83 10000 5.66 130 18:58 25.02.2021
6003 Clouds 25 1005 88 10000 1.54 70 18:27 25.02.2021
6004 Clouds 25 1005 88 10000 1.54 90 17:50 25.02.2021
6005 Clouds 25 1005 88 10000 1.54 80 17:27 25.02.2021
6006 Clouds 25 1006 83 10000 2.06 100 16:48 25.02.2021
6007 Clouds 26 1006 83 10000 5.14 100 16:25 25.02.2021
6008 Clouds 27 1007 83 10000 1.54 140 15:36 25.02.2021
6009 Clouds 27 1007 83 10000 1.54 140 15:18 25.02.2021
6010 Clouds 27 1007 83 10000 1.54 220 14:28 25.02.2021
6011 Clouds 27 1006 83 10000 2.06 230 13:55 25.02.2021
6012 Clouds 27 1006 74 10000 2.06 220 13:27 25.02.2021
6013 Clouds 27 1006 74 10000 2.06 240 12:56 25.02.2021
6014 Clouds 27 1006 74 10000 2.06 260 12:22 25.02.2021
6015 Clouds 27 1006 74 10000 2.06 280 11:47 25.02.2021
6016 Clouds 28 1005 74 10000 1.54 290 11:21 25.02.2021
6017 Clouds 28 1005 74 10000 2.06 290 10:46 25.02.2021
6018 Rain 29 1004 70 10000 3.6 300 10:26 25.02.2021
6019 Clouds 29 1004 74 10000 3.6 300 09:43 25.02.2021
6020 Clouds 30 1004 66 10000 2.57 330 08:57 25.02.2021
6021 Clouds 31 1004 66 10000 3.09 340 08:25 25.02.2021
6022 Clouds 31 1004 66 10000 3.6 330 07:57 25.02.2021
6023 Clouds 31 1004 62 10000 3.09 310 07:35 25.02.2021
6024 Clouds 30 1004 62 10000 2.06 80 06:55 25.02.2021
6025 Clear 28 1007 74 10000 2.06 40 02:59 25.02.2021
6026 Clouds 26 1007 83 10000 3.09 110 01:38 25.02.2021
6027 Clouds 24 1007 88 10000 3.09 70 00:42 25.02.2021
6028 Clouds 24 1007 88 10000 2.06 70 23:53 24.02.2021
6029 Clouds 23 1007 94 10000 2.57 50 23:28 24.02.2021
6030 Clouds 23 1007 94 10000 3.6 110 22:45 24.02.2021
6031 Clouds 24 1007 94 10000 3.6 110 22:26 24.02.2021
6032 Clouds 24 1007 94 10000 4.63 120 21:46 24.02.2021
6033 Clouds 24 1007 94 10000 3.6 130 21:19 24.02.2021
6034 Clouds 24 1006 94 10000 2.57 90 20:41 24.02.2021
6035 Clouds 24 1006 94 10000 1.54 100 20:22 24.02.2021
6036 Clouds 24 1006 100 10000 2.57 120 19:36 24.02.2021
6037 Clouds 24 1006 100 10000 2.57 120 19:18 24.02.2021
6038 Clouds 24 1006 100 10000 2.57 120 19:18 24.02.2021
6039 Clouds 24 1006 100 10000 2.06 130 18:42 24.02.2021
6040 Clouds 25 1006 94 10000 3.09 130 18:22 24.02.2021
6041 Clouds 25 1007 94 9000 2.57 130 17:38 24.02.2021
6042 Clouds 25 1007 94 6000 2.57 120 17:19 24.02.2021
6043 Clouds 25 1007 94 8000 3.09 130 16:44 24.02.2021
6044 Clouds 25 1008 94 4000 2.57 130 16:19 24.02.2021
6045 Clouds 25 1008 94 6000 2.57 140 15:40 24.02.2021
6046 Clouds 25 1008 94 5000 2.06 150 14:57 24.02.2021
6047 Clouds 25 1008 94 9000 2.57 170 14:35 24.02.2021
6048 Clouds 25 1008 94 9000 2.57 190 13:59 24.02.2021
6049 Clouds 25 1007 94 10000 2.57 220 13:40 24.02.2021
6050 Clouds 25 1007 94 10000 1.54 190 13:22 24.02.2021
6051 Clouds 25 1007 94 10000 2.57 240 12:45 24.02.2021
6052 Clouds 25 1006 94 10000 1.54 210 12:26 24.02.2021
6053 Clouds 25 1006 94 10000 1.54 170 11:50 24.02.2021
6054 Clouds 25 1006 94 10000 1.03 240 11:21 24.02.2021
6055 Clouds 25 1005 94 9000 1.54 290 10:32 24.02.2021
6056 Clouds 25 1005 94 7000 0.51 290 09:50 24.02.2021
6057 Clouds 25 1005 94 9000 1.03 270 09:20 24.02.2021
6058 Clouds 26 1005 89 10000 2.57 300 08:37 24.02.2021
6059 Clouds 25 1005 89 10000 2.57 300 08:19 24.02.2021
6060 Clouds 27 1005 89 6000 3.09 30 07:20 24.02.2021
6061 Clouds 30 1005 66 10000 5.14 310 06:42 24.02.2021
6062 Clouds 31 1007 62 10000 4.63 350 03:40 24.02.2021
6063 Clouds 26 1007 89 10000 2.06 30 00:37 24.02.2021
6064 Clouds 24 1006 94 10000 2.06 50 23:29 23.02.2021
6065 Clouds 24 1006 100 10000 1.03 60 22:40 23.02.2021
6066 Clouds 24 1006 100 10000 1.03 60 22:20 23.02.2021
6067 Clouds 24 1006 100 10000 1.54 80 21:46 23.02.2021
6068 Clouds 24 1005 100 10000 1.54 90 21:24 23.02.2021
6069 Clouds 24 1005 100 10000 2.57 50 20:49 23.02.2021
6070 Clouds 25 1006 94 10000 2.06 60 20:30 23.02.2021
6071 Clouds 25 1006 94 10000 2.06 60 19:49 23.02.2021
6072 Clouds 25 1006 94 10000 2.57 60 19:29 23.02.2021
6073 Clouds 25 1007 94 10000 2.57 70 18:59 23.02.2021
6074 Clouds 25 1007 94 10000 2.57 90 18:40 23.02.2021
6075 Clouds 25 1007 94 10000 2.57 90 18:20 23.02.2021
6076 Clouds 25 1008 94 10000 3.09 100 17:39 23.02.2021
6077 Clouds 25 1008 94 10000 1.54 100 16:58 23.02.2021
6078 Clouds 25 1008 94 10000 1.54 90 16:39 23.02.2021
6079 Clouds 25 1008 94 10000 1.54 90 16:20 23.02.2021
6080 Clouds 25 1009 94 10000 2.06 70 15:41 23.02.2021
6081 Clouds 25 1009 94 10000 2.06 70 15:21 23.02.2021
6082 Clouds 25 1009 94 10000 2.57 100 14:45 23.02.2021
6083 Clouds 25 1008 94 10000 3.09 100 14:26 23.02.2021
6084 Clouds 25 1008 94 10000 2.06 130 13:47 23.02.2021
6085 Clouds 25 1008 94 10000 2.57 110 13:26 23.02.2021
6086 Clouds 25 1007 94 10000 1.54 140 12:52 23.02.2021
6087 Clouds 25 1007 94 10000 2.57 140 12:22 23.02.2021
6088 Clouds 25 1007 94 10000 2.57 150 11:50 23.02.2021
6089 Clouds 25 1007 94 10000 3.6 160 11:23 23.02.2021
6090 Clouds 26 1007 89 10000 4.63 170 10:52 23.02.2021
6091 Clouds 25 1007 89 10000 4.63 170 10:34 23.02.2021
6092 Clouds 26 1006 89 10000 5.14 170 09:45 23.02.2021
6093 Clouds 26 1006 89 10000 4.12 160 09:25 23.02.2021
6094 Clouds 26 1006 89 10000 4.12 170 08:54 23.02.2021
6095 Clouds 26 1006 89 10000 4.63 170 08:25 23.02.2021
6096 Clouds 27 1006 83 10000 4.63 160 07:58 23.02.2021
6097 Clouds 31 1005 66 10000 4.63 350 05:44 23.02.2021
6098 Clouds 32 1006 62 10000 4.63 340 05:19 23.02.2021
6099 Clouds 31 1008 70 10000 3.6 360 02:36 23.02.2021
6100 Clouds 29 1007 79 10000 3.6 360 00:54 23.02.2021
6101 Clouds 29 1007 79 10000 3.6 10 00:18 23.02.2021
6102 Clouds 27 1006 89 10000 1.54 10 23:21 22.02.2021
6103 Clouds 26 1006 89 10000 1.54 360 22:41 22.02.2021
6104 Clouds 27 1006 89 10000 1.54 360 22:20 22.02.2021
6105 Clouds 27 1006 89 10000 1.54 350 21:46 22.02.2021
6106 Clouds 27 1005 89 10000 2.57 360 21:23 22.02.2021
6107 Clouds 27 1005 89 10000 3.09 350 20:52 22.02.2021
6108 Clouds 27 1005 89 10000 2.06 350 20:29 22.02.2021
6109 Clouds 27 1005 89 10000 2.57 360 19:54 22.02.2021
6110 Clouds 27 1005 89 10000 3.09 350 19:35 22.02.2021
6111 Clouds 27 1006 89 10000 3.09 360 18:58 22.02.2021
6112 Clouds 27 1006 89 10000 3.6 360 18:40 22.02.2021
6113 Clouds 27 1006 89 10000 3.6 360 18:20 22.02.2021
6114 Clouds 28 1007 83 10000 2.57 10 17:27 22.02.2021
6115 Clouds 28 1007 83 10000 2.57 20 16:57 22.02.2021
6116 Clouds 28 1008 83 10000 2.57 10 16:39 22.02.2021
6117 Clouds 28 1008 83 10000 2.57 10 15:56 22.02.2021
6118 Clear 28 1008 83 10000 2.06 10 15:29 22.02.2021
6119 Clouds 28 1008 78 10000 4.12 360 14:48 22.02.2021
6120 Clouds 28 1007 83 10000 4.12 360 14:30 22.02.2021
6121 Clouds 29 1007 74 10000 4.63 360 13:47 22.02.2021
6122 Clouds 29 1007 79 10000 5.66 360 13:19 22.02.2021
6123 Clouds 29 1006 74 10000 4.63 360 12:41 22.02.2021
6124 Clouds 29 1006 74 10000 4.63 360 12:20 22.02.2021
6125 Clouds 30 1006 74 10000 3.09 350 11:44 22.02.2021
6126 Clouds 30 1005 74 10000 3.09 10 11:25 22.02.2021
6127 Clouds 30 1005 74 10000 2.57 40 10:47 22.02.2021
6128 Clouds 30 1004 74 10000 2.57 20 10:26 22.02.2021
6129 Clouds 30 1004 74 10000 2.57 340 09:45 22.02.2021
6130 Clouds 30 1004 74 10000 2.57 340 09:25 22.02.2021
6131 Clouds 30 1003 79 10000 3.09 330 08:51 22.02.2021
6132 Clouds 30 1003 79 10000 5.14 340 08:29 22.02.2021
6133 Clouds 30 1003 74 10000 5.66 330 07:58 22.02.2021
6134 Clouds 30 1003 74 10000 5.66 320 07:26 22.02.2021
6135 Clouds 31 1003 79 10000 6.69 330 06:45 22.02.2021
6136 Clouds 33 1004 62 10000 5.14 20 05:45 22.02.2021
6137 Clouds 31 1005 70 10000 4.63 30 03:29 22.02.2021
6138 Clouds 31 1005 70 10000 4.63 30 03:29 22.02.2021
6139 Clouds 31 1005 70 10000 4.63 30 03:29 22.02.2021
6140 Clouds 31 1006 70 10000 4.63 20 02:51 22.02.2021
6141 Clouds 29 1006 83 10000 4.12 360 00:46 22.02.2021
6142 Clouds 28 1005 89 10000 4.12 10 00:23 22.02.2021
6143 Clouds 27 1005 94 10000 1.54 10 23:33 21.02.2021
6144 Clouds 26 1004 89 10000 2.06 360 22:54 21.02.2021
6145 Clouds 26 1004 94 10000 2.06 360 22:24 21.02.2021
6146 Clouds 26 1003 100 10000 3.6 360 21:45 21.02.2021
6147 Clouds 26 1003 94 8000 2.57 10 21:27 21.02.2021
6148 Clouds 26 1003 94 5000 2.57 10 20:44 21.02.2021
6149 Clouds 26 1002 94 10000 2.57 360 20:20 21.02.2021
6150 Clouds 26 1002 94 10000 1.54 350 19:53 21.02.2021
6151 Clouds 26 1002 100 10000 1.54 350 19:33 21.02.2021
6152 Drizzle 27 1003 94 6000 2.06 360 18:59 21.02.2021
6153 Clouds 27 1003 89 10000 3.09 350 18:26 21.02.2021
6154 Rain 26 1003 94 10000 2.06 350 17:39 21.02.2021
6155 Clouds 26 1003 94 10000 2.06 350 17:18 21.02.2021
6156 Clouds 27 1004 94 8000 3.09 340 16:43 21.02.2021
6157 Clouds 27 1004 94 10000 2.57 360 16:24 21.02.2021
6158 Clouds 26 1005 94 10000 3.6 360 15:23 21.02.2021
6159 Clouds 26 1005 89 10000 3.6 360 14:56 21.02.2021
6160 Clouds 27 1005 94 10000 2.57 360 14:37 21.02.2021
6161 Clouds 27 1005 94 10000 2.57 360 13:54 21.02.2021
6162 Clouds 27 1004 89 10000 3.09 310 13:29 21.02.2021
6163 Clouds 28 1004 83 10000 2.06 300 12:33 21.02.2021
6164 Clouds 28 1003 83 10000 3.6 320 11:59 21.02.2021
6165 Clouds 28 1003 78 10000 3.6 310 11:41 21.02.2021
6166 Clouds 28 1003 83 10000 4.63 310 10:46 21.02.2021
6167 Clouds 28 1002 83 10000 4.12 310 10:21 21.02.2021
6168 Clouds 29 1002 74 10000 5.14 300 09:43 21.02.2021
6169 Clouds 29 1002 74 10000 5.14 300 09:24 21.02.2021
6170 Clouds 29 1002 74 10000 5.14 300 08:36 21.02.2021
6171 Clouds 30 1002 74 10000 5.66 300 07:57 21.02.2021
6172 Rain 30 1002 79 10000 4.63 310 07:22 21.02.2021
6173 Clouds 30 1002 74 10000 4.63 310 06:24 21.02.2021
6174 Clouds 31 1005 74 10000 1.03 260 02:43 21.02.2021
6175 Rain 28 1005 83 10000 1.03 260 01:22 21.02.2021
6176 Clouds 27 1004 89 10000 1.54 200 00:22 21.02.2021
6177 Clouds 26 1004 89 10000 1.03 230 23:48 20.02.2021
6178 Clouds 25 1003 94 10000 1.03 170 22:58 20.02.2021
6179 Clouds 25 1003 89 10000 1.03 220 22:34 20.02.2021
6180 Clouds 26 1003 89 10000 2.06 240 21:59 20.02.2021
6181 Clouds 26 1003 89 10000 2.06 240 21:41 20.02.2021
6182 Clouds 26 1003 94 10000 3.09 240 21:18 20.02.2021
6183 Clouds 26 1002 94 10000 2.06 210 20:40 20.02.2021
6184 Clouds 26 1002 94 10000 2.06 210 20:19 20.02.2021
6185 Clouds 25 1002 100 10000 2.06 220 19:42 20.02.2021
6186 Drizzle 26 1002 94 6000 3.09 200 18:58 20.02.2021
6187 Clouds 26 1002 94 10000 3.09 210 18:37 20.02.2021
6188 Clouds 26 1002 94 10000 2.06 230 18:18 20.02.2021
6189 Clouds 26 1003 89 10000 3.09 230 17:36 20.02.2021
6190 Clouds 26 1003 94 10000 3.6 240 16:50 20.02.2021
6191 Rain 26 1003 94 10000 1.03 220 16:27 20.02.2021
6192 Rain 26 1003 94 10000 1.54 150 15:44 20.02.2021
6193 Rain 26 1004 94 10000 3.6 180 14:53 20.02.2021
6194 Clouds 27 1004 89 10000 4.63 200 14:29 20.02.2021
6195 Clouds 27 1003 89 10000 3.6 210 13:59 20.02.2021
6196 Clouds 27 1003 89 10000 3.6 210 13:40 20.02.2021
6197 Rain 27 1004 89 10000 3.6 230 13:22 20.02.2021
6198 Clouds 27 1003 89 10000 3.09 240 12:47 20.02.2021
6199 Clouds 27 1003 94 10000 2.57 230 11:56 20.02.2021
6200 Clouds 27 1002 83 10000 2.57 260 11:38 20.02.2021
6201 Clouds 28 1002 83 10000 1.54 250 10:55 20.02.2021
6202 Clouds 28 1001 79 10000 2.57 260 10:32 20.02.2021
6203 Clouds 28 1001 83 10000 3.6 250 09:48 20.02.2021
6204 Clouds 29 1001 83 10000 3.6 250 09:18 20.02.2021
6205 Clouds 28 1001 89 10000 4.63 260 08:31 20.02.2021
6206 Clouds 28 1001 89 10000 5.66 270 07:50 20.02.2021
6207 Rain 29 1004 74 10000 2.57 200 02:37 20.02.2021
6208 Rain 29 1004 74 10000 2.57 190 02:19 20.02.2021
6209 Rain 27 1004 89 10000 4.12 190 01:21 20.02.2021
6210 Rain 25 1004 94 10000 2.57 230 00:42 20.02.2021
6211 Rain 25 1003 94 10000 3.6 240 23:43 19.02.2021
6212 Rain 25 1003 94 10000 4.63 250 22:51 19.02.2021
6213 Rain 25 1003 94 10000 2.57 240 22:26 19.02.2021
6214 Clouds 25 1003 94 10000 3.09 240 21:47 19.02.2021
6215 Clouds 25 1003 94 10000 3.09 250 21:28 19.02.2021
6216 Rain 24 1003 94 10000 2.57 240 20:47 19.02.2021
6217 Rain 24 1004 100 10000 3.09 280 20:27 19.02.2021
6218 Clouds 24 1004 94 10000 2.57 270 19:50 19.02.2021
6219 Clouds 24 1004 94 10000 2.57 260 19:20 19.02.2021
6220 Rain 23 1003 100 10000 2.57 250 18:54 19.02.2021
6221 Clouds 23 1003 100 10000 1.03 360 18:31 19.02.2021
6222 Clouds 23 1004 100 10000 1.03 50 17:45 19.02.2021
6223 Clouds 23 1004 100 5000 2.06 310 16:50 19.02.2021
6224 Clouds 23 1005 94 3100 5.14 170 16:23 19.02.2021
6225 Rain 24 1005 88 6000 6.69 140 15:57 19.02.2021
6226 Clouds 28 1005 78 10000 4.12 270 15:30 19.02.2021
6227 Clouds 28 1005 78 10000 4.63 270 14:56 19.02.2021
6228 Clouds 28 1005 83 10000 5.14 270 14:36 19.02.2021
6229 Clouds 28 1005 83 10000 4.63 270 13:57 19.02.2021
6230 Clouds 28 1004 78 10000 4.12 270 13:37 19.02.2021
6231 Clouds 28 1004 78 10000 4.12 270 13:19 19.02.2021
6232 Rain 28 1004 78 10000 5.14 270 12:41 19.02.2021
6233 Clouds 28 1004 78 10000 5.14 270 12:22 19.02.2021
6234 Clouds 28 1003 83 10000 4.63 270 11:44 19.02.2021
6235 Clouds 28 1003 83 10000 4.12 270 11:20 19.02.2021
6236 Clouds 29 1002 79 10000 5.66 270 10:39 19.02.2021
6237 Rain 29 1002 79 10000 5.66 270 10:19 19.02.2021
6238 Clouds 29 1002 79 10000 5.66 290 09:38 19.02.2021
6239 Clouds 29 1002 79 10000 5.66 290 09:19 19.02.2021
6240 Clouds 30 1001 74 10000 5.14 290 08:49 19.02.2021
6241 Clouds 30 1002 74 10000 5.66 280 08:22 19.02.2021
6242 Clouds 31 1002 70 10000 4.63 310 07:47 19.02.2021
6243 Clouds 31 1002 70 10000 4.12 300 07:26 19.02.2021
6244 Clouds 31 1002 74 10000 4.12 290 06:47 19.02.2021
6245 Clouds 30 1004 74 10000 2.57 290 04:42 19.02.2021
6246 Clouds 30 1005 74 10000 2.06 280 03:32 19.02.2021
6247 Clouds 28 1005 78 10000 2.57 250 01:46 19.02.2021
6248 Clouds 27 1005 94 10000 1.54 280 00:36 19.02.2021
6249 Clouds 26 1005 94 10000 2.57 290 23:50 18.02.2021
6250 Clouds 26 1005 94 10000 2.57 290 23:32 18.02.2021
6251 Clouds 25 1004 100 10000 2.06 340 22:44 18.02.2021
6252 Clouds 25 1004 100 10000 0.51 70 22:26 18.02.2021
6253 Clouds 25 1003 94 10000 0.51 90 21:42 18.02.2021
6254 Clouds 25 1003 94 10000 0.51 90 21:24 18.02.2021
6255 Clouds 25 1003 94 10000 1.95 133 20:41 18.02.2021
6256 Clouds 25 1003 94 10000 1.76 172 20:21 18.02.2021
6257 Clouds 25 1003 94 10000 1.03 120 19:46 18.02.2021
6258 Clouds 25 1003 94 10000 1.03 120 19:25 18.02.2021
6259 Clouds 25 1003 94 10000 2.2 258 18:52 18.02.2021
6260 Clouds 25 1004 94 10000 2.28 221 18:27 18.02.2021
6261 Clouds 25 1004 94 10000 0.51 270 17:52 18.02.2021
6262 Clouds 25 1005 94 10000 3.1 191 17:25 18.02.2021
6263 Clouds 25 1005 94 10000 3.1 191 16:52 18.02.2021
6264 Clouds 25 1005 94 10000 0.51 270 16:34 18.02.2021
6265 Clear 25 1005 94 10000 2.57 250 15:44 18.02.2021
6266 Clear 25 1005 94 10000 2.57 250 15:24 18.02.2021
6267 Clouds 26 1005 89 10000 5.14 280 14:58 18.02.2021
6268 Clouds 26 1005 89 10000 2.06 320 14:36 18.02.2021
6269 Clouds 26 1005 89 10000 3.6 310 13:58 18.02.2021
6270 Clouds 26 1005 89 10000 3.09 340 13:40 18.02.2021
6271 Clouds 26 1005 89 10000 3.09 340 13:18 18.02.2021
6272 Drizzle 26 1005 89 10000 3.09 30 12:41 18.02.2021
6273 Drizzle 25 1005 89 10000 3.09 30 12:18 18.02.2021
6274 Clouds 26 1005 89 10000 3.09 50 11:46 18.02.2021
6275 Clouds 25 1005 88 10000 2.57 50 11:25 18.02.2021
6276 Clouds 26 1003 89 10000 3.09 110 10:44 18.02.2021
6277 Clouds 26 1003 89 10000 3.09 110 10:25 18.02.2021
6278 Clouds 26 1003 83 10000 1.54 130 09:39 18.02.2021
6279 Clouds 26 1003 83 10000 1.54 130 09:20 18.02.2021
6280 Clouds 27 1002 74 10000 5.66 200 08:39 18.02.2021
6281 Clouds 27 1002 74 10000 5.66 200 08:20 18.02.2021
6282 Clouds 28 1002 83 10000 1.54 120 07:32 18.02.2021
6283 Clouds 27 1002 89 10000 2.06 140 06:41 18.02.2021
6284 Clouds 31 1005 74 10000 4.12 220 02:29 18.02.2021
6285 Clouds 28 1004 94 10000 2.35 214 23:51 17.02.2021
6286 Clouds 27 1004 100 10000 2.52 220 23:22 17.02.2021
6287 Clouds 27 1003 94 10000 1.03 280 22:51 17.02.2021
6288 Clouds 27 1003 94 10000 1.03 280 22:26 17.02.2021
6289 Clouds 27 1003 94 10000 1.54 230 21:54 17.02.2021
6290 Clouds 27 1003 94 10000 2.06 250 21:22 17.02.2021
6291 Clouds 27 1002 94 10000 2.06 270 20:48 17.02.2021
6292 Clouds 27 1002 94 10000 0.51 250 20:29 17.02.2021
6293 Clouds 27 1003 94 10000 1.03 290 19:49 17.02.2021
6294 Clouds 27 1003 94 10000 1.54 230 19:31 17.02.2021
6295 Clouds 27 1003 94 10000 2.06 260 18:45 17.02.2021
6296 Clouds 27 1003 94 10000 2.06 220 18:25 17.02.2021
6297 Clouds 27 1004 89 10000 2.06 260 17:42 17.02.2021
6298 Clouds 27 1004 89 10000 2.06 260 17:20 17.02.2021
6299 Clouds 27 1005 94 10000 2.06 270 16:46 17.02.2021
6300 Clouds 27 1005 94 10000 1.03 250 16:27 17.02.2021
6301 Clouds 27 1005 89 10000 1.54 270 15:44 17.02.2021
6302 Clouds 28 1005 89 10000 2.06 270 15:26 17.02.2021
6303 Clear 27 1005 89 10000 2.06 260 14:49 17.02.2021
6304 Clear 28 1005 89 10000 2.57 240 14:29 17.02.2021
6305 Clear 28 1005 89 10000 2.06 240 13:48 17.02.2021
6306 Clouds 28 1005 89 10000 2.06 260 13:30 17.02.2021
6307 Clouds 27 1005 89 10000 2.57 270 12:49 17.02.2021
6308 Clouds 27 1005 94 10000 1.54 290 12:24 17.02.2021
6309 Clouds 27 1004 94 10000 3.3 239 11:45 17.02.2021
6310 Clouds 27 1003 89 10000 1.54 330 11:25 17.02.2021
6311 Clouds 27 1003 89 10000 1.54 250 10:49 17.02.2021
6312 Clouds 28 1003 83 10000 1.03 220 10:31 17.02.2021
6313 Clouds 28 1003 78 10000 1.03 230 09:55 17.02.2021
6314 Clouds 27 1003 89 10000 1.03 250 09:30 17.02.2021
6315 Clouds 27 1002 89 10000 1.54 170 08:45 17.02.2021
6316 Clouds 27 1002 83 10000 1.54 200 08:23 17.02.2021
6317 Clouds 27 1003 89 10000 2.06 180 07:34 17.02.2021
6318 Clouds 28 1003 89 9000 2.57 250 06:36 17.02.2021
6319 Clouds 31 1005 74 10000 4.12 270 03:47 17.02.2021
6320 Clouds 30 1006 84 10000 1.54 240 02:30 17.02.2021
6321 Clouds 30 1006 74 6000 5.66 260 01:33 17.02.2021
6322 Clouds 30 1006 84 10000 3.09 250 00:25 17.02.2021
6323 Clouds 28 1005 94 10000 2.06 230 23:38 16.02.2021
6324 Clouds 27 1004 94 10000 3.09 260 22:46 16.02.2021
6325 Clouds 27 1004 94 10000 3.09 280 22:26 16.02.2021
6326 Clouds 27 1004 83 10000 1.54 290 21:59 16.02.2021
6327 Clouds 26 1004 83 10000 2.57 250 21:39 16.02.2021
6328 Clouds 26 1004 83 10000 2.57 250 21:21 16.02.2021
6329 Clouds 27 1004 89 10000 3.09 270 20:47 16.02.2021
6330 Clouds 27 1004 94 10000 3.09 280 20:24 16.02.2021
6331 Clouds 27 1004 94 10000 3.09 280 20:24 16.02.2021
6332 Clouds 27 1004 94 10000 0.51 170 19:48 16.02.2021
6333 Clouds 27 1005 94 10000 2.57 190 19:28 16.02.2021
6334 Clouds 27 1005 94 10000 1.03 230 18:52 16.02.2021
6335 Clouds 27 1004 94 10000 1.03 260 18:26 16.02.2021
6336 Clouds 27 1004 89 10000 2.06 300 17:56 16.02.2021
6337 Clouds 27 1004 94 10000 3.6 350 17:37 16.02.2021
6338 Clouds 27 1004 94 10000 3.6 350 17:19 16.02.2021
6339 Clouds 27 1005 94 10000 2.06 280 16:42 16.02.2021
6340 Clouds 27 1005 94 10000 2.06 280 16:20 16.02.2021
6341 Clouds 27 1007 94 10000 1.03 280 15:36 16.02.2021
6342 Clouds 27 1007 94 10000 1.03 280 15:18 16.02.2021
6343 Clouds 27 1007 89 10000 0.51 230 14:41 16.02.2021
6344 Clouds 27 1007 89 10000 0.51 230 14:23 16.02.2021
6345 Clouds 27 1007 94 10000 2.57 230 13:47 16.02.2021
6346 Clouds 27 1007 83 10000 3.09 240 13:18 16.02.2021
6347 Clouds 27 1006 89 10000 1.54 230 12:42 16.02.2021
6348 Clouds 27 1006 89 10000 1.54 230 12:20 16.02.2021
6349 Clouds 27 1005 89 10000 1.54 250 11:44 16.02.2021
6350 Clouds 27 1005 89 10000 1.54 210 11:22 16.02.2021
6351 Clouds 27 1005 89 10000 2.06 240 10:49 16.02.2021
6352 Clouds 27 1005 83 10000 3.09 230 10:30 16.02.2021
6353 Clouds 27 1005 78 10000 3.6 230 09:55 16.02.2021
6354 Clouds 27 1004 78 10000 4.12 270 09:29 16.02.2021
6355 Clouds 27 1003 83 10000 3.09 270 08:53 16.02.2021
6356 Clouds 27 1003 89 10000 3.6 250 08:32 16.02.2021
6357 Clouds 28 1004 83 10000 4.63 250 07:59 16.02.2021
6358 Clouds 28 1003 83 10000 4.12 240 07:18 16.02.2021
6359 Clouds 31 1006 70 10000 7.2 290 03:21 16.02.2021
6360 Clouds 29 1007 79 10000 4.63 280 00:43 16.02.2021
6361 Clouds 28 1005 83 10000 4.63 270 23:31 15.02.2021
6362 Clouds 28 1005 83 10000 5.14 280 22:52 15.02.2021
6363 Clouds 28 1005 83 10000 5.14 280 22:33 15.02.2021
6364 Clouds 28 1005 83 10000 4.63 280 21:55 15.02.2021
6365 Clouds 27 1004 83 10000 3.6 270 21:36 15.02.2021
6366 Clouds 27 1004 83 10000 3.6 270 21:18 15.02.2021
6367 Clouds 27 1004 89 10000 4.12 270 20:41 15.02.2021
6368 Clouds 27 1004 89 10000 4.12 270 20:19 15.02.2021
6369 Clouds 27 1004 83 10000 4.12 280 19:43 15.02.2021
6370 Clouds 28 1004 83 10000 4.12 280 19:21 15.02.2021
6371 Clouds 28 1005 83 10000 4.63 270 18:42 15.02.2021
6372 Clouds 28 1005 83 10000 4.63 270 18:21 15.02.2021
6373 Clouds 28 1006 83 10000 4.12 280 17:41 15.02.2021
6374 Clouds 28 1006 83 10000 4.12 280 17:21 15.02.2021
6375 Clouds 28 1006 83 10000 4.12 280 16:53 15.02.2021
6376 Clouds 28 1006 83 10000 5.14 280 16:26 15.02.2021
6377 Clouds 28 1006 83 10000 3.6 280 15:49 15.02.2021
6378 Clouds 28 1006 83 10000 4.12 290 15:22 15.02.2021
6379 Clouds 28 1006 83 10000 3.6 290 14:49 15.02.2021
6380 Clouds 27 1006 83 10000 3.6 290 14:22 15.02.2021
6381 Clear 27 1006 78 10000 3.09 290 13:58 15.02.2021
6382 Clear 27 1006 89 10000 4.63 280 13:37 15.02.2021
6383 Clear 27 1006 89 10000 4.63 280 13:18 15.02.2021
6384 Clouds 27 1005 89 10000 5.66 290 12:38 15.02.2021
6385 Clouds 27 1005 89 10000 5.66 290 12:18 15.02.2021
6386 Clouds 28 1004 83 10000 6.17 320 11:40 15.02.2021
6387 Clouds 28 1004 83 10000 6.17 320 11:18 15.02.2021
6388 Clouds 28 1004 83 10000 6.17 320 10:45 15.02.2021
6389 Clouds 28 1004 83 10000 5.66 320 10:21 15.02.2021
6390 Clouds 28 1004 83 10000 6.69 320 09:52 15.02.2021
6391 Clouds 28 1003 83 10000 8.23 320 09:32 15.02.2021
6392 Clouds 28 1004 89 10000 3.09 220 08:37 15.02.2021
6393 Clouds 30 1003 74 10000 7.2 300 07:38 15.02.2021
6394 Clouds 31 1003 79 10000 6.69 310 06:45 15.02.2021
6395 Clouds 31 1005 70 10000 5.14 300 05:37 15.02.2021
6396 Clouds 31 1006 74 10000 2.06 280 02:22 15.02.2021
6397 Clouds 27 1006 89 8000 3.88 275 00:33 15.02.2021
6398 Clouds 27 1005 89 10000 0.51 230 23:33 14.02.2021
6399 Clouds 27 1005 89 10000 1.54 240 22:52 14.02.2021
6400 Clouds 27 1005 89 10000 1.54 250 22:34 14.02.2021
6401 Clouds 27 1005 83 10000 3.09 260 21:58 14.02.2021
6402 Clouds 27 1005 89 10000 2.57 270 21:37 14.02.2021
6403 Clouds 27 1005 89 10000 2.57 270 21:18 14.02.2021
6404 Clouds 27 1005 83 10000 3.09 290 20:39 14.02.2021
6405 Clouds 27 1005 83 10000 3.09 290 20:20 14.02.2021
6406 Clouds 27 1005 83 10000 3.6 280 19:40 14.02.2021
6407 Clouds 27 1005 94 10000 3.6 270 18:49 14.02.2021
6408 Clouds 28 1005 83 10000 5.14 280 18:29 14.02.2021
6409 Clouds 28 1005 83 10000 3.6 270 17:49 14.02.2021
6410 Clouds 28 1006 83 10000 3.6 280 17:30 14.02.2021
6411 Clouds 28 1006 83 10000 4.12 280 16:43 14.02.2021
6412 Clouds 28 1006 83 10000 4.12 280 16:24 14.02.2021
6413 Clouds 28 1006 83 10000 4.12 280 15:46 14.02.2021
6414 Clouds 27 1006 83 10000 3.6 280 15:26 14.02.2021
6415 Clouds 28 1006 83 10000 3.6 280 14:42 14.02.2021
6416 Clouds 28 1006 83 10000 3.6 280 14:20 14.02.2021
6417 Clouds 27 1006 83 10000 3.6 280 13:41 14.02.2021
6418 Clouds 27 1006 83 10000 3.6 280 13:23 14.02.2021
6419 Clouds 28 1005 89 10000 2.57 280 12:24 14.02.2021
6420 Clouds 28 1005 89 10000 3.09 290 11:52 14.02.2021
6421 Clouds 28 1004 89 10000 3.09 290 11:28 14.02.2021
6422 Clouds 28 1004 83 10000 3.09 300 10:59 14.02.2021
6423 Clouds 29 1004 83 10000 3.09 290 10:23 14.02.2021
6424 Clouds 29 1004 79 10000 3.6 270 09:40 14.02.2021
6425 Clouds 29 1004 79 10000 3.6 270 09:21 14.02.2021
6426 Clouds 28 1004 89 10000 3.6 260 08:56 14.02.2021
6427 Clouds 27 1004 100 4000 4.63 210 07:58 14.02.2021
6428 Clouds 28 1005 83 10000 6.69 250 06:54 14.02.2021
6429 Clouds 28 1006 89 8000 3.09 270 05:43 14.02.2021
6430 Clouds 29 1007 79 10000 4.12 270 03:51 14.02.2021
6431 Clouds 30 1007 74 10000 3.6 260 02:29 14.02.2021
6432 Clouds 28 1007 78 10000 3.09 250 00:57 14.02.2021
6433 Clouds 27 1007 83 10000 2.57 260 00:37 14.02.2021
6434 Clouds 26 1007 89 10000 3.09 260 23:44 13.02.2021
6435 Clouds 25 1006 89 10000 2.57 260 23:25 13.02.2021
6436 Clouds 25 1006 94 10000 2.06 270 22:49 13.02.2021
6437 Clouds 25 1006 94 10000 1.54 280 22:21 13.02.2021
6438 Clouds 25 1006 94 10000 1.54 250 21:49 13.02.2021
6439 Clouds 25 1006 88 10000 1.54 260 21:26 13.02.2021
6440 Clouds 25 1006 94 10000 2.06 220 20:43 13.02.2021
6441 Clouds 25 1006 94 10000 1.54 260 20:22 13.02.2021
6442 Clouds 25 1006 89 10000 1.54 200 19:47 13.02.2021
6443 Clouds 25 1006 94 10000 2.06 210 19:23 13.02.2021
6444 Clouds 25 1006 100 10000 2.53 189 18:49 13.02.2021
6445 Clouds 25 1006 100 10000 2.4 215 18:24 13.02.2021
6446 Clouds 25 1006 94 10000 1.54 190 17:43 13.02.2021
6447 Clouds 25 1007 94 10000 1.03 20 17:23 13.02.2021
6448 Clouds 25 1007 94 10000 1.54 10 16:48 13.02.2021
6449 Clouds 25 1007 94 10000 1.54 320 16:30 13.02.2021
6450 Clouds 25 1008 94 10000 2.52 256 15:42 13.02.2021
6451 Clouds 25 1008 94 10000 2.69 224 15:24 13.02.2021
6452 Clouds 25 1008 94 10000 0.51 200 14:33 13.02.2021
6453 Clouds 25 1007 94 10000 3.09 200 13:48 13.02.2021
6454 Clouds 25 1007 94 10000 2.57 190 13:26 13.02.2021
6455 Clouds 25 1006 94 10000 5.14 180 12:50 13.02.2021
6456 Clouds 25 1006 94 10000 5.14 180 12:20 13.02.2021
6457 Clouds 25 1007 94 10000 6.17 170 11:46 13.02.2021
6458 Clouds 25 1007 94 10000 6.17 170 11:20 13.02.2021
6459 Clouds 26 1007 94 9000 6.69 160 10:47 13.02.2021
6460 Clouds 28 1006 89 10000 3.09 230 10:27 13.02.2021
6461 Clouds 28 1005 89 10000 4.63 240 09:59 13.02.2021
6462 Clouds 28 1005 83 10000 4.12 250 09:41 13.02.2021
6463 Clouds 28 1005 83 10000 4.12 250 09:20 13.02.2021
6464 Clouds 28 1004 89 10000 4.63 270 08:40 13.02.2021
6465 Clouds 28 1004 89 10000 4.63 270 07:54 13.02.2021
6466 Clouds 27 1005 83 10000 6.17 320 06:42 13.02.2021
6467 Clouds 27 1005 83 10000 6.17 320 06:19 13.02.2021
6468 Clouds 31 1007 84 10000 7.2 290 04:19 13.02.2021
6469 Clouds 30 1008 74 10000 3.09 280 01:54 13.02.2021
6470 Clouds 30 1008 79 10000 3.6 270 00:51 13.02.2021
6471 Clouds 28 1007 83 10000 2.57 270 23:55 12.02.2021
6472 Clouds 28 1007 83 10000 3.09 270 23:31 12.02.2021
6473 Clouds 27 1007 89 10000 3.09 270 22:59 12.02.2021
6474 Clouds 27 1007 83 10000 2.57 260 22:30 12.02.2021
6475 Clouds 27 1007 83 10000 2.57 280 21:53 12.02.2021
6476 Clouds 27 1006 89 10000 3.6 270 21:34 12.02.2021
6477 Clouds 28 1006 78 10000 3.09 280 20:57 12.02.2021
6478 Clouds 28 1006 78 10000 4.63 270 20:38 12.02.2021
6479 Clouds 28 1006 78 10000 4.63 270 20:19 12.02.2021
6480 Clouds 27 1006 89 10000 3.6 280 19:47 12.02.2021
6481 Clouds 27 1006 89 10000 3.6 280 19:25 12.02.2021
6482 Clouds 28 1007 83 10000 3.09 270 18:30 12.02.2021
6483 Clouds 27 1007 89 10000 3.09 280 17:49 12.02.2021
6484 Clouds 27 1007 89 10000 3.09 280 17:29 12.02.2021
6485 Clouds 28 1008 83 10000 2.06 270 16:39 12.02.2021
6486 Clouds 28 1008 83 10000 2.57 270 15:47 12.02.2021
6487 Clouds 28 1008 83 10000 3.09 270 15:21 12.02.2021
6488 Clouds 28 1008 83 10000 3.09 280 14:53 12.02.2021
6489 Clouds 28 1008 83 10000 2.57 280 14:30 12.02.2021
6490 Clouds 28 1008 83 10000 2.57 270 13:42 12.02.2021
6491 Clouds 28 1008 83 10000 2.57 270 13:23 12.02.2021
6492 Clouds 28 1008 83 10000 2.57 280 12:50 12.02.2021
6493 Clouds 28 1007 83 10000 3.09 280 12:31 12.02.2021
6494 Clouds 28 1007 83 10000 2.57 270 11:46 12.02.2021
6495 Clouds 29 1007 79 10000 3.6 260 11:20 12.02.2021
6496 Clouds 29 1006 79 10000 3.09 270 10:47 12.02.2021
6497 Clouds 29 1006 79 10000 4.12 270 09:53 12.02.2021
6498 Clouds 29 1006 79 10000 4.63 270 09:29 12.02.2021
6499 Clouds 29 1006 79 10000 4.63 270 08:57 12.02.2021
6500 Clouds 29 1006 79 10000 5.14 280 08:39 12.02.2021
6501 Clouds 29 1006 79 10000 5.14 280 08:18 12.02.2021
6502 Clouds 29 1006 79 10000 5.66 280 07:50 12.02.2021
6503 Clouds 29 1006 79 10000 6.17 280 06:57 12.02.2021
6504 Clouds 30 1006 74 10000 8.75 290 05:49 12.02.2021
6505 Clouds 33 1007 66 10000 8.75 290 05:24 12.02.2021
6506 Clouds 31 1009 74 10000 5.66 290 01:56 12.02.2021
6507 Clouds 29 1008 79 10000 4.12 280 23:45 11.02.2021
6508 Clouds 28 1007 83 10000 3.09 270 23:22 11.02.2021
6509 Clouds 27 1007 89 10000 3.6 280 22:58 11.02.2021
6510 Clouds 27 1007 89 10000 2.57 270 22:39 11.02.2021
6511 Clouds 27 1007 89 10000 2.57 270 22:21 11.02.2021
6512 Clouds 27 1007 89 10000 2.57 270 21:39 11.02.2021
6513 Clouds 27 1007 89 10000 2.57 270 21:19 11.02.2021
6514 Clouds 27 1006 89 10000 2.57 270 20:46 11.02.2021
6515 Clouds 27 1006 89 10000 2.57 270 20:22 11.02.2021
6516 Clouds 27 1006 89 10000 2.57 270 19:49 11.02.2021
6517 Clouds 27 1006 89 10000 2.57 270 19:31 11.02.2021
6518 Clouds 27 1007 83 10000 2.57 280 18:58 11.02.2021
6519 Clouds 28 1007 83 10000 2.57 270 18:30 11.02.2021
6520 Clouds 27 1007 83 10000 3.09 280 17:55 11.02.2021
6521 Clouds 27 1007 83 10000 2.57 270 17:22 11.02.2021
6522 Clouds 27 1008 83 10000 3.09 270 16:59 11.02.2021
6523 Clouds 27 1008 83 10000 3.09 280 16:41 11.02.2021
6524 Clouds 27 1008 83 10000 3.09 280 16:21 11.02.2021
6525 Clouds 28 1008 83 10000 2.57 280 15:43 11.02.2021
6526 Clouds 28 1008 83 10000 2.57 270 15:25 11.02.2021
6527 Clouds 28 1008 83 10000 2.06 270 14:47 11.02.2021
6528 Clouds 28 1008 83 10000 2.57 270 14:29 11.02.2021
6529 Clouds 28 1007 83 10000 2.57 270 13:41 11.02.2021
6530 Clouds 28 1007 83 10000 2.57 270 13:19 11.02.2021
6531 Clouds 28 1007 83 10000 3.09 270 12:51 11.02.2021
6532 Clouds 28 1007 83 10000 3.09 270 12:28 11.02.2021
6533 Clouds 28 1006 74 10000 4.63 280 11:46 11.02.2021
6534 Clouds 28 1006 74 10000 4.63 280 11:22 11.02.2021
6535 Clouds 29 1006 79 10000 5.14 280 10:45 11.02.2021
6536 Clouds 29 1006 79 10000 5.14 280 10:45 11.02.2021
6537 Clouds 29 1006 79 10000 5.14 290 10:26 11.02.2021
6538 Clouds 29 1005 79 10000 5.66 290 09:53 11.02.2021
6539 Clouds 30 1006 74 10000 6.17 290 09:22 11.02.2021
6540 Clouds 31 1005 74 10000 5.66 290 08:53 11.02.2021
6541 Clouds 31 1005 74 10000 6.69 290 08:24 11.02.2021
6542 Clouds 32 1006 70 10000 6.17 300 07:38 11.02.2021
6543 Clouds 31 1006 74 10000 6.17 300 06:41 11.02.2021
6544 Clouds 31 1007 66 10000 5.14 300 05:33 11.02.2021
6545 Clouds 31 1008 74 10000 5.66 300 02:29 11.02.2021
6546 Clouds 29 1008 79 10000 4.12 290 00:54 11.02.2021
6547 Clouds 29 1008 79 10000 3.6 290 00:21 11.02.2021
6548 Clouds 28 1007 83 10000 4.12 290 23:44 10.02.2021
6549 Clouds 27 1007 83 10000 4.63 300 22:53 10.02.2021
6550 Clouds 27 1006 83 10000 4.12 290 22:31 10.02.2021
6551 Clouds 27 1006 83 10000 4.63 290 21:59 10.02.2021
6552 Clouds 27 1006 83 10000 4.63 290 21:38 10.02.2021
6553 Clouds 27 1006 83 10000 4.63 290 21:19 10.02.2021
6554 Clouds 26 1006 94 10000 3.6 280 20:41 10.02.2021
6555 Clouds 26 1006 94 10000 3.6 280 20:22 10.02.2021
6556 Clouds 26 1006 94 10000 2.57 270 19:46 10.02.2021
6557 Clouds 26 1006 94 10000 2.57 270 19:25 10.02.2021
6558 Clouds 26 1006 94 10000 1.54 300 18:44 10.02.2021
6559 Clouds 27 1006 94 10000 1.54 290 18:23 10.02.2021
6560 Clouds 27 1006 94 10000 0.51 290 17:57 10.02.2021
6561 Clouds 27 1007 89 10000 1.54 260 17:24 10.02.2021
6562 Clouds 26 1007 89 10000 1.54 250 16:53 10.02.2021
6563 Clouds 27 1007 89 10000 1.54 280 16:31 10.02.2021
6564 Clouds 26 1007 89 10000 1.03 250 15:59 10.02.2021
6565 Clouds 27 1008 89 10000 1.03 300 15:24 10.02.2021
6566 Clouds 26 1007 89 10000 1.03 310 14:52 10.02.2021
6567 Clouds 27 1007 89 10000 1.54 260 14:31 10.02.2021
6568 Clouds 27 1007 83 10000 3.6 270 13:53 10.02.2021
6569 Clouds 27 1007 83 10000 4.12 300 13:29 10.02.2021
6570 Clouds 28 1007 89 10000 1.54 330 12:52 10.02.2021
6571 Clouds 28 1007 83 10000 1.54 340 12:30 10.02.2021
6572 Clouds 28 1007 83 10000 1.54 340 12:30 10.02.2021
6573 Clouds 28 1006 83 10000 1.54 350 11:56 10.02.2021
6574 Clouds 28 1006 83 10000 1.54 320 11:37 10.02.2021
6575 Clouds 28 1006 83 10000 1.54 320 11:19 10.02.2021
6576 Clouds 29 1005 79 10000 3.6 300 10:23 10.02.2021
6577 Clouds 29 1004 79 10000 3.6 290 09:53 10.02.2021
6578 Rain 30 1004 79 10000 4.63 290 09:30 10.02.2021
6579 Clouds 30 1004 79 10000 5.66 290 08:52 10.02.2021
6580 Clouds 30 1004 79 10000 5.14 300 08:32 10.02.2021
6581 Clouds 30 1005 70 10000 6.17 300 07:31 10.02.2021
6582 Clouds 30 1005 74 10000 5.14 310 06:21 10.02.2021
6583 Clouds 30 1007 74 10000 4.63 300 01:21 10.02.2021
6584 Clouds 28 1006 89 10000 2.57 330 23:49 09.02.2021
6585 Clouds 28 1006 83 10000 2.06 320 23:30 09.02.2021
6586 Clouds 27 1005 89 10000 2.57 310 22:45 09.02.2021
6587 Clouds 27 1005 89 10000 2.57 320 22:23 09.02.2021
6588 Clouds 27 1005 89 10000 3.09 310 21:48 09.02.2021
6589 Clouds 27 1005 89 10000 3.6 300 21:21 09.02.2021
6590 Clouds 27 1005 89 10000 3.6 310 20:44 09.02.2021
6591 Clouds 26 1005 94 10000 2.06 310 20:25 09.02.2021
6592 Clouds 26 1005 94 10000 2.06 290 19:44 09.02.2021
6593 Clouds 26 1005 94 10000 1.54 290 19:23 09.02.2021
6594 Clouds 26 1005 94 10000 3.91 281 18:49 09.02.2021
6595 Clouds 26 1005 94 10000 0.51 290 18:30 09.02.2021
6596 Clouds 26 1005 94 10000 1.03 290 17:50 09.02.2021
6597 Clouds 26 1005 94 10000 1.03 290 17:50 09.02.2021
6598 Clouds 27 1005 89 10000 1.03 290 17:27 09.02.2021
6599 Clouds 26 1006 89 10000 1.03 280 16:54 09.02.2021
6600 Clouds 26 1006 89 10000 1.03 240 16:20 09.02.2021
6601 Clear 27 1006 89 10000 1.54 240 15:58 09.02.2021
6602 Clouds 27 1006 89 10000 2.06 240 15:39 09.02.2021
6603 Clouds 27 1006 89 10000 2.06 240 15:20 09.02.2021
6604 Clouds 27 1005 83 10000 1.54 230 14:42 09.02.2021
6605 Clouds 27 1005 83 10000 1.54 230 14:21 09.02.2021
6606 Clouds 27 1005 83 10000 3.09 250 13:41 09.02.2021
6607 Clouds 27 1005 83 10000 3.09 250 13:20 09.02.2021
6608 Clouds 27 1005 83 10000 3.09 250 13:20 09.02.2021
6609 Clouds 27 1005 83 10000 3.6 260 12:43 09.02.2021
6610 Clouds 27 1004 78 10000 3.09 250 12:24 09.02.2021
6611 Clouds 28 1004 74 10000 4.63 250 11:44 09.02.2021
6612 Clouds 28 1004 78 10000 3.6 270 11:21 09.02.2021
6613 Clouds 28 1003 74 10000 5.14 270 10:57 09.02.2021
6614 Clouds 29 1003 70 10000 4.63 280 10:21 09.02.2021
6615 Clouds 29 1003 79 10000 5.14 290 09:52 09.02.2021
6616 Clouds 30 1002 70 10000 5.66 290 09:26 09.02.2021
6617 Clouds 29 1002 79 10000 5.66 310 08:56 09.02.2021
6618 Clouds 30 1002 70 10000 5.66 310 08:29 09.02.2021
6619 Clouds 30 1003 74 10000 4.63 320 07:41 09.02.2021
6620 Clouds 30 1003 70 10000 4.63 340 05:34 09.02.2021
6621 Clouds 30 1004 66 10000 4.12 310 03:48 09.02.2021
6622 Clear 28 1005 78 10000 2.57 240 01:52 09.02.2021
6623 Clouds 25 1005 88 10000 2.57 190 00:31 09.02.2021
6624 Clouds 24 1005 94 10000 2.57 230 23:40 08.02.2021
6625 Clouds 24 1005 94 10000 2.57 230 23:18 08.02.2021
6626 Clouds 24 1005 94 10000 3.6 260 22:42 08.02.2021